<?xml version='1.0' encoding='UTF-8'?><gpx version="1.1" creator="JPX - https://github.com/jenetics/jpx" xmlns="http://www.topografix.com/GPX/1/1"><trk><trkseg><trkpt lat="42.1500279" lon="14.5851602"><ele>204.99999999999997</ele><time>2026-04-29T10:32:04.472Z</time></trkpt><trkpt lat="42.1500971" lon="14.5851154"><ele>205.0</ele><time>2026-04-29T10:32:12.416Z</time></trkpt><trkpt lat="42.1501976" lon="14.5851063"><ele>205.0</ele><time>2026-04-29T10:32:22.895Z</time></trkpt><trkpt lat="42.150181" lon="14.5852279"><ele>205.0</ele><time>2026-04-29T10:32:24.895Z</time></trkpt><trkpt lat="42.1502851" lon="14.5852431"><ele>204.99999999999997</ele><time>2026-04-29T10:32:53.895Z</time></trkpt><trkpt lat="42.1502159" lon="14.5852284"><ele>205.0</ele><time>2026-04-29T10:33:04.896Z</time></trkpt><trkpt lat="42.150111" lon="14.5852335"><ele>204.99999999999997</ele><time>2026-04-29T10:33:22.895Z</time></trkpt><trkpt lat="42.1500153" lon="14.5852324"><ele>205.0</ele><time>2026-04-29T10:33:25.896Z</time></trkpt><trkpt lat="42.1499191" lon="14.5852293"><ele>205.0</ele><time>2026-04-29T10:33:27.895Z</time></trkpt><trkpt lat="42.1498475" lon="14.5852284"><ele>205.0</ele><time>2026-04-29T10:33:29.896Z</time></trkpt><trkpt lat="42.1497852" lon="14.5852048"><ele>204.99999999999997</ele><time>2026-04-29T10:33:31.895Z</time></trkpt><trkpt lat="42.1497099" lon="14.5851563"><ele>205.0</ele><time>2026-04-29T10:33:33.896Z</time></trkpt><trkpt lat="42.1496224" lon="14.5851174"><ele>203.85714285714286</ele><time>2026-04-29T10:33:35.895Z</time></trkpt><trkpt lat="42.1495521" lon="14.5850949"><ele>202.7142857142857</ele><time>2026-04-29T10:33:37.896Z</time></trkpt><trkpt lat="42.1494782" lon="14.5850824"><ele>201.57142857142856</ele><time>2026-04-29T10:33:39.896Z</time></trkpt><trkpt lat="42.1493967" lon="14.5850944"><ele>200.42857142857144</ele><time>2026-04-29T10:33:42.896Z</time></trkpt><trkpt lat="42.1493471" lon="14.5851491"><ele>199.28571428571428</ele><time>2026-04-29T10:33:46.895Z</time></trkpt><trkpt lat="42.1493469" lon="14.5852421"><ele>198.14285714285714</ele><time>2026-04-29T10:33:51.896Z</time></trkpt><trkpt lat="42.1493466" lon="14.5853414"><ele>197.0</ele><time>2026-04-29T10:33:55.895Z</time></trkpt><trkpt lat="42.1493797" lon="14.585437"><ele>196.33333333333334</ele><time>2026-04-29T10:33:58.896Z</time></trkpt><trkpt lat="42.149445" lon="14.5855167"><ele>195.66666666666669</ele><time>2026-04-29T10:34:01.896Z</time></trkpt><trkpt lat="42.1494918" lon="14.5855932"><ele>195.0</ele><time>2026-04-29T10:34:04.895Z</time></trkpt><trkpt lat="42.1495544" lon="14.5856813"><ele>194.33333333333331</ele><time>2026-04-29T10:34:07.896Z</time></trkpt><trkpt lat="42.1496006" lon="14.5857405"><ele>193.66666666666666</ele><time>2026-04-29T10:34:09.895Z</time></trkpt><trkpt lat="42.1496273" lon="14.5858317"><ele>193.0</ele><time>2026-04-29T10:34:11.896Z</time></trkpt><trkpt lat="42.1496806" lon="14.585897"><ele>193.0</ele><time>2026-04-29T10:34:13.896Z</time></trkpt><trkpt lat="42.1497635" lon="14.5859471"><ele>193.0</ele><time>2026-04-29T10:34:15.896Z</time></trkpt><trkpt lat="42.1498598" lon="14.5859875"><ele>193.0</ele><time>2026-04-29T10:34:17.896Z</time></trkpt><trkpt lat="42.1499686" lon="14.5860418"><ele>193.0</ele><time>2026-04-29T10:34:19.896Z</time></trkpt><trkpt lat="42.1500296" lon="14.5860696"><ele>193.0</ele><time>2026-04-29T10:34:20.896Z</time></trkpt><trkpt lat="42.1501491" lon="14.5861138"><ele>193.2857142857143</ele><time>2026-04-29T10:34:22.896Z</time></trkpt><trkpt lat="42.1502147" lon="14.5861341"><ele>193.57142857142858</ele><time>2026-04-29T10:34:23.896Z</time></trkpt><trkpt lat="42.1502854" lon="14.5861654"><ele>193.85714285714286</ele><time>2026-04-29T10:34:24.896Z</time></trkpt><trkpt lat="42.1503497" lon="14.5861939"><ele>194.14285714285717</ele><time>2026-04-29T10:34:25.896Z</time></trkpt><trkpt lat="42.1504189" lon="14.5862265"><ele>194.42857142857142</ele><time>2026-04-29T10:34:26.896Z</time></trkpt><trkpt lat="42.1504882" lon="14.5862581"><ele>194.71428571428572</ele><time>2026-04-29T10:34:27.895Z</time></trkpt><trkpt lat="42.1505595" lon="14.5862995"><ele>195.0</ele><time>2026-04-29T10:34:28.895Z</time></trkpt><trkpt lat="42.1506228" lon="14.5863594"><ele>193.85714285714286</ele><time>2026-04-29T10:34:29.895Z</time></trkpt><trkpt lat="42.1506824" lon="14.586428"><ele>192.71428571428572</ele><time>2026-04-29T10:34:30.896Z</time></trkpt><trkpt lat="42.1507352" lon="14.586497"><ele>191.57142857142856</ele><time>2026-04-29T10:34:31.895Z</time></trkpt><trkpt lat="42.1507769" lon="14.5865671"><ele>190.42857142857144</ele><time>2026-04-29T10:34:32.896Z</time></trkpt><trkpt lat="42.1508056" lon="14.5866433"><ele>189.2857142857143</ele><time>2026-04-29T10:34:33.896Z</time></trkpt><trkpt lat="42.1508312" lon="14.5867264"><ele>188.14285714285714</ele><time>2026-04-29T10:34:34.896Z</time></trkpt><trkpt lat="42.1508527" lon="14.5868206"><ele>187.0</ele><time>2026-04-29T10:34:35.896Z</time></trkpt><trkpt lat="42.1508687" lon="14.5869219"><ele>186.0</ele><time>2026-04-29T10:34:36.895Z</time></trkpt><trkpt lat="42.1508926" lon="14.5870231"><ele>185.0</ele><time>2026-04-29T10:34:37.895Z</time></trkpt><trkpt lat="42.1509202" lon="14.5871226"><ele>184.0</ele><time>2026-04-29T10:34:38.896Z</time></trkpt><trkpt lat="42.1509496" lon="14.5872232"><ele>183.0</ele><time>2026-04-29T10:34:39.896Z</time></trkpt><trkpt lat="42.1509758" lon="14.5873264"><ele>182.0</ele><time>2026-04-29T10:34:40.895Z</time></trkpt><trkpt lat="42.1510061" lon="14.5874351"><ele>181.0</ele><time>2026-04-29T10:34:41.895Z</time></trkpt><trkpt lat="42.1510388" lon="14.5875478"><ele>181.0</ele><time>2026-04-29T10:34:42.896Z</time></trkpt><trkpt lat="42.1510659" lon="14.5876598"><ele>181.0</ele><time>2026-04-29T10:34:43.896Z</time></trkpt><trkpt lat="42.1510926" lon="14.5877709"><ele>181.0</ele><time>2026-04-29T10:34:44.896Z</time></trkpt><trkpt lat="42.1511228" lon="14.5878806"><ele>181.0</ele><time>2026-04-29T10:34:45.895Z</time></trkpt><trkpt lat="42.1511508" lon="14.5879961"><ele>181.0</ele><time>2026-04-29T10:34:46.896Z</time></trkpt><trkpt lat="42.1511829" lon="14.5881045"><ele>181.0</ele><time>2026-04-29T10:34:47.895Z</time></trkpt><trkpt lat="42.1512138" lon="14.5882116"><ele>180.33333333333334</ele><time>2026-04-29T10:34:48.896Z</time></trkpt><trkpt lat="42.1512503" lon="14.5883183"><ele>179.66666666666669</ele><time>2026-04-29T10:34:49.896Z</time></trkpt><trkpt lat="42.1512871" lon="14.5884239"><ele>179.0</ele><time>2026-04-29T10:34:50.896Z</time></trkpt><trkpt lat="42.151325" lon="14.5885317"><ele>178.33333333333334</ele><time>2026-04-29T10:34:51.896Z</time></trkpt><trkpt lat="42.1513607" lon="14.5886426"><ele>177.66666666666666</ele><time>2026-04-29T10:34:52.896Z</time></trkpt><trkpt lat="42.1513947" lon="14.5887557"><ele>177.0</ele><time>2026-04-29T10:34:53.896Z</time></trkpt><trkpt lat="42.1514258" lon="14.5888701"><ele>176.33333333333334</ele><time>2026-04-29T10:34:54.896Z</time></trkpt><trkpt lat="42.1514584" lon="14.5889823"><ele>175.66666666666666</ele><time>2026-04-29T10:34:55.896Z</time></trkpt><trkpt lat="42.1514928" lon="14.5890929"><ele>175.0</ele><time>2026-04-29T10:34:56.896Z</time></trkpt><trkpt lat="42.1515266" lon="14.5892028"><ele>174.33333333333331</ele><time>2026-04-29T10:34:57.896Z</time></trkpt><trkpt lat="42.1515586" lon="14.5893127"><ele>173.66666666666666</ele><time>2026-04-29T10:34:58.896Z</time></trkpt><trkpt lat="42.151589" lon="14.5894215"><ele>173.0</ele><time>2026-04-29T10:34:59.896Z</time></trkpt><trkpt lat="42.1516175" lon="14.5895297"><ele>172.5</ele><time>2026-04-29T10:35:00.896Z</time></trkpt><trkpt lat="42.1516469" lon="14.5896379"><ele>172.0</ele><time>2026-04-29T10:35:01.896Z</time></trkpt><trkpt lat="42.1516768" lon="14.5897446"><ele>171.5</ele><time>2026-04-29T10:35:02.896Z</time></trkpt><trkpt lat="42.151707" lon="14.5898472"><ele>171.0</ele><time>2026-04-29T10:35:03.896Z</time></trkpt><trkpt lat="42.1517383" lon="14.5899501"><ele>170.5</ele><time>2026-04-29T10:35:04.896Z</time></trkpt><trkpt lat="42.1517686" lon="14.5900532"><ele>170.0</ele><time>2026-04-29T10:35:05.896Z</time></trkpt><trkpt lat="42.1517974" lon="14.5901541"><ele>170.0</ele><time>2026-04-29T10:35:06.896Z</time></trkpt><trkpt lat="42.1518281" lon="14.5902568"><ele>170.0</ele><time>2026-04-29T10:35:07.896Z</time></trkpt><trkpt lat="42.1518599" lon="14.5903585"><ele>170.0</ele><time>2026-04-29T10:35:08.896Z</time></trkpt><trkpt lat="42.1518893" lon="14.5904602"><ele>170.0</ele><time>2026-04-29T10:35:09.896Z</time></trkpt><trkpt lat="42.151918" lon="14.590563"><ele>170.0</ele><time>2026-04-29T10:35:10.895Z</time></trkpt><trkpt lat="42.1519449" lon="14.5906636"><ele>170.0</ele><time>2026-04-29T10:35:11.896Z</time></trkpt><trkpt lat="42.1519685" lon="14.5907637"><ele>169.5</ele><time>2026-04-29T10:35:12.896Z</time></trkpt><trkpt lat="42.1519911" lon="14.5908688"><ele>169.0</ele><time>2026-04-29T10:35:13.896Z</time></trkpt><trkpt lat="42.1520111" lon="14.590978"><ele>168.5</ele><time>2026-04-29T10:35:14.895Z</time></trkpt><trkpt lat="42.1520248" lon="14.5910856"><ele>168.0</ele><time>2026-04-29T10:35:15.895Z</time></trkpt><trkpt lat="42.1520302" lon="14.5911881"><ele>167.5</ele><time>2026-04-29T10:35:16.895Z</time></trkpt><trkpt lat="42.1520368" lon="14.5912792"><ele>167.0</ele><time>2026-04-29T10:35:17.896Z</time></trkpt><trkpt lat="42.1520814" lon="14.5914137"><ele>167.0</ele><time>2026-04-29T10:35:19.896Z</time></trkpt><trkpt lat="42.1521816" lon="14.5914681"><ele>167.0</ele><time>2026-04-29T10:35:21.896Z</time></trkpt><trkpt lat="42.1522675" lon="14.5914036"><ele>167.0</ele><time>2026-04-29T10:35:23.896Z</time></trkpt><trkpt lat="42.1523277" lon="14.5912892"><ele>167.0</ele><time>2026-04-29T10:35:25.896Z</time></trkpt><trkpt lat="42.1523825" lon="14.5911865"><ele>167.0</ele><time>2026-04-29T10:35:27.896Z</time></trkpt><trkpt lat="42.1524432" lon="14.5911257"><ele>167.0</ele><time>2026-04-29T10:35:29.896Z</time></trkpt><trkpt lat="42.1525027" lon="14.5910778"><ele>167.0</ele><time>2026-04-29T10:35:31.896Z</time></trkpt><trkpt lat="42.1525718" lon="14.5910292"><ele>167.0</ele><time>2026-04-29T10:35:33.896Z</time></trkpt><trkpt lat="42.1526518" lon="14.5909699"><ele>167.0</ele><time>2026-04-29T10:35:35.895Z</time></trkpt><trkpt lat="42.1527316" lon="14.590911"><ele>167.0</ele><time>2026-04-29T10:35:37.895Z</time></trkpt><trkpt lat="42.1528178" lon="14.5908315"><ele>167.0</ele><time>2026-04-29T10:35:39.896Z</time></trkpt><trkpt lat="42.1529072" lon="14.5907409"><ele>167.0</ele><time>2026-04-29T10:35:41.895Z</time></trkpt><trkpt lat="42.152991" lon="14.5906341"><ele>167.0</ele><time>2026-04-29T10:35:43.896Z</time></trkpt><trkpt lat="42.1530777" lon="14.5905306"><ele>167.0</ele><time>2026-04-29T10:35:45.896Z</time></trkpt><trkpt lat="42.1531619" lon="14.5904413"><ele>167.0</ele><time>2026-04-29T10:35:47.895Z</time></trkpt><trkpt lat="42.1532449" lon="14.590367"><ele>167.0</ele><time>2026-04-29T10:35:49.895Z</time></trkpt><trkpt lat="42.1533133" lon="14.5902997"><ele>167.0</ele><time>2026-04-29T10:35:51.895Z</time></trkpt><trkpt lat="42.1533781" lon="14.5902271"><ele>167.0</ele><time>2026-04-29T10:35:53.896Z</time></trkpt><trkpt lat="42.1534496" lon="14.5901426"><ele>167.0</ele><time>2026-04-29T10:35:55.895Z</time></trkpt><trkpt lat="42.153519" lon="14.5900531"><ele>167.0</ele><time>2026-04-29T10:35:57.896Z</time></trkpt><trkpt lat="42.1535858" lon="14.5899615"><ele>167.0</ele><time>2026-04-29T10:35:59.896Z</time></trkpt><trkpt lat="42.1536508" lon="14.5898609"><ele>167.0</ele><time>2026-04-29T10:36:01.896Z</time></trkpt><trkpt lat="42.1537128" lon="14.5897515"><ele>167.0</ele><time>2026-04-29T10:36:03.896Z</time></trkpt><trkpt lat="42.153771" lon="14.5896437"><ele>167.0</ele><time>2026-04-29T10:36:05.896Z</time></trkpt><trkpt lat="42.1538244" lon="14.5895335"><ele>167.0</ele><time>2026-04-29T10:36:07.896Z</time></trkpt><trkpt lat="42.1538762" lon="14.5894286"><ele>167.0</ele><time>2026-04-29T10:36:09.895Z</time></trkpt><trkpt lat="42.15392" lon="14.5893165"><ele>167.0</ele><time>2026-04-29T10:36:11.895Z</time></trkpt><trkpt lat="42.1539652" lon="14.5892114"><ele>167.0</ele><time>2026-04-29T10:36:13.895Z</time></trkpt><trkpt lat="42.1540047" lon="14.589096"><ele>167.0</ele><time>2026-04-29T10:36:15.895Z</time></trkpt><trkpt lat="42.1540312" lon="14.5889756"><ele>167.0</ele><time>2026-04-29T10:36:17.896Z</time></trkpt><trkpt lat="42.1540558" lon="14.5888692"><ele>167.0</ele><time>2026-04-29T10:36:19.896Z</time></trkpt><trkpt lat="42.1540696" lon="14.5887583"><ele>167.0</ele><time>2026-04-29T10:36:21.896Z</time></trkpt><trkpt lat="42.1540897" lon="14.5886394"><ele>167.2</ele><time>2026-04-29T10:36:23.896Z</time></trkpt><trkpt lat="42.1541362" lon="14.5885325"><ele>167.39999999999998</ele><time>2026-04-29T10:36:25.896Z</time></trkpt><trkpt lat="42.1542064" lon="14.5884274"><ele>167.60000000000002</ele><time>2026-04-29T10:36:27.896Z</time></trkpt><trkpt lat="42.1542817" lon="14.5883277"><ele>167.8</ele><time>2026-04-29T10:36:29.896Z</time></trkpt><trkpt lat="42.1543631" lon="14.5882369"><ele>168.0</ele><time>2026-04-29T10:36:31.896Z</time></trkpt><trkpt lat="42.1544418" lon="14.5881378"><ele>168.0</ele><time>2026-04-29T10:36:33.896Z</time></trkpt><trkpt lat="42.1545328" lon="14.5880371"><ele>168.0</ele><time>2026-04-29T10:36:35.895Z</time></trkpt><trkpt lat="42.1546303" lon="14.5879297"><ele>168.0</ele><time>2026-04-29T10:36:37.895Z</time></trkpt><trkpt lat="42.1546832" lon="14.5878726"><ele>168.0</ele><time>2026-04-29T10:36:38.896Z</time></trkpt><trkpt lat="42.1547424" lon="14.5878252"><ele>168.0</ele><time>2026-04-29T10:36:39.895Z</time></trkpt><trkpt lat="42.1548069" lon="14.5877908"><ele>167.14285714285714</ele><time>2026-04-29T10:36:40.896Z</time></trkpt><trkpt lat="42.1548741" lon="14.5877647"><ele>166.28571428571428</ele><time>2026-04-29T10:36:41.896Z</time></trkpt><trkpt lat="42.1549451" lon="14.5877468"><ele>165.42857142857144</ele><time>2026-04-29T10:36:42.895Z</time></trkpt><trkpt lat="42.1550115" lon="14.5877419"><ele>164.57142857142856</ele><time>2026-04-29T10:36:43.896Z</time></trkpt><trkpt lat="42.1550745" lon="14.5877392"><ele>163.71428571428572</ele><time>2026-04-29T10:36:44.896Z</time></trkpt><trkpt lat="42.1551671" lon="14.5877315"><ele>162.85714285714286</ele><time>2026-04-29T10:36:46.895Z</time></trkpt><trkpt lat="42.1552353" lon="14.5877295"><ele>162.0</ele><time>2026-04-29T10:36:49.896Z</time></trkpt><trkpt lat="42.1553013" lon="14.5877184"><ele>162.0</ele><time>2026-04-29T10:36:54.896Z</time></trkpt><trkpt lat="42.1553809" lon="14.5876904"><ele>162.0</ele><time>2026-04-29T10:36:57.895Z</time></trkpt><trkpt lat="42.1554476" lon="14.5876779"><ele>162.0</ele><time>2026-04-29T10:36:59.896Z</time></trkpt><trkpt lat="42.1555107" lon="14.5876557"><ele>162.0</ele><time>2026-04-29T10:37:01.896Z</time></trkpt><trkpt lat="42.1555783" lon="14.5876413"><ele>162.0</ele><time>2026-04-29T10:37:03.896Z</time></trkpt><trkpt lat="42.1556441" lon="14.5876416"><ele>162.0</ele><time>2026-04-29T10:37:05.896Z</time></trkpt><trkpt lat="42.1557162" lon="14.5876294"><ele>162.0</ele><time>2026-04-29T10:37:08.896Z</time></trkpt><trkpt lat="42.1558031" lon="14.5876304"><ele>162.42857142857144</ele><time>2026-04-29T10:37:12.896Z</time></trkpt><trkpt lat="42.1558654" lon="14.5876513"><ele>162.85714285714286</ele><time>2026-04-29T10:37:14.895Z</time></trkpt><trkpt lat="42.1559326" lon="14.587662"><ele>163.28571428571428</ele><time>2026-04-29T10:37:16.896Z</time></trkpt><trkpt lat="42.1559996" lon="14.5876525"><ele>163.71428571428572</ele><time>2026-04-29T10:37:18.896Z</time></trkpt><trkpt lat="42.1560644" lon="14.5876264"><ele>164.14285714285714</ele><time>2026-04-29T10:37:20.896Z</time></trkpt><trkpt lat="42.1561246" lon="14.5875941"><ele>164.57142857142858</ele><time>2026-04-29T10:37:22.895Z</time></trkpt><trkpt lat="42.1562083" lon="14.5875567"><ele>165.0</ele><time>2026-04-29T10:37:25.895Z</time></trkpt><trkpt lat="42.1562922" lon="14.5875183"><ele>165.00000000000003</ele><time>2026-04-29T10:37:28.896Z</time></trkpt><trkpt lat="42.1563682" lon="14.5874535"><ele>165.0</ele><time>2026-04-29T10:37:31.896Z</time></trkpt><trkpt lat="42.1564209" lon="14.5874012"><ele>165.0</ele><time>2026-04-29T10:37:33.896Z</time></trkpt><trkpt lat="42.1564767" lon="14.58735"><ele>165.0</ele><time>2026-04-29T10:37:35.895Z</time></trkpt><trkpt lat="42.1565267" lon="14.5872967"><ele>165.0</ele><time>2026-04-29T10:37:37.896Z</time></trkpt><trkpt lat="42.156575" lon="14.5872417"><ele>165.00000000000003</ele><time>2026-04-29T10:37:39.895Z</time></trkpt><trkpt lat="42.156625" lon="14.587165"><ele>165.0</ele><time>2026-04-29T10:37:42.896Z</time></trkpt><trkpt lat="42.156695" lon="14.5870933"><ele>165.33333333333334</ele><time>2026-04-29T10:37:45.896Z</time></trkpt><trkpt lat="42.156745" lon="14.5870417"><ele>165.66666666666666</ele><time>2026-04-29T10:37:47.895Z</time></trkpt><trkpt lat="42.1567933" lon="14.5869817"><ele>166.0</ele><time>2026-04-29T10:37:49.896Z</time></trkpt><trkpt lat="42.1568567" lon="14.5868983"><ele>166.33333333333331</ele><time>2026-04-29T10:37:52.896Z</time></trkpt><trkpt lat="42.1569233" lon="14.5868"><ele>166.66666666666666</ele><time>2026-04-29T10:37:55.895Z</time></trkpt><trkpt lat="42.156975" lon="14.5867333"><ele>167.0</ele><time>2026-04-29T10:37:57.896Z</time></trkpt><trkpt lat="42.1570267" lon="14.5866683"><ele>167.33333333333331</ele><time>2026-04-29T10:37:59.895Z</time></trkpt><trkpt lat="42.15709" lon="14.5866167"><ele>167.66666666666666</ele><time>2026-04-29T10:38:01.896Z</time></trkpt><trkpt lat="42.1571683" lon="14.58658"><ele>168.0</ele><time>2026-04-29T10:38:03.896Z</time></trkpt><trkpt lat="42.1572517" lon="14.5865483"><ele>168.33333333333334</ele><time>2026-04-29T10:38:05.896Z</time></trkpt><trkpt lat="42.15733" lon="14.5865167"><ele>168.66666666666669</ele><time>2026-04-29T10:38:07.896Z</time></trkpt><trkpt lat="42.1574217" lon="14.586485"><ele>169.0</ele><time>2026-04-29T10:38:09.896Z</time></trkpt><trkpt lat="42.1575267" lon="14.5864733"><ele>168.0</ele><time>2026-04-29T10:38:11.896Z</time></trkpt><trkpt lat="42.157635" lon="14.586435"><ele>167.0</ele><time>2026-04-29T10:38:13.895Z</time></trkpt><trkpt lat="42.1577417" lon="14.586395"><ele>166.0</ele><time>2026-04-29T10:38:15.896Z</time></trkpt><trkpt lat="42.15786" lon="14.58635"><ele>165.0</ele><time>2026-04-29T10:38:17.896Z</time></trkpt><trkpt lat="42.1579767" lon="14.5863083"><ele>165.0</ele><time>2026-04-29T10:38:19.895Z</time></trkpt><trkpt lat="42.1580983" lon="14.5862733"><ele>165.0</ele><time>2026-04-29T10:38:21.896Z</time></trkpt><trkpt lat="42.1582217" lon="14.5862367"><ele>165.0</ele><time>2026-04-29T10:38:23.895Z</time></trkpt><trkpt lat="42.158285" lon="14.5862233"><ele>165.0</ele><time>2026-04-29T10:38:24.896Z</time></trkpt><trkpt lat="42.158405" lon="14.5861933"><ele>165.0</ele><time>2026-04-29T10:38:26.896Z</time></trkpt><trkpt lat="42.15853" lon="14.5861633"><ele>164.83333333333334</ele><time>2026-04-29T10:38:28.895Z</time></trkpt><trkpt lat="42.1585933" lon="14.5861467"><ele>164.66666666666666</ele><time>2026-04-29T10:38:29.896Z</time></trkpt><trkpt lat="42.1586567" lon="14.5861283"><ele>164.5</ele><time>2026-04-29T10:38:30.896Z</time></trkpt><trkpt lat="42.15872" lon="14.58611"><ele>164.33333333333331</ele><time>2026-04-29T10:38:31.896Z</time></trkpt><trkpt lat="42.1588433" lon="14.586075"><ele>164.16666666666666</ele><time>2026-04-29T10:38:33.896Z</time></trkpt><trkpt lat="42.158905" lon="14.5860517"><ele>164.0</ele><time>2026-04-29T10:38:34.895Z</time></trkpt><trkpt lat="42.1589683" lon="14.5860183"><ele>163.5</ele><time>2026-04-29T10:38:35.895Z</time></trkpt><trkpt lat="42.159085" lon="14.58596"><ele>163.0</ele><time>2026-04-29T10:38:37.895Z</time></trkpt><trkpt lat="42.1591467" lon="14.5859233"><ele>162.5</ele><time>2026-04-29T10:38:38.896Z</time></trkpt><trkpt lat="42.1592067" lon="14.5858817"><ele>162.0</ele><time>2026-04-29T10:38:39.896Z</time></trkpt><trkpt lat="42.1592667" lon="14.5858383"><ele>161.5</ele><time>2026-04-29T10:38:40.896Z</time></trkpt><trkpt lat="42.1593267" lon="14.5857967"><ele>161.0</ele><time>2026-04-29T10:38:41.895Z</time></trkpt><trkpt lat="42.15944" lon="14.5857183"><ele>161.0</ele><time>2026-04-29T10:38:43.896Z</time></trkpt><trkpt lat="42.1595383" lon="14.5856383"><ele>161.0</ele><time>2026-04-29T10:38:45.896Z</time></trkpt><trkpt lat="42.1596467" lon="14.5855683"><ele>161.0</ele><time>2026-04-29T10:38:47.896Z</time></trkpt><trkpt lat="42.1597467" lon="14.585485"><ele>161.0</ele><time>2026-04-29T10:38:49.896Z</time></trkpt><trkpt lat="42.1598433" lon="14.5854083"><ele>160.8</ele><time>2026-04-29T10:38:51.896Z</time></trkpt><trkpt lat="42.1599417" lon="14.5853417"><ele>160.60000000000002</ele><time>2026-04-29T10:38:53.895Z</time></trkpt><trkpt lat="42.160045" lon="14.5852767"><ele>160.4</ele><time>2026-04-29T10:38:55.896Z</time></trkpt><trkpt lat="42.160145" lon="14.585205"><ele>160.2</ele><time>2026-04-29T10:38:57.896Z</time></trkpt><trkpt lat="42.1602383" lon="14.5851367"><ele>160.0</ele><time>2026-04-29T10:38:59.895Z</time></trkpt><trkpt lat="42.16033" lon="14.585065"><ele>160.0</ele><time>2026-04-29T10:39:01.895Z</time></trkpt><trkpt lat="42.1604233" lon="14.584995"><ele>160.0</ele><time>2026-04-29T10:39:03.895Z</time></trkpt><trkpt lat="42.1605117" lon="14.5849233"><ele>160.0</ele><time>2026-04-29T10:39:05.896Z</time></trkpt><trkpt lat="42.160605" lon="14.58486"><ele>160.0</ele><time>2026-04-29T10:39:07.895Z</time></trkpt><trkpt lat="42.1607033" lon="14.5847883"><ele>160.0</ele><time>2026-04-29T10:39:09.896Z</time></trkpt><trkpt lat="42.1608017" lon="14.5847217"><ele>160.0</ele><time>2026-04-29T10:39:11.896Z</time></trkpt><trkpt lat="42.1609" lon="14.584655"><ele>160.0</ele><time>2026-04-29T10:39:13.896Z</time></trkpt><trkpt lat="42.1609933" lon="14.5845933"><ele>160.0</ele><time>2026-04-29T10:39:15.896Z</time></trkpt><trkpt lat="42.1610883" lon="14.5845183"><ele>160.0</ele><time>2026-04-29T10:39:17.896Z</time></trkpt><trkpt lat="42.1611883" lon="14.5844467"><ele>160.0</ele><time>2026-04-29T10:39:19.895Z</time></trkpt><trkpt lat="42.1612833" lon="14.58436"><ele>160.0</ele><time>2026-04-29T10:39:21.895Z</time></trkpt><trkpt lat="42.1613833" lon="14.5842683"><ele>160.0</ele><time>2026-04-29T10:39:23.896Z</time></trkpt><trkpt lat="42.1614717" lon="14.58417"><ele>160.0</ele><time>2026-04-29T10:39:25.896Z</time></trkpt><trkpt lat="42.16156" lon="14.5840617"><ele>160.0</ele><time>2026-04-29T10:39:27.895Z</time></trkpt><trkpt lat="42.161645" lon="14.5839567"><ele>160.0</ele><time>2026-04-29T10:39:29.896Z</time></trkpt><trkpt lat="42.1617367" lon="14.5838483"><ele>160.0</ele><time>2026-04-29T10:39:31.896Z</time></trkpt><trkpt lat="42.1618283" lon="14.5837367"><ele>160.0</ele><time>2026-04-29T10:39:33.896Z</time></trkpt><trkpt lat="42.1618767" lon="14.5836767"><ele>160.0</ele><time>2026-04-29T10:39:34.896Z</time></trkpt><trkpt lat="42.1619267" lon="14.5836217"><ele>160.0</ele><time>2026-04-29T10:39:35.895Z</time></trkpt><trkpt lat="42.1619767" lon="14.5835683"><ele>160.0</ele><time>2026-04-29T10:39:36.895Z</time></trkpt><trkpt lat="42.1620833" lon="14.5835"><ele>159.8</ele><time>2026-04-29T10:39:38.895Z</time></trkpt><trkpt lat="42.1621433" lon="14.5834717"><ele>159.6</ele><time>2026-04-29T10:39:39.896Z</time></trkpt><trkpt lat="42.16226" lon="14.583455"><ele>159.4</ele><time>2026-04-29T10:39:41.896Z</time></trkpt><trkpt lat="42.16237" lon="14.583465"><ele>159.2</ele><time>2026-04-29T10:39:43.896Z</time></trkpt><trkpt lat="42.16248" lon="14.58351"><ele>159.0</ele><time>2026-04-29T10:39:45.895Z</time></trkpt><trkpt lat="42.1625917" lon="14.58355"><ele>158.8</ele><time>2026-04-29T10:39:47.896Z</time></trkpt><trkpt lat="42.1626983" lon="14.5835833"><ele>158.60000000000002</ele><time>2026-04-29T10:39:49.895Z</time></trkpt><trkpt lat="42.1628033" lon="14.5836183"><ele>158.4</ele><time>2026-04-29T10:39:51.895Z</time></trkpt><trkpt lat="42.16291" lon="14.5836567"><ele>158.20000000000002</ele><time>2026-04-29T10:39:53.896Z</time></trkpt><trkpt lat="42.1630267" lon="14.5836883"><ele>158.0</ele><time>2026-04-29T10:39:55.895Z</time></trkpt><trkpt lat="42.163135" lon="14.5837283"><ele>157.0</ele><time>2026-04-29T10:39:57.896Z</time></trkpt><trkpt lat="42.1632517" lon="14.583765"><ele>156.0</ele><time>2026-04-29T10:39:59.895Z</time></trkpt><trkpt lat="42.1633667" lon="14.5838"><ele>155.0</ele><time>2026-04-29T10:40:01.896Z</time></trkpt><trkpt lat="42.1634783" lon="14.5838317"><ele>154.0</ele><time>2026-04-29T10:40:03.896Z</time></trkpt><trkpt lat="42.1635967" lon="14.5838667"><ele>154.0</ele><time>2026-04-29T10:40:05.895Z</time></trkpt><trkpt lat="42.1637033" lon="14.5839033"><ele>154.0</ele><time>2026-04-29T10:40:07.896Z</time></trkpt><trkpt lat="42.1638117" lon="14.5839417"><ele>154.0</ele><time>2026-04-29T10:40:09.896Z</time></trkpt><trkpt lat="42.163925" lon="14.583985"><ele>154.0</ele><time>2026-04-29T10:40:11.896Z</time></trkpt><trkpt lat="42.1640317" lon="14.5840183"><ele>154.0</ele><time>2026-04-29T10:40:13.896Z</time></trkpt><trkpt lat="42.16414" lon="14.5840467"><ele>154.0</ele><time>2026-04-29T10:40:15.895Z</time></trkpt><trkpt lat="42.16425" lon="14.5840683"><ele>154.0</ele><time>2026-04-29T10:40:17.895Z</time></trkpt><trkpt lat="42.1643083" lon="14.5841017"><ele>154.0</ele><time>2026-04-29T10:40:18.895Z</time></trkpt><trkpt lat="42.1644167" lon="14.584155"><ele>154.0</ele><time>2026-04-29T10:40:20.896Z</time></trkpt><trkpt lat="42.1645283" lon="14.5841983"><ele>154.0</ele><time>2026-04-29T10:40:22.896Z</time></trkpt><trkpt lat="42.16464" lon="14.5842417"><ele>154.0</ele><time>2026-04-29T10:40:24.895Z</time></trkpt><trkpt lat="42.164745" lon="14.5842867"><ele>154.0</ele><time>2026-04-29T10:40:26.896Z</time></trkpt><trkpt lat="42.1648517" lon="14.5843283"><ele>154.0</ele><time>2026-04-29T10:40:28.896Z</time></trkpt><trkpt lat="42.1649583" lon="14.5843733"><ele>154.0</ele><time>2026-04-29T10:40:30.895Z</time></trkpt><trkpt lat="42.16506" lon="14.584415"><ele>154.0</ele><time>2026-04-29T10:40:32.896Z</time></trkpt><trkpt lat="42.1651667" lon="14.5844667"><ele>153.6</ele><time>2026-04-29T10:40:34.896Z</time></trkpt><trkpt lat="42.16527" lon="14.5845117"><ele>153.2</ele><time>2026-04-29T10:40:36.895Z</time></trkpt><trkpt lat="42.16538" lon="14.584565"><ele>152.79999999999998</ele><time>2026-04-29T10:40:38.895Z</time></trkpt><trkpt lat="42.1654883" lon="14.5846167"><ele>152.4</ele><time>2026-04-29T10:40:40.896Z</time></trkpt><trkpt lat="42.1655867" lon="14.584655"><ele>152.0</ele><time>2026-04-29T10:40:42.896Z</time></trkpt><trkpt lat="42.1656917" lon="14.5846967"><ele>151.25</ele><time>2026-04-29T10:40:44.896Z</time></trkpt><trkpt lat="42.165795" lon="14.5847617"><ele>150.5</ele><time>2026-04-29T10:40:46.895Z</time></trkpt><trkpt lat="42.1659" lon="14.58482"><ele>149.75</ele><time>2026-04-29T10:40:48.895Z</time></trkpt><trkpt lat="42.1660083" lon="14.5848633"><ele>149.0</ele><time>2026-04-29T10:40:50.896Z</time></trkpt><trkpt lat="42.1661167" lon="14.584905"><ele>149.0</ele><time>2026-04-29T10:40:52.895Z</time></trkpt><trkpt lat="42.1662267" lon="14.5849467"><ele>149.0</ele><time>2026-04-29T10:40:54.895Z</time></trkpt><trkpt lat="42.1663283" lon="14.58498"><ele>149.0</ele><time>2026-04-29T10:40:56.896Z</time></trkpt><trkpt lat="42.166425" lon="14.585035"><ele>149.0</ele><time>2026-04-29T10:40:58.895Z</time></trkpt><trkpt lat="42.1665183" lon="14.5851067"><ele>149.0</ele><time>2026-04-29T10:41:00.895Z</time></trkpt><trkpt lat="42.166605" lon="14.5852217"><ele>149.0</ele><time>2026-04-29T10:41:02.896Z</time></trkpt><trkpt lat="42.1666817" lon="14.5853383"><ele>149.0</ele><time>2026-04-29T10:41:04.896Z</time></trkpt><trkpt lat="42.1667567" lon="14.5854533"><ele>149.0</ele><time>2026-04-29T10:41:06.895Z</time></trkpt><trkpt lat="42.1668383" lon="14.5855667"><ele>149.0</ele><time>2026-04-29T10:41:08.895Z</time></trkpt><trkpt lat="42.1669167" lon="14.5856767"><ele>148.5</ele><time>2026-04-29T10:41:10.896Z</time></trkpt><trkpt lat="42.1669917" lon="14.5858083"><ele>148.0</ele><time>2026-04-29T10:41:12.896Z</time></trkpt><trkpt lat="42.167065" lon="14.585935"><ele>147.5</ele><time>2026-04-29T10:41:14.896Z</time></trkpt><trkpt lat="42.1671417" lon="14.5860633"><ele>147.0</ele><time>2026-04-29T10:41:16.896Z</time></trkpt><trkpt lat="42.1672183" lon="14.5861917"><ele>147.0</ele><time>2026-04-29T10:41:18.895Z</time></trkpt><trkpt lat="42.1672983" lon="14.5863217"><ele>147.0</ele><time>2026-04-29T10:41:20.896Z</time></trkpt><trkpt lat="42.16738" lon="14.5864483"><ele>147.0</ele><time>2026-04-29T10:41:22.896Z</time></trkpt><trkpt lat="42.16746" lon="14.5865733"><ele>147.0</ele><time>2026-04-29T10:41:24.895Z</time></trkpt><trkpt lat="42.16754" lon="14.5866983"><ele>147.0</ele><time>2026-04-29T10:41:26.895Z</time></trkpt><trkpt lat="42.16762" lon="14.5868283"><ele>147.0</ele><time>2026-04-29T10:41:28.895Z</time></trkpt><trkpt lat="42.1677017" lon="14.5869583"><ele>147.0</ele><time>2026-04-29T10:41:30.896Z</time></trkpt><trkpt lat="42.1677833" lon="14.5870867"><ele>147.0</ele><time>2026-04-29T10:41:32.895Z</time></trkpt><trkpt lat="42.1678617" lon="14.587215"><ele>146.4</ele><time>2026-04-29T10:41:34.895Z</time></trkpt><trkpt lat="42.1679417" lon="14.5873433"><ele>145.79999999999998</ele><time>2026-04-29T10:41:36.896Z</time></trkpt><trkpt lat="42.167985" lon="14.5874067"><ele>145.2</ele><time>2026-04-29T10:41:37.895Z</time></trkpt><trkpt lat="42.1680733" lon="14.58753"><ele>144.6</ele><time>2026-04-29T10:41:39.896Z</time></trkpt><trkpt lat="42.1681717" lon="14.5876433"><ele>144.0</ele><time>2026-04-29T10:41:41.895Z</time></trkpt><trkpt lat="42.1682183" lon="14.587705"><ele>143.85714285714286</ele><time>2026-04-29T10:41:42.895Z</time></trkpt><trkpt lat="42.1682683" lon="14.5877617"><ele>143.71428571428572</ele><time>2026-04-29T10:41:43.896Z</time></trkpt><trkpt lat="42.16832" lon="14.5878167"><ele>143.57142857142856</ele><time>2026-04-29T10:41:44.895Z</time></trkpt><trkpt lat="42.1683717" lon="14.5878683"><ele>143.42857142857144</ele><time>2026-04-29T10:41:45.896Z</time></trkpt><trkpt lat="42.1684267" lon="14.5879167"><ele>143.28571428571428</ele><time>2026-04-29T10:41:46.896Z</time></trkpt><trkpt lat="42.1684833" lon="14.5879667"><ele>143.14285714285714</ele><time>2026-04-29T10:41:47.896Z</time></trkpt><trkpt lat="42.16854" lon="14.5880117"><ele>143.0</ele><time>2026-04-29T10:41:48.896Z</time></trkpt><trkpt lat="42.1686" lon="14.5880567"><ele>142.83333333333331</ele><time>2026-04-29T10:41:49.895Z</time></trkpt><trkpt lat="42.16871" lon="14.5881433"><ele>142.66666666666666</ele><time>2026-04-29T10:41:51.896Z</time></trkpt><trkpt lat="42.168765" lon="14.588185"><ele>142.5</ele><time>2026-04-29T10:41:52.895Z</time></trkpt><trkpt lat="42.168825" lon="14.5882183"><ele>142.33333333333334</ele><time>2026-04-29T10:41:53.896Z</time></trkpt><trkpt lat="42.1688833" lon="14.588255"><ele>142.16666666666669</ele><time>2026-04-29T10:41:54.895Z</time></trkpt><trkpt lat="42.1689417" lon="14.58829"><ele>142.0</ele><time>2026-04-29T10:41:55.895Z</time></trkpt><trkpt lat="42.169055" lon="14.588365"><ele>142.0</ele><time>2026-04-29T10:41:57.896Z</time></trkpt><trkpt lat="42.169115" lon="14.5883983"><ele>142.0</ele><time>2026-04-29T10:41:58.895Z</time></trkpt><trkpt lat="42.1691733" lon="14.5884317"><ele>142.0</ele><time>2026-04-29T10:41:59.895Z</time></trkpt><trkpt lat="42.1692317" lon="14.58847"><ele>142.0</ele><time>2026-04-29T10:42:00.895Z</time></trkpt><trkpt lat="42.1693383" lon="14.5885383"><ele>142.0</ele><time>2026-04-29T10:42:02.895Z</time></trkpt><trkpt lat="42.1694367" lon="14.5886033"><ele>142.0</ele><time>2026-04-29T10:42:04.896Z</time></trkpt><trkpt lat="42.1694933" lon="14.5886417"><ele>141.4</ele><time>2026-04-29T10:42:05.895Z</time></trkpt><trkpt lat="42.169605" lon="14.5887167"><ele>140.79999999999998</ele><time>2026-04-29T10:42:07.895Z</time></trkpt><trkpt lat="42.1697117" lon="14.58878"><ele>140.2</ele><time>2026-04-29T10:42:09.895Z</time></trkpt><trkpt lat="42.1698233" lon="14.5888533"><ele>139.6</ele><time>2026-04-29T10:42:11.895Z</time></trkpt><trkpt lat="42.16988" lon="14.588895"><ele>139.0</ele><time>2026-04-29T10:42:12.895Z</time></trkpt><trkpt lat="42.16994" lon="14.58893"><ele>139.0</ele><time>2026-04-29T10:42:13.896Z</time></trkpt><trkpt lat="42.1700517" lon="14.589"><ele>139.0</ele><time>2026-04-29T10:42:15.896Z</time></trkpt><trkpt lat="42.1701583" lon="14.5890667"><ele>139.0</ele><time>2026-04-29T10:42:17.895Z</time></trkpt><trkpt lat="42.1702633" lon="14.5891367"><ele>139.0</ele><time>2026-04-29T10:42:19.896Z</time></trkpt><trkpt lat="42.1703683" lon="14.589195"><ele>139.0</ele><time>2026-04-29T10:42:21.896Z</time></trkpt><trkpt lat="42.1704733" lon="14.589265"><ele>139.0</ele><time>2026-04-29T10:42:23.896Z</time></trkpt><trkpt lat="42.1705833" lon="14.5893283"><ele>139.0</ele><time>2026-04-29T10:42:25.896Z</time></trkpt><trkpt lat="42.1706433" lon="14.5893667"><ele>139.0</ele><time>2026-04-29T10:42:26.895Z</time></trkpt><trkpt lat="42.1707017" lon="14.589405"><ele>139.0</ele><time>2026-04-29T10:42:27.896Z</time></trkpt><trkpt lat="42.17076" lon="14.5894417"><ele>139.0</ele><time>2026-04-29T10:42:28.896Z</time></trkpt><trkpt lat="42.17088" lon="14.5895167"><ele>138.25</ele><time>2026-04-29T10:42:30.895Z</time></trkpt><trkpt lat="42.1709867" lon="14.5895783"><ele>137.5</ele><time>2026-04-29T10:42:32.895Z</time></trkpt><trkpt lat="42.1710867" lon="14.5896467"><ele>136.75</ele><time>2026-04-29T10:42:34.896Z</time></trkpt><trkpt lat="42.1711883" lon="14.589735"><ele>136.0</ele><time>2026-04-29T10:42:36.896Z</time></trkpt><trkpt lat="42.17128" lon="14.5898217"><ele>136.0</ele><time>2026-04-29T10:42:38.896Z</time></trkpt><trkpt lat="42.1713717" lon="14.58993"><ele>136.0</ele><time>2026-04-29T10:42:40.895Z</time></trkpt><trkpt lat="42.1714667" lon="14.590035"><ele>136.0</ele><time>2026-04-29T10:42:42.896Z</time></trkpt><trkpt lat="42.1715183" lon="14.5900883"><ele>136.0</ele><time>2026-04-29T10:42:43.896Z</time></trkpt><trkpt lat="42.1715717" lon="14.590145"><ele>136.0</ele><time>2026-04-29T10:42:44.895Z</time></trkpt><trkpt lat="42.1716217" lon="14.5901967"><ele>136.0</ele><time>2026-04-29T10:42:45.896Z</time></trkpt><trkpt lat="42.17171" lon="14.5902983"><ele>135.6</ele><time>2026-04-29T10:42:47.896Z</time></trkpt><trkpt lat="42.1717983" lon="14.5904067"><ele>135.2</ele><time>2026-04-29T10:42:49.896Z</time></trkpt><trkpt lat="42.1718917" lon="14.5905"><ele>134.8</ele><time>2026-04-29T10:42:51.896Z</time></trkpt><trkpt lat="42.17199" lon="14.5906"><ele>134.4</ele><time>2026-04-29T10:42:53.896Z</time></trkpt><trkpt lat="42.1720433" lon="14.5906533"><ele>134.0</ele><time>2026-04-29T10:42:54.895Z</time></trkpt><trkpt lat="42.1720933" lon="14.5907083"><ele>134.0</ele><time>2026-04-29T10:42:55.896Z</time></trkpt><trkpt lat="42.1721483" lon="14.5907617"><ele>134.0</ele><time>2026-04-29T10:42:56.896Z</time></trkpt><trkpt lat="42.1722" lon="14.5908117"><ele>134.0</ele><time>2026-04-29T10:42:57.896Z</time></trkpt><trkpt lat="42.1722517" lon="14.5908667"><ele>134.0</ele><time>2026-04-29T10:42:58.895Z</time></trkpt><trkpt lat="42.1723067" lon="14.5909217"><ele>134.0</ele><time>2026-04-29T10:42:59.896Z</time></trkpt><trkpt lat="42.1723583" lon="14.5909767"><ele>134.0</ele><time>2026-04-29T10:43:00.896Z</time></trkpt><trkpt lat="42.17241" lon="14.5910317"><ele>134.0</ele><time>2026-04-29T10:43:01.896Z</time></trkpt><trkpt lat="42.1725083" lon="14.5911333"><ele>133.71428571428572</ele><time>2026-04-29T10:43:03.896Z</time></trkpt><trkpt lat="42.1725567" lon="14.5911917"><ele>133.42857142857142</ele><time>2026-04-29T10:43:04.895Z</time></trkpt><trkpt lat="42.1726033" lon="14.59125"><ele>133.14285714285714</ele><time>2026-04-29T10:43:05.896Z</time></trkpt><trkpt lat="42.1726517" lon="14.5913083"><ele>132.85714285714286</ele><time>2026-04-29T10:43:06.895Z</time></trkpt><trkpt lat="42.1726983" lon="14.5913667"><ele>132.57142857142858</ele><time>2026-04-29T10:43:07.895Z</time></trkpt><trkpt lat="42.172745" lon="14.5914283"><ele>132.28571428571428</ele><time>2026-04-29T10:43:08.895Z</time></trkpt><trkpt lat="42.172785" lon="14.5914967"><ele>132.0</ele><time>2026-04-29T10:43:09.895Z</time></trkpt><trkpt lat="42.1728283" lon="14.5915667"><ele>132.0</ele><time>2026-04-29T10:43:10.896Z</time></trkpt><trkpt lat="42.17287" lon="14.5916317"><ele>132.0</ele><time>2026-04-29T10:43:11.895Z</time></trkpt><trkpt lat="42.1729467" lon="14.5917617"><ele>132.0</ele><time>2026-04-29T10:43:13.896Z</time></trkpt><trkpt lat="42.1730233" lon="14.5918867"><ele>132.0</ele><time>2026-04-29T10:43:15.896Z</time></trkpt><trkpt lat="42.173095" lon="14.592015"><ele>132.0</ele><time>2026-04-29T10:43:17.895Z</time></trkpt><trkpt lat="42.173165" lon="14.592145"><ele>131.6</ele><time>2026-04-29T10:43:19.896Z</time></trkpt><trkpt lat="42.1732017" lon="14.592215"><ele>131.2</ele><time>2026-04-29T10:43:20.895Z</time></trkpt><trkpt lat="42.173265" lon="14.59235"><ele>130.8</ele><time>2026-04-29T10:43:22.896Z</time></trkpt><trkpt lat="42.1733283" lon="14.5924933"><ele>130.4</ele><time>2026-04-29T10:43:24.895Z</time></trkpt><trkpt lat="42.1733767" lon="14.5926467"><ele>130.0</ele><time>2026-04-29T10:43:26.895Z</time></trkpt><trkpt lat="42.173425" lon="14.5928"><ele>129.83333333333334</ele><time>2026-04-29T10:43:28.896Z</time></trkpt><trkpt lat="42.173465" lon="14.592945"><ele>129.66666666666669</ele><time>2026-04-29T10:43:30.896Z</time></trkpt><trkpt lat="42.1735167" lon="14.593105"><ele>129.5</ele><time>2026-04-29T10:43:32.895Z</time></trkpt><trkpt lat="42.1735433" lon="14.593185"><ele>129.33333333333334</ele><time>2026-04-29T10:43:33.896Z</time></trkpt><trkpt lat="42.1735667" lon="14.5932667"><ele>129.16666666666666</ele><time>2026-04-29T10:43:34.895Z</time></trkpt><trkpt lat="42.1735883" lon="14.5933467"><ele>129.0</ele><time>2026-04-29T10:43:35.895Z</time></trkpt><trkpt lat="42.1736133" lon="14.5934267"><ele>129.0</ele><time>2026-04-29T10:43:36.896Z</time></trkpt><trkpt lat="42.17367" lon="14.5935767"><ele>129.0</ele><time>2026-04-29T10:43:38.895Z</time></trkpt><trkpt lat="42.1737367" lon="14.59371"><ele>129.0</ele><time>2026-04-29T10:43:40.896Z</time></trkpt><trkpt lat="42.1738033" lon="14.5938383"><ele>129.0</ele><time>2026-04-29T10:43:42.896Z</time></trkpt><trkpt lat="42.1738667" lon="14.59397"><ele>128.6</ele><time>2026-04-29T10:43:44.895Z</time></trkpt><trkpt lat="42.1739367" lon="14.5940833"><ele>128.2</ele><time>2026-04-29T10:43:46.896Z</time></trkpt><trkpt lat="42.1740117" lon="14.5942"><ele>127.79999999999998</ele><time>2026-04-29T10:43:48.895Z</time></trkpt><trkpt lat="42.174085" lon="14.5943183"><ele>127.39999999999999</ele><time>2026-04-29T10:43:50.896Z</time></trkpt><trkpt lat="42.1741533" lon="14.5944317"><ele>127.0</ele><time>2026-04-29T10:43:52.895Z</time></trkpt><trkpt lat="42.1742233" lon="14.594555"><ele>126.5</ele><time>2026-04-29T10:43:54.896Z</time></trkpt><trkpt lat="42.1742817" lon="14.5946967"><ele>126.0</ele><time>2026-04-29T10:43:56.896Z</time></trkpt><trkpt lat="42.1743283" lon="14.5948367"><ele>125.5</ele><time>2026-04-29T10:43:58.896Z</time></trkpt><trkpt lat="42.1743667" lon="14.5949767"><ele>125.0</ele><time>2026-04-29T10:44:00.896Z</time></trkpt><trkpt lat="42.17441" lon="14.5951283"><ele>125.0</ele><time>2026-04-29T10:44:02.896Z</time></trkpt><trkpt lat="42.174455" lon="14.5952833"><ele>125.0</ele><time>2026-04-29T10:44:04.895Z</time></trkpt><trkpt lat="42.1744967" lon="14.5954367"><ele>125.0</ele><time>2026-04-29T10:44:06.896Z</time></trkpt><trkpt lat="42.1745217" lon="14.5955183"><ele>125.0</ele><time>2026-04-29T10:44:07.895Z</time></trkpt><trkpt lat="42.1745683" lon="14.5956667"><ele>125.0</ele><time>2026-04-29T10:44:09.896Z</time></trkpt><trkpt lat="42.1746133" lon="14.59581"><ele>125.2</ele><time>2026-04-29T10:44:11.895Z</time></trkpt><trkpt lat="42.1746567" lon="14.5959617"><ele>125.4</ele><time>2026-04-29T10:44:13.896Z</time></trkpt><trkpt lat="42.1746933" lon="14.5961067"><ele>125.6</ele><time>2026-04-29T10:44:15.895Z</time></trkpt><trkpt lat="42.1747333" lon="14.596245"><ele>125.8</ele><time>2026-04-29T10:44:17.895Z</time></trkpt><trkpt lat="42.1747617" lon="14.5963217"><ele>126.0</ele><time>2026-04-29T10:44:18.895Z</time></trkpt><trkpt lat="42.1748167" lon="14.596475"><ele>125.0</ele><time>2026-04-29T10:44:20.896Z</time></trkpt><trkpt lat="42.1748717" lon="14.5966167"><ele>124.0</ele><time>2026-04-29T10:44:22.895Z</time></trkpt><trkpt lat="42.1749283" lon="14.596765"><ele>123.0</ele><time>2026-04-29T10:44:24.896Z</time></trkpt><trkpt lat="42.174985" lon="14.59691"><ele>122.0</ele><time>2026-04-29T10:44:26.895Z</time></trkpt><trkpt lat="42.1750433" lon="14.5970483"><ele>121.6</ele><time>2026-04-29T10:44:28.896Z</time></trkpt><trkpt lat="42.1751033" lon="14.59719"><ele>121.19999999999999</ele><time>2026-04-29T10:44:30.896Z</time></trkpt><trkpt lat="42.17517" lon="14.5973317"><ele>120.8</ele><time>2026-04-29T10:44:32.896Z</time></trkpt><trkpt lat="42.175205" lon="14.5974033"><ele>120.4</ele><time>2026-04-29T10:44:33.896Z</time></trkpt><trkpt lat="42.1752783" lon="14.5975417"><ele>120.0</ele><time>2026-04-29T10:44:35.896Z</time></trkpt><trkpt lat="42.1753167" lon="14.5976133"><ele>120.0</ele><time>2026-04-29T10:44:36.895Z</time></trkpt><trkpt lat="42.1753533" lon="14.5976883"><ele>120.0</ele><time>2026-04-29T10:44:37.896Z</time></trkpt><trkpt lat="42.1753917" lon="14.59776"><ele>120.0</ele><time>2026-04-29T10:44:38.896Z</time></trkpt><trkpt lat="42.1754683" lon="14.5978933"><ele>120.0</ele><time>2026-04-29T10:44:40.895Z</time></trkpt><trkpt lat="42.1755483" lon="14.59802"><ele>120.0</ele><time>2026-04-29T10:44:42.895Z</time></trkpt><trkpt lat="42.17563" lon="14.5981433"><ele>119.66666666666667</ele><time>2026-04-29T10:44:44.896Z</time></trkpt><trkpt lat="42.1757183" lon="14.5982533"><ele>119.33333333333334</ele><time>2026-04-29T10:44:46.896Z</time></trkpt><trkpt lat="42.175765" lon="14.5983117"><ele>119.0</ele><time>2026-04-29T10:44:47.896Z</time></trkpt><trkpt lat="42.1758167" lon="14.5983733"><ele>118.66666666666667</ele><time>2026-04-29T10:44:48.896Z</time></trkpt><trkpt lat="42.17587" lon="14.59843"><ele>118.33333333333334</ele><time>2026-04-29T10:44:49.896Z</time></trkpt><trkpt lat="42.17592" lon="14.5984817"><ele>118.0</ele><time>2026-04-29T10:44:50.896Z</time></trkpt><trkpt lat="42.1759767" lon="14.5985317"><ele>118.0</ele><time>2026-04-29T10:44:51.895Z</time></trkpt><trkpt lat="42.17603" lon="14.5985783"><ele>118.0</ele><time>2026-04-29T10:44:52.895Z</time></trkpt><trkpt lat="42.176085" lon="14.5986267"><ele>118.0</ele><time>2026-04-29T10:44:53.896Z</time></trkpt><trkpt lat="42.1761417" lon="14.5986717"><ele>118.0</ele><time>2026-04-29T10:44:54.896Z</time></trkpt><trkpt lat="42.1761983" lon="14.5987183"><ele>118.0</ele><time>2026-04-29T10:44:55.895Z</time></trkpt><trkpt lat="42.1762517" lon="14.598765"><ele>118.0</ele><time>2026-04-29T10:44:56.896Z</time></trkpt><trkpt lat="42.17631" lon="14.598815"><ele>118.0</ele><time>2026-04-29T10:44:57.896Z</time></trkpt><trkpt lat="42.1764183" lon="14.598905"><ele>117.83333333333334</ele><time>2026-04-29T10:44:59.896Z</time></trkpt><trkpt lat="42.1764733" lon="14.598955"><ele>117.66666666666667</ele><time>2026-04-29T10:45:00.896Z</time></trkpt><trkpt lat="42.1765267" lon="14.5990017"><ele>117.5</ele><time>2026-04-29T10:45:01.896Z</time></trkpt><trkpt lat="42.176585" lon="14.5990467"><ele>117.33333333333334</ele><time>2026-04-29T10:45:02.896Z</time></trkpt><trkpt lat="42.1766933" lon="14.5991333"><ele>117.16666666666667</ele><time>2026-04-29T10:45:04.896Z</time></trkpt><trkpt lat="42.1768" lon="14.5992167"><ele>117.0</ele><time>2026-04-29T10:45:06.895Z</time></trkpt><trkpt lat="42.176855" lon="14.599265"><ele>116.6</ele><time>2026-04-29T10:45:07.896Z</time></trkpt><trkpt lat="42.17691" lon="14.5993067"><ele>116.19999999999999</ele><time>2026-04-29T10:45:08.895Z</time></trkpt><trkpt lat="42.1769667" lon="14.5993517"><ele>115.8</ele><time>2026-04-29T10:45:09.896Z</time></trkpt><trkpt lat="42.1770633" lon="14.5994333"><ele>115.4</ele><time>2026-04-29T10:45:11.896Z</time></trkpt><trkpt lat="42.17716" lon="14.5995083"><ele>115.0</ele><time>2026-04-29T10:45:13.896Z</time></trkpt><trkpt lat="42.1772583" lon="14.59959"><ele>114.25</ele><time>2026-04-29T10:45:15.896Z</time></trkpt><trkpt lat="42.177365" lon="14.599675"><ele>113.5</ele><time>2026-04-29T10:45:17.895Z</time></trkpt><trkpt lat="42.1774617" lon="14.599755"><ele>112.75</ele><time>2026-04-29T10:45:19.896Z</time></trkpt><trkpt lat="42.177555" lon="14.5998333"><ele>112.0</ele><time>2026-04-29T10:45:21.895Z</time></trkpt><trkpt lat="42.1776467" lon="14.5999083"><ele>112.0</ele><time>2026-04-29T10:45:23.896Z</time></trkpt><trkpt lat="42.177735" lon="14.5999933"><ele>112.0</ele><time>2026-04-29T10:45:25.896Z</time></trkpt><trkpt lat="42.1778283" lon="14.60009"><ele>112.0</ele><time>2026-04-29T10:45:27.896Z</time></trkpt><trkpt lat="42.1779133" lon="14.6002"><ele>112.0</ele><time>2026-04-29T10:45:29.895Z</time></trkpt><trkpt lat="42.177995" lon="14.6003033"><ele>111.75</ele><time>2026-04-29T10:45:31.896Z</time></trkpt><trkpt lat="42.1780767" lon="14.600405"><ele>111.5</ele><time>2026-04-29T10:45:33.896Z</time></trkpt><trkpt lat="42.17816" lon="14.6005133"><ele>111.25</ele><time>2026-04-29T10:45:35.896Z</time></trkpt><trkpt lat="42.17824" lon="14.6006233"><ele>111.0</ele><time>2026-04-29T10:45:37.896Z</time></trkpt><trkpt lat="42.17832" lon="14.6007317"><ele>111.0</ele><time>2026-04-29T10:45:39.896Z</time></trkpt><trkpt lat="42.1784017" lon="14.6008467"><ele>111.0</ele><time>2026-04-29T10:45:41.896Z</time></trkpt><trkpt lat="42.178485" lon="14.6009533"><ele>111.0</ele><time>2026-04-29T10:45:43.896Z</time></trkpt><trkpt lat="42.1785617" lon="14.6010633"><ele>111.0</ele><time>2026-04-29T10:45:45.895Z</time></trkpt><trkpt lat="42.1786367" lon="14.6011667"><ele>111.19999999999999</ele><time>2026-04-29T10:45:47.896Z</time></trkpt><trkpt lat="42.178715" lon="14.6012667"><ele>111.39999999999999</ele><time>2026-04-29T10:45:49.896Z</time></trkpt><trkpt lat="42.1787933" lon="14.601375"><ele>111.6</ele><time>2026-04-29T10:45:51.896Z</time></trkpt><trkpt lat="42.17888" lon="14.6014733"><ele>111.8</ele><time>2026-04-29T10:45:53.895Z</time></trkpt><trkpt lat="42.1789717" lon="14.6015583"><ele>112.0</ele><time>2026-04-29T10:45:55.895Z</time></trkpt><trkpt lat="42.1790767" lon="14.60165"><ele>111.25</ele><time>2026-04-29T10:45:57.895Z</time></trkpt><trkpt lat="42.179175" lon="14.6017417"><ele>110.5</ele><time>2026-04-29T10:45:59.895Z</time></trkpt><trkpt lat="42.1792767" lon="14.601835"><ele>109.75</ele><time>2026-04-29T10:46:01.895Z</time></trkpt><trkpt lat="42.1793667" lon="14.6019417"><ele>109.0</ele><time>2026-04-29T10:46:03.895Z</time></trkpt><trkpt lat="42.1794567" lon="14.6020583"><ele>108.5</ele><time>2026-04-29T10:46:05.894Z</time></trkpt><trkpt lat="42.1795417" lon="14.60217"><ele>108.0</ele><time>2026-04-29T10:46:07.894Z</time></trkpt><trkpt lat="42.179625" lon="14.6022883"><ele>107.5</ele><time>2026-04-29T10:46:09.895Z</time></trkpt><trkpt lat="42.179705" lon="14.602405"><ele>107.0</ele><time>2026-04-29T10:46:11.895Z</time></trkpt><trkpt lat="42.1797833" lon="14.6025267"><ele>107.0</ele><time>2026-04-29T10:46:13.895Z</time></trkpt><trkpt lat="42.17985" lon="14.6026567"><ele>107.0</ele><time>2026-04-29T10:46:15.895Z</time></trkpt><trkpt lat="42.1799183" lon="14.60277"><ele>107.0</ele><time>2026-04-29T10:46:17.894Z</time></trkpt><trkpt lat="42.1800033" lon="14.6028833"><ele>107.0</ele><time>2026-04-29T10:46:19.895Z</time></trkpt><trkpt lat="42.1800967" lon="14.602995"><ele>106.25</ele><time>2026-04-29T10:46:21.895Z</time></trkpt><trkpt lat="42.180195" lon="14.6031033"><ele>105.5</ele><time>2026-04-29T10:46:23.895Z</time></trkpt><trkpt lat="42.1802933" lon="14.6031967"><ele>104.75</ele><time>2026-04-29T10:46:25.894Z</time></trkpt><trkpt lat="42.1803867" lon="14.6032867"><ele>104.0</ele><time>2026-04-29T10:46:27.894Z</time></trkpt><trkpt lat="42.1804783" lon="14.6033617"><ele>104.0</ele><time>2026-04-29T10:46:29.894Z</time></trkpt><trkpt lat="42.18057" lon="14.6034283"><ele>104.0</ele><time>2026-04-29T10:46:31.894Z</time></trkpt><trkpt lat="42.180685" lon="14.6034967"><ele>104.0</ele><time>2026-04-29T10:46:33.895Z</time></trkpt><trkpt lat="42.1807883" lon="14.6035717"><ele>104.0</ele><time>2026-04-29T10:46:35.894Z</time></trkpt><trkpt lat="42.1808917" lon="14.6036433"><ele>103.6</ele><time>2026-04-29T10:46:37.894Z</time></trkpt><trkpt lat="42.181005" lon="14.6037033"><ele>103.2</ele><time>2026-04-29T10:46:39.895Z</time></trkpt><trkpt lat="42.1811133" lon="14.603765"><ele>102.8</ele><time>2026-04-29T10:46:41.894Z</time></trkpt><trkpt lat="42.181225" lon="14.6038233"><ele>102.39999999999999</ele><time>2026-04-29T10:46:43.895Z</time></trkpt><trkpt lat="42.1812867" lon="14.6038583"><ele>102.0</ele><time>2026-04-29T10:46:44.895Z</time></trkpt><trkpt lat="42.1814" lon="14.60392"><ele>102.0</ele><time>2026-04-29T10:46:46.895Z</time></trkpt><trkpt lat="42.181515" lon="14.60398"><ele>102.0</ele><time>2026-04-29T10:46:48.894Z</time></trkpt><trkpt lat="42.181575" lon="14.6040133"><ele>102.0</ele><time>2026-04-29T10:46:49.895Z</time></trkpt><trkpt lat="42.181685" lon="14.6040783"><ele>102.0</ele><time>2026-04-29T10:46:51.894Z</time></trkpt><trkpt lat="42.1817983" lon="14.60414"><ele>102.0</ele><time>2026-04-29T10:46:53.895Z</time></trkpt><trkpt lat="42.18191" lon="14.6041983"><ele>101.75</ele><time>2026-04-29T10:46:55.895Z</time></trkpt><trkpt lat="42.1820233" lon="14.6042617"><ele>101.5</ele><time>2026-04-29T10:46:57.895Z</time></trkpt><trkpt lat="42.1821333" lon="14.6043183"><ele>101.25</ele><time>2026-04-29T10:46:59.895Z</time></trkpt><trkpt lat="42.182245" lon="14.60438"><ele>101.0</ele><time>2026-04-29T10:47:01.895Z</time></trkpt><trkpt lat="42.1823617" lon="14.6044383"><ele>100.71428571428571</ele><time>2026-04-29T10:47:03.895Z</time></trkpt><trkpt lat="42.18242" lon="14.6044717"><ele>100.42857142857142</ele><time>2026-04-29T10:47:04.895Z</time></trkpt><trkpt lat="42.1824783" lon="14.6045083"><ele>100.14285714285714</ele><time>2026-04-29T10:47:05.895Z</time></trkpt><trkpt lat="42.1825383" lon="14.6045417"><ele>99.85714285714286</ele><time>2026-04-29T10:47:06.895Z</time></trkpt><trkpt lat="42.1826017" lon="14.6045717"><ele>99.57142857142857</ele><time>2026-04-29T10:47:07.894Z</time></trkpt><trkpt lat="42.1826683" lon="14.604605"><ele>99.28571428571429</ele><time>2026-04-29T10:47:08.895Z</time></trkpt><trkpt lat="42.18273" lon="14.6046367"><ele>99.0</ele><time>2026-04-29T10:47:09.894Z</time></trkpt><trkpt lat="42.182845" lon="14.6046917"><ele>98.4</ele><time>2026-04-29T10:47:11.894Z</time></trkpt><trkpt lat="42.1829067" lon="14.6047167"><ele>97.80000000000001</ele><time>2026-04-29T10:47:12.894Z</time></trkpt><trkpt lat="42.18302" lon="14.604755"><ele>97.19999999999999</ele><time>2026-04-29T10:47:14.895Z</time></trkpt><trkpt lat="42.183135" lon="14.6047883"><ele>96.6</ele><time>2026-04-29T10:47:16.895Z</time></trkpt><trkpt lat="42.1832383" lon="14.604835"><ele>96.0</ele><time>2026-04-29T10:47:18.895Z</time></trkpt><trkpt lat="42.18334" lon="14.6048933"><ele>95.4</ele><time>2026-04-29T10:47:20.894Z</time></trkpt><trkpt lat="42.183415" lon="14.6049883"><ele>94.8</ele><time>2026-04-29T10:47:22.895Z</time></trkpt><trkpt lat="42.1834417" lon="14.6051183"><ele>94.2</ele><time>2026-04-29T10:47:24.895Z</time></trkpt><trkpt lat="42.1834633" lon="14.60524"><ele>93.60000000000001</ele><time>2026-04-29T10:47:26.895Z</time></trkpt><trkpt lat="42.18349" lon="14.6053467"><ele>93.0</ele><time>2026-04-29T10:47:28.895Z</time></trkpt><trkpt lat="42.1835217" lon="14.605445"><ele>92.0</ele><time>2026-04-29T10:47:30.895Z</time></trkpt><trkpt lat="42.1835417" lon="14.6055317"><ele>91.0</ele><time>2026-04-29T10:47:32.895Z</time></trkpt><trkpt lat="42.183595" lon="14.6056233"><ele>90.0</ele><time>2026-04-29T10:47:35.895Z</time></trkpt><trkpt lat="42.1836767" lon="14.6055983"><ele>89.0</ele><time>2026-04-29T10:47:37.895Z</time></trkpt><trkpt lat="42.1837817" lon="14.6055383"><ele>88.0</ele><time>2026-04-29T10:47:39.894Z</time></trkpt><trkpt lat="42.1838867" lon="14.6054733"><ele>88.0</ele><time>2026-04-29T10:47:41.894Z</time></trkpt><trkpt lat="42.183995" lon="14.6054167"><ele>88.0</ele><time>2026-04-29T10:47:43.895Z</time></trkpt><trkpt lat="42.1841083" lon="14.6054067"><ele>88.0</ele><time>2026-04-29T10:47:45.895Z</time></trkpt><trkpt lat="42.1842267" lon="14.6054367"><ele>88.0</ele><time>2026-04-29T10:47:47.895Z</time></trkpt><trkpt lat="42.184335" lon="14.605465"><ele>88.60000000000001</ele><time>2026-04-29T10:47:49.895Z</time></trkpt><trkpt lat="42.184445" lon="14.6054967"><ele>89.2</ele><time>2026-04-29T10:47:51.894Z</time></trkpt><trkpt lat="42.1845517" lon="14.6055333"><ele>89.8</ele><time>2026-04-29T10:47:53.895Z</time></trkpt><trkpt lat="42.1846617" lon="14.605565"><ele>90.4</ele><time>2026-04-29T10:47:55.895Z</time></trkpt><trkpt lat="42.1847683" lon="14.60559"><ele>91.0</ele><time>2026-04-29T10:47:57.895Z</time></trkpt><trkpt lat="42.1848733" lon="14.6056067"><ele>91.5</ele><time>2026-04-29T10:47:59.895Z</time></trkpt><trkpt lat="42.1849867" lon="14.6056317"><ele>92.0</ele><time>2026-04-29T10:48:01.895Z</time></trkpt><trkpt lat="42.1851017" lon="14.6056583"><ele>92.5</ele><time>2026-04-29T10:48:03.894Z</time></trkpt><trkpt lat="42.1852133" lon="14.60567"><ele>93.0</ele><time>2026-04-29T10:48:05.894Z</time></trkpt><trkpt lat="42.185325" lon="14.6056917"><ele>93.0</ele><time>2026-04-29T10:48:07.895Z</time></trkpt><trkpt lat="42.1854433" lon="14.605695"><ele>93.0</ele><time>2026-04-29T10:48:09.894Z</time></trkpt><trkpt lat="42.1855583" lon="14.60569"><ele>93.0</ele><time>2026-04-29T10:48:11.895Z</time></trkpt><trkpt lat="42.18567" lon="14.6056867"><ele>93.0</ele><time>2026-04-29T10:48:13.894Z</time></trkpt><trkpt lat="42.1857867" lon="14.6056783"><ele>92.2</ele><time>2026-04-29T10:48:15.895Z</time></trkpt><trkpt lat="42.18585" lon="14.605675"><ele>91.4</ele><time>2026-04-29T10:48:16.895Z</time></trkpt><trkpt lat="42.185965" lon="14.6056667"><ele>90.60000000000001</ele><time>2026-04-29T10:48:18.894Z</time></trkpt><trkpt lat="42.1860833" lon="14.6056533"><ele>89.80000000000001</ele><time>2026-04-29T10:48:20.894Z</time></trkpt><trkpt lat="42.1862033" lon="14.6056417"><ele>89.0</ele><time>2026-04-29T10:48:22.894Z</time></trkpt><trkpt lat="42.1863217" lon="14.6056183"><ele>89.0</ele><time>2026-04-29T10:48:24.895Z</time></trkpt><trkpt lat="42.18644" lon="14.6055833"><ele>89.0</ele><time>2026-04-29T10:48:26.895Z</time></trkpt><trkpt lat="42.186505" lon="14.6055667"><ele>89.0</ele><time>2026-04-29T10:48:27.894Z</time></trkpt><trkpt lat="42.186575" lon="14.6055517"><ele>89.0</ele><time>2026-04-29T10:48:28.895Z</time></trkpt><trkpt lat="42.18664" lon="14.6055333"><ele>89.0</ele><time>2026-04-29T10:48:29.895Z</time></trkpt><trkpt lat="42.1867083" lon="14.6055167"><ele>89.0</ele><time>2026-04-29T10:48:30.895Z</time></trkpt><trkpt lat="42.18678" lon="14.6055017"><ele>88.83333333333334</ele><time>2026-04-29T10:48:31.895Z</time></trkpt><trkpt lat="42.186855" lon="14.605485"><ele>88.66666666666667</ele><time>2026-04-29T10:48:32.895Z</time></trkpt><trkpt lat="42.1869267" lon="14.6054667"><ele>88.5</ele><time>2026-04-29T10:48:33.895Z</time></trkpt><trkpt lat="42.1870033" lon="14.6054483"><ele>88.33333333333333</ele><time>2026-04-29T10:48:34.895Z</time></trkpt><trkpt lat="42.187075" lon="14.60543"><ele>88.16666666666666</ele><time>2026-04-29T10:48:35.894Z</time></trkpt><trkpt lat="42.1871483" lon="14.605415"><ele>88.0</ele><time>2026-04-29T10:48:36.895Z</time></trkpt><trkpt lat="42.1872267" lon="14.6054017"><ele>88.0</ele><time>2026-04-29T10:48:37.895Z</time></trkpt><trkpt lat="42.1873017" lon="14.6053883"><ele>88.0</ele><time>2026-04-29T10:48:38.895Z</time></trkpt><trkpt lat="42.1873767" lon="14.6053667"><ele>88.0</ele><time>2026-04-29T10:48:39.894Z</time></trkpt><trkpt lat="42.1874517" lon="14.6053467"><ele>88.0</ele><time>2026-04-29T10:48:40.895Z</time></trkpt><trkpt lat="42.1875267" lon="14.6053333"><ele>88.0</ele><time>2026-04-29T10:48:41.894Z</time></trkpt><trkpt lat="42.1875983" lon="14.6053133"><ele>88.0</ele><time>2026-04-29T10:48:42.895Z</time></trkpt><trkpt lat="42.187675" lon="14.6052967"><ele>86.66666666666666</ele><time>2026-04-29T10:48:43.894Z</time></trkpt><trkpt lat="42.18775" lon="14.6052783"><ele>85.33333333333333</ele><time>2026-04-29T10:48:44.894Z</time></trkpt><trkpt lat="42.18782" lon="14.6052567"><ele>84.0</ele><time>2026-04-29T10:48:45.894Z</time></trkpt><trkpt lat="42.1878933" lon="14.6052433"><ele>82.66666666666667</ele><time>2026-04-29T10:48:46.894Z</time></trkpt><trkpt lat="42.1879717" lon="14.60523"><ele>81.33333333333334</ele><time>2026-04-29T10:48:47.895Z</time></trkpt><trkpt lat="42.1880483" lon="14.6052167"><ele>80.0</ele><time>2026-04-29T10:48:48.895Z</time></trkpt><trkpt lat="42.1881217" lon="14.6051967"><ele>79.0</ele><time>2026-04-29T10:48:49.894Z</time></trkpt><trkpt lat="42.1882" lon="14.6051767"><ele>78.0</ele><time>2026-04-29T10:48:50.895Z</time></trkpt><trkpt lat="42.1882783" lon="14.6051633"><ele>77.0</ele><time>2026-04-29T10:48:51.894Z</time></trkpt><trkpt lat="42.18836" lon="14.6051483"><ele>76.0</ele><time>2026-04-29T10:48:52.895Z</time></trkpt><trkpt lat="42.1884433" lon="14.6051317"><ele>75.0</ele><time>2026-04-29T10:48:53.895Z</time></trkpt><trkpt lat="42.188525" lon="14.6051217"><ele>74.0</ele><time>2026-04-29T10:48:54.894Z</time></trkpt><trkpt lat="42.1886117" lon="14.60512"><ele>74.0</ele><time>2026-04-29T10:48:55.894Z</time></trkpt><trkpt lat="42.1887" lon="14.605115"><ele>74.0</ele><time>2026-04-29T10:48:56.894Z</time></trkpt><trkpt lat="42.18879" lon="14.605105"><ele>74.0</ele><time>2026-04-29T10:48:57.895Z</time></trkpt><trkpt lat="42.1888717" lon="14.6050917"><ele>74.0</ele><time>2026-04-29T10:48:58.894Z</time></trkpt><trkpt lat="42.1889583" lon="14.6050733"><ele>74.0</ele><time>2026-04-29T10:48:59.895Z</time></trkpt><trkpt lat="42.1890417" lon="14.6050433"><ele>74.0</ele><time>2026-04-29T10:49:00.895Z</time></trkpt><trkpt lat="42.1891233" lon="14.6049933"><ele>73.60000000000001</ele><time>2026-04-29T10:49:01.894Z</time></trkpt><trkpt lat="42.1891983" lon="14.6049217"><ele>73.2</ele><time>2026-04-29T10:49:02.894Z</time></trkpt><trkpt lat="42.1892767" lon="14.6048533"><ele>72.80000000000001</ele><time>2026-04-29T10:49:03.895Z</time></trkpt><trkpt lat="42.1893467" lon="14.60479"><ele>72.4</ele><time>2026-04-29T10:49:04.894Z</time></trkpt><trkpt lat="42.1894167" lon="14.6047133"><ele>72.0</ele><time>2026-04-29T10:49:05.895Z</time></trkpt><trkpt lat="42.189485" lon="14.6046333"><ele>72.0</ele><time>2026-04-29T10:49:06.894Z</time></trkpt><trkpt lat="42.189555" lon="14.6045583"><ele>72.0</ele><time>2026-04-29T10:49:07.894Z</time></trkpt><trkpt lat="42.1896233" lon="14.6044783"><ele>72.0</ele><time>2026-04-29T10:49:08.894Z</time></trkpt><trkpt lat="42.1896933" lon="14.6044033"><ele>72.0</ele><time>2026-04-29T10:49:09.895Z</time></trkpt><trkpt lat="42.1897667" lon="14.6043383"><ele>72.0</ele><time>2026-04-29T10:49:10.895Z</time></trkpt><trkpt lat="42.189835" lon="14.60428"><ele>72.0</ele><time>2026-04-29T10:49:11.895Z</time></trkpt><trkpt lat="42.1898967" lon="14.604225"><ele>68.2</ele><time>2026-04-29T10:49:12.895Z</time></trkpt><trkpt lat="42.18996" lon="14.6041733"><ele>64.4</ele><time>2026-04-29T10:49:13.895Z</time></trkpt><trkpt lat="42.1900317" lon="14.6041267"><ele>60.599999999999994</ele><time>2026-04-29T10:49:14.895Z</time></trkpt><trkpt lat="42.1901217" lon="14.6040883"><ele>56.8</ele><time>2026-04-29T10:49:15.895Z</time></trkpt><trkpt lat="42.1902233" lon="14.6040833"><ele>53.0</ele><time>2026-04-29T10:49:16.894Z</time></trkpt><trkpt lat="42.190335" lon="14.60411"><ele>53.0</ele><time>2026-04-29T10:49:17.894Z</time></trkpt><trkpt lat="42.1904567" lon="14.604135"><ele>53.0</ele><time>2026-04-29T10:49:18.895Z</time></trkpt><trkpt lat="42.190575" lon="14.6041583"><ele>53.0</ele><time>2026-04-29T10:49:19.895Z</time></trkpt><trkpt lat="42.1907017" lon="14.6041833"><ele>53.0</ele><time>2026-04-29T10:49:20.895Z</time></trkpt><trkpt lat="42.1908233" lon="14.604215"><ele>50.8</ele><time>2026-04-29T10:49:21.894Z</time></trkpt><trkpt lat="42.1909383" lon="14.6042317"><ele>48.599999999999994</ele><time>2026-04-29T10:49:22.895Z</time></trkpt><trkpt lat="42.19105" lon="14.60425"><ele>46.400000000000006</ele><time>2026-04-29T10:49:23.894Z</time></trkpt><trkpt lat="42.1911567" lon="14.6042667"><ele>44.2</ele><time>2026-04-29T10:49:24.895Z</time></trkpt><trkpt lat="42.19125" lon="14.6042533"><ele>42.0</ele><time>2026-04-29T10:49:25.895Z</time></trkpt><trkpt lat="42.1913383" lon="14.60423"><ele>42.0</ele><time>2026-04-29T10:49:26.894Z</time></trkpt><trkpt lat="42.191415" lon="14.60421"><ele>42.0</ele><time>2026-04-29T10:49:27.895Z</time></trkpt><trkpt lat="42.191485" lon="14.6041933"><ele>42.0</ele><time>2026-04-29T10:49:28.894Z</time></trkpt><trkpt lat="42.1915933" lon="14.6041833"><ele>42.0</ele><time>2026-04-29T10:49:30.895Z</time></trkpt><trkpt lat="42.19168" lon="14.6042"><ele>42.0</ele><time>2026-04-29T10:49:32.895Z</time></trkpt><trkpt lat="42.1917467" lon="14.6042283"><ele>42.0</ele><time>2026-04-29T10:49:34.895Z</time></trkpt><trkpt lat="42.1918217" lon="14.60426"><ele>42.285714285714285</ele><time>2026-04-29T10:49:37.894Z</time></trkpt><trkpt lat="42.1918783" lon="14.6043067"><ele>42.57142857142857</ele><time>2026-04-29T10:49:40.894Z</time></trkpt><trkpt lat="42.1919317" lon="14.60438"><ele>42.85714285714286</ele><time>2026-04-29T10:49:44.895Z</time></trkpt><trkpt lat="42.1919833" lon="14.60446"><ele>43.14285714285714</ele><time>2026-04-29T10:49:48.894Z</time></trkpt><trkpt lat="42.1920283" lon="14.6045483"><ele>43.42857142857143</ele><time>2026-04-29T10:49:52.895Z</time></trkpt><trkpt lat="42.1920733" lon="14.604635"><ele>43.714285714285715</ele><time>2026-04-29T10:49:56.895Z</time></trkpt><trkpt lat="42.1921083" lon="14.6047067"><ele>44.0</ele><time>2026-04-29T10:49:59.894Z</time></trkpt><trkpt lat="42.1921367" lon="14.6047867"><ele>44.0</ele><time>2026-04-29T10:50:02.895Z</time></trkpt><trkpt lat="42.19217" lon="14.6048717"><ele>44.0</ele><time>2026-04-29T10:50:05.894Z</time></trkpt><trkpt lat="42.19219" lon="14.60496"><ele>44.0</ele><time>2026-04-29T10:50:08.894Z</time></trkpt><trkpt lat="42.1922133" lon="14.6050417"><ele>44.0</ele><time>2026-04-29T10:50:11.895Z</time></trkpt><trkpt lat="42.1922267" lon="14.6051267"><ele>44.0</ele><time>2026-04-29T10:50:14.895Z</time></trkpt><trkpt lat="42.19225" lon="14.6052133"><ele>44.0</ele><time>2026-04-29T10:50:17.895Z</time></trkpt><trkpt lat="42.19228" lon="14.6053"><ele>44.0</ele><time>2026-04-29T10:50:20.895Z</time></trkpt><trkpt lat="42.19231" lon="14.605375"><ele>46.5</ele><time>2026-04-29T10:50:23.894Z</time></trkpt><trkpt lat="42.1923567" lon="14.60545"><ele>49.0</ele><time>2026-04-29T10:50:26.895Z</time></trkpt><trkpt lat="42.1924" lon="14.6055283"><ele>51.5</ele><time>2026-04-29T10:50:29.894Z</time></trkpt><trkpt lat="42.19246" lon="14.6056067"><ele>54.0</ele><time>2026-04-29T10:50:32.894Z</time></trkpt><trkpt lat="42.192515" lon="14.6056883"><ele>56.50000000000001</ele><time>2026-04-29T10:50:35.895Z</time></trkpt><trkpt lat="42.192565" lon="14.6057683"><ele>59.0</ele><time>2026-04-29T10:50:38.895Z</time></trkpt><trkpt lat="42.192605" lon="14.6058467"><ele>59.0</ele><time>2026-04-29T10:50:41.895Z</time></trkpt><trkpt lat="42.1926483" lon="14.6059283"><ele>59.0</ele><time>2026-04-29T10:50:44.894Z</time></trkpt><trkpt lat="42.1926783" lon="14.6060083"><ele>59.0</ele><time>2026-04-29T10:50:47.894Z</time></trkpt><trkpt lat="42.1927" lon="14.6061"><ele>59.0</ele><time>2026-04-29T10:50:50.894Z</time></trkpt><trkpt lat="42.1927333" lon="14.6062067"><ele>59.0</ele><time>2026-04-29T10:50:54.895Z</time></trkpt><trkpt lat="42.192755" lon="14.6063017"><ele>59.0</ele><time>2026-04-29T10:50:58.894Z</time></trkpt><trkpt lat="42.1927617" lon="14.6063917"><ele>59.0</ele><time>2026-04-29T10:51:02.894Z</time></trkpt><trkpt lat="42.19278" lon="14.60649"><ele>58.833333333333336</ele><time>2026-04-29T10:51:07.895Z</time></trkpt><trkpt lat="42.192775" lon="14.6065817"><ele>58.66666666666667</ele><time>2026-04-29T10:51:11.895Z</time></trkpt><trkpt lat="42.1927683" lon="14.6066817"><ele>58.5</ele><time>2026-04-29T10:51:15.895Z</time></trkpt><trkpt lat="42.1927633" lon="14.6067967"><ele>58.33333333333333</ele><time>2026-04-29T10:51:18.895Z</time></trkpt><trkpt lat="42.192765" lon="14.6069183"><ele>58.166666666666664</ele><time>2026-04-29T10:51:21.894Z</time></trkpt><trkpt lat="42.1927617" lon="14.60701"><ele>58.0</ele><time>2026-04-29T10:51:23.895Z</time></trkpt><trkpt lat="42.1927583" lon="14.60711"><ele>57.49999999999999</ele><time>2026-04-29T10:51:25.894Z</time></trkpt><trkpt lat="42.192765" lon="14.607205"><ele>57.0</ele><time>2026-04-29T10:51:27.895Z</time></trkpt><trkpt lat="42.19278" lon="14.6073067"><ele>56.5</ele><time>2026-04-29T10:51:29.894Z</time></trkpt><trkpt lat="42.1928033" lon="14.6074033"><ele>56.0</ele><time>2026-04-29T10:51:31.894Z</time></trkpt><trkpt lat="42.1928267" lon="14.6075"><ele>55.49999999999999</ele><time>2026-04-29T10:51:33.894Z</time></trkpt><trkpt lat="42.1928533" lon="14.6076033"><ele>55.0</ele><time>2026-04-29T10:51:35.894Z</time></trkpt><trkpt lat="42.19288" lon="14.6077033"><ele>54.99999999999999</ele><time>2026-04-29T10:51:37.895Z</time></trkpt><trkpt lat="42.1929067" lon="14.6078033"><ele>55.0</ele><time>2026-04-29T10:51:39.895Z</time></trkpt><trkpt lat="42.1929367" lon="14.6079033"><ele>55.0</ele><time>2026-04-29T10:51:41.894Z</time></trkpt><trkpt lat="42.1929633" lon="14.608005"><ele>55.0</ele><time>2026-04-29T10:51:43.894Z</time></trkpt><trkpt lat="42.1929883" lon="14.608105"><ele>54.99999999999999</ele><time>2026-04-29T10:51:45.895Z</time></trkpt><trkpt lat="42.193005" lon="14.6082033"><ele>55.0</ele><time>2026-04-29T10:51:47.895Z</time></trkpt><trkpt lat="42.1930333" lon="14.608315"><ele>54.2</ele><time>2026-04-29T10:51:49.894Z</time></trkpt><trkpt lat="42.1930683" lon="14.6084283"><ele>53.4</ele><time>2026-04-29T10:51:51.894Z</time></trkpt><trkpt lat="42.1931033" lon="14.608555"><ele>52.599999999999994</ele><time>2026-04-29T10:51:53.895Z</time></trkpt><trkpt lat="42.193135" lon="14.6086767"><ele>51.8</ele><time>2026-04-29T10:51:55.894Z</time></trkpt><trkpt lat="42.1931633" lon="14.6088033"><ele>51.0</ele><time>2026-04-29T10:51:57.895Z</time></trkpt><trkpt lat="42.1931867" lon="14.6089267"><ele>52.833333333333336</ele><time>2026-04-29T10:51:59.895Z</time></trkpt><trkpt lat="42.1932133" lon="14.6090417"><ele>54.66666666666667</ele><time>2026-04-29T10:52:01.895Z</time></trkpt><trkpt lat="42.1932383" lon="14.609155"><ele>56.5</ele><time>2026-04-29T10:52:03.895Z</time></trkpt><trkpt lat="42.1932733" lon="14.609265"><ele>58.333333333333336</ele><time>2026-04-29T10:52:05.895Z</time></trkpt><trkpt lat="42.1933083" lon="14.6093717"><ele>60.16666666666667</ele><time>2026-04-29T10:52:07.895Z</time></trkpt><trkpt lat="42.1933467" lon="14.6094683"><ele>62.0</ele><time>2026-04-29T10:52:09.895Z</time></trkpt><trkpt lat="42.1934" lon="14.6095633"><ele>62.00000000000001</ele><time>2026-04-29T10:52:11.895Z</time></trkpt><trkpt lat="42.1934567" lon="14.60965"><ele>62.0</ele><time>2026-04-29T10:52:13.895Z</time></trkpt><trkpt lat="42.1935067" lon="14.6097233"><ele>62.0</ele><time>2026-04-29T10:52:15.894Z</time></trkpt><trkpt lat="42.1935567" lon="14.6097833"><ele>62.0</ele><time>2026-04-29T10:52:17.894Z</time></trkpt><trkpt lat="42.1936067" lon="14.6098567"><ele>62.00000000000001</ele><time>2026-04-29T10:52:19.895Z</time></trkpt><trkpt lat="42.1936533" lon="14.6099483"><ele>62.0</ele><time>2026-04-29T10:52:21.895Z</time></trkpt><trkpt lat="42.1937117" lon="14.6100567"><ele>62.0</ele><time>2026-04-29T10:52:23.895Z</time></trkpt><trkpt lat="42.1937817" lon="14.6101683"><ele>62.0</ele><time>2026-04-29T10:52:25.895Z</time></trkpt><trkpt lat="42.193845" lon="14.6102667"><ele>62.0</ele><time>2026-04-29T10:52:27.895Z</time></trkpt><trkpt lat="42.1939033" lon="14.6103567"><ele>62.0</ele><time>2026-04-29T10:52:29.895Z</time></trkpt><trkpt lat="42.19396" lon="14.6104467"><ele>62.0</ele><time>2026-04-29T10:52:31.895Z</time></trkpt><trkpt lat="42.194015" lon="14.610545"><ele>62.6</ele><time>2026-04-29T10:52:33.895Z</time></trkpt><trkpt lat="42.19407" lon="14.6106517"><ele>63.2</ele><time>2026-04-29T10:52:35.894Z</time></trkpt><trkpt lat="42.1941333" lon="14.6107483"><ele>63.8</ele><time>2026-04-29T10:52:37.895Z</time></trkpt><trkpt lat="42.194205" lon="14.6108483"><ele>64.4</ele><time>2026-04-29T10:52:39.894Z</time></trkpt><trkpt lat="42.1942783" lon="14.61095"><ele>65.0</ele><time>2026-04-29T10:52:41.895Z</time></trkpt><trkpt lat="42.1943567" lon="14.6110533"><ele>65.0</ele><time>2026-04-29T10:52:43.895Z</time></trkpt><trkpt lat="42.1944283" lon="14.6111483"><ele>65.0</ele><time>2026-04-29T10:52:45.894Z</time></trkpt><trkpt lat="42.1945017" lon="14.611245"><ele>65.0</ele><time>2026-04-29T10:52:47.895Z</time></trkpt><trkpt lat="42.194575" lon="14.61134"><ele>65.0</ele><time>2026-04-29T10:52:49.895Z</time></trkpt><trkpt lat="42.1946467" lon="14.61143"><ele>65.0</ele><time>2026-04-29T10:52:51.895Z</time></trkpt><trkpt lat="42.1947167" lon="14.61153"><ele>64.83333333333334</ele><time>2026-04-29T10:52:53.895Z</time></trkpt><trkpt lat="42.19479" lon="14.6116233"><ele>64.66666666666667</ele><time>2026-04-29T10:52:55.895Z</time></trkpt><trkpt lat="42.1948567" lon="14.611705"><ele>64.5</ele><time>2026-04-29T10:52:57.895Z</time></trkpt><trkpt lat="42.1949217" lon="14.6117883"><ele>64.33333333333333</ele><time>2026-04-29T10:52:59.895Z</time></trkpt><trkpt lat="42.194985" lon="14.6118717"><ele>64.16666666666666</ele><time>2026-04-29T10:53:01.894Z</time></trkpt><trkpt lat="42.1950417" lon="14.6119483"><ele>64.0</ele><time>2026-04-29T10:53:03.895Z</time></trkpt><trkpt lat="42.1950933" lon="14.61202"><ele>63.2</ele><time>2026-04-29T10:53:05.894Z</time></trkpt><trkpt lat="42.1951517" lon="14.6121033"><ele>62.400000000000006</ele><time>2026-04-29T10:53:07.895Z</time></trkpt><trkpt lat="42.1952167" lon="14.612215"><ele>61.6</ele><time>2026-04-29T10:53:09.895Z</time></trkpt><trkpt lat="42.1952933" lon="14.6123283"><ele>60.8</ele><time>2026-04-29T10:53:11.895Z</time></trkpt><trkpt lat="42.1953817" lon="14.6124383"><ele>60.0</ele><time>2026-04-29T10:53:13.895Z</time></trkpt><trkpt lat="42.195465" lon="14.6125417"><ele>60.0</ele><time>2026-04-29T10:53:15.895Z</time></trkpt><trkpt lat="42.19555" lon="14.61265"><ele>60.0</ele><time>2026-04-29T10:53:17.894Z</time></trkpt><trkpt lat="42.19563" lon="14.6127517"><ele>60.0</ele><time>2026-04-29T10:53:19.894Z</time></trkpt><trkpt lat="42.1957017" lon="14.6128467"><ele>60.0</ele><time>2026-04-29T10:53:21.894Z</time></trkpt><trkpt lat="42.19577" lon="14.61293"><ele>60.0</ele><time>2026-04-29T10:53:23.894Z</time></trkpt><trkpt lat="42.1958333" lon="14.61301"><ele>60.0</ele><time>2026-04-29T10:53:25.895Z</time></trkpt><trkpt lat="42.1959017" lon="14.613085"><ele>60.0</ele><time>2026-04-29T10:53:27.894Z</time></trkpt><trkpt lat="42.1959683" lon="14.6131667"><ele>60.0</ele><time>2026-04-29T10:53:29.894Z</time></trkpt><trkpt lat="42.1960417" lon="14.613275"><ele>60.0</ele><time>2026-04-29T10:53:31.894Z</time></trkpt><trkpt lat="42.1961167" lon="14.6133783"><ele>60.0</ele><time>2026-04-29T10:53:33.894Z</time></trkpt><trkpt lat="42.1961967" lon="14.6134717"><ele>60.0</ele><time>2026-04-29T10:53:35.894Z</time></trkpt><trkpt lat="42.1962733" lon="14.6135617"><ele>60.0</ele><time>2026-04-29T10:53:37.895Z</time></trkpt><trkpt lat="42.19635" lon="14.6136483"><ele>60.0</ele><time>2026-04-29T10:53:39.894Z</time></trkpt><trkpt lat="42.196425" lon="14.61374"><ele>60.0</ele><time>2026-04-29T10:53:41.895Z</time></trkpt><trkpt lat="42.1964983" lon="14.6138233"><ele>60.0</ele><time>2026-04-29T10:53:43.895Z</time></trkpt><trkpt lat="42.1965733" lon="14.6139083"><ele>60.0</ele><time>2026-04-29T10:53:45.895Z</time></trkpt><trkpt lat="42.1966467" lon="14.61399"><ele>60.0</ele><time>2026-04-29T10:53:47.895Z</time></trkpt><trkpt lat="42.1967167" lon="14.6140783"><ele>60.0</ele><time>2026-04-29T10:53:49.894Z</time></trkpt><trkpt lat="42.1967917" lon="14.6141517"><ele>60.0</ele><time>2026-04-29T10:53:51.894Z</time></trkpt><trkpt lat="42.1968733" lon="14.6142317"><ele>60.0</ele><time>2026-04-29T10:53:53.895Z</time></trkpt><trkpt lat="42.1969583" lon="14.6143083"><ele>60.0</ele><time>2026-04-29T10:53:55.894Z</time></trkpt><trkpt lat="42.1970433" lon="14.614375"><ele>60.0</ele><time>2026-04-29T10:53:57.894Z</time></trkpt><trkpt lat="42.1971217" lon="14.6144467"><ele>60.0</ele><time>2026-04-29T10:53:59.895Z</time></trkpt><trkpt lat="42.19721" lon="14.614505"><ele>60.0</ele><time>2026-04-29T10:54:01.895Z</time></trkpt><trkpt lat="42.1973017" lon="14.614555"><ele>60.0</ele><time>2026-04-29T10:54:03.895Z</time></trkpt><trkpt lat="42.1973983" lon="14.614595"><ele>59.4</ele><time>2026-04-29T10:54:05.895Z</time></trkpt><trkpt lat="42.197505" lon="14.614625"><ele>58.8</ele><time>2026-04-29T10:54:07.895Z</time></trkpt><trkpt lat="42.1976183" lon="14.61464"><ele>58.2</ele><time>2026-04-29T10:54:09.894Z</time></trkpt><trkpt lat="42.1977433" lon="14.614635"><ele>57.6</ele><time>2026-04-29T10:54:11.894Z</time></trkpt><trkpt lat="42.1978117" lon="14.61463"><ele>57.0</ele><time>2026-04-29T10:54:12.895Z</time></trkpt><trkpt lat="42.1978783" lon="14.614625"><ele>57.0</ele><time>2026-04-29T10:54:13.895Z</time></trkpt><trkpt lat="42.1979417" lon="14.6146167"><ele>56.99999999999999</ele><time>2026-04-29T10:54:14.895Z</time></trkpt><trkpt lat="42.1980067" lon="14.6146"><ele>57.0</ele><time>2026-04-29T10:54:15.894Z</time></trkpt><trkpt lat="42.19808" lon="14.6145833"><ele>57.0</ele><time>2026-04-29T10:54:16.895Z</time></trkpt><trkpt lat="42.1981533" lon="14.6145617"><ele>56.99999999999999</ele><time>2026-04-29T10:54:17.894Z</time></trkpt><trkpt lat="42.1982283" lon="14.6145367"><ele>57.0</ele><time>2026-04-29T10:54:18.895Z</time></trkpt><trkpt lat="42.1983067" lon="14.6145"><ele>57.0</ele><time>2026-04-29T10:54:19.894Z</time></trkpt><trkpt lat="42.19838" lon="14.6144433"><ele>55.8</ele><time>2026-04-29T10:54:20.894Z</time></trkpt><trkpt lat="42.198445" lon="14.6143633"><ele>54.6</ele><time>2026-04-29T10:54:21.895Z</time></trkpt><trkpt lat="42.198495" lon="14.6142583"><ele>53.4</ele><time>2026-04-29T10:54:22.895Z</time></trkpt><trkpt lat="42.198535" lon="14.614135"><ele>52.199999999999996</ele><time>2026-04-29T10:54:23.895Z</time></trkpt><trkpt lat="42.19857" lon="14.6139917"><ele>51.0</ele><time>2026-04-29T10:54:24.895Z</time></trkpt><trkpt lat="42.1986" lon="14.613835"><ele>51.0</ele><time>2026-04-29T10:54:25.895Z</time></trkpt><trkpt lat="42.1986167" lon="14.613675"><ele>51.0</ele><time>2026-04-29T10:54:26.895Z</time></trkpt><trkpt lat="42.1986283" lon="14.6135033"><ele>51.0</ele><time>2026-04-29T10:54:27.895Z</time></trkpt><trkpt lat="42.1986333" lon="14.6133317"><ele>51.0</ele><time>2026-04-29T10:54:28.895Z</time></trkpt><trkpt lat="42.198625" lon="14.6131583"><ele>50.75</ele><time>2026-04-29T10:54:29.895Z</time></trkpt><trkpt lat="42.1986133" lon="14.612985"><ele>50.5</ele><time>2026-04-29T10:54:30.895Z</time></trkpt><trkpt lat="42.1986067" lon="14.6128117"><ele>50.25</ele><time>2026-04-29T10:54:31.894Z</time></trkpt><trkpt lat="42.1986017" lon="14.612655"><ele>50.0</ele><time>2026-04-29T10:54:32.894Z</time></trkpt><trkpt lat="42.1985917" lon="14.612525"><ele>48.8</ele><time>2026-04-29T10:54:33.895Z</time></trkpt><trkpt lat="42.1985817" lon="14.6124067"><ele>47.6</ele><time>2026-04-29T10:54:34.895Z</time></trkpt><trkpt lat="42.19859" lon="14.6122917"><ele>46.400000000000006</ele><time>2026-04-29T10:54:35.894Z</time></trkpt><trkpt lat="42.198625" lon="14.6121833"><ele>45.2</ele><time>2026-04-29T10:54:36.895Z</time></trkpt><trkpt lat="42.1986917" lon="14.6120867"><ele>44.0</ele><time>2026-04-29T10:54:37.895Z</time></trkpt><trkpt lat="42.1987883" lon="14.6120217"><ele>44.0</ele><time>2026-04-29T10:54:38.895Z</time></trkpt><trkpt lat="42.1988933" lon="14.6119967"><ele>44.0</ele><time>2026-04-29T10:54:39.895Z</time></trkpt><trkpt lat="42.1990017" lon="14.6119883"><ele>44.0</ele><time>2026-04-29T10:54:40.894Z</time></trkpt><trkpt lat="42.1990967" lon="14.61197"><ele>44.0</ele><time>2026-04-29T10:54:41.894Z</time></trkpt><trkpt lat="42.19919" lon="14.6119367"><ele>44.0</ele><time>2026-04-29T10:54:42.895Z</time></trkpt><trkpt lat="42.1992717" lon="14.611885"><ele>40.2</ele><time>2026-04-29T10:54:43.895Z</time></trkpt><trkpt lat="42.1993483" lon="14.611815"><ele>36.400000000000006</ele><time>2026-04-29T10:54:44.895Z</time></trkpt><trkpt lat="42.199415" lon="14.6117167"><ele>32.6</ele><time>2026-04-29T10:54:45.895Z</time></trkpt><trkpt lat="42.1994633" lon="14.6115983"><ele>28.8</ele><time>2026-04-29T10:54:46.895Z</time></trkpt><trkpt lat="42.1995017" lon="14.6114783"><ele>25.0</ele><time>2026-04-29T10:54:47.895Z</time></trkpt><trkpt lat="42.19953" lon="14.6113667"><ele>25.000000000000004</ele><time>2026-04-29T10:54:48.895Z</time></trkpt><trkpt lat="42.1995567" lon="14.611255"><ele>25.0</ele><time>2026-04-29T10:54:49.895Z</time></trkpt><trkpt lat="42.19958" lon="14.6111583"><ele>25.0</ele><time>2026-04-29T10:54:50.895Z</time></trkpt><trkpt lat="42.1996017" lon="14.6110633"><ele>25.0</ele><time>2026-04-29T10:54:51.894Z</time></trkpt><trkpt lat="42.1996183" lon="14.61096"><ele>25.000000000000004</ele><time>2026-04-29T10:54:52.895Z</time></trkpt><trkpt lat="42.1996567" lon="14.6107967"><ele>25.0</ele><time>2026-04-29T10:54:54.895Z</time></trkpt><trkpt lat="42.1997183" lon="14.6107033"><ele>24.666666666666668</ele><time>2026-04-29T10:54:56.895Z</time></trkpt><trkpt lat="42.1997683" lon="14.6106067"><ele>24.333333333333336</ele><time>2026-04-29T10:55:00.894Z</time></trkpt><trkpt lat="42.1997833" lon="14.610505"><ele>24.0</ele><time>2026-04-29T10:55:02.894Z</time></trkpt><trkpt lat="42.199765" lon="14.6104067"><ele>23.666666666666668</ele><time>2026-04-29T10:55:04.894Z</time></trkpt><trkpt lat="42.1997433" lon="14.61028"><ele>23.333333333333336</ele><time>2026-04-29T10:55:06.895Z</time></trkpt><trkpt lat="42.199715" lon="14.6101567"><ele>23.0</ele><time>2026-04-29T10:55:08.894Z</time></trkpt><trkpt lat="42.199685" lon="14.6100367"><ele>22.599999999999998</ele><time>2026-04-29T10:55:10.895Z</time></trkpt><trkpt lat="42.19965" lon="14.6098917"><ele>22.2</ele><time>2026-04-29T10:55:12.895Z</time></trkpt><trkpt lat="42.199615" lon="14.6097433"><ele>21.8</ele><time>2026-04-29T10:55:14.895Z</time></trkpt><trkpt lat="42.1996" lon="14.6096583"><ele>21.4</ele><time>2026-04-29T10:55:15.895Z</time></trkpt><trkpt lat="42.1995717" lon="14.60952"><ele>21.0</ele><time>2026-04-29T10:55:17.895Z</time></trkpt><trkpt lat="42.1995333" lon="14.6093733"><ele>20.6</ele><time>2026-04-29T10:55:19.894Z</time></trkpt><trkpt lat="42.199495" lon="14.6092317"><ele>20.200000000000003</ele><time>2026-04-29T10:55:21.895Z</time></trkpt><trkpt lat="42.1994617" lon="14.60909"><ele>19.799999999999997</ele><time>2026-04-29T10:55:23.895Z</time></trkpt><trkpt lat="42.1994483" lon="14.6090067"><ele>19.4</ele><time>2026-04-29T10:55:24.894Z</time></trkpt><trkpt lat="42.1994183" lon="14.6088533"><ele>19.0</ele><time>2026-04-29T10:55:26.895Z</time></trkpt><trkpt lat="42.19938" lon="14.6087133"><ele>18.0</ele><time>2026-04-29T10:55:28.895Z</time></trkpt><trkpt lat="42.1993483" lon="14.60857"><ele>17.0</ele><time>2026-04-29T10:55:30.894Z</time></trkpt><trkpt lat="42.1993217" lon="14.60844"><ele>15.999999999999998</ele><time>2026-04-29T10:55:32.894Z</time></trkpt><trkpt lat="42.1992967" lon="14.6083"><ele>15.0</ele><time>2026-04-29T10:55:34.894Z</time></trkpt><trkpt lat="42.1992683" lon="14.6081533"><ele>14.0</ele><time>2026-04-29T10:55:36.895Z</time></trkpt><trkpt lat="42.1992267" lon="14.6080117"><ele>14.0</ele><time>2026-04-29T10:55:38.895Z</time></trkpt><trkpt lat="42.199205" lon="14.6078583"><ele>14.0</ele><time>2026-04-29T10:55:40.895Z</time></trkpt><trkpt lat="42.1991683" lon="14.607715"><ele>14.0</ele><time>2026-04-29T10:55:42.894Z</time></trkpt><trkpt lat="42.19913" lon="14.607565"><ele>14.0</ele><time>2026-04-29T10:55:44.895Z</time></trkpt><trkpt lat="42.1990983" lon="14.607415"><ele>13.75</ele><time>2026-04-29T10:55:46.895Z</time></trkpt><trkpt lat="42.1990633" lon="14.6072733"><ele>13.5</ele><time>2026-04-29T10:55:48.895Z</time></trkpt><trkpt lat="42.199025" lon="14.6071317"><ele>13.25</ele><time>2026-04-29T10:55:50.894Z</time></trkpt><trkpt lat="42.1989867" lon="14.6069867"><ele>13.0</ele><time>2026-04-29T10:55:52.895Z</time></trkpt><trkpt lat="42.198955" lon="14.6068383"><ele>14.5</ele><time>2026-04-29T10:55:54.895Z</time></trkpt><trkpt lat="42.19892" lon="14.6066867"><ele>16.0</ele><time>2026-04-29T10:55:56.895Z</time></trkpt><trkpt lat="42.1988833" lon="14.6065317"><ele>17.5</ele><time>2026-04-29T10:55:58.895Z</time></trkpt><trkpt lat="42.19885" lon="14.6063783"><ele>19.0</ele><time>2026-04-29T10:56:00.895Z</time></trkpt><trkpt lat="42.1988133" lon="14.6062383"><ele>19.25</ele><time>2026-04-29T10:56:02.895Z</time></trkpt><trkpt lat="42.1987783" lon="14.6060933"><ele>19.5</ele><time>2026-04-29T10:56:04.894Z</time></trkpt><trkpt lat="42.19875" lon="14.6059417"><ele>19.75</ele><time>2026-04-29T10:56:06.894Z</time></trkpt><trkpt lat="42.1987217" lon="14.6057917"><ele>20.0</ele><time>2026-04-29T10:56:08.894Z</time></trkpt><trkpt lat="42.1986933" lon="14.60564"><ele>20.0</ele><time>2026-04-29T10:56:10.895Z</time></trkpt><trkpt lat="42.1986683" lon="14.6054867"><ele>20.0</ele><time>2026-04-29T10:56:12.895Z</time></trkpt><trkpt lat="42.1986417" lon="14.605335"><ele>20.0</ele><time>2026-04-29T10:56:14.894Z</time></trkpt><trkpt lat="42.1986283" lon="14.6051917"><ele>20.0</ele><time>2026-04-29T10:56:16.894Z</time></trkpt><trkpt lat="42.198615" lon="14.6050367"><ele>19.75</ele><time>2026-04-29T10:56:18.895Z</time></trkpt><trkpt lat="42.1986117" lon="14.6048783"><ele>19.5</ele><time>2026-04-29T10:56:20.894Z</time></trkpt><trkpt lat="42.1986083" lon="14.6047167"><ele>19.25</ele><time>2026-04-29T10:56:22.894Z</time></trkpt><trkpt lat="42.198615" lon="14.6045617"><ele>19.0</ele><time>2026-04-29T10:56:24.894Z</time></trkpt><trkpt lat="42.1986183" lon="14.6044117"><ele>18.599999999999998</ele><time>2026-04-29T10:56:26.894Z</time></trkpt><trkpt lat="42.19863" lon="14.6042633"><ele>18.2</ele><time>2026-04-29T10:56:28.895Z</time></trkpt><trkpt lat="42.1986517" lon="14.6041"><ele>17.799999999999997</ele><time>2026-04-29T10:56:30.895Z</time></trkpt><trkpt lat="42.1986617" lon="14.6040133"><ele>17.4</ele><time>2026-04-29T10:56:31.895Z</time></trkpt><trkpt lat="42.1986717" lon="14.603925"><ele>17.0</ele><time>2026-04-29T10:56:32.895Z</time></trkpt><trkpt lat="42.198685" lon="14.6037667"><ele>17.0</ele><time>2026-04-29T10:56:34.894Z</time></trkpt><trkpt lat="42.1986933" lon="14.6036817"><ele>17.0</ele><time>2026-04-29T10:56:35.895Z</time></trkpt><trkpt lat="42.1987183" lon="14.6035183"><ele>17.0</ele><time>2026-04-29T10:56:37.895Z</time></trkpt><trkpt lat="42.1987467" lon="14.6033517"><ele>17.0</ele><time>2026-04-29T10:56:39.894Z</time></trkpt><trkpt lat="42.1987683" lon="14.6031917"><ele>17.0</ele><time>2026-04-29T10:56:41.895Z</time></trkpt><trkpt lat="42.1987933" lon="14.6030283"><ele>17.0</ele><time>2026-04-29T10:56:43.895Z</time></trkpt><trkpt lat="42.1988033" lon="14.6029433"><ele>17.0</ele><time>2026-04-29T10:56:44.894Z</time></trkpt><trkpt lat="42.1988283" lon="14.6027783"><ele>17.0</ele><time>2026-04-29T10:56:46.895Z</time></trkpt><trkpt lat="42.19885" lon="14.602615"><ele>17.0</ele><time>2026-04-29T10:56:48.894Z</time></trkpt><trkpt lat="42.1988733" lon="14.6024533"><ele>17.0</ele><time>2026-04-29T10:56:50.895Z</time></trkpt><trkpt lat="42.198885" lon="14.602365"><ele>17.0</ele><time>2026-04-29T10:56:51.894Z</time></trkpt><trkpt lat="42.1988983" lon="14.60228"><ele>17.0</ele><time>2026-04-29T10:56:52.895Z</time></trkpt><trkpt lat="42.1989183" lon="14.6021233"><ele>17.0</ele><time>2026-04-29T10:56:54.894Z</time></trkpt><trkpt lat="42.198945" lon="14.6019717"><ele>17.0</ele><time>2026-04-29T10:56:56.894Z</time></trkpt><trkpt lat="42.19897" lon="14.601815"><ele>17.0</ele><time>2026-04-29T10:56:58.894Z</time></trkpt><trkpt lat="42.1989917" lon="14.60166"><ele>15.5</ele><time>2026-04-29T10:57:00.895Z</time></trkpt><trkpt lat="42.199025" lon="14.60151"><ele>14.0</ele><time>2026-04-29T10:57:02.895Z</time></trkpt><trkpt lat="42.1990633" lon="14.6013517"><ele>12.5</ele><time>2026-04-29T10:57:04.894Z</time></trkpt><trkpt lat="42.1991117" lon="14.6012133"><ele>11.0</ele><time>2026-04-29T10:57:06.895Z</time></trkpt><trkpt lat="42.1991633" lon="14.60108"><ele>11.0</ele><time>2026-04-29T10:57:08.895Z</time></trkpt><trkpt lat="42.19922" lon="14.600955"><ele>11.0</ele><time>2026-04-29T10:57:10.894Z</time></trkpt><trkpt lat="42.19928" lon="14.600905"><ele>11.0</ele><time>2026-04-29T10:57:12.894Z</time></trkpt><trkpt lat="42.1993667" lon="14.600935"><ele>11.0</ele><time>2026-04-29T10:57:14.895Z</time></trkpt><trkpt lat="42.1994967" lon="14.601005"><ele>11.0</ele><time>2026-04-29T10:57:16.894Z</time></trkpt><trkpt lat="42.1995783" lon="14.6010467"><ele>11.0</ele><time>2026-04-29T10:57:17.895Z</time></trkpt><trkpt lat="42.1996517" lon="14.6010967"><ele>11.0</ele><time>2026-04-29T10:57:18.895Z</time></trkpt><trkpt lat="42.19972" lon="14.6011567"><ele>11.0</ele><time>2026-04-29T10:57:19.895Z</time></trkpt><trkpt lat="42.1997833" lon="14.601215"><ele>11.0</ele><time>2026-04-29T10:57:20.895Z</time></trkpt><trkpt lat="42.1998467" lon="14.6012917"><ele>11.0</ele><time>2026-04-29T10:57:22.895Z</time></trkpt><trkpt lat="42.1998883" lon="14.6013667"><ele>11.0</ele><time>2026-04-29T10:57:25.895Z</time></trkpt><trkpt lat="42.19994" lon="14.60146"><ele>9.833333333333332</ele><time>2026-04-29T10:57:28.894Z</time></trkpt><trkpt lat="42.199985" lon="14.601535"><ele>8.666666666666666</ele><time>2026-04-29T10:57:30.894Z</time></trkpt><trkpt lat="42.20004" lon="14.6016233"><ele>7.5</ele><time>2026-04-29T10:57:32.894Z</time></trkpt><trkpt lat="42.2000883" lon="14.601715"><ele>6.333333333333333</ele><time>2026-04-29T10:57:34.894Z</time></trkpt><trkpt lat="42.200145" lon="14.6018117"><ele>5.166666666666666</ele><time>2026-04-29T10:57:36.894Z</time></trkpt><trkpt lat="42.2002" lon="14.6019117"><ele>4.0</ele><time>2026-04-29T10:57:38.895Z</time></trkpt><trkpt lat="42.2002517" lon="14.60201"><ele>4.0</ele><time>2026-04-29T10:57:40.894Z</time></trkpt><trkpt lat="42.2003033" lon="14.602105"><ele>4.0</ele><time>2026-04-29T10:57:42.894Z</time></trkpt><trkpt lat="42.20036" lon="14.6022117"><ele>4.0</ele><time>2026-04-29T10:57:44.895Z</time></trkpt><trkpt lat="42.2004133" lon="14.6023217"><ele>4.0</ele><time>2026-04-29T10:57:46.895Z</time></trkpt><trkpt lat="42.200465" lon="14.60242"><ele>4.0</ele><time>2026-04-29T10:57:48.895Z</time></trkpt><trkpt lat="42.20051" lon="14.60253"><ele>4.0</ele><time>2026-04-29T10:57:50.895Z</time></trkpt><trkpt lat="42.2005517" lon="14.602635"><ele>4.0</ele><time>2026-04-29T10:57:52.894Z</time></trkpt><trkpt lat="42.2006083" lon="14.602745"><ele>4.0</ele><time>2026-04-29T10:57:54.895Z</time></trkpt><trkpt lat="42.20067" lon="14.60286"><ele>4.0</ele><time>2026-04-29T10:57:56.894Z</time></trkpt><trkpt lat="42.2007117" lon="14.6029633"><ele>4.0</ele><time>2026-04-29T10:57:58.895Z</time></trkpt><trkpt lat="42.2007567" lon="14.6030717"><ele>3.6</ele><time>2026-04-29T10:58:00.894Z</time></trkpt><trkpt lat="42.2008083" lon="14.603175"><ele>3.2</ele><time>2026-04-29T10:58:02.895Z</time></trkpt><trkpt lat="42.2008683" lon="14.60329"><ele>2.8000000000000003</ele><time>2026-04-29T10:58:04.895Z</time></trkpt><trkpt lat="42.20092" lon="14.6034067"><ele>2.4000000000000004</ele><time>2026-04-29T10:58:06.895Z</time></trkpt><trkpt lat="42.2009683" lon="14.603515"><ele>2.0</ele><time>2026-04-29T10:58:08.894Z</time></trkpt><trkpt lat="42.2010133" lon="14.6036183"><ele>1.8</ele><time>2026-04-29T10:58:10.894Z</time></trkpt><trkpt lat="42.2010667" lon="14.60372"><ele>1.6</ele><time>2026-04-29T10:58:12.895Z</time></trkpt><trkpt lat="42.2011267" lon="14.603815"><ele>1.4000000000000001</ele><time>2026-04-29T10:58:14.895Z</time></trkpt><trkpt lat="42.201195" lon="14.6039067"><ele>1.2000000000000002</ele><time>2026-04-29T10:58:16.895Z</time></trkpt><trkpt lat="42.20126" lon="14.60399"><ele>1.0</ele><time>2026-04-29T10:58:18.895Z</time></trkpt><trkpt lat="42.2013283" lon="14.6040733"><ele>1.0</ele><time>2026-04-29T10:58:20.894Z</time></trkpt><trkpt lat="42.201395" lon="14.6041617"><ele>1.0</ele><time>2026-04-29T10:58:22.894Z</time></trkpt><trkpt lat="42.2014633" lon="14.6042467"><ele>1.0</ele><time>2026-04-29T10:58:24.894Z</time></trkpt><trkpt lat="42.201525" lon="14.6043283"><ele>1.0</ele><time>2026-04-29T10:58:26.895Z</time></trkpt><trkpt lat="42.2015933" lon="14.60441"><ele>1.0</ele><time>2026-04-29T10:58:28.895Z</time></trkpt><trkpt lat="42.2016567" lon="14.604495"><ele>1.2000000000000002</ele><time>2026-04-29T10:58:30.895Z</time></trkpt><trkpt lat="42.2017233" lon="14.6045767"><ele>1.4000000000000001</ele><time>2026-04-29T10:58:32.894Z</time></trkpt><trkpt lat="42.201785" lon="14.6046683"><ele>1.6</ele><time>2026-04-29T10:58:34.895Z</time></trkpt><trkpt lat="42.2018433" lon="14.6047583"><ele>1.8</ele><time>2026-04-29T10:58:36.895Z</time></trkpt><trkpt lat="42.2019067" lon="14.6048467"><ele>2.0</ele><time>2026-04-29T10:58:38.895Z</time></trkpt><trkpt lat="42.2019683" lon="14.60494"><ele>2.0</ele><time>2026-04-29T10:58:40.894Z</time></trkpt><trkpt lat="42.20204" lon="14.605035"><ele>2.0</ele><time>2026-04-29T10:58:42.894Z</time></trkpt><trkpt lat="42.202135" lon="14.6051317"><ele>2.0</ele><time>2026-04-29T10:58:44.895Z</time></trkpt><trkpt lat="42.2022233" lon="14.6052183"><ele>2.0</ele><time>2026-04-29T10:58:46.894Z</time></trkpt><trkpt lat="42.2022883" lon="14.605295"><ele>2.0</ele><time>2026-04-29T10:58:48.895Z</time></trkpt><trkpt lat="42.2023567" lon="14.6053767"><ele>1.8333333333333333</ele><time>2026-04-29T10:58:50.894Z</time></trkpt><trkpt lat="42.2024167" lon="14.6054483"><ele>1.6666666666666665</ele><time>2026-04-29T10:58:52.894Z</time></trkpt><trkpt lat="42.2024883" lon="14.60552"><ele>1.5</ele><time>2026-04-29T10:58:54.894Z</time></trkpt><trkpt lat="42.2025633" lon="14.60558"><ele>1.3333333333333333</ele><time>2026-04-29T10:58:56.894Z</time></trkpt><trkpt lat="42.2026383" lon="14.6056317"><ele>1.1666666666666665</ele><time>2026-04-29T10:58:58.895Z</time></trkpt><trkpt lat="42.202715" lon="14.6056767"><ele>1.0</ele><time>2026-04-29T10:59:00.894Z</time></trkpt><trkpt lat="42.202795" lon="14.6057217"><ele>0.9999999999999999</ele><time>2026-04-29T10:59:02.894Z</time></trkpt><trkpt lat="42.20287" lon="14.60577"><ele>1.0</ele><time>2026-04-29T10:59:04.894Z</time></trkpt><trkpt lat="42.2029517" lon="14.6058233"><ele>1.0</ele><time>2026-04-29T10:59:06.895Z</time></trkpt><trkpt lat="42.2030317" lon="14.6058817"><ele>1.0</ele><time>2026-04-29T10:59:08.895Z</time></trkpt><trkpt lat="42.2031067" lon="14.605925"><ele>0.9999999999999999</ele><time>2026-04-29T10:59:10.894Z</time></trkpt><trkpt lat="42.203185" lon="14.605975"><ele>1.0</ele><time>2026-04-29T10:59:12.894Z</time></trkpt><trkpt lat="42.2032533" lon="14.6060267"><ele>1.0</ele><time>2026-04-29T10:59:14.893Z</time></trkpt><trkpt lat="42.2032683" lon="14.6061117"><ele>0.9999999999999999</ele><time>2026-04-29T10:59:16.893Z</time></trkpt><trkpt lat="42.2032183" lon="14.6062217"><ele>1.0</ele><time>2026-04-29T10:59:19.893Z</time></trkpt><trkpt lat="42.2032383" lon="14.6063217"><ele>1.0</ele><time>2026-04-29T10:59:22.893Z</time></trkpt><trkpt lat="42.2033017" lon="14.6063417"><ele>0.9999999999999999</ele><time>2026-04-29T10:59:26.894Z</time></trkpt><trkpt lat="42.2033733" lon="14.606335"><ele>1.0</ele><time>2026-04-29T10:59:30.894Z</time></trkpt><trkpt lat="42.2034383" lon="14.60635"><ele>1.0</ele><time>2026-04-29T10:59:35.893Z</time></trkpt><trkpt lat="42.2034133" lon="14.6064467"><ele>0.9999999999999999</ele><time>2026-04-29T10:59:39.894Z</time></trkpt><trkpt lat="42.203365" lon="14.60653"><ele>1.0</ele><time>2026-04-29T10:59:42.894Z</time></trkpt><trkpt lat="42.2033167" lon="14.6066283"><ele>1.0</ele><time>2026-04-29T10:59:45.894Z</time></trkpt><trkpt lat="42.203285" lon="14.6067083"><ele>1.0</ele><time>2026-04-29T10:59:47.893Z</time></trkpt><trkpt lat="42.203245" lon="14.606785"><ele>0.9999999999999999</ele><time>2026-04-29T10:59:49.894Z</time></trkpt><trkpt lat="42.20321" lon="14.60687"><ele>1.0</ele><time>2026-04-29T10:59:51.893Z</time></trkpt><trkpt lat="42.20317" lon="14.6069617"><ele>1.3333333333333333</ele><time>2026-04-29T10:59:53.894Z</time></trkpt><trkpt lat="42.2031267" lon="14.6070517"><ele>1.6666666666666665</ele><time>2026-04-29T10:59:55.893Z</time></trkpt><trkpt lat="42.20308" lon="14.6071433"><ele>2.0</ele><time>2026-04-29T10:59:57.894Z</time></trkpt><trkpt lat="42.203045" lon="14.6072317"><ele>2.3333333333333335</ele><time>2026-04-29T10:59:59.894Z</time></trkpt><trkpt lat="42.2030017" lon="14.60733"><ele>2.6666666666666665</ele><time>2026-04-29T11:00:01.894Z</time></trkpt><trkpt lat="42.2029617" lon="14.60743"><ele>3.0</ele><time>2026-04-29T11:00:03.893Z</time></trkpt><trkpt lat="42.202915" lon="14.60753"><ele>3.0</ele><time>2026-04-29T11:00:05.893Z</time></trkpt><trkpt lat="42.2028667" lon="14.60763"><ele>3.0</ele><time>2026-04-29T11:00:07.894Z</time></trkpt><trkpt lat="42.202825" lon="14.6077333"><ele>3.0</ele><time>2026-04-29T11:00:09.894Z</time></trkpt><trkpt lat="42.20278" lon="14.6078367"><ele>3.0</ele><time>2026-04-29T11:00:11.894Z</time></trkpt><trkpt lat="42.2027367" lon="14.6079333"><ele>3.0</ele><time>2026-04-29T11:00:13.894Z</time></trkpt><trkpt lat="42.2026967" lon="14.6080333"><ele>3.0</ele><time>2026-04-29T11:00:15.893Z</time></trkpt><trkpt lat="42.2026567" lon="14.608135"><ele>3.1666666666666665</ele><time>2026-04-29T11:00:17.894Z</time></trkpt><trkpt lat="42.2026117" lon="14.6082383"><ele>3.333333333333333</ele><time>2026-04-29T11:00:19.894Z</time></trkpt><trkpt lat="42.20257" lon="14.6083383"><ele>3.5</ele><time>2026-04-29T11:00:21.893Z</time></trkpt><trkpt lat="42.2025233" lon="14.60844"><ele>3.6666666666666665</ele><time>2026-04-29T11:00:23.894Z</time></trkpt><trkpt lat="42.20248" lon="14.6085483"><ele>3.833333333333333</ele><time>2026-04-29T11:00:25.894Z</time></trkpt><trkpt lat="42.202435" lon="14.6086583"><ele>4.0</ele><time>2026-04-29T11:00:27.894Z</time></trkpt><trkpt lat="42.2023933" lon="14.6087633"><ele>4.166666666666666</ele><time>2026-04-29T11:00:29.894Z</time></trkpt><trkpt lat="42.2023533" lon="14.60887"><ele>4.333333333333333</ele><time>2026-04-29T11:00:31.894Z</time></trkpt><trkpt lat="42.2023133" lon="14.60896"><ele>4.5</ele><time>2026-04-29T11:00:33.893Z</time></trkpt><trkpt lat="42.20227" lon="14.609065"><ele>4.666666666666667</ele><time>2026-04-29T11:00:35.893Z</time></trkpt><trkpt lat="42.202225" lon="14.6091817"><ele>4.833333333333334</ele><time>2026-04-29T11:00:37.894Z</time></trkpt><trkpt lat="42.20218" lon="14.6092933"><ele>5.0</ele><time>2026-04-29T11:00:39.893Z</time></trkpt><trkpt lat="42.20214" lon="14.6094"><ele>4.666666666666667</ele><time>2026-04-29T11:00:41.894Z</time></trkpt><trkpt lat="42.2021" lon="14.6095017"><ele>4.333333333333334</ele><time>2026-04-29T11:00:43.894Z</time></trkpt><trkpt lat="42.2020583" lon="14.6096083"><ele>4.0</ele><time>2026-04-29T11:00:45.893Z</time></trkpt><trkpt lat="42.2020167" lon="14.6097117"><ele>3.666666666666667</ele><time>2026-04-29T11:00:47.893Z</time></trkpt><trkpt lat="42.2019733" lon="14.6098183"><ele>3.3333333333333335</ele><time>2026-04-29T11:00:49.894Z</time></trkpt><trkpt lat="42.201945" lon="14.6099383"><ele>3.0</ele><time>2026-04-29T11:00:51.893Z</time></trkpt><trkpt lat="42.2019433" lon="14.610075"><ele>3.0</ele><time>2026-04-29T11:00:53.894Z</time></trkpt><trkpt lat="42.2019467" lon="14.6102417"><ele>3.0</ele><time>2026-04-29T11:00:55.893Z</time></trkpt><trkpt lat="42.2019467" lon="14.6103383"><ele>3.0</ele><time>2026-04-29T11:00:56.894Z</time></trkpt><trkpt lat="42.20194" lon="14.6104333"><ele>3.0</ele><time>2026-04-29T11:00:57.894Z</time></trkpt><trkpt lat="42.2019233" lon="14.610525"><ele>3.0</ele><time>2026-04-29T11:00:58.893Z</time></trkpt><trkpt lat="42.20189" lon="14.61061"><ele>3.0</ele><time>2026-04-29T11:00:59.894Z</time></trkpt><trkpt lat="42.2018583" lon="14.6106967"><ele>3.4</ele><time>2026-04-29T11:01:00.894Z</time></trkpt><trkpt lat="42.2018333" lon="14.6107817"><ele>3.8</ele><time>2026-04-29T11:01:01.894Z</time></trkpt><trkpt lat="42.201785" lon="14.6109317"><ele>4.2</ele><time>2026-04-29T11:01:03.893Z</time></trkpt><trkpt lat="42.201735" lon="14.611075"><ele>4.6</ele><time>2026-04-29T11:01:05.894Z</time></trkpt><trkpt lat="42.20169" lon="14.6111983"><ele>5.0</ele><time>2026-04-29T11:01:07.894Z</time></trkpt><trkpt lat="42.2016517" lon="14.6113333"><ele>5.0</ele><time>2026-04-29T11:01:09.893Z</time></trkpt><trkpt lat="42.2016033" lon="14.61146"><ele>5.0</ele><time>2026-04-29T11:01:11.893Z</time></trkpt><trkpt lat="42.20156" lon="14.6115883"><ele>5.0</ele><time>2026-04-29T11:01:13.893Z</time></trkpt><trkpt lat="42.201515" lon="14.6117233"><ele>5.0</ele><time>2026-04-29T11:01:15.894Z</time></trkpt><trkpt lat="42.2014733" lon="14.611855"><ele>5.0</ele><time>2026-04-29T11:01:17.894Z</time></trkpt><trkpt lat="42.2014367" lon="14.611985"><ele>5.2</ele><time>2026-04-29T11:01:19.894Z</time></trkpt><trkpt lat="42.201395" lon="14.61211"><ele>5.4</ele><time>2026-04-29T11:01:21.893Z</time></trkpt><trkpt lat="42.20136" lon="14.612235"><ele>5.6</ele><time>2026-04-29T11:01:23.894Z</time></trkpt><trkpt lat="42.20132" lon="14.6123583"><ele>5.8</ele><time>2026-04-29T11:01:25.893Z</time></trkpt><trkpt lat="42.2012817" lon="14.6124867"><ele>6.0</ele><time>2026-04-29T11:01:27.894Z</time></trkpt><trkpt lat="42.2012417" lon="14.61261"><ele>6.0</ele><time>2026-04-29T11:01:29.894Z</time></trkpt><trkpt lat="42.2012083" lon="14.612735"><ele>6.0</ele><time>2026-04-29T11:01:31.894Z</time></trkpt><trkpt lat="42.2011717" lon="14.61286"><ele>6.0</ele><time>2026-04-29T11:01:33.894Z</time></trkpt><trkpt lat="42.2011367" lon="14.6129717"><ele>6.0</ele><time>2026-04-29T11:01:35.894Z</time></trkpt><trkpt lat="42.2011033" lon="14.6130883"><ele>6.0</ele><time>2026-04-29T11:01:37.894Z</time></trkpt><trkpt lat="42.2010617" lon="14.6132017"><ele>6.166666666666667</ele><time>2026-04-29T11:01:39.894Z</time></trkpt><trkpt lat="42.2010233" lon="14.61332"><ele>6.333333333333334</ele><time>2026-04-29T11:01:41.894Z</time></trkpt><trkpt lat="42.2009933" lon="14.6134267"><ele>6.5</ele><time>2026-04-29T11:01:43.894Z</time></trkpt><trkpt lat="42.20096" lon="14.6135317"><ele>6.666666666666667</ele><time>2026-04-29T11:01:45.894Z</time></trkpt><trkpt lat="42.2009267" lon="14.61364"><ele>6.833333333333334</ele><time>2026-04-29T11:01:47.893Z</time></trkpt><trkpt lat="42.2008833" lon="14.6137517"><ele>7.0</ele><time>2026-04-29T11:01:49.893Z</time></trkpt><trkpt lat="42.2008533" lon="14.6138633"><ele>6.666666666666667</ele><time>2026-04-29T11:01:51.893Z</time></trkpt><trkpt lat="42.200825" lon="14.6139683"><ele>6.333333333333334</ele><time>2026-04-29T11:01:53.894Z</time></trkpt><trkpt lat="42.2008" lon="14.6140667"><ele>6.0</ele><time>2026-04-29T11:01:55.893Z</time></trkpt><trkpt lat="42.2007733" lon="14.6141617"><ele>5.666666666666667</ele><time>2026-04-29T11:01:57.894Z</time></trkpt><trkpt lat="42.2007417" lon="14.6142617"><ele>5.333333333333334</ele><time>2026-04-29T11:01:59.894Z</time></trkpt><trkpt lat="42.2007067" lon="14.6143733"><ele>5.0</ele><time>2026-04-29T11:02:01.893Z</time></trkpt><trkpt lat="42.2006867" lon="14.6144867"><ele>4.666666666666667</ele><time>2026-04-29T11:02:03.893Z</time></trkpt><trkpt lat="42.2006633" lon="14.614595"><ele>4.333333333333334</ele><time>2026-04-29T11:02:05.893Z</time></trkpt><trkpt lat="42.2006617" lon="14.6147217"><ele>4.0</ele><time>2026-04-29T11:02:07.894Z</time></trkpt><trkpt lat="42.2006683" lon="14.6148333"><ele>3.666666666666667</ele><time>2026-04-29T11:02:09.894Z</time></trkpt><trkpt lat="42.2006533" lon="14.6149383"><ele>3.3333333333333335</ele><time>2026-04-29T11:02:11.894Z</time></trkpt><trkpt lat="42.2006133" lon="14.6150417"><ele>3.0</ele><time>2026-04-29T11:02:13.893Z</time></trkpt><trkpt lat="42.2005667" lon="14.61515"><ele>3.1666666666666665</ele><time>2026-04-29T11:02:15.894Z</time></trkpt><trkpt lat="42.2005167" lon="14.6152383"><ele>3.333333333333333</ele><time>2026-04-29T11:02:17.893Z</time></trkpt><trkpt lat="42.2004817" lon="14.615315"><ele>3.5</ele><time>2026-04-29T11:02:19.893Z</time></trkpt><trkpt lat="42.20044" lon="14.6154033"><ele>3.6666666666666665</ele><time>2026-04-29T11:02:22.894Z</time></trkpt><trkpt lat="42.2003933" lon="14.615475"><ele>3.833333333333333</ele><time>2026-04-29T11:02:24.894Z</time></trkpt><trkpt lat="42.2003533" lon="14.6155633"><ele>4.0</ele><time>2026-04-29T11:02:26.894Z</time></trkpt><trkpt lat="42.2003217" lon="14.6156617"><ele>3.9999999999999996</ele><time>2026-04-29T11:02:28.894Z</time></trkpt><trkpt lat="42.2002867" lon="14.61575"><ele>4.0</ele><time>2026-04-29T11:02:30.894Z</time></trkpt><trkpt lat="42.2002567" lon="14.615825"><ele>4.0</ele><time>2026-04-29T11:02:32.894Z</time></trkpt><trkpt lat="42.2002217" lon="14.6159183"><ele>4.0</ele><time>2026-04-29T11:02:34.894Z</time></trkpt><trkpt lat="42.200185" lon="14.6160117"><ele>3.9999999999999996</ele><time>2026-04-29T11:02:36.894Z</time></trkpt><trkpt lat="42.20014" lon="14.6161133"><ele>4.0</ele><time>2026-04-29T11:02:38.893Z</time></trkpt><trkpt lat="42.200095" lon="14.61622"><ele>3.4999999999999996</ele><time>2026-04-29T11:02:40.894Z</time></trkpt><trkpt lat="42.20006" lon="14.61633"><ele>3.0</ele><time>2026-04-29T11:02:42.893Z</time></trkpt><trkpt lat="42.2000267" lon="14.6164333"><ele>2.5</ele><time>2026-04-29T11:02:44.893Z</time></trkpt><trkpt lat="42.1999933" lon="14.6165383"><ele>2.0</ele><time>2026-04-29T11:02:46.893Z</time></trkpt><trkpt lat="42.1999567" lon="14.6166467"><ele>1.5</ele><time>2026-04-29T11:02:48.894Z</time></trkpt><trkpt lat="42.199915" lon="14.616765"><ele>1.0</ele><time>2026-04-29T11:02:50.894Z</time></trkpt><trkpt lat="42.1998733" lon="14.6168733"><ele>2.0</ele><time>2026-04-29T11:02:52.894Z</time></trkpt><trkpt lat="42.1998317" lon="14.616995"><ele>3.0</ele><time>2026-04-29T11:02:54.894Z</time></trkpt><trkpt lat="42.1997883" lon="14.6171083"><ele>3.9999999999999996</ele><time>2026-04-29T11:02:56.894Z</time></trkpt><trkpt lat="42.1997483" lon="14.6172283"><ele>5.0</ele><time>2026-04-29T11:02:58.894Z</time></trkpt><trkpt lat="42.1997117" lon="14.617355"><ele>6.0</ele><time>2026-04-29T11:03:00.893Z</time></trkpt><trkpt lat="42.1996767" lon="14.617475"><ele>6.0</ele><time>2026-04-29T11:03:02.894Z</time></trkpt><trkpt lat="42.1996383" lon="14.6175933"><ele>6.0</ele><time>2026-04-29T11:03:04.894Z</time></trkpt><trkpt lat="42.199595" lon="14.6177167"><ele>6.0</ele><time>2026-04-29T11:03:06.894Z</time></trkpt><trkpt lat="42.1995567" lon="14.6178383"><ele>6.0</ele><time>2026-04-29T11:03:08.894Z</time></trkpt><trkpt lat="42.1995167" lon="14.61796"><ele>6.0</ele><time>2026-04-29T11:03:10.893Z</time></trkpt><trkpt lat="42.1994783" lon="14.6180817"><ele>5.3999999999999995</ele><time>2026-04-29T11:03:12.894Z</time></trkpt><trkpt lat="42.1994367" lon="14.6181967"><ele>4.8</ele><time>2026-04-29T11:03:14.894Z</time></trkpt><trkpt lat="42.1993917" lon="14.61831"><ele>4.199999999999999</ele><time>2026-04-29T11:03:16.893Z</time></trkpt><trkpt lat="42.1993383" lon="14.618425"><ele>3.5999999999999996</ele><time>2026-04-29T11:03:18.894Z</time></trkpt><trkpt lat="42.1992967" lon="14.6185417"><ele>3.0</ele><time>2026-04-29T11:03:20.893Z</time></trkpt><trkpt lat="42.1992533" lon="14.6186533"><ele>2.8</ele><time>2026-04-29T11:03:22.894Z</time></trkpt><trkpt lat="42.1992183" lon="14.6187833"><ele>2.5999999999999996</ele><time>2026-04-29T11:03:24.893Z</time></trkpt><trkpt lat="42.1991767" lon="14.6188833"><ele>2.4000000000000004</ele><time>2026-04-29T11:03:26.894Z</time></trkpt><trkpt lat="42.1991433" lon="14.6190033"><ele>2.2</ele><time>2026-04-29T11:03:28.894Z</time></trkpt><trkpt lat="42.19911" lon="14.6191083"><ele>2.0</ele><time>2026-04-29T11:03:30.894Z</time></trkpt><trkpt lat="42.1990767" lon="14.6192233"><ele>2.0</ele><time>2026-04-29T11:03:32.894Z</time></trkpt><trkpt lat="42.1990283" lon="14.6193367"><ele>2.0</ele><time>2026-04-29T11:03:34.894Z</time></trkpt><trkpt lat="42.19899" lon="14.6194533"><ele>2.0</ele><time>2026-04-29T11:03:36.894Z</time></trkpt><trkpt lat="42.198955" lon="14.61957"><ele>2.0</ele><time>2026-04-29T11:03:38.894Z</time></trkpt><trkpt lat="42.1989133" lon="14.6196933"><ele>2.0</ele><time>2026-04-29T11:03:40.893Z</time></trkpt><trkpt lat="42.198875" lon="14.6198233"><ele>3.4000000000000004</ele><time>2026-04-29T11:03:42.893Z</time></trkpt><trkpt lat="42.198835" lon="14.6199467"><ele>4.800000000000001</ele><time>2026-04-29T11:03:44.894Z</time></trkpt><trkpt lat="42.1987917" lon="14.6200667"><ele>6.2</ele><time>2026-04-29T11:03:46.894Z</time></trkpt><trkpt lat="42.1987567" lon="14.62019"><ele>7.6000000000000005</ele><time>2026-04-29T11:03:48.893Z</time></trkpt><trkpt lat="42.1987317" lon="14.6203167"><ele>9.0</ele><time>2026-04-29T11:03:50.893Z</time></trkpt><trkpt lat="42.1987033" lon="14.6204483"><ele>9.0</ele><time>2026-04-29T11:03:52.894Z</time></trkpt><trkpt lat="42.19867" lon="14.6205717"><ele>9.0</ele><time>2026-04-29T11:03:54.894Z</time></trkpt><trkpt lat="42.1986317" lon="14.620705"><ele>9.0</ele><time>2026-04-29T11:03:56.894Z</time></trkpt><trkpt lat="42.1985967" lon="14.6208383"><ele>9.0</ele><time>2026-04-29T11:03:58.894Z</time></trkpt><trkpt lat="42.198565" lon="14.6209567"><ele>9.0</ele><time>2026-04-29T11:04:00.893Z</time></trkpt><trkpt lat="42.19853" lon="14.6210867"><ele>8.8</ele><time>2026-04-29T11:04:02.893Z</time></trkpt><trkpt lat="42.1984917" lon="14.6212167"><ele>8.600000000000001</ele><time>2026-04-29T11:04:04.894Z</time></trkpt><trkpt lat="42.19845" lon="14.6213383"><ele>8.4</ele><time>2026-04-29T11:04:06.893Z</time></trkpt><trkpt lat="42.1984083" lon="14.6214583"><ele>8.200000000000001</ele><time>2026-04-29T11:04:08.894Z</time></trkpt><trkpt lat="42.198375" lon="14.6215883"><ele>8.0</ele><time>2026-04-29T11:04:10.894Z</time></trkpt><trkpt lat="42.198345" lon="14.621705"><ele>8.0</ele><time>2026-04-29T11:04:12.894Z</time></trkpt><trkpt lat="42.1983067" lon="14.6218233"><ele>8.0</ele><time>2026-04-29T11:04:14.894Z</time></trkpt><trkpt lat="42.1982683" lon="14.6219467"><ele>8.0</ele><time>2026-04-29T11:04:16.894Z</time></trkpt><trkpt lat="42.1982367" lon="14.6220717"><ele>8.0</ele><time>2026-04-29T11:04:18.893Z</time></trkpt><trkpt lat="42.1981983" lon="14.62219"><ele>8.0</ele><time>2026-04-29T11:04:20.894Z</time></trkpt><trkpt lat="42.19816" lon="14.6223117"><ele>8.600000000000001</ele><time>2026-04-29T11:04:22.894Z</time></trkpt><trkpt lat="42.1981267" lon="14.6224383"><ele>9.200000000000001</ele><time>2026-04-29T11:04:24.893Z</time></trkpt><trkpt lat="42.1980883" lon="14.6225567"><ele>9.8</ele><time>2026-04-29T11:04:26.894Z</time></trkpt><trkpt lat="42.198045" lon="14.6226783"><ele>10.4</ele><time>2026-04-29T11:04:28.893Z</time></trkpt><trkpt lat="42.1980133" lon="14.6228"><ele>11.0</ele><time>2026-04-29T11:04:30.894Z</time></trkpt><trkpt lat="42.19798" lon="14.622925"><ele>11.0</ele><time>2026-04-29T11:04:32.893Z</time></trkpt><trkpt lat="42.197945" lon="14.6230483"><ele>11.0</ele><time>2026-04-29T11:04:34.894Z</time></trkpt><trkpt lat="42.197915" lon="14.6231783"><ele>11.0</ele><time>2026-04-29T11:04:36.893Z</time></trkpt><trkpt lat="42.1978917" lon="14.6233017"><ele>11.0</ele><time>2026-04-29T11:04:38.894Z</time></trkpt><trkpt lat="42.1978567" lon="14.62343"><ele>11.0</ele><time>2026-04-29T11:04:40.894Z</time></trkpt><trkpt lat="42.1978217" lon="14.6235567"><ele>10.600000000000001</ele><time>2026-04-29T11:04:42.893Z</time></trkpt><trkpt lat="42.197785" lon="14.6236817"><ele>10.200000000000001</ele><time>2026-04-29T11:04:44.894Z</time></trkpt><trkpt lat="42.1977467" lon="14.6237983"><ele>9.8</ele><time>2026-04-29T11:04:46.894Z</time></trkpt><trkpt lat="42.1977133" lon="14.62392"><ele>9.4</ele><time>2026-04-29T11:04:48.894Z</time></trkpt><trkpt lat="42.1976767" lon="14.6240467"><ele>9.0</ele><time>2026-04-29T11:04:50.894Z</time></trkpt><trkpt lat="42.1976433" lon="14.6241733"><ele>9.0</ele><time>2026-04-29T11:04:52.894Z</time></trkpt><trkpt lat="42.197605" lon="14.624295"><ele>9.0</ele><time>2026-04-29T11:04:54.893Z</time></trkpt><trkpt lat="42.197565" lon="14.6244167"><ele>9.0</ele><time>2026-04-29T11:04:56.893Z</time></trkpt><trkpt lat="42.1975217" lon="14.62454"><ele>9.0</ele><time>2026-04-29T11:04:58.894Z</time></trkpt><trkpt lat="42.19748" lon="14.6246567"><ele>9.0</ele><time>2026-04-29T11:05:00.894Z</time></trkpt><trkpt lat="42.197445" lon="14.6247767"><ele>8.6</ele><time>2026-04-29T11:05:02.893Z</time></trkpt><trkpt lat="42.1974017" lon="14.6248967"><ele>8.2</ele><time>2026-04-29T11:05:04.893Z</time></trkpt><trkpt lat="42.1973567" lon="14.6250133"><ele>7.799999999999999</ele><time>2026-04-29T11:05:06.894Z</time></trkpt><trkpt lat="42.1973183" lon="14.6251317"><ele>7.3999999999999995</ele><time>2026-04-29T11:05:08.894Z</time></trkpt><trkpt lat="42.1972733" lon="14.6252533"><ele>7.0</ele><time>2026-04-29T11:05:10.894Z</time></trkpt><trkpt lat="42.1972267" lon="14.62537"><ele>7.0</ele><time>2026-04-29T11:05:12.894Z</time></trkpt><trkpt lat="42.19718" lon="14.6254867"><ele>6.999999999999999</ele><time>2026-04-29T11:05:14.894Z</time></trkpt><trkpt lat="42.197135" lon="14.625605"><ele>6.999999999999999</ele><time>2026-04-29T11:05:16.894Z</time></trkpt><trkpt lat="42.1970933" lon="14.625725"><ele>7.0</ele><time>2026-04-29T11:05:18.894Z</time></trkpt><trkpt lat="42.19705" lon="14.6258383"><ele>7.0</ele><time>2026-04-29T11:05:20.894Z</time></trkpt><trkpt lat="42.1970083" lon="14.62596"><ele>7.0</ele><time>2026-04-29T11:05:22.894Z</time></trkpt><trkpt lat="42.196965" lon="14.6260867"><ele>6.999999999999999</ele><time>2026-04-29T11:05:24.893Z</time></trkpt><trkpt lat="42.19692" lon="14.6262117"><ele>6.999999999999999</ele><time>2026-04-29T11:05:26.894Z</time></trkpt><trkpt lat="42.1968767" lon="14.62634"><ele>7.0</ele><time>2026-04-29T11:05:28.893Z</time></trkpt><trkpt lat="42.1968283" lon="14.6264617"><ele>7.0</ele><time>2026-04-29T11:05:30.893Z</time></trkpt><trkpt lat="42.1967883" lon="14.6265733"><ele>6.0</ele><time>2026-04-29T11:05:32.894Z</time></trkpt><trkpt lat="42.1967483" lon="14.6266917"><ele>4.999999999999999</ele><time>2026-04-29T11:05:34.893Z</time></trkpt><trkpt lat="42.196705" lon="14.626805"><ele>4.0</ele><time>2026-04-29T11:05:36.893Z</time></trkpt><trkpt lat="42.19666" lon="14.6269233"><ele>3.0</ele><time>2026-04-29T11:05:38.894Z</time></trkpt><trkpt lat="42.1966217" lon="14.627035"><ele>2.0</ele><time>2026-04-29T11:05:40.894Z</time></trkpt><trkpt lat="42.1965783" lon="14.6271567"><ele>2.0</ele><time>2026-04-29T11:05:42.894Z</time></trkpt><trkpt lat="42.1965367" lon="14.6272783"><ele>2.0</ele><time>2026-04-29T11:05:44.894Z</time></trkpt><trkpt lat="42.1964967" lon="14.6273917"><ele>2.0</ele><time>2026-04-29T11:05:46.893Z</time></trkpt><trkpt lat="42.1964533" lon="14.6275067"><ele>2.0</ele><time>2026-04-29T11:05:48.893Z</time></trkpt><trkpt lat="42.19641" lon="14.6276317"><ele>2.0</ele><time>2026-04-29T11:05:50.894Z</time></trkpt><trkpt lat="42.1963717" lon="14.6277433"><ele>2.333333333333333</ele><time>2026-04-29T11:05:52.894Z</time></trkpt><trkpt lat="42.1963317" lon="14.627855"><ele>2.6666666666666665</ele><time>2026-04-29T11:05:54.894Z</time></trkpt><trkpt lat="42.1962917" lon="14.6279683"><ele>3.0</ele><time>2026-04-29T11:05:56.893Z</time></trkpt><trkpt lat="42.1962517" lon="14.6280817"><ele>3.333333333333333</ele><time>2026-04-29T11:05:58.894Z</time></trkpt><trkpt lat="42.1962117" lon="14.628195"><ele>3.6666666666666665</ele><time>2026-04-29T11:06:00.893Z</time></trkpt><trkpt lat="42.1961783" lon="14.6282883"><ele>4.0</ele><time>2026-04-29T11:06:02.894Z</time></trkpt><trkpt lat="42.196145" lon="14.62839"><ele>3.9999999999999996</ele><time>2026-04-29T11:06:04.893Z</time></trkpt><trkpt lat="42.1961233" lon="14.6284883"><ele>4.0</ele><time>2026-04-29T11:06:06.893Z</time></trkpt><trkpt lat="42.1960967" lon="14.628585"><ele>4.0</ele><time>2026-04-29T11:06:08.893Z</time></trkpt><trkpt lat="42.1960817" lon="14.62869"><ele>4.0</ele><time>2026-04-29T11:06:10.894Z</time></trkpt><trkpt lat="42.196065" lon="14.6287967"><ele>3.9999999999999996</ele><time>2026-04-29T11:06:12.894Z</time></trkpt><trkpt lat="42.196065" lon="14.628915"><ele>4.0</ele><time>2026-04-29T11:06:14.894Z</time></trkpt><trkpt lat="42.1960633" lon="14.6290383"><ele>3.9999999999999996</ele><time>2026-04-29T11:06:16.894Z</time></trkpt><trkpt lat="42.1960433" lon="14.6291433"><ele>4.0</ele><time>2026-04-29T11:06:18.893Z</time></trkpt><trkpt lat="42.1960117" lon="14.62924"><ele>4.0</ele><time>2026-04-29T11:06:20.894Z</time></trkpt><trkpt lat="42.1959733" lon="14.6293217"><ele>4.0</ele><time>2026-04-29T11:06:22.894Z</time></trkpt><trkpt lat="42.1959283" lon="14.62942"><ele>3.9999999999999996</ele><time>2026-04-29T11:06:24.893Z</time></trkpt><trkpt lat="42.1958967" lon="14.6295333"><ele>4.0</ele><time>2026-04-29T11:06:26.894Z</time></trkpt><trkpt lat="42.195865" lon="14.6296517"><ele>3.8000000000000003</ele><time>2026-04-29T11:06:28.894Z</time></trkpt><trkpt lat="42.195835" lon="14.6297683"><ele>3.6000000000000005</ele><time>2026-04-29T11:06:30.893Z</time></trkpt><trkpt lat="42.1958033" lon="14.6298833"><ele>3.4</ele><time>2026-04-29T11:06:32.893Z</time></trkpt><trkpt lat="42.1957683" lon="14.6299967"><ele>3.2</ele><time>2026-04-29T11:06:34.893Z</time></trkpt><trkpt lat="42.1957333" lon="14.6301183"><ele>3.0</ele><time>2026-04-29T11:06:36.894Z</time></trkpt><trkpt lat="42.1957" lon="14.6302383"><ele>3.2</ele><time>2026-04-29T11:06:38.894Z</time></trkpt><trkpt lat="42.1956683" lon="14.6303617"><ele>3.4</ele><time>2026-04-29T11:06:40.894Z</time></trkpt><trkpt lat="42.1956333" lon="14.630485"><ele>3.6000000000000005</ele><time>2026-04-29T11:06:42.894Z</time></trkpt><trkpt lat="42.1955983" lon="14.6305983"><ele>3.8000000000000003</ele><time>2026-04-29T11:06:44.893Z</time></trkpt><trkpt lat="42.1955633" lon="14.630715"><ele>4.0</ele><time>2026-04-29T11:06:46.894Z</time></trkpt><trkpt lat="42.19553" lon="14.6308283"><ele>4.0</ele><time>2026-04-29T11:06:48.893Z</time></trkpt><trkpt lat="42.195495" lon="14.6309433"><ele>4.0</ele><time>2026-04-29T11:06:50.894Z</time></trkpt><trkpt lat="42.19546" lon="14.6310617"><ele>4.0</ele><time>2026-04-29T11:06:52.894Z</time></trkpt><trkpt lat="42.1954283" lon="14.6311783"><ele>4.0</ele><time>2026-04-29T11:06:54.894Z</time></trkpt><trkpt lat="42.1954033" lon="14.6312933"><ele>4.0</ele><time>2026-04-29T11:06:56.894Z</time></trkpt><trkpt lat="42.1953717" lon="14.6314117"><ele>4.0</ele><time>2026-04-29T11:06:58.893Z</time></trkpt><trkpt lat="42.1953383" lon="14.6315317"><ele>4.0</ele><time>2026-04-29T11:07:00.894Z</time></trkpt><trkpt lat="42.19531" lon="14.6316517"><ele>4.0</ele><time>2026-04-29T11:07:02.894Z</time></trkpt><trkpt lat="42.19527" lon="14.631765"><ele>4.0</ele><time>2026-04-29T11:07:04.893Z</time></trkpt><trkpt lat="42.1952317" lon="14.63189"><ele>4.0</ele><time>2026-04-29T11:07:06.894Z</time></trkpt><trkpt lat="42.1951967" lon="14.63202"><ele>4.2</ele><time>2026-04-29T11:07:08.894Z</time></trkpt><trkpt lat="42.1951633" lon="14.6321517"><ele>4.4</ele><time>2026-04-29T11:07:10.894Z</time></trkpt><trkpt lat="42.1951267" lon="14.63228"><ele>4.6</ele><time>2026-04-29T11:07:12.894Z</time></trkpt><trkpt lat="42.1950817" lon="14.6323967"><ele>4.8</ele><time>2026-04-29T11:07:14.893Z</time></trkpt><trkpt lat="42.1950483" lon="14.632515"><ele>5.0</ele><time>2026-04-29T11:07:16.894Z</time></trkpt><trkpt lat="42.1950167" lon="14.63264"><ele>5.0</ele><time>2026-04-29T11:07:18.893Z</time></trkpt><trkpt lat="42.194985" lon="14.6327683"><ele>5.0</ele><time>2026-04-29T11:07:20.894Z</time></trkpt><trkpt lat="42.194955" lon="14.6328967"><ele>5.0</ele><time>2026-04-29T11:07:22.894Z</time></trkpt><trkpt lat="42.1949217" lon="14.6330283"><ele>5.0</ele><time>2026-04-29T11:07:24.894Z</time></trkpt><trkpt lat="42.19489" lon="14.63315"><ele>5.0</ele><time>2026-04-29T11:07:26.894Z</time></trkpt><trkpt lat="42.1948567" lon="14.63327"><ele>5.2</ele><time>2026-04-29T11:07:28.894Z</time></trkpt><trkpt lat="42.1948233" lon="14.6333867"><ele>5.4</ele><time>2026-04-29T11:07:30.893Z</time></trkpt><trkpt lat="42.19479" lon="14.6335083"><ele>5.6</ele><time>2026-04-29T11:07:32.893Z</time></trkpt><trkpt lat="42.1947567" lon="14.6336283"><ele>5.8</ele><time>2026-04-29T11:07:34.894Z</time></trkpt><trkpt lat="42.19473" lon="14.63374"><ele>6.0</ele><time>2026-04-29T11:07:36.894Z</time></trkpt><trkpt lat="42.1947" lon="14.6338467"><ele>5.666666666666667</ele><time>2026-04-29T11:07:38.893Z</time></trkpt><trkpt lat="42.19467" lon="14.6339567"><ele>5.333333333333333</ele><time>2026-04-29T11:07:40.894Z</time></trkpt><trkpt lat="42.1946383" lon="14.6340583"><ele>5.0</ele><time>2026-04-29T11:07:42.894Z</time></trkpt><trkpt lat="42.1946017" lon="14.6341367"><ele>4.666666666666666</ele><time>2026-04-29T11:07:44.893Z</time></trkpt><trkpt lat="42.1945667" lon="14.634215"><ele>4.333333333333333</ele><time>2026-04-29T11:07:46.894Z</time></trkpt><trkpt lat="42.1945317" lon="14.6343117"><ele>4.0</ele><time>2026-04-29T11:07:48.894Z</time></trkpt><trkpt lat="42.1944983" lon="14.6344167"><ele>3.6666666666666665</ele><time>2026-04-29T11:07:50.893Z</time></trkpt><trkpt lat="42.1944667" lon="14.63452"><ele>3.333333333333333</ele><time>2026-04-29T11:07:52.894Z</time></trkpt><trkpt lat="42.19443" lon="14.634615"><ele>3.0</ele><time>2026-04-29T11:07:54.894Z</time></trkpt><trkpt lat="42.19441" lon="14.63471"><ele>2.6666666666666665</ele><time>2026-04-29T11:07:56.893Z</time></trkpt><trkpt lat="42.1943883" lon="14.6348117"><ele>2.333333333333333</ele><time>2026-04-29T11:07:58.894Z</time></trkpt><trkpt lat="42.194355" lon="14.6349233"><ele>2.0</ele><time>2026-04-29T11:08:00.893Z</time></trkpt><trkpt lat="42.1943367" lon="14.6350367"><ele>1.9999999999999998</ele><time>2026-04-29T11:08:02.893Z</time></trkpt><trkpt lat="42.194285" lon="14.6351533"><ele>2.0</ele><time>2026-04-29T11:08:04.894Z</time></trkpt><trkpt lat="42.1942467" lon="14.635255"><ele>2.0</ele><time>2026-04-29T11:08:06.893Z</time></trkpt><trkpt lat="42.194215" lon="14.6353633"><ele>2.0</ele><time>2026-04-29T11:08:08.894Z</time></trkpt><trkpt lat="42.1941817" lon="14.635465"><ele>1.9999999999999998</ele><time>2026-04-29T11:08:10.893Z</time></trkpt><trkpt lat="42.194155" lon="14.63557"><ele>2.0</ele><time>2026-04-29T11:08:12.893Z</time></trkpt><trkpt lat="42.1941283" lon="14.6356733"><ele>1.9999999999999998</ele><time>2026-04-29T11:08:14.893Z</time></trkpt><trkpt lat="42.194105" lon="14.6357733"><ele>2.0</ele><time>2026-04-29T11:08:16.893Z</time></trkpt><trkpt lat="42.194085" lon="14.63586"><ele>2.0</ele><time>2026-04-29T11:08:18.894Z</time></trkpt><trkpt lat="42.194055" lon="14.6359533"><ele>2.0</ele><time>2026-04-29T11:08:20.894Z</time></trkpt><trkpt lat="42.194025" lon="14.63605"><ele>1.9999999999999998</ele><time>2026-04-29T11:08:22.893Z</time></trkpt><trkpt lat="42.19399" lon="14.6361567"><ele>2.0</ele><time>2026-04-29T11:08:24.894Z</time></trkpt><trkpt lat="42.1939617" lon="14.636255"><ele>1.9999999999999998</ele><time>2026-04-29T11:08:26.894Z</time></trkpt><trkpt lat="42.1939283" lon="14.6363583"><ele>2.0</ele><time>2026-04-29T11:08:28.893Z</time></trkpt><trkpt lat="42.1938983" lon="14.6364517"><ele>2.0</ele><time>2026-04-29T11:08:30.894Z</time></trkpt><trkpt lat="42.1938667" lon="14.63655"><ele>2.0</ele><time>2026-04-29T11:08:32.894Z</time></trkpt><trkpt lat="42.1938467" lon="14.6366533"><ele>1.9999999999999998</ele><time>2026-04-29T11:08:34.894Z</time></trkpt><trkpt lat="42.1937933" lon="14.63677"><ele>2.0</ele><time>2026-04-29T11:08:36.893Z</time></trkpt><trkpt lat="42.1937683" lon="14.63688"><ele>1.8333333333333333</ele><time>2026-04-29T11:08:38.893Z</time></trkpt><trkpt lat="42.1937483" lon="14.63699"><ele>1.6666666666666665</ele><time>2026-04-29T11:08:40.894Z</time></trkpt><trkpt lat="42.1937133" lon="14.6370883"><ele>1.5</ele><time>2026-04-29T11:08:42.894Z</time></trkpt><trkpt lat="42.193685" lon="14.637195"><ele>1.3333333333333333</ele><time>2026-04-29T11:08:44.893Z</time></trkpt><trkpt lat="42.19366" lon="14.6373033"><ele>1.1666666666666665</ele><time>2026-04-29T11:08:46.894Z</time></trkpt><trkpt lat="42.1936367" lon="14.6374083"><ele>1.0</ele><time>2026-04-29T11:08:48.893Z</time></trkpt><trkpt lat="42.193615" lon="14.6375167"><ele>0.9999999999999999</ele><time>2026-04-29T11:08:50.894Z</time></trkpt><trkpt lat="42.1935783" lon="14.6376217"><ele>1.0</ele><time>2026-04-29T11:08:52.893Z</time></trkpt><trkpt lat="42.1935533" lon="14.6377217"><ele>1.0</ele><time>2026-04-29T11:08:54.893Z</time></trkpt><trkpt lat="42.1935333" lon="14.6378267"><ele>1.0</ele><time>2026-04-29T11:08:56.894Z</time></trkpt><trkpt lat="42.1935083" lon="14.6379383"><ele>0.9999999999999999</ele><time>2026-04-29T11:08:58.893Z</time></trkpt><trkpt lat="42.1934717" lon="14.63803"><ele>1.0</ele><time>2026-04-29T11:09:00.894Z</time></trkpt><trkpt lat="42.1934467" lon="14.6381283"><ele>0.9999999999999999</ele><time>2026-04-29T11:09:02.893Z</time></trkpt><trkpt lat="42.1934233" lon="14.6382267"><ele>1.0</ele><time>2026-04-29T11:09:04.894Z</time></trkpt><trkpt lat="42.1934117" lon="14.6383367"><ele>1.0</ele><time>2026-04-29T11:09:06.894Z</time></trkpt><trkpt lat="42.1933883" lon="14.6384283"><ele>1.0</ele><time>2026-04-29T11:09:08.894Z</time></trkpt><trkpt lat="42.193365" lon="14.6385083"><ele>0.9999999999999999</ele><time>2026-04-29T11:09:10.893Z</time></trkpt><trkpt lat="42.1933367" lon="14.6386083"><ele>1.0</ele><time>2026-04-29T11:09:12.894Z</time></trkpt><trkpt lat="42.1933067" lon="14.6387133"><ele>0.9999999999999999</ele><time>2026-04-29T11:09:14.894Z</time></trkpt><trkpt lat="42.1932733" lon="14.63882"><ele>1.0</ele><time>2026-04-29T11:09:16.893Z</time></trkpt><trkpt lat="42.1932433" lon="14.63893"><ele>1.0</ele><time>2026-04-29T11:09:18.894Z</time></trkpt><trkpt lat="42.193215" lon="14.6390383"><ele>1.0</ele><time>2026-04-29T11:09:20.894Z</time></trkpt><trkpt lat="42.19319" lon="14.63915"><ele>0.9999999999999999</ele><time>2026-04-29T11:09:22.894Z</time></trkpt><trkpt lat="42.1931617" lon="14.63927"><ele>1.0</ele><time>2026-04-29T11:09:24.893Z</time></trkpt><trkpt lat="42.193135" lon="14.6393833"><ele>0.6666666666666666</ele><time>2026-04-29T11:09:26.894Z</time></trkpt><trkpt lat="42.19311" lon="14.6395"><ele>0.3333333333333333</ele><time>2026-04-29T11:09:28.894Z</time></trkpt><trkpt lat="42.19308" lon="14.6396067"><ele>0.0</ele><time>2026-04-29T11:09:30.893Z</time></trkpt><trkpt lat="42.193055" lon="14.639715"><ele>-0.3333333333333333</ele><time>2026-04-29T11:09:32.894Z</time></trkpt><trkpt lat="42.1930267" lon="14.63983"><ele>-0.6666666666666666</ele><time>2026-04-29T11:09:34.894Z</time></trkpt><trkpt lat="42.1929967" lon="14.6399417"><ele>-1.0</ele><time>2026-04-29T11:09:36.894Z</time></trkpt><trkpt lat="42.1929683" lon="14.6400533"><ele>-0.9999999999999999</ele><time>2026-04-29T11:09:38.894Z</time></trkpt><trkpt lat="42.19294" lon="14.6401667"><ele>-1.0</ele><time>2026-04-29T11:09:40.894Z</time></trkpt><trkpt lat="42.192915" lon="14.6402833"><ele>-1.0</ele><time>2026-04-29T11:09:42.894Z</time></trkpt><trkpt lat="42.1928867" lon="14.64039"><ele>-1.0</ele><time>2026-04-29T11:09:44.894Z</time></trkpt><trkpt lat="42.1928583" lon="14.6404967"><ele>-0.9999999999999999</ele><time>2026-04-29T11:09:46.893Z</time></trkpt><trkpt lat="42.1928333" lon="14.6406117"><ele>-1.0</ele><time>2026-04-29T11:09:48.894Z</time></trkpt><trkpt lat="42.1928033" lon="14.64072"><ele>-0.8333333333333333</ele><time>2026-04-29T11:09:50.893Z</time></trkpt><trkpt lat="42.1927767" lon="14.64082"><ele>-0.6666666666666666</ele><time>2026-04-29T11:09:52.894Z</time></trkpt><trkpt lat="42.192745" lon="14.6409183"><ele>-0.5</ele><time>2026-04-29T11:09:54.894Z</time></trkpt><trkpt lat="42.1927167" lon="14.641025"><ele>-0.3333333333333333</ele><time>2026-04-29T11:09:56.893Z</time></trkpt><trkpt lat="42.1926933" lon="14.64113"><ele>-0.16666666666666666</ele><time>2026-04-29T11:09:58.894Z</time></trkpt><trkpt lat="42.19267" lon="14.6412383"><ele>0.0</ele><time>2026-04-29T11:10:00.893Z</time></trkpt><trkpt lat="42.19264" lon="14.641345"><ele>0.0</ele><time>2026-04-29T11:10:02.893Z</time></trkpt><trkpt lat="42.1925967" lon="14.64144"><ele>0.0</ele><time>2026-04-29T11:10:04.894Z</time></trkpt><trkpt lat="42.1925533" lon="14.64155"><ele>0.0</ele><time>2026-04-29T11:10:06.894Z</time></trkpt><trkpt lat="42.19252" lon="14.6416567"><ele>0.0</ele><time>2026-04-29T11:10:08.893Z</time></trkpt><trkpt lat="42.1924917" lon="14.6417583"><ele>0.0</ele><time>2026-04-29T11:10:10.893Z</time></trkpt><trkpt lat="42.192465" lon="14.641865"><ele>0.0</ele><time>2026-04-29T11:10:12.893Z</time></trkpt><trkpt lat="42.19244" lon="14.64197"><ele>0.0</ele><time>2026-04-29T11:10:14.894Z</time></trkpt><trkpt lat="42.1924133" lon="14.64208"><ele>0.0</ele><time>2026-04-29T11:10:16.894Z</time></trkpt><trkpt lat="42.192385" lon="14.6421883"><ele>0.0</ele><time>2026-04-29T11:10:18.893Z</time></trkpt><trkpt lat="42.1923517" lon="14.6422967"><ele>0.0</ele><time>2026-04-29T11:10:20.893Z</time></trkpt><trkpt lat="42.1923117" lon="14.642395"><ele>0.0</ele><time>2026-04-29T11:10:22.894Z</time></trkpt><trkpt lat="42.1922633" lon="14.6424883"><ele>0.0</ele><time>2026-04-29T11:10:24.894Z</time></trkpt><trkpt lat="42.1921983" lon="14.64256"><ele>0.0</ele><time>2026-04-29T11:10:26.893Z</time></trkpt><trkpt lat="42.19213" lon="14.64264"><ele>0.0</ele><time>2026-04-29T11:10:28.894Z</time></trkpt><trkpt lat="42.1920683" lon="14.6427333"><ele>0.0</ele><time>2026-04-29T11:10:30.894Z</time></trkpt><trkpt lat="42.1920117" lon="14.642825"><ele>0.0</ele><time>2026-04-29T11:10:32.893Z</time></trkpt><trkpt lat="42.191955" lon="14.6429183"><ele>0.0</ele><time>2026-04-29T11:10:34.893Z</time></trkpt><trkpt lat="42.1918917" lon="14.6429983"><ele>0.0</ele><time>2026-04-29T11:10:36.894Z</time></trkpt><trkpt lat="42.19183" lon="14.6430767"><ele>0.0</ele><time>2026-04-29T11:10:38.893Z</time></trkpt><trkpt lat="42.19176" lon="14.64314"><ele>0.0</ele><time>2026-04-29T11:10:40.894Z</time></trkpt><trkpt lat="42.1916933" lon="14.64321"><ele>0.0</ele><time>2026-04-29T11:10:42.894Z</time></trkpt><trkpt lat="42.19163" lon="14.643275"><ele>0.0</ele><time>2026-04-29T11:10:44.894Z</time></trkpt><trkpt lat="42.19156" lon="14.6433567"><ele>0.0</ele><time>2026-04-29T11:10:46.894Z</time></trkpt><trkpt lat="42.1914983" lon="14.643445"><ele>0.0</ele><time>2026-04-29T11:10:48.894Z</time></trkpt><trkpt lat="42.19144" lon="14.6435367"><ele>0.3333333333333333</ele><time>2026-04-29T11:10:50.894Z</time></trkpt><trkpt lat="42.1913867" lon="14.6436283"><ele>0.6666666666666666</ele><time>2026-04-29T11:10:52.894Z</time></trkpt><trkpt lat="42.1913383" lon="14.6437233"><ele>1.0</ele><time>2026-04-29T11:10:54.893Z</time></trkpt><trkpt lat="42.1912933" lon="14.6438233"><ele>1.3333333333333333</ele><time>2026-04-29T11:10:56.894Z</time></trkpt><trkpt lat="42.191245" lon="14.6439183"><ele>1.6666666666666665</ele><time>2026-04-29T11:10:58.893Z</time></trkpt><trkpt lat="42.1912" lon="14.6440083"><ele>2.0</ele><time>2026-04-29T11:11:00.893Z</time></trkpt><trkpt lat="42.191145" lon="14.6440983"><ele>1.9999999999999998</ele><time>2026-04-29T11:11:02.893Z</time></trkpt><trkpt lat="42.1910967" lon="14.644185"><ele>2.0</ele><time>2026-04-29T11:11:04.894Z</time></trkpt><trkpt lat="42.1910283" lon="14.644255"><ele>2.0</ele><time>2026-04-29T11:11:06.894Z</time></trkpt><trkpt lat="42.1909517" lon="14.64431"><ele>2.0</ele><time>2026-04-29T11:11:08.893Z</time></trkpt><trkpt lat="42.1908617" lon="14.644355"><ele>1.9999999999999998</ele><time>2026-04-29T11:11:10.893Z</time></trkpt><trkpt lat="42.19077" lon="14.64439"><ele>2.0</ele><time>2026-04-29T11:11:12.893Z</time></trkpt><trkpt lat="42.1906933" lon="14.6444283"><ele>2.1666666666666665</ele><time>2026-04-29T11:11:14.894Z</time></trkpt><trkpt lat="42.190605" lon="14.6444583"><ele>2.333333333333333</ele><time>2026-04-29T11:11:16.893Z</time></trkpt><trkpt lat="42.1905217" lon="14.644475"><ele>2.5</ele><time>2026-04-29T11:11:18.894Z</time></trkpt><trkpt lat="42.19044" lon="14.6445083"><ele>2.6666666666666665</ele><time>2026-04-29T11:11:20.893Z</time></trkpt><trkpt lat="42.19036" lon="14.6445433"><ele>2.8333333333333335</ele><time>2026-04-29T11:11:22.894Z</time></trkpt><trkpt lat="42.1902733" lon="14.64457"><ele>3.0</ele><time>2026-04-29T11:11:24.894Z</time></trkpt><trkpt lat="42.1902033" lon="14.6445933"><ele>3.0</ele><time>2026-04-29T11:11:26.894Z</time></trkpt><trkpt lat="42.1901233" lon="14.64461"><ele>3.0</ele><time>2026-04-29T11:11:28.894Z</time></trkpt><trkpt lat="42.1900517" lon="14.6445933"><ele>3.0</ele><time>2026-04-29T11:11:30.894Z</time></trkpt><trkpt lat="42.1899833" lon="14.64457"><ele>3.0</ele><time>2026-04-29T11:11:33.894Z</time></trkpt><trkpt lat="42.1899233" lon="14.6444833"><ele>3.0</ele><time>2026-04-29T11:11:38.894Z</time></trkpt><trkpt lat="42.1897917" lon="14.6444683"><ele>3.0</ele><time>2026-04-29T11:11:39.894Z</time></trkpt><trkpt lat="42.1896767" lon="14.6445133"><ele>2.6666666666666665</ele><time>2026-04-29T11:11:40.894Z</time></trkpt><trkpt lat="42.1895833" lon="14.6445433"><ele>2.3333333333333335</ele><time>2026-04-29T11:11:41.894Z</time></trkpt><trkpt lat="42.1895217" lon="14.6445683"><ele>2.0</ele><time>2026-04-29T11:11:42.894Z</time></trkpt><trkpt lat="42.18942" lon="14.6445983"><ele>1.6666666666666665</ele><time>2026-04-29T11:11:44.894Z</time></trkpt><trkpt lat="42.1893417" lon="14.6446167"><ele>1.3333333333333333</ele><time>2026-04-29T11:11:46.894Z</time></trkpt><trkpt lat="42.1892617" lon="14.6446233"><ele>1.0</ele><time>2026-04-29T11:11:48.893Z</time></trkpt><trkpt lat="42.1891817" lon="14.6446367"><ele>0.9999999999999999</ele><time>2026-04-29T11:11:50.894Z</time></trkpt><trkpt lat="42.189095" lon="14.6446417"><ele>1.0</ele><time>2026-04-29T11:11:52.893Z</time></trkpt><trkpt lat="42.189005" lon="14.6446467"><ele>1.0</ele><time>2026-04-29T11:11:54.894Z</time></trkpt><trkpt lat="42.188915" lon="14.644655"><ele>1.0</ele><time>2026-04-29T11:11:56.894Z</time></trkpt><trkpt lat="42.1888433" lon="14.6446117"><ele>0.9999999999999999</ele><time>2026-04-29T11:11:58.894Z</time></trkpt><trkpt lat="42.1888183" lon="14.64451"><ele>1.0</ele><time>2026-04-29T11:12:00.893Z</time></trkpt><trkpt lat="42.18883" lon="14.64439"><ele>1.4</ele><time>2026-04-29T11:12:02.894Z</time></trkpt><trkpt lat="42.1888517" lon="14.6442667"><ele>1.8</ele><time>2026-04-29T11:12:04.894Z</time></trkpt><trkpt lat="42.18888" lon="14.644145"><ele>2.1999999999999997</ele><time>2026-04-29T11:12:06.894Z</time></trkpt><trkpt lat="42.1889033" lon="14.6440283"><ele>2.6</ele><time>2026-04-29T11:12:08.893Z</time></trkpt><trkpt lat="42.1889317" lon="14.643905"><ele>3.0</ele><time>2026-04-29T11:12:10.893Z</time></trkpt><trkpt lat="42.1889583" lon="14.64378"><ele>3.0</ele><time>2026-04-29T11:12:12.894Z</time></trkpt><trkpt lat="42.1889783" lon="14.6436533"><ele>3.0</ele><time>2026-04-29T11:12:14.894Z</time></trkpt><trkpt lat="42.189005" lon="14.6435267"><ele>3.0</ele><time>2026-04-29T11:12:16.893Z</time></trkpt><trkpt lat="42.1890283" lon="14.643405"><ele>3.0</ele><time>2026-04-29T11:12:18.894Z</time></trkpt><trkpt lat="42.1890533" lon="14.6432717"><ele>3.0</ele><time>2026-04-29T11:12:20.893Z</time></trkpt><trkpt lat="42.1890783" lon="14.6431483"><ele>2.6</ele><time>2026-04-29T11:12:22.894Z</time></trkpt><trkpt lat="42.189105" lon="14.6430233"><ele>2.1999999999999997</ele><time>2026-04-29T11:12:24.893Z</time></trkpt><trkpt lat="42.1891317" lon="14.6429"><ele>1.8</ele><time>2026-04-29T11:12:26.893Z</time></trkpt><trkpt lat="42.1891617" lon="14.6427717"><ele>1.4</ele><time>2026-04-29T11:12:28.894Z</time></trkpt><trkpt lat="42.1891883" lon="14.6426467"><ele>1.0</ele><time>2026-04-29T11:12:30.894Z</time></trkpt><trkpt lat="42.18921" lon="14.642515"><ele>0.8</ele><time>2026-04-29T11:12:32.894Z</time></trkpt><trkpt lat="42.18923" lon="14.6423733"><ele>0.6000000000000001</ele><time>2026-04-29T11:12:34.894Z</time></trkpt><trkpt lat="42.1892417" lon="14.6422367"><ele>0.4</ele><time>2026-04-29T11:12:36.893Z</time></trkpt><trkpt lat="42.1892483" lon="14.6420867"><ele>0.2</ele><time>2026-04-29T11:12:38.893Z</time></trkpt><trkpt lat="42.189255" lon="14.641955"><ele>0.0</ele><time>2026-04-29T11:12:40.894Z</time></trkpt><trkpt lat="42.18927" lon="14.6418217"><ele>0.0</ele><time>2026-04-29T11:12:42.894Z</time></trkpt><trkpt lat="42.1892983" lon="14.6416867"><ele>0.0</ele><time>2026-04-29T11:12:44.894Z</time></trkpt><trkpt lat="42.18934" lon="14.6415683"><ele>0.0</ele><time>2026-04-29T11:12:46.894Z</time></trkpt><trkpt lat="42.1893867" lon="14.6414683"><ele>0.0</ele><time>2026-04-29T11:12:48.893Z</time></trkpt><trkpt lat="42.189435" lon="14.641375"><ele>0.0</ele><time>2026-04-29T11:12:50.894Z</time></trkpt><trkpt lat="42.1894983" lon="14.6412767"><ele>0.0</ele><time>2026-04-29T11:12:52.893Z</time></trkpt><trkpt lat="42.189565" lon="14.641175"><ele>0.0</ele><time>2026-04-29T11:12:54.893Z</time></trkpt><trkpt lat="42.1896367" lon="14.641075"><ele>0.0</ele><time>2026-04-29T11:12:56.893Z</time></trkpt><trkpt lat="42.1896983" lon="14.6409817"><ele>0.0</ele><time>2026-04-29T11:12:58.893Z</time></trkpt><trkpt lat="42.18976" lon="14.6408933"><ele>0.0</ele><time>2026-04-29T11:13:00.892Z</time></trkpt><trkpt lat="42.1898267" lon="14.6408117"><ele>0.16666666666666666</ele><time>2026-04-29T11:13:02.893Z</time></trkpt><trkpt lat="42.1898917" lon="14.6407767"><ele>0.3333333333333333</ele><time>2026-04-29T11:13:04.892Z</time></trkpt><trkpt lat="42.189975" lon="14.640805"><ele>0.5</ele><time>2026-04-29T11:13:06.893Z</time></trkpt><trkpt lat="42.190065" lon="14.6408483"><ele>0.6666666666666666</ele><time>2026-04-29T11:13:08.893Z</time></trkpt><trkpt lat="42.1901617" lon="14.64088"><ele>0.8333333333333333</ele><time>2026-04-29T11:13:10.893Z</time></trkpt><trkpt lat="42.1902533" lon="14.6408867"><ele>1.0</ele><time>2026-04-29T11:13:12.893Z</time></trkpt><trkpt lat="42.1903317" lon="14.64081"><ele>1.0</ele><time>2026-04-29T11:13:14.893Z</time></trkpt><trkpt lat="42.190365" lon="14.6406883"><ele>1.0</ele><time>2026-04-29T11:13:16.892Z</time></trkpt><trkpt lat="42.1903883" lon="14.6405717"><ele>1.0</ele><time>2026-04-29T11:13:18.893Z</time></trkpt><trkpt lat="42.1904133" lon="14.640455"><ele>1.0</ele><time>2026-04-29T11:13:20.893Z</time></trkpt><trkpt lat="42.1904333" lon="14.6403367"><ele>1.0</ele><time>2026-04-29T11:13:22.893Z</time></trkpt><trkpt lat="42.190455" lon="14.6402167"><ele>1.0</ele><time>2026-04-29T11:13:24.893Z</time></trkpt><trkpt lat="42.1904883" lon="14.6400817"><ele>1.0</ele><time>2026-04-29T11:13:26.893Z</time></trkpt><trkpt lat="42.190515" lon="14.639965"><ele>1.0</ele><time>2026-04-29T11:13:28.893Z</time></trkpt><trkpt lat="42.1905517" lon="14.6398317"><ele>1.0</ele><time>2026-04-29T11:13:30.892Z</time></trkpt><trkpt lat="42.1905717" lon="14.6397133"><ele>1.0</ele><time>2026-04-29T11:13:32.893Z</time></trkpt><trkpt lat="42.190595" lon="14.6395867"><ele>1.0</ele><time>2026-04-29T11:13:34.893Z</time></trkpt><trkpt lat="42.1906167" lon="14.6394617"><ele>1.0</ele><time>2026-04-29T11:13:36.892Z</time></trkpt><trkpt lat="42.1906417" lon="14.639345"><ele>1.0</ele><time>2026-04-29T11:13:38.893Z</time></trkpt><trkpt lat="42.1906733" lon="14.6392267"><ele>1.0</ele><time>2026-04-29T11:13:40.893Z</time></trkpt><trkpt lat="42.1906983" lon="14.639105"><ele>1.0</ele><time>2026-04-29T11:13:42.893Z</time></trkpt><trkpt lat="42.190715" lon="14.63898"><ele>0.9999999999999999</ele><time>2026-04-29T11:13:44.893Z</time></trkpt><trkpt lat="42.190735" lon="14.6388633"><ele>1.0</ele><time>2026-04-29T11:13:46.892Z</time></trkpt><trkpt lat="42.1907583" lon="14.6387383"><ele>1.0</ele><time>2026-04-29T11:13:48.893Z</time></trkpt><trkpt lat="42.190785" lon="14.63862"><ele>1.0</ele><time>2026-04-29T11:13:50.893Z</time></trkpt><trkpt lat="42.1908217" lon="14.6385217"><ele>0.9999999999999999</ele><time>2026-04-29T11:13:53.893Z</time></trkpt><trkpt lat="42.1908433" lon="14.6384333"><ele>1.0</ele><time>2026-04-29T11:13:59.893Z</time></trkpt><trkpt lat="42.1908683" lon="14.63835"><ele>1.0</ele><time>2026-04-29T11:14:06.893Z</time></trkpt><trkpt lat="42.1908633" lon="14.6382483"><ele>1.0</ele><time>2026-04-29T11:14:22.893Z</time></trkpt><trkpt lat="42.1909483" lon="14.6382967"><ele>1.0</ele><time>2026-04-29T11:15:24.843Z</time></trkpt><trkpt lat="42.190865" lon="14.63832"><ele>1.0</ele><time>2026-04-29T11:16:56.893Z</time></trkpt><trkpt lat="42.1909083" lon="14.6382333"><ele>1.0</ele><time>2026-04-29T11:18:28.897Z</time></trkpt><trkpt lat="42.1909583" lon="14.638075"><ele>1.0</ele><time>2026-04-29T11:18:56.897Z</time></trkpt><trkpt lat="42.190985" lon="14.63799"><ele>0.9999999999999999</ele><time>2026-04-29T11:18:59.897Z</time></trkpt><trkpt lat="42.191015" lon="14.6379"><ele>1.0</ele><time>2026-04-29T11:19:02.896Z</time></trkpt><trkpt lat="42.1910483" lon="14.6378067"><ele>1.0</ele><time>2026-04-29T11:19:05.896Z</time></trkpt><trkpt lat="42.1910817" lon="14.637705"><ele>0.9999999999999999</ele><time>2026-04-29T11:19:08.897Z</time></trkpt><trkpt lat="42.1911117" lon="14.6375967"><ele>1.0</ele><time>2026-04-29T11:19:11.896Z</time></trkpt><trkpt lat="42.1911333" lon="14.6375167"><ele>1.0</ele><time>2026-04-29T11:19:13.897Z</time></trkpt><trkpt lat="42.191155" lon="14.6374333"><ele>1.3333333333333333</ele><time>2026-04-29T11:19:15.896Z</time></trkpt><trkpt lat="42.191175" lon="14.6373417"><ele>1.6666666666666665</ele><time>2026-04-29T11:19:17.897Z</time></trkpt><trkpt lat="42.1911967" lon="14.6372467"><ele>2.0</ele><time>2026-04-29T11:19:19.896Z</time></trkpt><trkpt lat="42.1912167" lon="14.6371467"><ele>2.3333333333333335</ele><time>2026-04-29T11:19:21.895Z</time></trkpt><trkpt lat="42.1912367" lon="14.63705"><ele>2.6666666666666665</ele><time>2026-04-29T11:19:23.895Z</time></trkpt><trkpt lat="42.1912567" lon="14.636945"><ele>3.0</ele><time>2026-04-29T11:19:25.895Z</time></trkpt><trkpt lat="42.1912867" lon="14.6368383"><ele>3.0</ele><time>2026-04-29T11:19:27.895Z</time></trkpt><trkpt lat="42.1913183" lon="14.636725"><ele>3.0</ele><time>2026-04-29T11:19:29.895Z</time></trkpt><trkpt lat="42.1913517" lon="14.6366183"><ele>3.0</ele><time>2026-04-29T11:19:31.895Z</time></trkpt><trkpt lat="42.1913833" lon="14.6365067"><ele>3.0</ele><time>2026-04-29T11:19:33.896Z</time></trkpt><trkpt lat="42.1914117" lon="14.6364017"><ele>3.0</ele><time>2026-04-29T11:19:35.896Z</time></trkpt><trkpt lat="42.1914433" lon="14.6363"><ele>3.0</ele><time>2026-04-29T11:19:37.896Z</time></trkpt><trkpt lat="42.19147" lon="14.6362067"><ele>3.1666666666666665</ele><time>2026-04-29T11:19:39.896Z</time></trkpt><trkpt lat="42.1914983" lon="14.636125"><ele>3.333333333333333</ele><time>2026-04-29T11:19:41.896Z</time></trkpt><trkpt lat="42.191525" lon="14.6360333"><ele>3.5</ele><time>2026-04-29T11:19:44.895Z</time></trkpt><trkpt lat="42.1915567" lon="14.6359283"><ele>3.6666666666666665</ele><time>2026-04-29T11:20:11.896Z</time></trkpt><trkpt lat="42.19159" lon="14.63582"><ele>3.833333333333333</ele><time>2026-04-29T11:20:15.896Z</time></trkpt><trkpt lat="42.191625" lon="14.6357017"><ele>4.0</ele><time>2026-04-29T11:20:18.896Z</time></trkpt><trkpt lat="42.1916367" lon="14.6356067"><ele>3.9999999999999996</ele><time>2026-04-29T11:20:20.896Z</time></trkpt><trkpt lat="42.1916283" lon="14.635505"><ele>4.0</ele><time>2026-04-29T11:20:22.895Z</time></trkpt><trkpt lat="42.191605" lon="14.6354117"><ele>4.0</ele><time>2026-04-29T11:20:24.895Z</time></trkpt><trkpt lat="42.1915733" lon="14.6353167"><ele>4.0</ele><time>2026-04-29T11:20:26.896Z</time></trkpt><trkpt lat="42.191545" lon="14.6352283"><ele>3.9999999999999996</ele><time>2026-04-29T11:20:28.896Z</time></trkpt><trkpt lat="42.1915183" lon="14.635145"><ele>4.0</ele><time>2026-04-29T11:20:30.896Z</time></trkpt><trkpt lat="42.1914767" lon="14.6350417"><ele>3.9999999999999996</ele><time>2026-04-29T11:20:33.895Z</time></trkpt><trkpt lat="42.1914467" lon="14.634965"><ele>4.0</ele><time>2026-04-29T11:20:35.896Z</time></trkpt><trkpt lat="42.191405" lon="14.6348533"><ele>4.0</ele><time>2026-04-29T11:20:38.895Z</time></trkpt><trkpt lat="42.1913833" lon="14.6347717"><ele>4.0</ele><time>2026-04-29T11:20:40.895Z</time></trkpt><trkpt lat="42.19134" lon="14.63466"><ele>3.9999999999999996</ele><time>2026-04-29T11:20:43.895Z</time></trkpt><trkpt lat="42.1913067" lon="14.6345483"><ele>4.0</ele><time>2026-04-29T11:20:46.896Z</time></trkpt><trkpt lat="42.1913217" lon="14.634425"><ele>4.5</ele><time>2026-04-29T11:20:49.896Z</time></trkpt><trkpt lat="42.1913583" lon="14.6343283"><ele>5.0</ele><time>2026-04-29T11:20:52.896Z</time></trkpt><trkpt lat="42.1913983" lon="14.6342517"><ele>5.5</ele><time>2026-04-29T11:20:55.895Z</time></trkpt><trkpt lat="42.1914517" lon="14.6341717"><ele>6.0</ele><time>2026-04-29T11:20:58.895Z</time></trkpt><trkpt lat="42.1915133" lon="14.6340983"><ele>6.500000000000001</ele><time>2026-04-29T11:21:02.896Z</time></trkpt><trkpt lat="42.1915683" lon="14.63403"><ele>7.0</ele><time>2026-04-29T11:21:05.896Z</time></trkpt><trkpt lat="42.191625" lon="14.6339617"><ele>7.0</ele><time>2026-04-29T11:21:08.896Z</time></trkpt><trkpt lat="42.1916867" lon="14.6339"><ele>7.0</ele><time>2026-04-29T11:21:11.896Z</time></trkpt><trkpt lat="42.1917417" lon="14.6338533"><ele>7.0</ele><time>2026-04-29T11:21:14.896Z</time></trkpt><trkpt lat="42.191805" lon="14.6338133"><ele>7.0</ele><time>2026-04-29T11:21:18.896Z</time></trkpt><trkpt lat="42.1918683" lon="14.6337517"><ele>7.0</ele><time>2026-04-29T11:21:22.895Z</time></trkpt><trkpt lat="42.19192" lon="14.6336717"><ele>7.0</ele><time>2026-04-29T11:21:26.896Z</time></trkpt><trkpt lat="42.1919533" lon="14.6335883"><ele>7.0</ele><time>2026-04-29T11:21:31.896Z</time></trkpt><trkpt lat="42.1919867" lon="14.6334967"><ele>7.666666666666667</ele><time>2026-04-29T11:21:36.896Z</time></trkpt><trkpt lat="42.1920333" lon="14.633415"><ele>8.333333333333334</ele><time>2026-04-29T11:21:39.896Z</time></trkpt><trkpt lat="42.1921" lon="14.6333517"><ele>9.0</ele><time>2026-04-29T11:21:42.895Z</time></trkpt><trkpt lat="42.1921717" lon="14.6333"><ele>9.666666666666666</ele><time>2026-04-29T11:21:45.896Z</time></trkpt><trkpt lat="42.1922533" lon="14.6332667"><ele>10.333333333333332</ele><time>2026-04-29T11:21:48.896Z</time></trkpt><trkpt lat="42.192345" lon="14.6332733"><ele>11.0</ele><time>2026-04-29T11:21:51.895Z</time></trkpt><trkpt lat="42.192425" lon="14.6332783"><ele>11.5</ele><time>2026-04-29T11:21:54.895Z</time></trkpt><trkpt lat="42.1924933" lon="14.6333017"><ele>12.0</ele><time>2026-04-29T11:23:28.894Z</time></trkpt><trkpt lat="42.1925717" lon="14.6332683"><ele>12.5</ele><time>2026-04-29T11:23:32.895Z</time></trkpt><trkpt lat="42.1926333" lon="14.6332333"><ele>13.0</ele><time>2026-04-29T11:23:35.895Z</time></trkpt><trkpt lat="42.1927083" lon="14.6332"><ele>13.500000000000002</ele><time>2026-04-29T11:23:38.895Z</time></trkpt><trkpt lat="42.1927833" lon="14.6331583"><ele>14.0</ele><time>2026-04-29T11:23:41.895Z</time></trkpt><trkpt lat="42.1928517" lon="14.63309"><ele>14.000000000000002</ele><time>2026-04-29T11:23:44.894Z</time></trkpt><trkpt lat="42.192915" lon="14.6330567"><ele>14.0</ele><time>2026-04-29T11:23:46.894Z</time></trkpt><trkpt lat="42.192985" lon="14.6330233"><ele>14.0</ele><time>2026-04-29T11:23:48.895Z</time></trkpt><trkpt lat="42.193045" lon="14.6329533"><ele>14.0</ele><time>2026-04-29T11:23:50.895Z</time></trkpt><trkpt lat="42.193105" lon="14.63286"><ele>14.000000000000002</ele><time>2026-04-29T11:23:52.895Z</time></trkpt><trkpt lat="42.193165" lon="14.6327517"><ele>14.0</ele><time>2026-04-29T11:23:54.895Z</time></trkpt><trkpt lat="42.1932267" lon="14.6326417"><ele>13.2</ele><time>2026-04-29T11:23:56.894Z</time></trkpt><trkpt lat="42.1932917" lon="14.6325483"><ele>12.399999999999999</ele><time>2026-04-29T11:23:58.894Z</time></trkpt><trkpt lat="42.1934" lon="14.6325117"><ele>11.6</ele><time>2026-04-29T11:24:00.895Z</time></trkpt><trkpt lat="42.1934867" lon="14.6324917"><ele>10.8</ele><time>2026-04-29T11:24:02.894Z</time></trkpt><trkpt lat="42.1935483" lon="14.63243"><ele>10.0</ele><time>2026-04-29T11:24:04.894Z</time></trkpt><trkpt lat="42.1936033" lon="14.6323317"><ele>10.0</ele><time>2026-04-29T11:24:06.894Z</time></trkpt><trkpt lat="42.19366" lon="14.6322033"><ele>10.0</ele><time>2026-04-29T11:24:08.895Z</time></trkpt><trkpt lat="42.1937183" lon="14.632075"><ele>10.0</ele><time>2026-04-29T11:24:10.895Z</time></trkpt><trkpt lat="42.1937817" lon="14.6319567"><ele>10.0</ele><time>2026-04-29T11:24:12.895Z</time></trkpt><trkpt lat="42.1938433" lon="14.6318283"><ele>10.0</ele><time>2026-04-29T11:24:14.895Z</time></trkpt><trkpt lat="42.1939017" lon="14.6316983"><ele>10.2</ele><time>2026-04-29T11:24:16.895Z</time></trkpt><trkpt lat="42.193955" lon="14.6315783"><ele>10.4</ele><time>2026-04-29T11:24:18.894Z</time></trkpt><trkpt lat="42.194005" lon="14.63146"><ele>10.600000000000001</ele><time>2026-04-29T11:24:20.894Z</time></trkpt><trkpt lat="42.19405" lon="14.6313467"><ele>10.8</ele><time>2026-04-29T11:24:22.894Z</time></trkpt><trkpt lat="42.1940933" lon="14.631245"><ele>11.0</ele><time>2026-04-29T11:24:24.894Z</time></trkpt><trkpt lat="42.1941333" lon="14.6311567"><ele>10.285714285714286</ele><time>2026-04-29T11:24:26.895Z</time></trkpt><trkpt lat="42.194175" lon="14.631085"><ele>9.571428571428571</ele><time>2026-04-29T11:24:28.895Z</time></trkpt><trkpt lat="42.1942133" lon="14.63098"><ele>8.857142857142858</ele><time>2026-04-29T11:24:31.895Z</time></trkpt><trkpt lat="42.19425" lon="14.6308783"><ele>8.142857142857142</ele><time>2026-04-29T11:24:34.895Z</time></trkpt><trkpt lat="42.1942783" lon="14.6307983"><ele>7.428571428571429</ele><time>2026-04-29T11:24:36.895Z</time></trkpt><trkpt lat="42.1943017" lon="14.6307183"><ele>6.7142857142857135</ele><time>2026-04-29T11:24:38.895Z</time></trkpt><trkpt lat="42.1943333" lon="14.6306433"><ele>6.0</ele><time>2026-04-29T11:24:40.895Z</time></trkpt><trkpt lat="42.1943783" lon="14.6305317"><ele>5.999999999999999</ele><time>2026-04-29T11:24:43.894Z</time></trkpt><trkpt lat="42.1944067" lon="14.6304483"><ele>6.0</ele><time>2026-04-29T11:24:45.894Z</time></trkpt><trkpt lat="42.1944367" lon="14.630365"><ele>6.0</ele><time>2026-04-29T11:24:47.895Z</time></trkpt><trkpt lat="42.1944717" lon="14.630285"><ele>6.0</ele><time>2026-04-29T11:24:49.894Z</time></trkpt><trkpt lat="42.1945017" lon="14.6302083"><ele>6.0</ele><time>2026-04-29T11:24:51.894Z</time></trkpt><trkpt lat="42.1945283" lon="14.6301217"><ele>5.999999999999999</ele><time>2026-04-29T11:24:53.895Z</time></trkpt><trkpt lat="42.19456" lon="14.6300317"><ele>6.0</ele><time>2026-04-29T11:24:55.895Z</time></trkpt><trkpt lat="42.1945883" lon="14.629945"><ele>6.285714285714285</ele><time>2026-04-29T11:24:57.895Z</time></trkpt><trkpt lat="42.1946183" lon="14.6298583"><ele>6.571428571428571</ele><time>2026-04-29T11:24:59.894Z</time></trkpt><trkpt lat="42.1946517" lon="14.6297783"><ele>6.857142857142857</ele><time>2026-04-29T11:25:01.895Z</time></trkpt><trkpt lat="42.1946833" lon="14.6296967"><ele>7.142857142857142</ele><time>2026-04-29T11:25:03.895Z</time></trkpt><trkpt lat="42.1947183" lon="14.6296117"><ele>7.428571428571428</ele><time>2026-04-29T11:25:05.894Z</time></trkpt><trkpt lat="42.19476" lon="14.6295067"><ele>7.7142857142857135</ele><time>2026-04-29T11:25:08.895Z</time></trkpt><trkpt lat="42.1947933" lon="14.6294067"><ele>8.0</ele><time>2026-04-29T11:25:11.894Z</time></trkpt><trkpt lat="42.19483" lon="14.6293117"><ele>7.666666666666666</ele><time>2026-04-29T11:25:14.895Z</time></trkpt><trkpt lat="42.1948567" lon="14.6292317"><ele>7.333333333333333</ele><time>2026-04-29T11:25:16.895Z</time></trkpt><trkpt lat="42.1949" lon="14.6291283"><ele>7.0</ele><time>2026-04-29T11:25:19.895Z</time></trkpt><trkpt lat="42.1949483" lon="14.6290233"><ele>6.666666666666666</ele><time>2026-04-29T11:25:22.894Z</time></trkpt><trkpt lat="42.1949783" lon="14.6289367"><ele>6.333333333333333</ele><time>2026-04-29T11:25:24.894Z</time></trkpt><trkpt lat="42.195005" lon="14.6288533"><ele>6.0</ele><time>2026-04-29T11:25:26.894Z</time></trkpt><trkpt lat="42.1950367" lon="14.6287733"><ele>6.0</ele><time>2026-04-29T11:25:28.895Z</time></trkpt><trkpt lat="42.195065" lon="14.6286917"><ele>6.0</ele><time>2026-04-29T11:25:30.894Z</time></trkpt><trkpt lat="42.1950967" lon="14.628605"><ele>6.0</ele><time>2026-04-29T11:25:32.894Z</time></trkpt><trkpt lat="42.195125" lon="14.62851"><ele>6.0</ele><time>2026-04-29T11:25:34.895Z</time></trkpt><trkpt lat="42.1951533" lon="14.6284167"><ele>6.0</ele><time>2026-04-29T11:25:36.895Z</time></trkpt><trkpt lat="42.1951683" lon="14.6282983"><ele>6.0</ele><time>2026-04-29T11:25:38.895Z</time></trkpt><trkpt lat="42.1951517" lon="14.6281633"><ele>6.333333333333333</ele><time>2026-04-29T11:25:40.895Z</time></trkpt><trkpt lat="42.1950917" lon="14.6281"><ele>6.666666666666666</ele><time>2026-04-29T11:25:42.894Z</time></trkpt><trkpt lat="42.1950217" lon="14.6280517"><ele>7.0</ele><time>2026-04-29T11:25:44.895Z</time></trkpt><trkpt lat="42.1949583" lon="14.6279967"><ele>7.333333333333333</ele><time>2026-04-29T11:25:46.894Z</time></trkpt><trkpt lat="42.1948933" lon="14.6279317"><ele>7.666666666666666</ele><time>2026-04-29T11:25:48.894Z</time></trkpt><trkpt lat="42.1948517" lon="14.627865"><ele>8.0</ele><time>2026-04-29T11:25:50.895Z</time></trkpt><trkpt lat="42.19484" lon="14.6277433"><ele>8.200000000000001</ele><time>2026-04-29T11:25:53.894Z</time></trkpt><trkpt lat="42.1948517" lon="14.6276333"><ele>8.4</ele><time>2026-04-29T11:25:56.895Z</time></trkpt><trkpt lat="42.1948883" lon="14.6275133"><ele>8.600000000000001</ele><time>2026-04-29T11:26:00.895Z</time></trkpt><trkpt lat="42.19495" lon="14.6274333"><ele>8.8</ele><time>2026-04-29T11:26:02.895Z</time></trkpt><trkpt lat="42.1950367" lon="14.6273967"><ele>9.0</ele><time>2026-04-29T11:26:04.894Z</time></trkpt><trkpt lat="42.1951383" lon="14.62741"><ele>9.0</ele><time>2026-04-29T11:26:06.895Z</time></trkpt><trkpt lat="42.1952017" lon="14.6274567"><ele>9.0</ele><time>2026-04-29T11:26:07.894Z</time></trkpt><trkpt lat="42.1952683" lon="14.627515"><ele>9.0</ele><time>2026-04-29T11:26:08.895Z</time></trkpt><trkpt lat="42.1953283" lon="14.6275867"><ele>9.0</ele><time>2026-04-29T11:26:09.894Z</time></trkpt><trkpt lat="42.1953783" lon="14.6276617"><ele>9.0</ele><time>2026-04-29T11:26:10.894Z</time></trkpt><trkpt lat="42.1954217" lon="14.627745"><ele>9.0</ele><time>2026-04-29T11:26:11.895Z</time></trkpt><trkpt lat="42.1954667" lon="14.627825"><ele>8.833333333333334</ele><time>2026-04-29T11:26:12.894Z</time></trkpt><trkpt lat="42.1955117" lon="14.627925"><ele>8.666666666666666</ele><time>2026-04-29T11:26:13.894Z</time></trkpt><trkpt lat="42.1955533" lon="14.6280133"><ele>8.5</ele><time>2026-04-29T11:26:14.894Z</time></trkpt><trkpt lat="42.19559" lon="14.6281"><ele>8.333333333333332</ele><time>2026-04-29T11:26:15.895Z</time></trkpt><trkpt lat="42.1956267" lon="14.6281767"><ele>8.166666666666666</ele><time>2026-04-29T11:26:16.895Z</time></trkpt><trkpt lat="42.1956667" lon="14.6282433"><ele>8.0</ele><time>2026-04-29T11:26:17.895Z</time></trkpt><trkpt lat="42.1957283" lon="14.6283667"><ele>7.333333333333333</ele><time>2026-04-29T11:26:19.895Z</time></trkpt><trkpt lat="42.19578" lon="14.6284783"><ele>6.666666666666666</ele><time>2026-04-29T11:26:21.895Z</time></trkpt><trkpt lat="42.1958133" lon="14.6285733"><ele>6.0</ele><time>2026-04-29T11:26:23.894Z</time></trkpt><trkpt lat="42.1958417" lon="14.62866"><ele>5.333333333333333</ele><time>2026-04-29T11:26:25.894Z</time></trkpt><trkpt lat="42.19587" lon="14.62874"><ele>4.666666666666666</ele><time>2026-04-29T11:26:27.895Z</time></trkpt><trkpt lat="42.1959283" lon="14.6288133"><ele>4.0</ele><time>2026-04-29T11:26:30.895Z</time></trkpt><trkpt lat="42.1959983" lon="14.628825"><ele>4.0</ele><time>2026-04-29T11:26:33.895Z</time></trkpt><trkpt lat="42.196055" lon="14.62877"><ele>3.9999999999999996</ele><time>2026-04-29T11:26:36.895Z</time></trkpt><trkpt lat="42.1960933" lon="14.6286767"><ele>4.0</ele><time>2026-04-29T11:26:39.895Z</time></trkpt><trkpt lat="42.1961333" lon="14.6285767"><ele>4.0</ele><time>2026-04-29T11:26:42.894Z</time></trkpt><trkpt lat="42.1961667" lon="14.6284983"><ele>3.9999999999999996</ele><time>2026-04-29T11:26:44.894Z</time></trkpt><trkpt lat="42.1961983" lon="14.6284167"><ele>4.0</ele><time>2026-04-29T11:26:46.894Z</time></trkpt><trkpt lat="42.1962283" lon="14.628325"><ele>4.0</ele><time>2026-04-29T11:26:48.894Z</time></trkpt><trkpt lat="42.196265" lon="14.6282283"><ele>4.0</ele><time>2026-04-29T11:26:50.895Z</time></trkpt><trkpt lat="42.1963017" lon="14.6281267"><ele>4.0</ele><time>2026-04-29T11:26:52.895Z</time></trkpt><trkpt lat="42.1963417" lon="14.6280233"><ele>4.0</ele><time>2026-04-29T11:26:54.895Z</time></trkpt><trkpt lat="42.1963867" lon="14.6279067"><ele>4.0</ele><time>2026-04-29T11:26:56.895Z</time></trkpt><trkpt lat="42.1964283" lon="14.6277867"><ele>4.0</ele><time>2026-04-29T11:26:58.894Z</time></trkpt><trkpt lat="42.1964667" lon="14.6276733"><ele>3.6666666666666665</ele><time>2026-04-29T11:27:00.894Z</time></trkpt><trkpt lat="42.1965083" lon="14.62756"><ele>3.333333333333333</ele><time>2026-04-29T11:27:02.895Z</time></trkpt><trkpt lat="42.19655" lon="14.6274533"><ele>3.0</ele><time>2026-04-29T11:27:04.894Z</time></trkpt><trkpt lat="42.196585" lon="14.6273467"><ele>2.6666666666666665</ele><time>2026-04-29T11:27:06.895Z</time></trkpt><trkpt lat="42.1966233" lon="14.6272367"><ele>2.333333333333333</ele><time>2026-04-29T11:27:08.894Z</time></trkpt><trkpt lat="42.19666" lon="14.627145"><ele>2.0</ele><time>2026-04-29T11:27:10.895Z</time></trkpt><trkpt lat="42.196695" lon="14.6270483"><ele>1.6</ele><time>2026-04-29T11:27:12.895Z</time></trkpt><trkpt lat="42.1967283" lon="14.6269433"><ele>1.2000000000000002</ele><time>2026-04-29T11:27:14.895Z</time></trkpt><trkpt lat="42.19676" lon="14.6268317"><ele>0.8</ele><time>2026-04-29T11:27:16.895Z</time></trkpt><trkpt lat="42.1967967" lon="14.626715"><ele>0.4</ele><time>2026-04-29T11:27:18.894Z</time></trkpt><trkpt lat="42.19683" lon="14.6265917"><ele>0.0</ele><time>2026-04-29T11:27:20.895Z</time></trkpt><trkpt lat="42.19687" lon="14.6264783"><ele>0.0</ele><time>2026-04-29T11:27:22.895Z</time></trkpt><trkpt lat="42.19691" lon="14.6263617"><ele>0.0</ele><time>2026-04-29T11:27:24.894Z</time></trkpt><trkpt lat="42.19695" lon="14.626245"><ele>0.0</ele><time>2026-04-29T11:27:26.895Z</time></trkpt><trkpt lat="42.19699" lon="14.626115"><ele>0.0</ele><time>2026-04-29T11:27:28.895Z</time></trkpt><trkpt lat="42.1970317" lon="14.6260117"><ele>0.0</ele><time>2026-04-29T11:27:30.895Z</time></trkpt><trkpt lat="42.1970717" lon="14.6258983"><ele>1.4</ele><time>2026-04-29T11:27:32.894Z</time></trkpt><trkpt lat="42.1971167" lon="14.6257783"><ele>2.8</ele><time>2026-04-29T11:27:34.894Z</time></trkpt><trkpt lat="42.1971617" lon="14.625655"><ele>4.199999999999999</ele><time>2026-04-29T11:27:36.895Z</time></trkpt><trkpt lat="42.1972" lon="14.6255383"><ele>5.6</ele><time>2026-04-29T11:27:38.894Z</time></trkpt><trkpt lat="42.19724" lon="14.62543"><ele>7.0</ele><time>2026-04-29T11:27:40.894Z</time></trkpt><trkpt lat="42.1972783" lon="14.62531"><ele>6.6</ele><time>2026-04-29T11:27:42.895Z</time></trkpt><trkpt lat="42.1973217" lon="14.6251867"><ele>6.199999999999999</ele><time>2026-04-29T11:27:44.894Z</time></trkpt><trkpt lat="42.1973583" lon="14.62507"><ele>5.8</ele><time>2026-04-29T11:27:46.894Z</time></trkpt><trkpt lat="42.1973967" lon="14.62496"><ele>5.4</ele><time>2026-04-29T11:27:48.895Z</time></trkpt><trkpt lat="42.197435" lon="14.6248517"><ele>5.0</ele><time>2026-04-29T11:27:50.895Z</time></trkpt><trkpt lat="42.19748" lon="14.62475"><ele>5.0</ele><time>2026-04-29T11:27:52.895Z</time></trkpt><trkpt lat="42.1975183" lon="14.62464"><ele>5.0</ele><time>2026-04-29T11:27:54.895Z</time></trkpt><trkpt lat="42.1975583" lon="14.6245217"><ele>5.0</ele><time>2026-04-29T11:27:56.894Z</time></trkpt><trkpt lat="42.1976" lon="14.6244"><ele>5.0</ele><time>2026-04-29T11:27:58.895Z</time></trkpt><trkpt lat="42.1976417" lon="14.6242933"><ele>5.0</ele><time>2026-04-29T11:28:00.895Z</time></trkpt><trkpt lat="42.1976767" lon="14.6241883"><ele>5.8</ele><time>2026-04-29T11:28:02.895Z</time></trkpt><trkpt lat="42.19771" lon="14.62407"><ele>6.6</ele><time>2026-04-29T11:28:04.895Z</time></trkpt><trkpt lat="42.1977467" lon="14.6239483"><ele>7.4</ele><time>2026-04-29T11:28:06.895Z</time></trkpt><trkpt lat="42.1977817" lon="14.62382"><ele>8.2</ele><time>2026-04-29T11:28:08.895Z</time></trkpt><trkpt lat="42.19782" lon="14.6236983"><ele>9.0</ele><time>2026-04-29T11:28:10.895Z</time></trkpt><trkpt lat="42.1978567" lon="14.623575"><ele>9.333333333333334</ele><time>2026-04-29T11:28:12.895Z</time></trkpt><trkpt lat="42.1978933" lon="14.62345"><ele>9.666666666666666</ele><time>2026-04-29T11:28:14.895Z</time></trkpt><trkpt lat="42.1979283" lon="14.6233433"><ele>10.0</ele><time>2026-04-29T11:28:16.895Z</time></trkpt><trkpt lat="42.1979617" lon="14.6232467"><ele>10.333333333333332</ele><time>2026-04-29T11:28:18.895Z</time></trkpt><trkpt lat="42.197995" lon="14.6231533"><ele>10.666666666666666</ele><time>2026-04-29T11:28:20.895Z</time></trkpt><trkpt lat="42.1980183" lon="14.6230517"><ele>11.0</ele><time>2026-04-29T11:28:22.894Z</time></trkpt><trkpt lat="42.19805" lon="14.6229483"><ele>11.0</ele><time>2026-04-29T11:28:24.895Z</time></trkpt><trkpt lat="42.1980867" lon="14.6228367"><ele>11.0</ele><time>2026-04-29T11:28:26.895Z</time></trkpt><trkpt lat="42.1981217" lon="14.6227283"><ele>11.0</ele><time>2026-04-29T11:28:28.895Z</time></trkpt><trkpt lat="42.1981533" lon="14.6226167"><ele>11.0</ele><time>2026-04-29T11:28:30.895Z</time></trkpt><trkpt lat="42.1981817" lon="14.622505"><ele>11.0</ele><time>2026-04-29T11:28:32.895Z</time></trkpt><trkpt lat="42.198215" lon="14.622395"><ele>11.0</ele><time>2026-04-29T11:28:34.895Z</time></trkpt><trkpt lat="42.1982483" lon="14.62228"><ele>10.4</ele><time>2026-04-29T11:28:36.895Z</time></trkpt><trkpt lat="42.1982783" lon="14.6221483"><ele>9.8</ele><time>2026-04-29T11:28:38.895Z</time></trkpt><trkpt lat="42.1983083" lon="14.6220367"><ele>9.200000000000001</ele><time>2026-04-29T11:28:40.894Z</time></trkpt><trkpt lat="42.198345" lon="14.6219167"><ele>8.600000000000001</ele><time>2026-04-29T11:28:42.894Z</time></trkpt><trkpt lat="42.1983833" lon="14.6218"><ele>8.0</ele><time>2026-04-29T11:28:44.895Z</time></trkpt><trkpt lat="42.19842" lon="14.621695"><ele>7.999999999999999</ele><time>2026-04-29T11:28:46.894Z</time></trkpt><trkpt lat="42.1984517" lon="14.6215783"><ele>8.0</ele><time>2026-04-29T11:28:48.895Z</time></trkpt><trkpt lat="42.19848" lon="14.6214617"><ele>8.0</ele><time>2026-04-29T11:28:50.895Z</time></trkpt><trkpt lat="42.1985117" lon="14.6213517"><ele>8.0</ele><time>2026-04-29T11:28:52.895Z</time></trkpt><trkpt lat="42.19854" lon="14.62124"><ele>7.999999999999999</ele><time>2026-04-29T11:28:54.895Z</time></trkpt><trkpt lat="42.1985783" lon="14.6211283"><ele>8.0</ele><time>2026-04-29T11:28:56.895Z</time></trkpt><trkpt lat="42.1986067" lon="14.6210117"><ele>8.200000000000001</ele><time>2026-04-29T11:28:58.894Z</time></trkpt><trkpt lat="42.1986333" lon="14.6208967"><ele>8.4</ele><time>2026-04-29T11:29:00.895Z</time></trkpt><trkpt lat="42.1986667" lon="14.6207783"><ele>8.600000000000001</ele><time>2026-04-29T11:29:02.894Z</time></trkpt><trkpt lat="42.198705" lon="14.6206617"><ele>8.8</ele><time>2026-04-29T11:29:04.894Z</time></trkpt><trkpt lat="42.1987417" lon="14.6205467"><ele>9.0</ele><time>2026-04-29T11:29:06.895Z</time></trkpt><trkpt lat="42.198775" lon="14.620435"><ele>9.0</ele><time>2026-04-29T11:29:08.894Z</time></trkpt><trkpt lat="42.1988067" lon="14.62032"><ele>9.0</ele><time>2026-04-29T11:29:10.894Z</time></trkpt><trkpt lat="42.198835" lon="14.6202267"><ele>9.0</ele><time>2026-04-29T11:29:12.895Z</time></trkpt><trkpt lat="42.19885" lon="14.620045"><ele>9.0</ele><time>2026-04-29T11:30:16.904Z</time></trkpt><trkpt lat="42.1988467" lon="14.620155"><ele>9.0</ele><time>2026-04-29T11:30:18.897Z</time></trkpt><trkpt lat="42.1988717" lon="14.62006"><ele>9.0</ele><time>2026-04-29T11:36:15.898Z</time></trkpt><trkpt lat="42.1988633" lon="14.619975"><ele>9.0</ele><time>2026-04-29T11:36:25.898Z</time></trkpt><trkpt lat="42.19892" lon="14.619905"><ele>9.0</ele><time>2026-04-29T11:40:24.896Z</time></trkpt><trkpt lat="42.198955" lon="14.6198133"><ele>9.0</ele><time>2026-04-29T11:40:27.895Z</time></trkpt><trkpt lat="42.1989833" lon="14.61973"><ele>9.0</ele><time>2026-04-29T11:40:29.895Z</time></trkpt><trkpt lat="42.199015" lon="14.6196283"><ele>9.0</ele><time>2026-04-29T11:40:31.895Z</time></trkpt><trkpt lat="42.1990483" lon="14.6195067"><ele>7.833333333333333</ele><time>2026-04-29T11:40:33.895Z</time></trkpt><trkpt lat="42.19908" lon="14.61939"><ele>6.666666666666667</ele><time>2026-04-29T11:40:35.895Z</time></trkpt><trkpt lat="42.1991133" lon="14.619285"><ele>5.5</ele><time>2026-04-29T11:40:37.895Z</time></trkpt><trkpt lat="42.1991533" lon="14.6191767"><ele>4.333333333333333</ele><time>2026-04-29T11:40:39.896Z</time></trkpt><trkpt lat="42.1991883" lon="14.61907"><ele>3.1666666666666665</ele><time>2026-04-29T11:40:41.896Z</time></trkpt><trkpt lat="42.19922" lon="14.61896"><ele>2.0</ele><time>2026-04-29T11:40:43.896Z</time></trkpt><trkpt lat="42.1992533" lon="14.6188567"><ele>1.9999999999999998</ele><time>2026-04-29T11:40:45.895Z</time></trkpt><trkpt lat="42.19929" lon="14.6187567"><ele>2.0</ele><time>2026-04-29T11:40:47.896Z</time></trkpt><trkpt lat="42.199325" lon="14.6186583"><ele>2.0</ele><time>2026-04-29T11:40:49.896Z</time></trkpt><trkpt lat="42.1993567" lon="14.6185583"><ele>2.0</ele><time>2026-04-29T11:40:51.896Z</time></trkpt><trkpt lat="42.1993983" lon="14.61845"><ele>1.9999999999999998</ele><time>2026-04-29T11:40:53.895Z</time></trkpt><trkpt lat="42.1994417" lon="14.618335"><ele>2.0</ele><time>2026-04-29T11:40:55.895Z</time></trkpt><trkpt lat="42.1994783" lon="14.618225"><ele>2.1666666666666665</ele><time>2026-04-29T11:40:57.895Z</time></trkpt><trkpt lat="42.199515" lon="14.618115"><ele>2.333333333333333</ele><time>2026-04-29T11:40:59.895Z</time></trkpt><trkpt lat="42.19955" lon="14.6180017"><ele>2.5</ele><time>2026-04-29T11:41:01.896Z</time></trkpt><trkpt lat="42.1995833" lon="14.6178933"><ele>2.6666666666666665</ele><time>2026-04-29T11:41:03.896Z</time></trkpt><trkpt lat="42.1996217" lon="14.6177817"><ele>2.8333333333333335</ele><time>2026-04-29T11:41:05.896Z</time></trkpt><trkpt lat="42.19966" lon="14.6176833"><ele>3.0</ele><time>2026-04-29T11:41:07.895Z</time></trkpt><trkpt lat="42.1996933" lon="14.6175733"><ele>2.6</ele><time>2026-04-29T11:41:09.896Z</time></trkpt><trkpt lat="42.199735" lon="14.6174667"><ele>2.1999999999999997</ele><time>2026-04-29T11:41:11.896Z</time></trkpt><trkpt lat="42.1997717" lon="14.6173583"><ele>1.8</ele><time>2026-04-29T11:41:13.896Z</time></trkpt><trkpt lat="42.1998083" lon="14.6172533"><ele>1.4</ele><time>2026-04-29T11:41:15.895Z</time></trkpt><trkpt lat="42.19985" lon="14.61714"><ele>1.0</ele><time>2026-04-29T11:41:17.896Z</time></trkpt><trkpt lat="42.19989" lon="14.61702"><ele>1.0</ele><time>2026-04-29T11:41:19.895Z</time></trkpt><trkpt lat="42.199925" lon="14.61691"><ele>1.0</ele><time>2026-04-29T11:41:21.896Z</time></trkpt><trkpt lat="42.1999617" lon="14.6167983"><ele>1.0</ele><time>2026-04-29T11:41:23.896Z</time></trkpt><trkpt lat="42.199995" lon="14.6166817"><ele>1.0</ele><time>2026-04-29T11:41:25.895Z</time></trkpt><trkpt lat="42.2000367" lon="14.61657"><ele>1.0</ele><time>2026-04-29T11:41:27.896Z</time></trkpt><trkpt lat="42.200075" lon="14.6164617"><ele>0.9999999999999999</ele><time>2026-04-29T11:41:29.896Z</time></trkpt><trkpt lat="42.2001167" lon="14.6163467"><ele>1.0</ele><time>2026-04-29T11:41:31.896Z</time></trkpt><trkpt lat="42.2001533" lon="14.6162333"><ele>1.0</ele><time>2026-04-29T11:41:33.895Z</time></trkpt><trkpt lat="42.200185" lon="14.6161267"><ele>1.0</ele><time>2026-04-29T11:41:35.896Z</time></trkpt><trkpt lat="42.2002183" lon="14.6160233"><ele>0.9999999999999999</ele><time>2026-04-29T11:41:37.896Z</time></trkpt><trkpt lat="42.2002517" lon="14.6159267"><ele>1.0</ele><time>2026-04-29T11:41:39.896Z</time></trkpt><trkpt lat="42.2002833" lon="14.61583"><ele>1.5</ele><time>2026-04-29T11:41:41.896Z</time></trkpt><trkpt lat="42.2003167" lon="14.615745"><ele>2.0</ele><time>2026-04-29T11:41:43.896Z</time></trkpt><trkpt lat="42.2003517" lon="14.615665"><ele>2.5</ele><time>2026-04-29T11:41:45.895Z</time></trkpt><trkpt lat="42.20042" lon="14.615585"><ele>3.0</ele><time>2026-04-29T11:41:48.896Z</time></trkpt><trkpt lat="42.2004783" lon="14.615545"><ele>3.4999999999999996</ele><time>2026-04-29T11:41:50.896Z</time></trkpt><trkpt lat="42.2005417" lon="14.6154833"><ele>4.0</ele><time>2026-04-29T11:41:53.896Z</time></trkpt><trkpt lat="42.2005533" lon="14.615365"><ele>3.833333333333333</ele><time>2026-04-29T11:41:56.895Z</time></trkpt><trkpt lat="42.20056" lon="14.6152783"><ele>3.6666666666666665</ele><time>2026-04-29T11:41:58.896Z</time></trkpt><trkpt lat="42.200605" lon="14.6151967"><ele>3.5</ele><time>2026-04-29T11:42:00.896Z</time></trkpt><trkpt lat="42.2006667" lon="14.6150883"><ele>3.333333333333333</ele><time>2026-04-29T11:42:02.896Z</time></trkpt><trkpt lat="42.2007" lon="14.61497"><ele>3.1666666666666665</ele><time>2026-04-29T11:42:04.896Z</time></trkpt><trkpt lat="42.200715" lon="14.6148317"><ele>3.0</ele><time>2026-04-29T11:42:06.896Z</time></trkpt><trkpt lat="42.2007083" lon="14.6147433"><ele>3.0</ele><time>2026-04-29T11:42:09.895Z</time></trkpt><trkpt lat="42.2007117" lon="14.6148367"><ele>3.0</ele><time>2026-04-29T11:42:15.896Z</time></trkpt><trkpt lat="42.2007817" lon="14.6148567"><ele>3.0</ele><time>2026-04-29T11:42:17.895Z</time></trkpt><trkpt lat="42.2008783" lon="14.6148933"><ele>3.0</ele><time>2026-04-29T11:42:19.896Z</time></trkpt><trkpt lat="42.2009767" lon="14.6149383"><ele>3.0</ele><time>2026-04-29T11:42:21.896Z</time></trkpt><trkpt lat="42.2010467" lon="14.61497"><ele>3.0</ele><time>2026-04-29T11:42:23.895Z</time></trkpt><trkpt lat="42.20114" lon="14.614975"><ele>3.0</ele><time>2026-04-29T11:42:26.896Z</time></trkpt><trkpt lat="42.2012067" lon="14.6149433"><ele>3.0</ele><time>2026-04-29T11:42:28.895Z</time></trkpt><trkpt lat="42.201265" lon="14.6148867"><ele>3.0</ele><time>2026-04-29T11:42:30.895Z</time></trkpt><trkpt lat="42.201325" lon="14.6148117"><ele>3.0</ele><time>2026-04-29T11:42:32.895Z</time></trkpt><trkpt lat="42.2013783" lon="14.61474"><ele>3.0</ele><time>2026-04-29T11:42:34.896Z</time></trkpt><trkpt lat="42.2014267" lon="14.6146567"><ele>3.0</ele><time>2026-04-29T11:42:36.896Z</time></trkpt><trkpt lat="42.2014817" lon="14.6145583"><ele>3.0</ele><time>2026-04-29T11:42:39.896Z</time></trkpt><trkpt lat="42.201425" lon="14.6146333"><ele>3.0</ele><time>2026-04-29T11:43:41.895Z</time></trkpt><trkpt lat="42.2013667" lon="14.6147233"><ele>3.0</ele><time>2026-04-29T11:43:44.896Z</time></trkpt><trkpt lat="42.2013183" lon="14.6147817"><ele>3.0</ele><time>2026-04-29T11:43:46.896Z</time></trkpt><trkpt lat="42.2012433" lon="14.614855"><ele>3.0</ele><time>2026-04-29T11:43:49.895Z</time></trkpt><trkpt lat="42.2011667" lon="14.6149283"><ele>3.0</ele><time>2026-04-29T11:43:52.896Z</time></trkpt><trkpt lat="42.2011033" lon="14.6149517"><ele>2.9999999999999996</ele><time>2026-04-29T11:43:54.896Z</time></trkpt><trkpt lat="42.20104" lon="14.61495"><ele>3.0</ele><time>2026-04-29T11:43:56.896Z</time></trkpt><trkpt lat="42.200985" lon="14.6149067"><ele>3.0</ele><time>2026-04-29T11:43:58.896Z</time></trkpt><trkpt lat="42.2009133" lon="14.6148633"><ele>3.0</ele><time>2026-04-29T11:44:01.895Z</time></trkpt><trkpt lat="42.200845" lon="14.6148417"><ele>3.0</ele><time>2026-04-29T11:44:04.896Z</time></trkpt><trkpt lat="42.200765" lon="14.6147983"><ele>2.9999999999999996</ele><time>2026-04-29T11:44:07.895Z</time></trkpt><trkpt lat="42.2007" lon="14.6147333"><ele>3.0</ele><time>2026-04-29T11:44:10.896Z</time></trkpt><trkpt lat="42.2006833" lon="14.614645"><ele>3.0</ele><time>2026-04-29T11:44:13.896Z</time></trkpt><trkpt lat="42.2007017" lon="14.6145417"><ele>3.0</ele><time>2026-04-29T11:44:17.895Z</time></trkpt><trkpt lat="42.2007283" lon="14.6144433"><ele>3.0</ele><time>2026-04-29T11:44:21.894Z</time></trkpt><trkpt lat="42.2007583" lon="14.6143467"><ele>3.0</ele><time>2026-04-29T11:44:24.895Z</time></trkpt><trkpt lat="42.2007867" lon="14.614245"><ele>3.0</ele><time>2026-04-29T11:44:27.895Z</time></trkpt><trkpt lat="42.2008283" lon="14.6141267"><ele>3.0</ele><time>2026-04-29T11:44:30.894Z</time></trkpt><trkpt lat="42.2008517" lon="14.6140467"><ele>3.2857142857142856</ele><time>2026-04-29T11:44:32.895Z</time></trkpt><trkpt lat="42.2008733" lon="14.61396"><ele>3.571428571428571</ele><time>2026-04-29T11:44:34.895Z</time></trkpt><trkpt lat="42.2008933" lon="14.613865"><ele>3.8571428571428568</ele><time>2026-04-29T11:44:36.895Z</time></trkpt><trkpt lat="42.2009167" lon="14.61378"><ele>4.142857142857142</ele><time>2026-04-29T11:44:38.894Z</time></trkpt><trkpt lat="42.2009417" lon="14.6137017"><ele>4.428571428571429</ele><time>2026-04-29T11:44:40.895Z</time></trkpt><trkpt lat="42.2009667" lon="14.6136083"><ele>4.714285714285714</ele><time>2026-04-29T11:44:42.895Z</time></trkpt><trkpt lat="42.201" lon="14.61352"><ele>5.0</ele><time>2026-04-29T11:44:44.895Z</time></trkpt><trkpt lat="42.2010383" lon="14.6134233"><ele>5.2</ele><time>2026-04-29T11:44:46.894Z</time></trkpt><trkpt lat="42.20107" lon="14.6133083"><ele>5.4</ele><time>2026-04-29T11:44:48.894Z</time></trkpt><trkpt lat="42.2011083" lon="14.6131967"><ele>5.6</ele><time>2026-04-29T11:44:50.895Z</time></trkpt><trkpt lat="42.201145" lon="14.6130767"><ele>5.8</ele><time>2026-04-29T11:44:52.894Z</time></trkpt><trkpt lat="42.2011783" lon="14.6129483"><ele>6.0</ele><time>2026-04-29T11:44:54.894Z</time></trkpt><trkpt lat="42.20122" lon="14.6128217"><ele>6.0</ele><time>2026-04-29T11:44:56.895Z</time></trkpt><trkpt lat="42.20126" lon="14.612685"><ele>6.0</ele><time>2026-04-29T11:44:58.894Z</time></trkpt><trkpt lat="42.2012967" lon="14.6125433"><ele>6.0</ele><time>2026-04-29T11:45:00.894Z</time></trkpt><trkpt lat="42.2013333" lon="14.6124083"><ele>6.0</ele><time>2026-04-29T11:45:02.894Z</time></trkpt><trkpt lat="42.2013767" lon="14.6122767"><ele>6.0</ele><time>2026-04-29T11:45:04.895Z</time></trkpt><trkpt lat="42.2014167" lon="14.612145"><ele>6.0</ele><time>2026-04-29T11:45:06.894Z</time></trkpt><trkpt lat="42.201455" lon="14.6120267"><ele>6.0</ele><time>2026-04-29T11:45:08.895Z</time></trkpt><trkpt lat="42.2014867" lon="14.6119017"><ele>6.0</ele><time>2026-04-29T11:45:10.895Z</time></trkpt><trkpt lat="42.2015183" lon="14.6117783"><ele>6.0</ele><time>2026-04-29T11:45:12.895Z</time></trkpt><trkpt lat="42.2015567" lon="14.6116683"><ele>6.0</ele><time>2026-04-29T11:45:14.895Z</time></trkpt><trkpt lat="42.2015933" lon="14.61156"><ele>5.833333333333333</ele><time>2026-04-29T11:45:16.895Z</time></trkpt><trkpt lat="42.2016233" lon="14.6114567"><ele>5.666666666666667</ele><time>2026-04-29T11:45:18.894Z</time></trkpt><trkpt lat="42.2016567" lon="14.6113717"><ele>5.5</ele><time>2026-04-29T11:45:20.894Z</time></trkpt><trkpt lat="42.201685" lon="14.6112917"><ele>5.333333333333334</ele><time>2026-04-29T11:45:22.895Z</time></trkpt><trkpt lat="42.2017183" lon="14.6111983"><ele>5.166666666666667</ele><time>2026-04-29T11:45:24.895Z</time></trkpt><trkpt lat="42.2017533" lon="14.6111067"><ele>5.0</ele><time>2026-04-29T11:45:26.894Z</time></trkpt><trkpt lat="42.201785" lon="14.6110017"><ele>5.0</ele><time>2026-04-29T11:45:28.894Z</time></trkpt><trkpt lat="42.201815" lon="14.6109017"><ele>5.0</ele><time>2026-04-29T11:45:30.895Z</time></trkpt><trkpt lat="42.201845" lon="14.61081"><ele>5.0</ele><time>2026-04-29T11:45:32.894Z</time></trkpt><trkpt lat="42.201875" lon="14.6107317"><ele>5.0</ele><time>2026-04-29T11:45:34.895Z</time></trkpt><trkpt lat="42.20191" lon="14.6106583"><ele>5.0</ele><time>2026-04-29T11:45:36.895Z</time></trkpt><trkpt lat="42.2019367" lon="14.6105683"><ele>5.0</ele><time>2026-04-29T11:45:38.894Z</time></trkpt><trkpt lat="42.2019417" lon="14.610455"><ele>5.0</ele><time>2026-04-29T11:45:40.894Z</time></trkpt><trkpt lat="42.2019433" lon="14.6103517"><ele>4.714285714285714</ele><time>2026-04-29T11:45:42.894Z</time></trkpt><trkpt lat="42.20195" lon="14.6102317"><ele>4.428571428571429</ele><time>2026-04-29T11:45:45.895Z</time></trkpt><trkpt lat="42.2019567" lon="14.6101283"><ele>4.142857142857142</ele><time>2026-04-29T11:45:48.895Z</time></trkpt><trkpt lat="42.2019533" lon="14.6100333"><ele>3.8571428571428568</ele><time>2026-04-29T11:45:51.894Z</time></trkpt><trkpt lat="42.2019567" lon="14.6099383"><ele>3.571428571428571</ele><time>2026-04-29T11:45:54.894Z</time></trkpt><trkpt lat="42.2019833" lon="14.60985"><ele>3.2857142857142856</ele><time>2026-04-29T11:45:57.895Z</time></trkpt><trkpt lat="42.2020233" lon="14.60977"><ele>3.0</ele><time>2026-04-29T11:46:00.894Z</time></trkpt><trkpt lat="42.2020617" lon="14.6096767"><ele>3.0</ele><time>2026-04-29T11:46:03.895Z</time></trkpt><trkpt lat="42.20209" lon="14.6096"><ele>3.0</ele><time>2026-04-29T11:46:05.895Z</time></trkpt><trkpt lat="42.2021233" lon="14.60952"><ele>3.0</ele><time>2026-04-29T11:46:07.895Z</time></trkpt><trkpt lat="42.2021617" lon="14.6094283"><ele>3.0</ele><time>2026-04-29T11:46:09.895Z</time></trkpt><trkpt lat="42.2021967" lon="14.60934"><ele>3.0</ele><time>2026-04-29T11:46:11.894Z</time></trkpt><trkpt lat="42.202235" lon="14.6092467"><ele>3.0</ele><time>2026-04-29T11:46:13.894Z</time></trkpt><trkpt lat="42.2022733" lon="14.60914"><ele>3.0</ele><time>2026-04-29T11:46:15.894Z</time></trkpt><trkpt lat="42.2023167" lon="14.6090417"><ele>3.0</ele><time>2026-04-29T11:46:17.895Z</time></trkpt><trkpt lat="42.20236" lon="14.6089467"><ele>3.0</ele><time>2026-04-29T11:46:19.894Z</time></trkpt><trkpt lat="42.2024017" lon="14.6088483"><ele>3.0</ele><time>2026-04-29T11:46:21.894Z</time></trkpt><trkpt lat="42.2024433" lon="14.6087417"><ele>3.0</ele><time>2026-04-29T11:46:23.894Z</time></trkpt><trkpt lat="42.2024867" lon="14.6086367"><ele>3.0</ele><time>2026-04-29T11:46:25.895Z</time></trkpt><trkpt lat="42.2025333" lon="14.6085333"><ele>3.2</ele><time>2026-04-29T11:46:27.894Z</time></trkpt><trkpt lat="42.20258" lon="14.60841"><ele>3.4</ele><time>2026-04-29T11:46:29.895Z</time></trkpt><trkpt lat="42.202625" lon="14.6082917"><ele>3.6000000000000005</ele><time>2026-04-29T11:46:31.895Z</time></trkpt><trkpt lat="42.2026667" lon="14.6081817"><ele>3.8000000000000003</ele><time>2026-04-29T11:46:33.894Z</time></trkpt><trkpt lat="42.2027167" lon="14.6080767"><ele>4.0</ele><time>2026-04-29T11:46:35.895Z</time></trkpt><trkpt lat="42.2027633" lon="14.6079667"><ele>4.0</ele><time>2026-04-29T11:46:37.895Z</time></trkpt><trkpt lat="42.2028083" lon="14.60786"><ele>4.0</ele><time>2026-04-29T11:46:39.895Z</time></trkpt><trkpt lat="42.2028517" lon="14.6077667"><ele>4.0</ele><time>2026-04-29T11:46:41.895Z</time></trkpt><trkpt lat="42.202905" lon="14.60765"><ele>4.0</ele><time>2026-04-29T11:46:43.895Z</time></trkpt><trkpt lat="42.20295" lon="14.6075533"><ele>4.0</ele><time>2026-04-29T11:46:45.894Z</time></trkpt><trkpt lat="42.202995" lon="14.607445"><ele>3.8000000000000003</ele><time>2026-04-29T11:46:47.895Z</time></trkpt><trkpt lat="42.2030417" lon="14.60734"><ele>3.6000000000000005</ele><time>2026-04-29T11:46:49.895Z</time></trkpt><trkpt lat="42.2030883" lon="14.6072317"><ele>3.4</ele><time>2026-04-29T11:46:51.895Z</time></trkpt><trkpt lat="42.2031417" lon="14.60712"><ele>3.2</ele><time>2026-04-29T11:46:53.895Z</time></trkpt><trkpt lat="42.203185" lon="14.6070217"><ele>3.0</ele><time>2026-04-29T11:46:55.895Z</time></trkpt><trkpt lat="42.2032333" lon="14.6069033"><ele>2.6</ele><time>2026-04-29T11:46:57.895Z</time></trkpt><trkpt lat="42.2032833" lon="14.6067833"><ele>2.1999999999999997</ele><time>2026-04-29T11:46:59.895Z</time></trkpt><trkpt lat="42.2033333" lon="14.606665"><ele>1.8</ele><time>2026-04-29T11:47:01.894Z</time></trkpt><trkpt lat="42.2033817" lon="14.6065517"><ele>1.4</ele><time>2026-04-29T11:47:03.895Z</time></trkpt><trkpt lat="42.20343" lon="14.6064383"><ele>1.0</ele><time>2026-04-29T11:47:05.895Z</time></trkpt><trkpt lat="42.2034767" lon="14.6063233"><ele>1.0</ele><time>2026-04-29T11:47:07.895Z</time></trkpt><trkpt lat="42.2035217" lon="14.6062183"><ele>1.0</ele><time>2026-04-29T11:47:09.895Z</time></trkpt><trkpt lat="42.2035783" lon="14.6060883"><ele>1.0</ele><time>2026-04-29T11:47:11.894Z</time></trkpt><trkpt lat="42.2036233" lon="14.6059883"><ele>1.0</ele><time>2026-04-29T11:47:13.895Z</time></trkpt><trkpt lat="42.2036733" lon="14.6058617"><ele>1.0</ele><time>2026-04-29T11:47:15.895Z</time></trkpt><trkpt lat="42.2037183" lon="14.6057583"><ele>1.0</ele><time>2026-04-29T11:47:17.895Z</time></trkpt><trkpt lat="42.2037667" lon="14.6056417"><ele>1.0</ele><time>2026-04-29T11:47:19.895Z</time></trkpt><trkpt lat="42.2038117" lon="14.6055367"><ele>1.0</ele><time>2026-04-29T11:47:21.895Z</time></trkpt><trkpt lat="42.20386" lon="14.605425"><ele>1.0</ele><time>2026-04-29T11:47:23.894Z</time></trkpt><trkpt lat="42.203905" lon="14.6053183"><ele>1.0</ele><time>2026-04-29T11:47:25.894Z</time></trkpt><trkpt lat="42.203965" lon="14.6051817"><ele>0.9999999999999999</ele><time>2026-04-29T11:47:27.895Z</time></trkpt><trkpt lat="42.2040067" lon="14.6050917"><ele>1.0</ele><time>2026-04-29T11:47:29.894Z</time></trkpt><trkpt lat="42.204045" lon="14.6049883"><ele>1.0</ele><time>2026-04-29T11:47:31.895Z</time></trkpt><trkpt lat="42.204095" lon="14.6048867"><ele>1.0</ele><time>2026-04-29T11:47:33.895Z</time></trkpt><trkpt lat="42.204145" lon="14.6047767"><ele>0.9999999999999999</ele><time>2026-04-29T11:47:35.895Z</time></trkpt><trkpt lat="42.2041933" lon="14.6046667"><ele>1.0</ele><time>2026-04-29T11:47:37.895Z</time></trkpt><trkpt lat="42.20424" lon="14.6045567"><ele>0.8</ele><time>2026-04-29T11:47:39.895Z</time></trkpt><trkpt lat="42.2042867" lon="14.6044467"><ele>0.6000000000000001</ele><time>2026-04-29T11:47:41.894Z</time></trkpt><trkpt lat="42.2043367" lon="14.6043383"><ele>0.4</ele><time>2026-04-29T11:47:43.895Z</time></trkpt><trkpt lat="42.2043833" lon="14.60423"><ele>0.2</ele><time>2026-04-29T11:47:45.895Z</time></trkpt><trkpt lat="42.2044317" lon="14.6041117"><ele>0.0</ele><time>2026-04-29T11:47:47.894Z</time></trkpt><trkpt lat="42.20448" lon="14.6040017"><ele>0.0</ele><time>2026-04-29T11:47:49.894Z</time></trkpt><trkpt lat="42.2045267" lon="14.603895"><ele>0.0</ele><time>2026-04-29T11:47:51.894Z</time></trkpt><trkpt lat="42.2045767" lon="14.60379"><ele>0.0</ele><time>2026-04-29T11:47:53.895Z</time></trkpt><trkpt lat="42.2046433" lon="14.6036933"><ele>0.0</ele><time>2026-04-29T11:47:55.895Z</time></trkpt><trkpt lat="42.2047067" lon="14.6035933"><ele>0.0</ele><time>2026-04-29T11:47:57.895Z</time></trkpt><trkpt lat="42.20475" lon="14.6034983"><ele>0.16666666666666666</ele><time>2026-04-29T11:47:59.895Z</time></trkpt><trkpt lat="42.2047967" lon="14.6033933"><ele>0.3333333333333333</ele><time>2026-04-29T11:48:01.894Z</time></trkpt><trkpt lat="42.2048283" lon="14.603305"><ele>0.5</ele><time>2026-04-29T11:48:03.895Z</time></trkpt><trkpt lat="42.2048683" lon="14.6032067"><ele>0.6666666666666666</ele><time>2026-04-29T11:48:05.895Z</time></trkpt><trkpt lat="42.204915" lon="14.6030983"><ele>0.8333333333333333</ele><time>2026-04-29T11:48:07.895Z</time></trkpt><trkpt lat="42.2049717" lon="14.6029933"><ele>1.0</ele><time>2026-04-29T11:48:09.894Z</time></trkpt><trkpt lat="42.205025" lon="14.6028833"><ele>2.2</ele><time>2026-04-29T11:48:11.894Z</time></trkpt><trkpt lat="42.205075" lon="14.6027717"><ele>3.4</ele><time>2026-04-29T11:48:13.895Z</time></trkpt><trkpt lat="42.2051233" lon="14.6026617"><ele>4.6</ele><time>2026-04-29T11:48:15.895Z</time></trkpt><trkpt lat="42.20517" lon="14.6025433"><ele>5.8</ele><time>2026-04-29T11:48:17.894Z</time></trkpt><trkpt lat="42.2052167" lon="14.60243"><ele>7.0</ele><time>2026-04-29T11:48:19.894Z</time></trkpt><trkpt lat="42.20527" lon="14.602315"><ele>7.0</ele><time>2026-04-29T11:48:21.895Z</time></trkpt><trkpt lat="42.2053183" lon="14.6022033"><ele>6.999999999999999</ele><time>2026-04-29T11:48:23.894Z</time></trkpt><trkpt lat="42.2053683" lon="14.6020967"><ele>6.999999999999999</ele><time>2026-04-29T11:48:25.895Z</time></trkpt><trkpt lat="42.205415" lon="14.601985"><ele>7.0</ele><time>2026-04-29T11:48:27.895Z</time></trkpt><trkpt lat="42.20546" lon="14.6018817"><ele>7.0</ele><time>2026-04-29T11:48:29.895Z</time></trkpt><trkpt lat="42.2055083" lon="14.6017783"><ele>7.8</ele><time>2026-04-29T11:48:31.894Z</time></trkpt><trkpt lat="42.2055583" lon="14.60167"><ele>8.6</ele><time>2026-04-29T11:48:33.894Z</time></trkpt><trkpt lat="42.2056117" lon="14.6015733"><ele>9.4</ele><time>2026-04-29T11:48:35.894Z</time></trkpt><trkpt lat="42.2056567" lon="14.6014667"><ele>10.200000000000001</ele><time>2026-04-29T11:48:37.894Z</time></trkpt><trkpt lat="42.205705" lon="14.6013567"><ele>11.0</ele><time>2026-04-29T11:48:39.895Z</time></trkpt><trkpt lat="42.2057483" lon="14.60125"><ele>10.4</ele><time>2026-04-29T11:48:41.894Z</time></trkpt><trkpt lat="42.2058" lon="14.601145"><ele>9.8</ele><time>2026-04-29T11:48:43.894Z</time></trkpt><trkpt lat="42.205855" lon="14.60104"><ele>9.200000000000001</ele><time>2026-04-29T11:48:45.894Z</time></trkpt><trkpt lat="42.2059083" lon="14.60094"><ele>8.600000000000001</ele><time>2026-04-29T11:48:47.895Z</time></trkpt><trkpt lat="42.2059567" lon="14.6008367"><ele>8.0</ele><time>2026-04-29T11:48:49.895Z</time></trkpt><trkpt lat="42.20599" lon="14.6007283"><ele>7.999999999999999</ele><time>2026-04-29T11:48:51.894Z</time></trkpt><trkpt lat="42.2060333" lon="14.6006317"><ele>8.0</ele><time>2026-04-29T11:48:53.895Z</time></trkpt><trkpt lat="42.20608" lon="14.60053"><ele>8.0</ele><time>2026-04-29T11:48:55.895Z</time></trkpt><trkpt lat="42.206135" lon="14.600425"><ele>8.0</ele><time>2026-04-29T11:48:57.895Z</time></trkpt><trkpt lat="42.2061817" lon="14.6003233"><ele>7.999999999999999</ele><time>2026-04-29T11:48:59.895Z</time></trkpt><trkpt lat="42.20623" lon="14.6002183"><ele>8.0</ele><time>2026-04-29T11:49:01.895Z</time></trkpt><trkpt lat="42.2062683" lon="14.600125"><ele>8.600000000000001</ele><time>2026-04-29T11:49:03.895Z</time></trkpt><trkpt lat="42.206315" lon="14.6000217"><ele>9.200000000000001</ele><time>2026-04-29T11:49:05.895Z</time></trkpt><trkpt lat="42.2063583" lon="14.5999067"><ele>9.8</ele><time>2026-04-29T11:49:07.894Z</time></trkpt><trkpt lat="42.2064" lon="14.5998067"><ele>10.4</ele><time>2026-04-29T11:49:09.895Z</time></trkpt><trkpt lat="42.206455" lon="14.5996933"><ele>11.0</ele><time>2026-04-29T11:49:11.895Z</time></trkpt><trkpt lat="42.20651" lon="14.599585"><ele>10.4</ele><time>2026-04-29T11:49:13.895Z</time></trkpt><trkpt lat="42.206565" lon="14.5994717"><ele>9.8</ele><time>2026-04-29T11:49:15.895Z</time></trkpt><trkpt lat="42.2066133" lon="14.5993583"><ele>9.200000000000001</ele><time>2026-04-29T11:49:17.894Z</time></trkpt><trkpt lat="42.20666" lon="14.59924"><ele>8.600000000000001</ele><time>2026-04-29T11:49:19.895Z</time></trkpt><trkpt lat="42.20671" lon="14.5991267"><ele>8.0</ele><time>2026-04-29T11:49:21.895Z</time></trkpt><trkpt lat="42.2067567" lon="14.59902"><ele>7.999999999999999</ele><time>2026-04-29T11:49:23.894Z</time></trkpt><trkpt lat="42.2068067" lon="14.5989083"><ele>8.0</ele><time>2026-04-29T11:49:25.894Z</time></trkpt><trkpt lat="42.2068567" lon="14.5988083"><ele>8.0</ele><time>2026-04-29T11:49:27.895Z</time></trkpt><trkpt lat="42.2068967" lon="14.5987117"><ele>8.0</ele><time>2026-04-29T11:49:29.895Z</time></trkpt><trkpt lat="42.206945" lon="14.5986083"><ele>7.999999999999999</ele><time>2026-04-29T11:49:31.895Z</time></trkpt><trkpt lat="42.2069917" lon="14.5985033"><ele>8.0</ele><time>2026-04-29T11:49:33.894Z</time></trkpt><trkpt lat="42.2070367" lon="14.5984083"><ele>9.4</ele><time>2026-04-29T11:49:35.895Z</time></trkpt><trkpt lat="42.2070817" lon="14.5983217"><ele>10.8</ele><time>2026-04-29T11:49:37.895Z</time></trkpt><trkpt lat="42.2071283" lon="14.5982267"><ele>12.2</ele><time>2026-04-29T11:49:39.895Z</time></trkpt><trkpt lat="42.2071833" lon="14.598095"><ele>13.6</ele><time>2026-04-29T11:49:41.895Z</time></trkpt><trkpt lat="42.2072317" lon="14.5979783"><ele>15.0</ele><time>2026-04-29T11:49:43.895Z</time></trkpt><trkpt lat="42.207285" lon="14.5978783"><ele>13.4</ele><time>2026-04-29T11:49:45.895Z</time></trkpt><trkpt lat="42.20733" lon="14.59778"><ele>11.8</ele><time>2026-04-29T11:49:47.894Z</time></trkpt><trkpt lat="42.2073683" lon="14.5976667"><ele>10.2</ele><time>2026-04-29T11:49:49.895Z</time></trkpt><trkpt lat="42.2074167" lon="14.5975517"><ele>8.6</ele><time>2026-04-29T11:49:51.895Z</time></trkpt><trkpt lat="42.2074667" lon="14.5974283"><ele>7.0</ele><time>2026-04-29T11:49:53.895Z</time></trkpt><trkpt lat="42.20751" lon="14.597315"><ele>7.0</ele><time>2026-04-29T11:49:55.895Z</time></trkpt><trkpt lat="42.2075583" lon="14.597205"><ele>6.999999999999999</ele><time>2026-04-29T11:49:57.894Z</time></trkpt><trkpt lat="42.2076" lon="14.5970867"><ele>6.999999999999999</ele><time>2026-04-29T11:49:59.894Z</time></trkpt><trkpt lat="42.2076217" lon="14.5969617"><ele>7.0</ele><time>2026-04-29T11:50:01.895Z</time></trkpt><trkpt lat="42.2076583" lon="14.5968367"><ele>7.0</ele><time>2026-04-29T11:50:03.895Z</time></trkpt><trkpt lat="42.20771" lon="14.596725"><ele>8.399999999999999</ele><time>2026-04-29T11:50:05.895Z</time></trkpt><trkpt lat="42.2077633" lon="14.5966083"><ele>9.799999999999999</ele><time>2026-04-29T11:50:07.895Z</time></trkpt><trkpt lat="42.2078117" lon="14.5964933"><ele>11.2</ele><time>2026-04-29T11:50:09.895Z</time></trkpt><trkpt lat="42.20786" lon="14.5963917"><ele>12.6</ele><time>2026-04-29T11:50:11.895Z</time></trkpt><trkpt lat="42.2079117" lon="14.596285"><ele>14.0</ele><time>2026-04-29T11:50:13.895Z</time></trkpt><trkpt lat="42.2079667" lon="14.5961683"><ele>14.799999999999999</ele><time>2026-04-29T11:50:15.895Z</time></trkpt><trkpt lat="42.208025" lon="14.5960567"><ele>15.599999999999998</ele><time>2026-04-29T11:50:17.894Z</time></trkpt><trkpt lat="42.20807" lon="14.5959517"><ele>16.4</ele><time>2026-04-29T11:50:19.895Z</time></trkpt><trkpt lat="42.2081267" lon="14.5958517"><ele>17.2</ele><time>2026-04-29T11:50:21.895Z</time></trkpt><trkpt lat="42.2081767" lon="14.595745"><ele>18.0</ele><time>2026-04-29T11:50:23.895Z</time></trkpt><trkpt lat="42.2082233" lon="14.5956533"><ele>17.2</ele><time>2026-04-29T11:50:25.895Z</time></trkpt><trkpt lat="42.2082783" lon="14.5955633"><ele>16.4</ele><time>2026-04-29T11:50:27.895Z</time></trkpt><trkpt lat="42.2083383" lon="14.5954517"><ele>15.599999999999998</ele><time>2026-04-29T11:50:29.894Z</time></trkpt><trkpt lat="42.2083883" lon="14.5953483"><ele>14.799999999999999</ele><time>2026-04-29T11:50:31.895Z</time></trkpt><trkpt lat="42.2084467" lon="14.5952517"><ele>14.0</ele><time>2026-04-29T11:50:33.895Z</time></trkpt><trkpt lat="42.2085017" lon="14.5951567"><ele>14.0</ele><time>2026-04-29T11:50:35.895Z</time></trkpt><trkpt lat="42.2085483" lon="14.5950517"><ele>13.999999999999998</ele><time>2026-04-29T11:50:37.894Z</time></trkpt><trkpt lat="42.2086033" lon="14.5949583"><ele>13.999999999999998</ele><time>2026-04-29T11:50:39.895Z</time></trkpt><trkpt lat="42.20866" lon="14.59487"><ele>14.0</ele><time>2026-04-29T11:50:41.895Z</time></trkpt><trkpt lat="42.20872" lon="14.5947783"><ele>14.0</ele><time>2026-04-29T11:50:43.895Z</time></trkpt><trkpt lat="42.2087833" lon="14.5946817"><ele>14.0</ele><time>2026-04-29T11:50:45.895Z</time></trkpt><trkpt lat="42.2088417" lon="14.59458"><ele>13.999999999999998</ele><time>2026-04-29T11:50:47.895Z</time></trkpt><trkpt lat="42.2088983" lon="14.59448"><ele>13.999999999999998</ele><time>2026-04-29T11:50:49.894Z</time></trkpt><trkpt lat="42.2089633" lon="14.5943633"><ele>14.0</ele><time>2026-04-29T11:50:51.895Z</time></trkpt><trkpt lat="42.2090233" lon="14.5942767"><ele>14.0</ele><time>2026-04-29T11:50:53.895Z</time></trkpt><trkpt lat="42.209085" lon="14.5941683"><ele>13.833333333333334</ele><time>2026-04-29T11:50:55.895Z</time></trkpt><trkpt lat="42.2091383" lon="14.5940783"><ele>13.666666666666668</ele><time>2026-04-29T11:50:57.895Z</time></trkpt><trkpt lat="42.2091967" lon="14.5939883"><ele>13.5</ele><time>2026-04-29T11:50:59.895Z</time></trkpt><trkpt lat="42.2092517" lon="14.5938917"><ele>13.333333333333332</ele><time>2026-04-29T11:51:01.894Z</time></trkpt><trkpt lat="42.2093117" lon="14.5937933"><ele>13.166666666666666</ele><time>2026-04-29T11:51:03.895Z</time></trkpt><trkpt lat="42.209365" lon="14.5936983"><ele>13.0</ele><time>2026-04-29T11:51:05.895Z</time></trkpt><trkpt lat="42.2094217" lon="14.5935983"><ele>12.999999999999998</ele><time>2026-04-29T11:51:07.895Z</time></trkpt><trkpt lat="42.2094767" lon="14.5934933"><ele>13.0</ele><time>2026-04-29T11:51:09.894Z</time></trkpt><trkpt lat="42.20953" lon="14.59339"><ele>13.0</ele><time>2026-04-29T11:51:11.895Z</time></trkpt><trkpt lat="42.2095783" lon="14.5932917"><ele>13.0</ele><time>2026-04-29T11:51:13.894Z</time></trkpt><trkpt lat="42.2096367" lon="14.59321"><ele>12.999999999999998</ele><time>2026-04-29T11:51:15.895Z</time></trkpt><trkpt lat="42.20968" lon="14.5931333"><ele>13.0</ele><time>2026-04-29T11:51:17.894Z</time></trkpt><trkpt lat="42.2097233" lon="14.5930617"><ele>12.999999999999998</ele><time>2026-04-29T11:51:19.894Z</time></trkpt><trkpt lat="42.2097767" lon="14.59299"><ele>13.0</ele><time>2026-04-29T11:51:21.895Z</time></trkpt><trkpt lat="42.2098283" lon="14.5929233"><ele>13.0</ele><time>2026-04-29T11:51:23.895Z</time></trkpt><trkpt lat="42.2098833" lon="14.5928433"><ele>13.0</ele><time>2026-04-29T11:51:25.894Z</time></trkpt><trkpt lat="42.2099367" lon="14.59276"><ele>12.999999999999998</ele><time>2026-04-29T11:51:27.895Z</time></trkpt><trkpt lat="42.2099867" lon="14.5926583"><ele>13.0</ele><time>2026-04-29T11:51:29.895Z</time></trkpt><trkpt lat="42.2100383" lon="14.5925517"><ele>13.4</ele><time>2026-04-29T11:51:31.895Z</time></trkpt><trkpt lat="42.21009" lon="14.5924367"><ele>13.8</ele><time>2026-04-29T11:51:33.894Z</time></trkpt><trkpt lat="42.2101383" lon="14.5923317"><ele>14.2</ele><time>2026-04-29T11:51:35.894Z</time></trkpt><trkpt lat="42.2101883" lon="14.59222"><ele>14.6</ele><time>2026-04-29T11:51:37.895Z</time></trkpt><trkpt lat="42.210235" lon="14.5920933"><ele>15.0</ele><time>2026-04-29T11:51:39.895Z</time></trkpt><trkpt lat="42.2102783" lon="14.591975"><ele>15.0</ele><time>2026-04-29T11:51:41.895Z</time></trkpt><trkpt lat="42.2103283" lon="14.5918717"><ele>15.0</ele><time>2026-04-29T11:51:43.894Z</time></trkpt><trkpt lat="42.2103867" lon="14.5917567"><ele>15.0</ele><time>2026-04-29T11:51:45.894Z</time></trkpt><trkpt lat="42.21043" lon="14.5916333"><ele>15.0</ele><time>2026-04-29T11:51:47.894Z</time></trkpt><trkpt lat="42.21047" lon="14.59152"><ele>15.0</ele><time>2026-04-29T11:51:49.895Z</time></trkpt><trkpt lat="42.210515" lon="14.5914083"><ele>15.0</ele><time>2026-04-29T11:51:51.895Z</time></trkpt><trkpt lat="42.2105617" lon="14.5912917"><ele>15.0</ele><time>2026-04-29T11:51:53.895Z</time></trkpt><trkpt lat="42.2106033" lon="14.5911817"><ele>15.0</ele><time>2026-04-29T11:51:55.895Z</time></trkpt><trkpt lat="42.2106517" lon="14.59108"><ele>15.0</ele><time>2026-04-29T11:51:57.895Z</time></trkpt><trkpt lat="42.210695" lon="14.5909783"><ele>15.0</ele><time>2026-04-29T11:51:59.895Z</time></trkpt><trkpt lat="42.2107383" lon="14.5908767"><ele>14.8</ele><time>2026-04-29T11:52:01.895Z</time></trkpt><trkpt lat="42.2107767" lon="14.590745"><ele>14.6</ele><time>2026-04-29T11:52:03.895Z</time></trkpt><trkpt lat="42.2108133" lon="14.59062"><ele>14.399999999999999</ele><time>2026-04-29T11:52:05.895Z</time></trkpt><trkpt lat="42.2108567" lon="14.59051"><ele>14.2</ele><time>2026-04-29T11:52:07.895Z</time></trkpt><trkpt lat="42.2108983" lon="14.590385"><ele>14.0</ele><time>2026-04-29T11:52:09.895Z</time></trkpt><trkpt lat="42.2109433" lon="14.5902717"><ele>14.000000000000002</ele><time>2026-04-29T11:52:11.895Z</time></trkpt><trkpt lat="42.2109883" lon="14.5901717"><ele>14.0</ele><time>2026-04-29T11:52:13.895Z</time></trkpt><trkpt lat="42.211035" lon="14.5900717"><ele>14.0</ele><time>2026-04-29T11:52:15.894Z</time></trkpt><trkpt lat="42.21108" lon="14.5899533"><ele>14.0</ele><time>2026-04-29T11:52:17.895Z</time></trkpt><trkpt lat="42.2111283" lon="14.5898533"><ele>14.000000000000002</ele><time>2026-04-29T11:52:19.894Z</time></trkpt><trkpt lat="42.211165" lon="14.5897767"><ele>14.0</ele><time>2026-04-29T11:52:21.895Z</time></trkpt><trkpt lat="42.211205" lon="14.5896917"><ele>14.000000000000002</ele><time>2026-04-29T11:52:23.895Z</time></trkpt><trkpt lat="42.2112483" lon="14.58961"><ele>14.0</ele><time>2026-04-29T11:52:25.895Z</time></trkpt><trkpt lat="42.2112933" lon="14.5895267"><ele>14.0</ele><time>2026-04-29T11:52:27.895Z</time></trkpt><trkpt lat="42.2113367" lon="14.5894333"><ele>14.0</ele><time>2026-04-29T11:52:29.894Z</time></trkpt><trkpt lat="42.2113933" lon="14.5893267"><ele>14.000000000000002</ele><time>2026-04-29T11:52:31.895Z</time></trkpt><trkpt lat="42.2114467" lon="14.5892283"><ele>14.0</ele><time>2026-04-29T11:52:33.895Z</time></trkpt><trkpt lat="42.2114883" lon="14.5891417"><ele>14.166666666666668</ele><time>2026-04-29T11:52:35.895Z</time></trkpt><trkpt lat="42.2115333" lon="14.5890417"><ele>14.333333333333334</ele><time>2026-04-29T11:52:37.895Z</time></trkpt><trkpt lat="42.2115667" lon="14.5889217"><ele>14.5</ele><time>2026-04-29T11:52:39.894Z</time></trkpt><trkpt lat="42.2116067" lon="14.5888183"><ele>14.666666666666668</ele><time>2026-04-29T11:52:41.894Z</time></trkpt><trkpt lat="42.21165" lon="14.5887217"><ele>14.833333333333334</ele><time>2026-04-29T11:52:43.894Z</time></trkpt><trkpt lat="42.2116817" lon="14.58862"><ele>15.0</ele><time>2026-04-29T11:52:45.894Z</time></trkpt><trkpt lat="42.21171" lon="14.5885283"><ele>15.0</ele><time>2026-04-29T11:52:47.895Z</time></trkpt><trkpt lat="42.211745" lon="14.58843"><ele>15.0</ele><time>2026-04-29T11:52:49.895Z</time></trkpt><trkpt lat="42.21179" lon="14.58833"><ele>15.0</ele><time>2026-04-29T11:52:51.894Z</time></trkpt><trkpt lat="42.21184" lon="14.5882233"><ele>15.0</ele><time>2026-04-29T11:52:53.894Z</time></trkpt><trkpt lat="42.2118933" lon="14.5881133"><ele>15.0</ele><time>2026-04-29T11:52:55.894Z</time></trkpt><trkpt lat="42.2119467" lon="14.5879833"><ele>16.0</ele><time>2026-04-29T11:52:57.894Z</time></trkpt><trkpt lat="42.211995" lon="14.58784"><ele>17.0</ele><time>2026-04-29T11:52:59.894Z</time></trkpt><trkpt lat="42.2120517" lon="14.587735"><ele>18.0</ele><time>2026-04-29T11:53:01.895Z</time></trkpt><trkpt lat="42.212105" lon="14.58763"><ele>19.0</ele><time>2026-04-29T11:53:03.894Z</time></trkpt><trkpt lat="42.2121533" lon="14.58753"><ele>20.0</ele><time>2026-04-29T11:53:05.895Z</time></trkpt><trkpt lat="42.2121983" lon="14.5874317"><ele>20.0</ele><time>2026-04-29T11:53:07.895Z</time></trkpt><trkpt lat="42.2122467" lon="14.5873283"><ele>20.0</ele><time>2026-04-29T11:53:09.895Z</time></trkpt><trkpt lat="42.2122967" lon="14.587235"><ele>20.0</ele><time>2026-04-29T11:53:11.895Z</time></trkpt><trkpt lat="42.2123533" lon="14.5871383"><ele>20.0</ele><time>2026-04-29T11:53:13.894Z</time></trkpt><trkpt lat="42.2123983" lon="14.5870783"><ele>20.0</ele><time>2026-04-29T11:53:14.895Z</time></trkpt><trkpt lat="42.2124617" lon="14.5869617"><ele>20.0</ele><time>2026-04-29T11:53:16.895Z</time></trkpt><trkpt lat="42.2125217" lon="14.58684"><ele>17.8</ele><time>2026-04-29T11:53:18.895Z</time></trkpt><trkpt lat="42.21258" lon="14.58673"><ele>15.6</ele><time>2026-04-29T11:53:20.895Z</time></trkpt><trkpt lat="42.21264" lon="14.5866117"><ele>13.4</ele><time>2026-04-29T11:53:22.895Z</time></trkpt><trkpt lat="42.2127" lon="14.5865"><ele>11.2</ele><time>2026-04-29T11:53:24.894Z</time></trkpt><trkpt lat="42.2127533" lon="14.5863883"><ele>9.0</ele><time>2026-04-29T11:53:26.894Z</time></trkpt><trkpt lat="42.2128083" lon="14.5862817"><ele>9.0</ele><time>2026-04-29T11:53:28.895Z</time></trkpt><trkpt lat="42.2128617" lon="14.5861783"><ele>9.0</ele><time>2026-04-29T11:53:30.894Z</time></trkpt><trkpt lat="42.2129133" lon="14.5860717"><ele>9.0</ele><time>2026-04-29T11:53:32.895Z</time></trkpt><trkpt lat="42.2129717" lon="14.58596"><ele>9.0</ele><time>2026-04-29T11:53:34.895Z</time></trkpt><trkpt lat="42.2130267" lon="14.5858517"><ele>9.0</ele><time>2026-04-29T11:53:36.894Z</time></trkpt><trkpt lat="42.213075" lon="14.58574"><ele>8.4</ele><time>2026-04-29T11:53:38.895Z</time></trkpt><trkpt lat="42.21312" lon="14.5856317"><ele>7.800000000000001</ele><time>2026-04-29T11:53:40.895Z</time></trkpt><trkpt lat="42.2131717" lon="14.58552"><ele>7.199999999999999</ele><time>2026-04-29T11:53:42.895Z</time></trkpt><trkpt lat="42.213225" lon="14.5854083"><ele>6.6</ele><time>2026-04-29T11:53:44.895Z</time></trkpt><trkpt lat="42.21328" lon="14.5853033"><ele>6.0</ele><time>2026-04-29T11:53:46.895Z</time></trkpt><trkpt lat="42.2133317" lon="14.5851917"><ele>7.199999999999999</ele><time>2026-04-29T11:53:48.895Z</time></trkpt><trkpt lat="42.2133867" lon="14.5850867"><ele>8.399999999999999</ele><time>2026-04-29T11:53:50.895Z</time></trkpt><trkpt lat="42.2134433" lon="14.5849833"><ele>9.6</ele><time>2026-04-29T11:53:52.895Z</time></trkpt><trkpt lat="42.2135017" lon="14.58488"><ele>10.799999999999999</ele><time>2026-04-29T11:53:54.895Z</time></trkpt><trkpt lat="42.2135633" lon="14.5847833"><ele>12.0</ele><time>2026-04-29T11:53:56.895Z</time></trkpt><trkpt lat="42.2136267" lon="14.5846933"><ele>12.0</ele><time>2026-04-29T11:53:58.895Z</time></trkpt><trkpt lat="42.213685" lon="14.5845967"><ele>12.0</ele><time>2026-04-29T11:54:00.895Z</time></trkpt><trkpt lat="42.2137467" lon="14.5844983"><ele>12.0</ele><time>2026-04-29T11:54:02.894Z</time></trkpt><trkpt lat="42.2138067" lon="14.5844067"><ele>12.0</ele><time>2026-04-29T11:54:04.895Z</time></trkpt><trkpt lat="42.21387" lon="14.5843183"><ele>12.0</ele><time>2026-04-29T11:54:06.894Z</time></trkpt><trkpt lat="42.2139333" lon="14.5842317"><ele>11.166666666666666</ele><time>2026-04-29T11:54:08.894Z</time></trkpt><trkpt lat="42.2139967" lon="14.5841383"><ele>10.333333333333334</ele><time>2026-04-29T11:54:10.894Z</time></trkpt><trkpt lat="42.2140583" lon="14.5840467"><ele>9.5</ele><time>2026-04-29T11:54:12.895Z</time></trkpt><trkpt lat="42.2141167" lon="14.583945"><ele>8.666666666666668</ele><time>2026-04-29T11:54:14.895Z</time></trkpt><trkpt lat="42.2141717" lon="14.5838483"><ele>7.833333333333334</ele><time>2026-04-29T11:54:16.894Z</time></trkpt><trkpt lat="42.2142233" lon="14.5837767"><ele>7.0</ele><time>2026-04-29T11:54:18.895Z</time></trkpt><trkpt lat="42.2142733" lon="14.5837117"><ele>8.333333333333334</ele><time>2026-04-29T11:54:20.895Z</time></trkpt><trkpt lat="42.21432" lon="14.583635"><ele>9.666666666666668</ele><time>2026-04-29T11:54:22.894Z</time></trkpt><trkpt lat="42.2143683" lon="14.58355"><ele>11.0</ele><time>2026-04-29T11:54:24.895Z</time></trkpt><trkpt lat="42.2144217" lon="14.583455"><ele>12.333333333333334</ele><time>2026-04-29T11:54:26.894Z</time></trkpt><trkpt lat="42.214485" lon="14.5833633"><ele>13.666666666666666</ele><time>2026-04-29T11:54:28.894Z</time></trkpt><trkpt lat="42.2145433" lon="14.5832617"><ele>15.0</ele><time>2026-04-29T11:54:30.895Z</time></trkpt><trkpt lat="42.2145983" lon="14.5831733"><ele>15.0</ele><time>2026-04-29T11:54:32.894Z</time></trkpt><trkpt lat="42.21465" lon="14.5830833"><ele>15.0</ele><time>2026-04-29T11:54:34.895Z</time></trkpt><trkpt lat="42.214695" lon="14.5830017"><ele>15.0</ele><time>2026-04-29T11:54:36.894Z</time></trkpt><trkpt lat="42.2147383" lon="14.58293"><ele>15.0</ele><time>2026-04-29T11:54:38.895Z</time></trkpt><trkpt lat="42.21478" lon="14.5828633"><ele>15.0</ele><time>2026-04-29T11:54:40.894Z</time></trkpt><trkpt lat="42.2148333" lon="14.5827667"><ele>15.0</ele><time>2026-04-29T11:54:43.895Z</time></trkpt><trkpt lat="42.21488" lon="14.5826833"><ele>14.428571428571429</ele><time>2026-04-29T11:54:46.894Z</time></trkpt><trkpt lat="42.214905" lon="14.5826017"><ele>13.857142857142856</ele><time>2026-04-29T11:54:49.894Z</time></trkpt><trkpt lat="42.2148533" lon="14.5825467"><ele>13.285714285714285</ele><time>2026-04-29T11:54:55.895Z</time></trkpt><trkpt lat="42.2147867" lon="14.5825367"><ele>12.714285714285715</ele><time>2026-04-29T11:54:58.894Z</time></trkpt><trkpt lat="42.2147183" lon="14.582495"><ele>12.142857142857142</ele><time>2026-04-29T11:55:01.895Z</time></trkpt><trkpt lat="42.2146533" lon="14.5824467"><ele>11.571428571428571</ele><time>2026-04-29T11:55:04.895Z</time></trkpt><trkpt lat="42.2145817" lon="14.5824217"><ele>11.0</ele><time>2026-04-29T11:55:07.895Z</time></trkpt><trkpt lat="42.2144967" lon="14.5823783"><ele>12.142857142857142</ele><time>2026-04-29T11:55:11.894Z</time></trkpt><trkpt lat="42.2144317" lon="14.5823333"><ele>13.285714285714285</ele><time>2026-04-29T11:55:13.894Z</time></trkpt><trkpt lat="42.214365" lon="14.5823233"><ele>14.428571428571427</ele><time>2026-04-29T11:55:16.895Z</time></trkpt><trkpt lat="42.214305" lon="14.58238"><ele>15.571428571428573</ele><time>2026-04-29T11:55:19.895Z</time></trkpt><trkpt lat="42.2142483" lon="14.58246"><ele>16.714285714285715</ele><time>2026-04-29T11:55:22.894Z</time></trkpt><trkpt lat="42.214235" lon="14.5823667"><ele>17.857142857142858</ele><time>2026-04-29T11:55:29.895Z</time></trkpt><trkpt lat="42.2142683" lon="14.5822833"><ele>19.0</ele><time>2026-04-29T11:55:33.895Z</time></trkpt><trkpt lat="42.21429" lon="14.5822017"><ele>19.0</ele><time>2026-04-29T11:55:39.894Z</time></trkpt><trkpt lat="42.2142783" lon="14.5821067"><ele>19.0</ele><time>2026-04-29T11:55:49.895Z</time></trkpt><trkpt lat="42.2142083" lon="14.58206"><ele>19.0</ele><time>2026-04-29T11:55:52.895Z</time></trkpt><trkpt lat="42.2141367" lon="14.582005"><ele>19.0</ele><time>2026-04-29T11:55:55.894Z</time></trkpt><trkpt lat="42.2140667" lon="14.5819567"><ele>19.0</ele><time>2026-04-29T11:55:58.895Z</time></trkpt><trkpt lat="42.21399" lon="14.5819017"><ele>19.0</ele><time>2026-04-29T11:56:01.895Z</time></trkpt><trkpt lat="42.2139267" lon="14.5818517"><ele>21.714285714285715</ele><time>2026-04-29T11:56:04.895Z</time></trkpt><trkpt lat="42.21387" lon="14.5817967"><ele>24.42857142857143</ele><time>2026-04-29T11:56:07.895Z</time></trkpt><trkpt lat="42.213825" lon="14.5817367"><ele>27.142857142857142</ele><time>2026-04-29T11:56:10.894Z</time></trkpt><trkpt lat="42.2137833" lon="14.5816483"><ele>29.857142857142858</ele><time>2026-04-29T11:56:14.895Z</time></trkpt><trkpt lat="42.2137833" lon="14.5815433"><ele>32.57142857142858</ele><time>2026-04-29T11:56:18.895Z</time></trkpt><trkpt lat="42.21377" lon="14.58146"><ele>35.285714285714285</ele><time>2026-04-29T11:56:21.895Z</time></trkpt><trkpt lat="42.2137983" lon="14.5813633"><ele>38.0</ele><time>2026-04-29T11:56:26.895Z</time></trkpt><trkpt lat="42.2138" lon="14.5812783"><ele>38.0</ele><time>2026-04-29T11:56:29.895Z</time></trkpt><trkpt lat="42.2137917" lon="14.5811933"><ele>38.0</ele><time>2026-04-29T11:56:32.894Z</time></trkpt><trkpt lat="42.213785" lon="14.5811017"><ele>38.0</ele><time>2026-04-29T11:56:34.895Z</time></trkpt><trkpt lat="42.213725" lon="14.581075"><ele>38.0</ele><time>2026-04-29T11:56:39.895Z</time></trkpt><trkpt lat="42.2136567" lon="14.581095"><ele>38.0</ele><time>2026-04-29T11:56:43.895Z</time></trkpt><trkpt lat="42.2136" lon="14.5810533"><ele>38.0</ele><time>2026-04-29T11:56:49.894Z</time></trkpt><trkpt lat="42.21357" lon="14.580965"><ele>38.0</ele><time>2026-04-29T11:56:56.895Z</time></trkpt><trkpt lat="42.2135333" lon="14.5808767"><ele>39.83333333333333</ele><time>2026-04-29T11:57:02.895Z</time></trkpt><trkpt lat="42.2135167" lon="14.58078"><ele>41.666666666666664</ele><time>2026-04-29T11:57:06.895Z</time></trkpt><trkpt lat="42.2135083" lon="14.5806717"><ele>43.5</ele><time>2026-04-29T11:57:11.894Z</time></trkpt><trkpt lat="42.213515" lon="14.58058"><ele>45.33333333333333</ele><time>2026-04-29T11:57:16.895Z</time></trkpt><trkpt lat="42.2135133" lon="14.580465"><ele>47.166666666666664</ele><time>2026-04-29T11:57:21.895Z</time></trkpt><trkpt lat="42.213515" lon="14.58037"><ele>49.0</ele><time>2026-04-29T11:57:24.895Z</time></trkpt><trkpt lat="42.21352" lon="14.58018"><ele>50.166666666666664</ele><time>2026-04-29T11:57:27.895Z</time></trkpt><trkpt lat="42.2134983" lon="14.580075"><ele>51.33333333333333</ele><time>2026-04-29T11:57:30.895Z</time></trkpt><trkpt lat="42.2134633" lon="14.5799867"><ele>52.5</ele><time>2026-04-29T11:57:32.895Z</time></trkpt><trkpt lat="42.21343" lon="14.5798983"><ele>53.66666666666667</ele><time>2026-04-29T11:57:34.895Z</time></trkpt><trkpt lat="42.2133783" lon="14.5798017"><ele>54.833333333333336</ele><time>2026-04-29T11:57:37.895Z</time></trkpt><trkpt lat="42.21335" lon="14.5796933"><ele>56.0</ele><time>2026-04-29T11:57:39.895Z</time></trkpt><trkpt lat="42.2133233" lon="14.5796083"><ele>57.00000000000001</ele><time>2026-04-29T11:57:41.895Z</time></trkpt><trkpt lat="42.2132967" lon="14.5795"><ele>58.0</ele><time>2026-04-29T11:57:44.895Z</time></trkpt><trkpt lat="42.2132883" lon="14.57939"><ele>59.0</ele><time>2026-04-29T11:57:47.895Z</time></trkpt><trkpt lat="42.2132733" lon="14.579295"><ele>60.0</ele><time>2026-04-29T11:57:49.894Z</time></trkpt><trkpt lat="42.2132683" lon="14.5791683"><ele>61.00000000000001</ele><time>2026-04-29T11:57:52.894Z</time></trkpt><trkpt lat="42.21327" lon="14.5790417"><ele>62.0</ele><time>2026-04-29T11:57:55.895Z</time></trkpt><trkpt lat="42.2132667" lon="14.5789267"><ele>62.0</ele><time>2026-04-29T11:57:58.895Z</time></trkpt><trkpt lat="42.2132617" lon="14.5788417"><ele>62.00000000000001</ele><time>2026-04-29T11:58:01.895Z</time></trkpt><trkpt lat="42.2132583" lon="14.578755"><ele>62.0</ele><time>2026-04-29T11:58:06.895Z</time></trkpt><trkpt lat="42.21327" lon="14.5786633"><ele>62.0</ele><time>2026-04-29T11:58:11.895Z</time></trkpt><trkpt lat="42.2132867" lon="14.57857"><ele>62.00000000000001</ele><time>2026-04-29T11:58:16.895Z</time></trkpt><trkpt lat="42.2133283" lon="14.5785"><ele>62.0</ele><time>2026-04-29T11:58:22.894Z</time></trkpt><trkpt lat="42.21339" lon="14.5784467"><ele>62.0</ele><time>2026-04-29T11:58:28.894Z</time></trkpt><trkpt lat="42.2134417" lon="14.5783717"><ele>62.00000000000001</ele><time>2026-04-29T11:58:33.895Z</time></trkpt><trkpt lat="42.2135083" lon="14.5782967"><ele>62.0</ele><time>2026-04-29T11:58:37.895Z</time></trkpt><trkpt lat="42.2135633" lon="14.578195"><ele>62.0</ele><time>2026-04-29T11:58:40.895Z</time></trkpt><trkpt lat="42.2136083" lon="14.5780933"><ele>62.0</ele><time>2026-04-29T11:58:44.895Z</time></trkpt><trkpt lat="42.2136233" lon="14.5779933"><ele>62.00000000000001</ele><time>2026-04-29T11:58:46.895Z</time></trkpt><trkpt lat="42.2136483" lon="14.5778817"><ele>62.0</ele><time>2026-04-29T11:58:48.895Z</time></trkpt><trkpt lat="42.21367" lon="14.5777933"><ele>62.00000000000001</ele><time>2026-04-29T11:58:50.895Z</time></trkpt><trkpt lat="42.2136967" lon="14.577685"><ele>62.0</ele><time>2026-04-29T11:58:52.895Z</time></trkpt><trkpt lat="42.2137267" lon="14.5775683"><ele>62.0</ele><time>2026-04-29T11:58:55.895Z</time></trkpt><trkpt lat="42.213735" lon="14.5774783"><ele>62.0</ele><time>2026-04-29T11:58:57.895Z</time></trkpt><trkpt lat="42.21374" lon="14.5773883"><ele>62.00000000000001</ele><time>2026-04-29T11:58:59.894Z</time></trkpt><trkpt lat="42.2137583" lon="14.5772667"><ele>62.0</ele><time>2026-04-29T11:59:02.895Z</time></trkpt><trkpt lat="42.2137817" lon="14.5771517"><ele>62.00000000000001</ele><time>2026-04-29T11:59:05.894Z</time></trkpt><trkpt lat="42.2138033" lon="14.5770567"><ele>62.0</ele><time>2026-04-29T11:59:07.895Z</time></trkpt><trkpt lat="42.2138233" lon="14.5769433"><ele>62.0</ele><time>2026-04-29T11:59:10.895Z</time></trkpt><trkpt lat="42.2138467" lon="14.576825"><ele>62.0</ele><time>2026-04-29T11:59:13.895Z</time></trkpt><trkpt lat="42.2138617" lon="14.57673"><ele>62.00000000000001</ele><time>2026-04-29T11:59:15.894Z</time></trkpt><trkpt lat="42.2138733" lon="14.576635"><ele>62.0</ele><time>2026-04-29T11:59:17.895Z</time></trkpt><trkpt lat="42.2138967" lon="14.5765183"><ele>62.50000000000001</ele><time>2026-04-29T11:59:20.895Z</time></trkpt><trkpt lat="42.2139217" lon="14.5764017"><ele>63.0</ele><time>2026-04-29T11:59:23.894Z</time></trkpt><trkpt lat="42.213945" lon="14.5762917"><ele>63.5</ele><time>2026-04-29T11:59:26.894Z</time></trkpt><trkpt lat="42.2139767" lon="14.5761833"><ele>64.0</ele><time>2026-04-29T11:59:29.895Z</time></trkpt><trkpt lat="42.2140117" lon="14.57608"><ele>64.5</ele><time>2026-04-29T11:59:32.895Z</time></trkpt><trkpt lat="42.21404" lon="14.5759617"><ele>65.0</ele><time>2026-04-29T11:59:35.894Z</time></trkpt><trkpt lat="42.2140517" lon="14.57586"><ele>67.00000000000001</ele><time>2026-04-29T11:59:37.894Z</time></trkpt><trkpt lat="42.2140633" lon="14.5757567"><ele>69.0</ele><time>2026-04-29T11:59:39.894Z</time></trkpt><trkpt lat="42.2140783" lon="14.5756533"><ele>71.0</ele><time>2026-04-29T11:59:41.894Z</time></trkpt><trkpt lat="42.2140933" lon="14.5755517"><ele>73.0</ele><time>2026-04-29T11:59:43.895Z</time></trkpt><trkpt lat="42.2141083" lon="14.5754567"><ele>75.0</ele><time>2026-04-29T11:59:45.895Z</time></trkpt><trkpt lat="42.2141183" lon="14.5753633"><ele>77.00000000000001</ele><time>2026-04-29T11:59:47.895Z</time></trkpt><trkpt lat="42.21412" lon="14.5752717"><ele>79.0</ele><time>2026-04-29T11:59:49.894Z</time></trkpt><trkpt lat="42.2141317" lon="14.5751733"><ele>79.2</ele><time>2026-04-29T11:59:51.894Z</time></trkpt><trkpt lat="42.2141383" lon="14.57506"><ele>79.4</ele><time>2026-04-29T11:59:53.895Z</time></trkpt><trkpt lat="42.2141517" lon="14.5749033"><ele>79.6</ele><time>2026-04-29T11:59:55.895Z</time></trkpt><trkpt lat="42.2141533" lon="14.5747533"><ele>79.8</ele><time>2026-04-29T11:59:57.894Z</time></trkpt><trkpt lat="42.2141383" lon="14.5746017"><ele>80.0</ele><time>2026-04-29T11:59:59.895Z</time></trkpt><trkpt lat="42.2141083" lon="14.5744567"><ele>80.0</ele><time>2026-04-29T12:00:01.895Z</time></trkpt><trkpt lat="42.214085" lon="14.5743217"><ele>80.0</ele><time>2026-04-29T12:00:03.895Z</time></trkpt><trkpt lat="42.214065" lon="14.5742017"><ele>80.0</ele><time>2026-04-29T12:00:05.895Z</time></trkpt><trkpt lat="42.214055" lon="14.57409"><ele>80.0</ele><time>2026-04-29T12:00:07.894Z</time></trkpt><trkpt lat="42.2140483" lon="14.5739983"><ele>80.0</ele><time>2026-04-29T12:00:09.894Z</time></trkpt><trkpt lat="42.2140567" lon="14.57388"><ele>80.0</ele><time>2026-04-29T12:00:12.895Z</time></trkpt><trkpt lat="42.214065" lon="14.5737917"><ele>80.66666666666667</ele><time>2026-04-29T12:00:14.895Z</time></trkpt><trkpt lat="42.2140717" lon="14.573675"><ele>81.33333333333334</ele><time>2026-04-29T12:00:17.894Z</time></trkpt><trkpt lat="42.2140783" lon="14.5735533"><ele>82.0</ele><time>2026-04-29T12:00:20.894Z</time></trkpt><trkpt lat="42.2140883" lon="14.573465"><ele>82.66666666666667</ele><time>2026-04-29T12:00:22.895Z</time></trkpt><trkpt lat="42.2140967" lon="14.5733767"><ele>83.33333333333333</ele><time>2026-04-29T12:00:24.894Z</time></trkpt><trkpt lat="42.2140983" lon="14.5732633"><ele>84.0</ele><time>2026-04-29T12:00:26.895Z</time></trkpt><trkpt lat="42.2141083" lon="14.573135"><ele>84.0</ele><time>2026-04-29T12:00:28.894Z</time></trkpt><trkpt lat="42.2141217" lon="14.5730167"><ele>84.0</ele><time>2026-04-29T12:00:30.895Z</time></trkpt><trkpt lat="42.2141367" lon="14.572885"><ele>84.0</ele><time>2026-04-29T12:00:32.895Z</time></trkpt><trkpt lat="42.2141517" lon="14.5727517"><ele>84.0</ele><time>2026-04-29T12:00:34.895Z</time></trkpt><trkpt lat="42.2141683" lon="14.572625"><ele>84.0</ele><time>2026-04-29T12:00:36.895Z</time></trkpt><trkpt lat="42.2141883" lon="14.5725017"><ele>83.80000000000001</ele><time>2026-04-29T12:00:38.894Z</time></trkpt><trkpt lat="42.2142217" lon="14.5723783"><ele>83.60000000000001</ele><time>2026-04-29T12:00:40.895Z</time></trkpt><trkpt lat="42.2142517" lon="14.5722467"><ele>83.4</ele><time>2026-04-29T12:00:42.894Z</time></trkpt><trkpt lat="42.214305" lon="14.5721217"><ele>83.2</ele><time>2026-04-29T12:00:44.894Z</time></trkpt><trkpt lat="42.2143433" lon="14.572"><ele>83.0</ele><time>2026-04-29T12:00:46.895Z</time></trkpt><trkpt lat="42.2143867" lon="14.571865"><ele>82.2</ele><time>2026-04-29T12:00:48.894Z</time></trkpt><trkpt lat="42.21443" lon="14.5717483"><ele>81.4</ele><time>2026-04-29T12:00:50.895Z</time></trkpt><trkpt lat="42.214485" lon="14.571655"><ele>80.60000000000001</ele><time>2026-04-29T12:00:52.895Z</time></trkpt><trkpt lat="42.214565" lon="14.57157"><ele>79.80000000000001</ele><time>2026-04-29T12:00:54.895Z</time></trkpt><trkpt lat="42.214645" lon="14.5715033"><ele>79.0</ele><time>2026-04-29T12:00:56.895Z</time></trkpt><trkpt lat="42.214715" lon="14.5714433"><ele>79.0</ele><time>2026-04-29T12:00:58.894Z</time></trkpt><trkpt lat="42.2147817" lon="14.57139"><ele>79.0</ele><time>2026-04-29T12:01:00.895Z</time></trkpt><trkpt lat="42.21485" lon="14.5713283"><ele>79.0</ele><time>2026-04-29T12:01:02.895Z</time></trkpt><trkpt lat="42.2149067" lon="14.571245"><ele>79.0</ele><time>2026-04-29T12:01:04.894Z</time></trkpt><trkpt lat="42.21493" lon="14.5711283"><ele>79.0</ele><time>2026-04-29T12:01:06.894Z</time></trkpt><trkpt lat="42.2149417" lon="14.5710367"><ele>79.0</ele><time>2026-04-29T12:01:07.895Z</time></trkpt><trkpt lat="42.2149417" lon="14.5709283"><ele>79.5</ele><time>2026-04-29T12:01:08.895Z</time></trkpt><trkpt lat="42.2149283" lon="14.5708233"><ele>80.0</ele><time>2026-04-29T12:01:09.894Z</time></trkpt><trkpt lat="42.2149083" lon="14.570715"><ele>80.5</ele><time>2026-04-29T12:01:10.894Z</time></trkpt><trkpt lat="42.2148817" lon="14.5706067"><ele>81.0</ele><time>2026-04-29T12:01:11.895Z</time></trkpt><trkpt lat="42.2148683" lon="14.570505"><ele>81.5</ele><time>2026-04-29T12:01:12.895Z</time></trkpt><trkpt lat="42.2148583" lon="14.57042"><ele>82.0</ele><time>2026-04-29T12:01:13.895Z</time></trkpt><trkpt lat="42.21484" lon="14.57028"><ele>82.28571428571428</ele><time>2026-04-29T12:01:15.894Z</time></trkpt><trkpt lat="42.2148283" lon="14.5701733"><ele>82.57142857142857</ele><time>2026-04-29T12:01:17.895Z</time></trkpt><trkpt lat="42.21481" lon="14.57008"><ele>82.85714285714286</ele><time>2026-04-29T12:01:20.894Z</time></trkpt><trkpt lat="42.2147883" lon="14.5699917"><ele>83.14285714285714</ele><time>2026-04-29T12:01:23.895Z</time></trkpt><trkpt lat="42.2147967" lon="14.5698967"><ele>83.42857142857143</ele><time>2026-04-29T12:01:27.894Z</time></trkpt><trkpt lat="42.2147933" lon="14.5697917"><ele>83.71428571428571</ele><time>2026-04-29T12:01:31.894Z</time></trkpt><trkpt lat="42.214785" lon="14.5696983"><ele>84.0</ele><time>2026-04-29T12:01:34.893Z</time></trkpt><trkpt lat="42.2147783" lon="14.5696033"><ele>84.33333333333333</ele><time>2026-04-29T12:01:37.893Z</time></trkpt><trkpt lat="42.2147717" lon="14.56951"><ele>84.66666666666667</ele><time>2026-04-29T12:01:40.894Z</time></trkpt><trkpt lat="42.214755" lon="14.569415"><ele>85.0</ele><time>2026-04-29T12:01:43.894Z</time></trkpt><trkpt lat="42.2147483" lon="14.5693067"><ele>85.33333333333334</ele><time>2026-04-29T12:01:46.894Z</time></trkpt><trkpt lat="42.2147433" lon="14.5692"><ele>85.66666666666667</ele><time>2026-04-29T12:01:49.894Z</time></trkpt><trkpt lat="42.2147367" lon="14.5690933"><ele>86.0</ele><time>2026-04-29T12:01:52.894Z</time></trkpt><trkpt lat="42.2147267" lon="14.5689733"><ele>86.0</ele><time>2026-04-29T12:01:55.894Z</time></trkpt><trkpt lat="42.2147233" lon="14.568885"><ele>86.0</ele><time>2026-04-29T12:01:57.894Z</time></trkpt><trkpt lat="42.2147117" lon="14.56876"><ele>86.0</ele><time>2026-04-29T12:02:00.894Z</time></trkpt><trkpt lat="42.2146983" lon="14.5686683"><ele>86.0</ele><time>2026-04-29T12:02:02.894Z</time></trkpt><trkpt lat="42.2146833" lon="14.5685667"><ele>86.0</ele><time>2026-04-29T12:02:04.894Z</time></trkpt><trkpt lat="42.2146567" lon="14.56846"><ele>86.0</ele><time>2026-04-29T12:02:06.894Z</time></trkpt><trkpt lat="42.21463" lon="14.5683633"><ele>86.19999999999999</ele><time>2026-04-29T12:02:08.894Z</time></trkpt><trkpt lat="42.21461" lon="14.568265"><ele>86.39999999999999</ele><time>2026-04-29T12:02:10.894Z</time></trkpt><trkpt lat="42.2145783" lon="14.568155"><ele>86.6</ele><time>2026-04-29T12:02:12.894Z</time></trkpt><trkpt lat="42.2145517" lon="14.568035"><ele>86.8</ele><time>2026-04-29T12:02:14.894Z</time></trkpt><trkpt lat="42.2145133" lon="14.5679067"><ele>87.0</ele><time>2026-04-29T12:02:16.893Z</time></trkpt><trkpt lat="42.21448" lon="14.5677683"><ele>86.19999999999999</ele><time>2026-04-29T12:02:18.894Z</time></trkpt><trkpt lat="42.21446" lon="14.5676217"><ele>85.4</ele><time>2026-04-29T12:02:20.893Z</time></trkpt><trkpt lat="42.2144667" lon="14.56749"><ele>84.6</ele><time>2026-04-29T12:02:22.894Z</time></trkpt><trkpt lat="42.2144817" lon="14.56736"><ele>83.80000000000001</ele><time>2026-04-29T12:02:24.894Z</time></trkpt><trkpt lat="42.2145" lon="14.567245"><ele>83.0</ele><time>2026-04-29T12:02:26.894Z</time></trkpt><trkpt lat="42.2145067" lon="14.5671433"><ele>83.0</ele><time>2026-04-29T12:02:28.893Z</time></trkpt><trkpt lat="42.21452" lon="14.5670183"><ele>83.0</ele><time>2026-04-29T12:02:31.893Z</time></trkpt><trkpt lat="42.21452" lon="14.566925"><ele>83.0</ele><time>2026-04-29T12:02:33.893Z</time></trkpt><trkpt lat="42.214525" lon="14.56683"><ele>83.0</ele><time>2026-04-29T12:02:35.893Z</time></trkpt><trkpt lat="42.2145317" lon="14.56673"><ele>83.0</ele><time>2026-04-29T12:02:37.893Z</time></trkpt><trkpt lat="42.214535" lon="14.5666333"><ele>83.0</ele><time>2026-04-29T12:02:39.893Z</time></trkpt><trkpt lat="42.2145417" lon="14.5665317"><ele>83.0</ele><time>2026-04-29T12:02:41.893Z</time></trkpt><trkpt lat="42.2145517" lon="14.566435"><ele>83.0</ele><time>2026-04-29T12:02:43.894Z</time></trkpt><trkpt lat="42.21457" lon="14.5663433"><ele>83.0</ele><time>2026-04-29T12:02:45.894Z</time></trkpt><trkpt lat="42.2145967" lon="14.5662567"><ele>83.0</ele><time>2026-04-29T12:02:47.893Z</time></trkpt><trkpt lat="42.2146267" lon="14.5661783"><ele>83.0</ele><time>2026-04-29T12:02:49.894Z</time></trkpt><trkpt lat="42.2146633" lon="14.5661033"><ele>83.0</ele><time>2026-04-29T12:02:51.894Z</time></trkpt><trkpt lat="42.21471" lon="14.5660217"><ele>83.0</ele><time>2026-04-29T12:02:53.894Z</time></trkpt><trkpt lat="42.2147583" lon="14.565935"><ele>82.2</ele><time>2026-04-29T12:02:55.894Z</time></trkpt><trkpt lat="42.2148133" lon="14.5658433"><ele>81.4</ele><time>2026-04-29T12:02:57.894Z</time></trkpt><trkpt lat="42.2148733" lon="14.5657417"><ele>80.60000000000001</ele><time>2026-04-29T12:02:59.893Z</time></trkpt><trkpt lat="42.2149317" lon="14.5656383"><ele>79.80000000000001</ele><time>2026-04-29T12:03:01.894Z</time></trkpt><trkpt lat="42.214985" lon="14.5655317"><ele>79.0</ele><time>2026-04-29T12:03:03.894Z</time></trkpt><trkpt lat="42.2150467" lon="14.565405"><ele>80.5</ele><time>2026-04-29T12:03:05.893Z</time></trkpt><trkpt lat="42.2151033" lon="14.5652733"><ele>82.0</ele><time>2026-04-29T12:03:07.893Z</time></trkpt><trkpt lat="42.2151667" lon="14.5651433"><ele>83.5</ele><time>2026-04-29T12:03:09.894Z</time></trkpt><trkpt lat="42.2152283" lon="14.5650067"><ele>85.0</ele><time>2026-04-29T12:03:11.894Z</time></trkpt><trkpt lat="42.215275" lon="14.5648633"><ele>85.0</ele><time>2026-04-29T12:03:13.893Z</time></trkpt><trkpt lat="42.215315" lon="14.5647133"><ele>85.0</ele><time>2026-04-29T12:03:15.894Z</time></trkpt><trkpt lat="42.215365" lon="14.5645683"><ele>85.0</ele><time>2026-04-29T12:03:17.894Z</time></trkpt><trkpt lat="42.21545" lon="14.5644617"><ele>85.0</ele><time>2026-04-29T12:03:19.893Z</time></trkpt><trkpt lat="42.2155067" lon="14.5644083"><ele>85.0</ele><time>2026-04-29T12:03:20.894Z</time></trkpt><trkpt lat="42.2155667" lon="14.56437"><ele>84.8</ele><time>2026-04-29T12:03:21.893Z</time></trkpt><trkpt lat="42.2156233" lon="14.5643217"><ele>84.6</ele><time>2026-04-29T12:03:22.893Z</time></trkpt><trkpt lat="42.2157333" lon="14.5642517"><ele>84.4</ele><time>2026-04-29T12:03:24.894Z</time></trkpt><trkpt lat="42.2157917" lon="14.5642183"><ele>84.2</ele><time>2026-04-29T12:03:25.894Z</time></trkpt><trkpt lat="42.2158983" lon="14.5641483"><ele>84.0</ele><time>2026-04-29T12:03:27.894Z</time></trkpt><trkpt lat="42.2160017" lon="14.5640667"><ele>84.0</ele><time>2026-04-29T12:03:29.894Z</time></trkpt><trkpt lat="42.2161017" lon="14.5639783"><ele>84.0</ele><time>2026-04-29T12:03:31.893Z</time></trkpt><trkpt lat="42.21616" lon="14.5639317"><ele>84.0</ele><time>2026-04-29T12:03:32.893Z</time></trkpt><trkpt lat="42.2162233" lon="14.563885"><ele>84.0</ele><time>2026-04-29T12:03:33.894Z</time></trkpt><trkpt lat="42.21629" lon="14.5638367"><ele>84.0</ele><time>2026-04-29T12:03:34.894Z</time></trkpt><trkpt lat="42.2163583" lon="14.5637833"><ele>84.0</ele><time>2026-04-29T12:03:35.893Z</time></trkpt><trkpt lat="42.216425" lon="14.5637333"><ele>83.5</ele><time>2026-04-29T12:03:36.894Z</time></trkpt><trkpt lat="42.216485" lon="14.563685"><ele>83.0</ele><time>2026-04-29T12:03:37.894Z</time></trkpt><trkpt lat="42.21657" lon="14.5635667"><ele>82.5</ele><time>2026-04-29T12:03:39.893Z</time></trkpt><trkpt lat="42.2166" lon="14.56349"><ele>82.0</ele><time>2026-04-29T12:03:40.894Z</time></trkpt><trkpt lat="42.216615" lon="14.563405"><ele>81.5</ele><time>2026-04-29T12:03:41.894Z</time></trkpt><trkpt lat="42.21661" lon="14.5633117"><ele>81.0</ele><time>2026-04-29T12:03:42.893Z</time></trkpt><trkpt lat="42.2165817" lon="14.56323"><ele>80.83333333333333</ele><time>2026-04-29T12:03:43.894Z</time></trkpt><trkpt lat="42.2164783" lon="14.563155"><ele>80.66666666666667</ele><time>2026-04-29T12:03:45.893Z</time></trkpt><trkpt lat="42.2164133" lon="14.5631717"><ele>80.5</ele><time>2026-04-29T12:03:46.894Z</time></trkpt><trkpt lat="42.2163467" lon="14.563215"><ele>80.33333333333334</ele><time>2026-04-29T12:03:47.894Z</time></trkpt><trkpt lat="42.2162767" lon="14.563265"><ele>80.16666666666667</ele><time>2026-04-29T12:03:48.893Z</time></trkpt><trkpt lat="42.21621" lon="14.5632967"><ele>80.0</ele><time>2026-04-29T12:03:49.893Z</time></trkpt><trkpt lat="42.21615" lon="14.5633333"><ele>80.0</ele><time>2026-04-29T12:03:50.893Z</time></trkpt><trkpt lat="42.216035" lon="14.5633983"><ele>80.0</ele><time>2026-04-29T12:03:52.893Z</time></trkpt><trkpt lat="42.2159767" lon="14.5634317"><ele>80.0</ele><time>2026-04-29T12:03:53.894Z</time></trkpt><trkpt lat="42.2158633" lon="14.5634817"><ele>80.0</ele><time>2026-04-29T12:03:55.894Z</time></trkpt><trkpt lat="42.2157517" lon="14.56354"><ele>80.0</ele><time>2026-04-29T12:03:57.893Z</time></trkpt><trkpt lat="42.2156917" lon="14.5635733"><ele>80.4</ele><time>2026-04-29T12:03:58.894Z</time></trkpt><trkpt lat="42.2156333" lon="14.5636167"><ele>80.8</ele><time>2026-04-29T12:03:59.894Z</time></trkpt><trkpt lat="42.215525" lon="14.5636767"><ele>81.19999999999999</ele><time>2026-04-29T12:04:01.894Z</time></trkpt><trkpt lat="42.21542" lon="14.5637367"><ele>81.6</ele><time>2026-04-29T12:04:03.894Z</time></trkpt><trkpt lat="42.2153133" lon="14.5637883"><ele>82.0</ele><time>2026-04-29T12:04:05.894Z</time></trkpt><trkpt lat="42.2152067" lon="14.5638317"><ele>81.19999999999999</ele><time>2026-04-29T12:04:07.893Z</time></trkpt><trkpt lat="42.2151117" lon="14.5638667"><ele>80.39999999999999</ele><time>2026-04-29T12:04:09.894Z</time></trkpt><trkpt lat="42.2150117" lon="14.5638983"><ele>79.6</ele><time>2026-04-29T12:04:11.894Z</time></trkpt><trkpt lat="42.214915" lon="14.5639317"><ele>78.8</ele><time>2026-04-29T12:04:13.894Z</time></trkpt><trkpt lat="42.2148233" lon="14.5639633"><ele>78.0</ele><time>2026-04-29T12:04:15.894Z</time></trkpt><trkpt lat="42.2147417" lon="14.5639933"><ele>77.33333333333333</ele><time>2026-04-29T12:04:17.894Z</time></trkpt><trkpt lat="42.214665" lon="14.564015"><ele>76.66666666666667</ele><time>2026-04-29T12:04:19.894Z</time></trkpt><trkpt lat="42.2145933" lon="14.5640117"><ele>76.0</ele><time>2026-04-29T12:04:21.894Z</time></trkpt><trkpt lat="42.21453" lon="14.5640033"><ele>75.33333333333334</ele><time>2026-04-29T12:04:23.893Z</time></trkpt><trkpt lat="42.2144533" lon="14.5639717"><ele>74.66666666666667</ele><time>2026-04-29T12:04:26.894Z</time></trkpt><trkpt lat="42.2143783" lon="14.5638967"><ele>74.0</ele><time>2026-04-29T12:04:29.894Z</time></trkpt><trkpt lat="42.2143267" lon="14.5637917"><ele>74.0</ele><time>2026-04-29T12:04:32.893Z</time></trkpt><trkpt lat="42.2143017" lon="14.5637133"><ele>74.0</ele><time>2026-04-29T12:04:34.894Z</time></trkpt><trkpt lat="42.2142617" lon="14.5636"><ele>74.0</ele><time>2026-04-29T12:04:37.893Z</time></trkpt><trkpt lat="42.2142367" lon="14.563515"><ele>74.0</ele><time>2026-04-29T12:04:39.894Z</time></trkpt><trkpt lat="42.2142217" lon="14.563405"><ele>74.0</ele><time>2026-04-29T12:04:42.894Z</time></trkpt><trkpt lat="42.2142033" lon="14.5632983"><ele>74.0</ele><time>2026-04-29T12:04:45.893Z</time></trkpt><trkpt lat="42.2141733" lon="14.56318"><ele>75.0</ele><time>2026-04-29T12:04:48.893Z</time></trkpt><trkpt lat="42.214115" lon="14.563105"><ele>76.0</ele><time>2026-04-29T12:04:50.894Z</time></trkpt><trkpt lat="42.2140467" lon="14.56308"><ele>77.0</ele><time>2026-04-29T12:04:52.894Z</time></trkpt><trkpt lat="42.213985" lon="14.563155"><ele>78.0</ele><time>2026-04-29T12:04:55.894Z</time></trkpt><trkpt lat="42.21396" lon="14.5632567"><ele>79.0</ele><time>2026-04-29T12:04:58.894Z</time></trkpt><trkpt lat="42.21395" lon="14.56337"><ele>80.0</ele><time>2026-04-29T12:05:01.894Z</time></trkpt><trkpt lat="42.213935" lon="14.5634733"><ele>80.66666666666667</ele><time>2026-04-29T12:05:04.894Z</time></trkpt><trkpt lat="42.213915" lon="14.5635567"><ele>81.33333333333334</ele><time>2026-04-29T12:05:07.894Z</time></trkpt><trkpt lat="42.2139" lon="14.5636633"><ele>82.0</ele><time>2026-04-29T12:05:11.894Z</time></trkpt><trkpt lat="42.2138867" lon="14.5637667"><ele>82.66666666666667</ele><time>2026-04-29T12:05:14.894Z</time></trkpt><trkpt lat="42.21385" lon="14.5638783"><ele>83.33333333333333</ele><time>2026-04-29T12:05:17.893Z</time></trkpt><trkpt lat="42.2138033" lon="14.5639683"><ele>84.0</ele><time>2026-04-29T12:05:20.894Z</time></trkpt><trkpt lat="42.2137317" lon="14.56404"><ele>84.0</ele><time>2026-04-29T12:05:23.894Z</time></trkpt><trkpt lat="42.2136533" lon="14.5640917"><ele>84.0</ele><time>2026-04-29T12:05:26.894Z</time></trkpt><trkpt lat="42.213575" lon="14.5641217"><ele>84.0</ele><time>2026-04-29T12:05:29.893Z</time></trkpt><trkpt lat="42.213485" lon="14.5641467"><ele>84.0</ele><time>2026-04-29T12:05:32.893Z</time></trkpt><trkpt lat="42.2133933" lon="14.5641433"><ele>84.0</ele><time>2026-04-29T12:05:35.894Z</time></trkpt><trkpt lat="42.2133133" lon="14.5641267"><ele>84.0</ele><time>2026-04-29T12:05:38.894Z</time></trkpt><trkpt lat="42.2132367" lon="14.5640883"><ele>84.0</ele><time>2026-04-29T12:05:41.893Z</time></trkpt><trkpt lat="42.2131633" lon="14.5640483"><ele>84.0</ele><time>2026-04-29T12:05:44.894Z</time></trkpt><trkpt lat="42.2130867" lon="14.5639883"><ele>84.0</ele><time>2026-04-29T12:05:47.894Z</time></trkpt><trkpt lat="42.2130133" lon="14.5639067"><ele>84.0</ele><time>2026-04-29T12:05:50.894Z</time></trkpt><trkpt lat="42.2129633" lon="14.56385"><ele>84.0</ele><time>2026-04-29T12:05:52.894Z</time></trkpt><trkpt lat="42.212915" lon="14.56378"><ele>84.0</ele><time>2026-04-29T12:05:54.893Z</time></trkpt><trkpt lat="42.2128733" lon="14.5637017"><ele>85.0</ele><time>2026-04-29T12:05:56.894Z</time></trkpt><trkpt lat="42.212825" lon="14.56361"><ele>86.0</ele><time>2026-04-29T12:05:59.893Z</time></trkpt><trkpt lat="42.212785" lon="14.5635"><ele>87.0</ele><time>2026-04-29T12:06:02.894Z</time></trkpt><trkpt lat="42.2127433" lon="14.563415"><ele>88.0</ele><time>2026-04-29T12:06:04.894Z</time></trkpt><trkpt lat="42.2126967" lon="14.5633567"><ele>89.0</ele><time>2026-04-29T12:06:06.894Z</time></trkpt><trkpt lat="42.2126267" lon="14.5632717"><ele>90.0</ele><time>2026-04-29T12:06:09.894Z</time></trkpt><trkpt lat="42.2125617" lon="14.5632067"><ele>90.0</ele><time>2026-04-29T12:06:11.893Z</time></trkpt><trkpt lat="42.2125" lon="14.56315"><ele>90.0</ele><time>2026-04-29T12:06:13.893Z</time></trkpt><trkpt lat="42.21244" lon="14.56309"><ele>90.0</ele><time>2026-04-29T12:06:15.893Z</time></trkpt><trkpt lat="42.2123733" lon="14.5630333"><ele>90.0</ele><time>2026-04-29T12:06:17.894Z</time></trkpt><trkpt lat="42.2123183" lon="14.5629767"><ele>90.0</ele><time>2026-04-29T12:06:19.893Z</time></trkpt><trkpt lat="42.2122617" lon="14.5629183"><ele>90.0</ele><time>2026-04-29T12:06:21.894Z</time></trkpt><trkpt lat="42.212195" lon="14.56286"><ele>90.0</ele><time>2026-04-29T12:06:23.894Z</time></trkpt><trkpt lat="42.2121267" lon="14.562795"><ele>90.16666666666667</ele><time>2026-04-29T12:06:25.894Z</time></trkpt><trkpt lat="42.212065" lon="14.5627367"><ele>90.33333333333333</ele><time>2026-04-29T12:06:27.893Z</time></trkpt><trkpt lat="42.2120083" lon="14.5626717"><ele>90.5</ele><time>2026-04-29T12:06:29.893Z</time></trkpt><trkpt lat="42.2119483" lon="14.56262"><ele>90.66666666666666</ele><time>2026-04-29T12:06:31.894Z</time></trkpt><trkpt lat="42.2118867" lon="14.562565"><ele>90.83333333333333</ele><time>2026-04-29T12:06:33.894Z</time></trkpt><trkpt lat="42.2118133" lon="14.56251"><ele>91.0</ele><time>2026-04-29T12:06:35.894Z</time></trkpt><trkpt lat="42.2117417" lon="14.5624567"><ele>91.0</ele><time>2026-04-29T12:06:37.894Z</time></trkpt><trkpt lat="42.211675" lon="14.5624"><ele>91.0</ele><time>2026-04-29T12:06:39.894Z</time></trkpt><trkpt lat="42.2116217" lon="14.5623417"><ele>91.0</ele><time>2026-04-29T12:06:41.893Z</time></trkpt><trkpt lat="42.2115483" lon="14.562295"><ele>91.0</ele><time>2026-04-29T12:06:43.894Z</time></trkpt><trkpt lat="42.21148" lon="14.5622483"><ele>91.0</ele><time>2026-04-29T12:06:45.893Z</time></trkpt><trkpt lat="42.2114183" lon="14.5622"><ele>91.0</ele><time>2026-04-29T12:06:47.894Z</time></trkpt><trkpt lat="42.2113533" lon="14.5621483"><ele>90.6</ele><time>2026-04-29T12:06:49.893Z</time></trkpt><trkpt lat="42.2112833" lon="14.56209"><ele>90.19999999999999</ele><time>2026-04-29T12:06:51.894Z</time></trkpt><trkpt lat="42.2112083" lon="14.562025"><ele>89.80000000000001</ele><time>2026-04-29T12:06:53.893Z</time></trkpt><trkpt lat="42.2111233" lon="14.56196"><ele>89.4</ele><time>2026-04-29T12:06:55.894Z</time></trkpt><trkpt lat="42.2110317" lon="14.5618717"><ele>89.0</ele><time>2026-04-29T12:06:57.894Z</time></trkpt><trkpt lat="42.2109383" lon="14.5617833"><ele>88.6</ele><time>2026-04-29T12:06:59.894Z</time></trkpt><trkpt lat="42.210845" lon="14.561715"><ele>88.2</ele><time>2026-04-29T12:07:01.894Z</time></trkpt><trkpt lat="42.2107283" lon="14.5616683"><ele>87.8</ele><time>2026-04-29T12:07:03.893Z</time></trkpt><trkpt lat="42.2106567" lon="14.5616567"><ele>87.39999999999999</ele><time>2026-04-29T12:07:04.893Z</time></trkpt><trkpt lat="42.21058" lon="14.56165"><ele>87.0</ele><time>2026-04-29T12:07:05.894Z</time></trkpt><trkpt lat="42.2104983" lon="14.561645"><ele>85.57142857142857</ele><time>2026-04-29T12:07:06.893Z</time></trkpt><trkpt lat="42.2104183" lon="14.5616417"><ele>84.14285714285714</ele><time>2026-04-29T12:07:07.893Z</time></trkpt><trkpt lat="42.2103467" lon="14.56164"><ele>82.71428571428572</ele><time>2026-04-29T12:07:08.894Z</time></trkpt><trkpt lat="42.210275" lon="14.56163"><ele>81.28571428571428</ele><time>2026-04-29T12:07:09.894Z</time></trkpt><trkpt lat="42.2102017" lon="14.561625"><ele>79.85714285714286</ele><time>2026-04-29T12:07:10.894Z</time></trkpt><trkpt lat="42.2101333" lon="14.5616283"><ele>78.42857142857143</ele><time>2026-04-29T12:07:11.894Z</time></trkpt><trkpt lat="42.2100683" lon="14.56165"><ele>77.0</ele><time>2026-04-29T12:07:12.894Z</time></trkpt><trkpt lat="42.2100117" lon="14.5616883"><ele>77.0</ele><time>2026-04-29T12:07:13.893Z</time></trkpt><trkpt lat="42.2099533" lon="14.5617267"><ele>77.0</ele><time>2026-04-29T12:07:14.893Z</time></trkpt><trkpt lat="42.2098517" lon="14.5618217"><ele>77.0</ele><time>2026-04-29T12:07:16.893Z</time></trkpt><trkpt lat="42.2097617" lon="14.5619167"><ele>77.0</ele><time>2026-04-29T12:07:18.894Z</time></trkpt><trkpt lat="42.209675" lon="14.5620367"><ele>77.0</ele><time>2026-04-29T12:07:20.893Z</time></trkpt><trkpt lat="42.2096317" lon="14.5621067"><ele>75.57142857142857</ele><time>2026-04-29T12:07:21.894Z</time></trkpt><trkpt lat="42.2095917" lon="14.5621817"><ele>74.14285714285714</ele><time>2026-04-29T12:07:22.894Z</time></trkpt><trkpt lat="42.2095583" lon="14.5622667"><ele>72.71428571428572</ele><time>2026-04-29T12:07:23.894Z</time></trkpt><trkpt lat="42.20953" lon="14.56235"><ele>71.28571428571428</ele><time>2026-04-29T12:07:24.893Z</time></trkpt><trkpt lat="42.2095033" lon="14.56244"><ele>69.85714285714286</ele><time>2026-04-29T12:07:25.893Z</time></trkpt><trkpt lat="42.2094917" lon="14.5625367"><ele>68.42857142857143</ele><time>2026-04-29T12:07:26.894Z</time></trkpt><trkpt lat="42.2094817" lon="14.5626217"><ele>67.0</ele><time>2026-04-29T12:07:27.894Z</time></trkpt><trkpt lat="42.20948" lon="14.56271"><ele>67.0</ele><time>2026-04-29T12:07:28.894Z</time></trkpt><trkpt lat="42.2094667" lon="14.5628467"><ele>67.0</ele><time>2026-04-29T12:07:30.894Z</time></trkpt><trkpt lat="42.2094267" lon="14.5629567"><ele>67.0</ele><time>2026-04-29T12:07:32.894Z</time></trkpt><trkpt lat="42.2093283" lon="14.56301"><ele>67.0</ele><time>2026-04-29T12:07:34.893Z</time></trkpt><trkpt lat="42.209265" lon="14.5629933"><ele>67.0</ele><time>2026-04-29T12:07:35.894Z</time></trkpt><trkpt lat="42.2092083" lon="14.562945"><ele>67.0</ele><time>2026-04-29T12:07:36.893Z</time></trkpt><trkpt lat="42.209155" lon="14.5628817"><ele>67.0</ele><time>2026-04-29T12:07:37.894Z</time></trkpt><trkpt lat="42.209115" lon="14.562805"><ele>67.0</ele><time>2026-04-29T12:07:38.894Z</time></trkpt><trkpt lat="42.2090933" lon="14.562725"><ele>67.0</ele><time>2026-04-29T12:07:39.893Z</time></trkpt><trkpt lat="42.209075" lon="14.5626367"><ele>67.0</ele><time>2026-04-29T12:07:40.894Z</time></trkpt><trkpt lat="42.2090667" lon="14.5625467"><ele>67.0</ele><time>2026-04-29T12:07:41.894Z</time></trkpt><trkpt lat="42.20907" lon="14.562455"><ele>67.0</ele><time>2026-04-29T12:07:42.894Z</time></trkpt><trkpt lat="42.2090817" lon="14.5623533"><ele>67.0</ele><time>2026-04-29T12:07:43.894Z</time></trkpt><trkpt lat="42.2090933" lon="14.5622433"><ele>67.0</ele><time>2026-04-29T12:07:44.893Z</time></trkpt><trkpt lat="42.2091033" lon="14.5621367"><ele>67.0</ele><time>2026-04-29T12:07:45.893Z</time></trkpt><trkpt lat="42.2091083" lon="14.5620317"><ele>67.0</ele><time>2026-04-29T12:07:46.894Z</time></trkpt><trkpt lat="42.2091133" lon="14.5619333"><ele>67.0</ele><time>2026-04-29T12:07:47.893Z</time></trkpt><trkpt lat="42.2091133" lon="14.5618267"><ele>67.0</ele><time>2026-04-29T12:07:48.894Z</time></trkpt><trkpt lat="42.209115" lon="14.5617083"><ele>67.0</ele><time>2026-04-29T12:07:49.893Z</time></trkpt><trkpt lat="42.2091117" lon="14.561595"><ele>66.33333333333333</ele><time>2026-04-29T12:07:50.893Z</time></trkpt><trkpt lat="42.209115" lon="14.56148"><ele>65.66666666666666</ele><time>2026-04-29T12:07:51.894Z</time></trkpt><trkpt lat="42.2091167" lon="14.561375"><ele>65.0</ele><time>2026-04-29T12:07:52.894Z</time></trkpt><trkpt lat="42.2091183" lon="14.561265"><ele>64.33333333333333</ele><time>2026-04-29T12:07:53.893Z</time></trkpt><trkpt lat="42.2091183" lon="14.5611633"><ele>63.666666666666664</ele><time>2026-04-29T12:07:54.893Z</time></trkpt><trkpt lat="42.2091217" lon="14.5610617"><ele>63.0</ele><time>2026-04-29T12:07:55.894Z</time></trkpt><trkpt lat="42.209115" lon="14.560965"><ele>62.166666666666664</ele><time>2026-04-29T12:07:56.894Z</time></trkpt><trkpt lat="42.2090983" lon="14.56087"><ele>61.33333333333333</ele><time>2026-04-29T12:07:57.894Z</time></trkpt><trkpt lat="42.2090817" lon="14.5607867"><ele>60.5</ele><time>2026-04-29T12:07:58.893Z</time></trkpt><trkpt lat="42.2090633" lon="14.5607"><ele>59.666666666666664</ele><time>2026-04-29T12:07:59.893Z</time></trkpt><trkpt lat="42.20903" lon="14.56056"><ele>58.83333333333333</ele><time>2026-04-29T12:08:01.894Z</time></trkpt><trkpt lat="42.2089983" lon="14.56045"><ele>58.0</ele><time>2026-04-29T12:08:03.894Z</time></trkpt><trkpt lat="42.2089283" lon="14.5603583"><ele>56.14285714285715</ele><time>2026-04-29T12:08:34.893Z</time></trkpt><trkpt lat="42.2089017" lon="14.56045"><ele>54.28571428571429</ele><time>2026-04-29T12:08:37.894Z</time></trkpt><trkpt lat="42.2088867" lon="14.5605683"><ele>52.42857142857143</ele><time>2026-04-29T12:08:40.894Z</time></trkpt><trkpt lat="42.2088817" lon="14.5606567"><ele>50.57142857142858</ele><time>2026-04-29T12:08:42.893Z</time></trkpt><trkpt lat="42.208875" lon="14.5607517"><ele>48.71428571428572</ele><time>2026-04-29T12:08:44.894Z</time></trkpt><trkpt lat="42.2088667" lon="14.5608433"><ele>46.857142857142854</ele><time>2026-04-29T12:08:46.894Z</time></trkpt><trkpt lat="42.2088533" lon="14.5609433"><ele>45.0</ele><time>2026-04-29T12:08:48.894Z</time></trkpt><trkpt lat="42.208845" lon="14.5610533"><ele>45.0</ele><time>2026-04-29T12:08:50.894Z</time></trkpt><trkpt lat="42.208835" lon="14.56116"><ele>45.0</ele><time>2026-04-29T12:08:52.893Z</time></trkpt><trkpt lat="42.2088233" lon="14.5612733"><ele>45.0</ele><time>2026-04-29T12:08:54.894Z</time></trkpt><trkpt lat="42.2088067" lon="14.5613783"><ele>45.0</ele><time>2026-04-29T12:08:56.894Z</time></trkpt><trkpt lat="42.2087933" lon="14.5614883"><ele>45.0</ele><time>2026-04-29T12:08:58.894Z</time></trkpt><trkpt lat="42.2087767" lon="14.5616033"><ele>45.0</ele><time>2026-04-29T12:09:00.894Z</time></trkpt><trkpt lat="42.2087617" lon="14.5617133"><ele>45.666666666666664</ele><time>2026-04-29T12:09:02.893Z</time></trkpt><trkpt lat="42.208745" lon="14.5618183"><ele>46.33333333333333</ele><time>2026-04-29T12:09:04.894Z</time></trkpt><trkpt lat="42.2087267" lon="14.561935"><ele>47.0</ele><time>2026-04-29T12:09:06.894Z</time></trkpt><trkpt lat="42.2087133" lon="14.56205"><ele>47.666666666666664</ele><time>2026-04-29T12:09:08.893Z</time></trkpt><trkpt lat="42.2086983" lon="14.5621633"><ele>48.33333333333333</ele><time>2026-04-29T12:09:10.893Z</time></trkpt><trkpt lat="42.20868" lon="14.5622817"><ele>49.0</ele><time>2026-04-29T12:09:12.893Z</time></trkpt><trkpt lat="42.208655" lon="14.5624117"><ele>49.0</ele><time>2026-04-29T12:09:14.893Z</time></trkpt><trkpt lat="42.2086367" lon="14.56255"><ele>49.0</ele><time>2026-04-29T12:09:16.893Z</time></trkpt><trkpt lat="42.208615" lon="14.5626833"><ele>49.0</ele><time>2026-04-29T12:09:18.894Z</time></trkpt><trkpt lat="42.208595" lon="14.5628067"><ele>49.0</ele><time>2026-04-29T12:09:20.894Z</time></trkpt><trkpt lat="42.2085717" lon="14.5629317"><ele>49.0</ele><time>2026-04-29T12:09:22.894Z</time></trkpt><trkpt lat="42.2085483" lon="14.5630683"><ele>49.0</ele><time>2026-04-29T12:09:24.894Z</time></trkpt><trkpt lat="42.2085333" lon="14.56322"><ele>49.0</ele><time>2026-04-29T12:09:26.894Z</time></trkpt><trkpt lat="42.2085117" lon="14.5633633"><ele>49.0</ele><time>2026-04-29T12:09:28.894Z</time></trkpt><trkpt lat="42.208495" lon="14.5635083"><ele>49.0</ele><time>2026-04-29T12:09:30.893Z</time></trkpt><trkpt lat="42.20847" lon="14.56366"><ele>49.0</ele><time>2026-04-29T12:09:32.894Z</time></trkpt><trkpt lat="42.2084483" lon="14.5638133"><ele>49.25</ele><time>2026-04-29T12:09:34.893Z</time></trkpt><trkpt lat="42.208425" lon="14.5639667"><ele>49.5</ele><time>2026-04-29T12:09:36.893Z</time></trkpt><trkpt lat="42.2084033" lon="14.564125"><ele>49.75</ele><time>2026-04-29T12:09:38.894Z</time></trkpt><trkpt lat="42.20838" lon="14.5642817"><ele>50.0</ele><time>2026-04-29T12:09:40.894Z</time></trkpt><trkpt lat="42.2083567" lon="14.56443"><ele>49.75</ele><time>2026-04-29T12:09:42.893Z</time></trkpt><trkpt lat="42.208335" lon="14.5645917"><ele>49.5</ele><time>2026-04-29T12:09:44.894Z</time></trkpt><trkpt lat="42.2083133" lon="14.5647567"><ele>49.25</ele><time>2026-04-29T12:09:46.893Z</time></trkpt><trkpt lat="42.2082883" lon="14.564915"><ele>49.0</ele><time>2026-04-29T12:09:48.894Z</time></trkpt><trkpt lat="42.20826" lon="14.5650767"><ele>48.99999999999999</ele><time>2026-04-29T12:09:50.894Z</time></trkpt><trkpt lat="42.208235" lon="14.5652417"><ele>49.0</ele><time>2026-04-29T12:09:52.893Z</time></trkpt><trkpt lat="42.2082233" lon="14.5653267"><ele>49.0</ele><time>2026-04-29T12:09:53.894Z</time></trkpt><trkpt lat="42.2082" lon="14.565485"><ele>49.0</ele><time>2026-04-29T12:09:55.893Z</time></trkpt><trkpt lat="42.2081917" lon="14.56557"><ele>48.99999999999999</ele><time>2026-04-29T12:09:56.894Z</time></trkpt><trkpt lat="42.2081817" lon="14.565655"><ele>49.0</ele><time>2026-04-29T12:09:57.893Z</time></trkpt><trkpt lat="42.2081667" lon="14.5657383"><ele>48.0</ele><time>2026-04-29T12:09:58.894Z</time></trkpt><trkpt lat="42.2081533" lon="14.5658267"><ele>47.0</ele><time>2026-04-29T12:09:59.894Z</time></trkpt><trkpt lat="42.2081433" lon="14.5659167"><ele>46.0</ele><time>2026-04-29T12:10:00.894Z</time></trkpt><trkpt lat="42.2081333" lon="14.5660067"><ele>45.0</ele><time>2026-04-29T12:10:01.894Z</time></trkpt><trkpt lat="42.20812" lon="14.5660917"><ele>44.0</ele><time>2026-04-29T12:10:02.893Z</time></trkpt><trkpt lat="42.2081067" lon="14.56618"><ele>43.0</ele><time>2026-04-29T12:10:03.894Z</time></trkpt><trkpt lat="42.2080933" lon="14.5662683"><ele>42.0</ele><time>2026-04-29T12:10:04.893Z</time></trkpt><trkpt lat="42.2080817" lon="14.5663533"><ele>41.857142857142854</ele><time>2026-04-29T12:10:05.894Z</time></trkpt><trkpt lat="42.2080683" lon="14.5664383"><ele>41.714285714285715</ele><time>2026-04-29T12:10:06.894Z</time></trkpt><trkpt lat="42.2080517" lon="14.56653"><ele>41.57142857142857</ele><time>2026-04-29T12:10:07.894Z</time></trkpt><trkpt lat="42.2080333" lon="14.56662"><ele>41.42857142857143</ele><time>2026-04-29T12:10:08.894Z</time></trkpt><trkpt lat="42.208015" lon="14.5667117"><ele>41.285714285714285</ele><time>2026-04-29T12:10:09.893Z</time></trkpt><trkpt lat="42.207995" lon="14.5668"><ele>41.14285714285714</ele><time>2026-04-29T12:10:10.893Z</time></trkpt><trkpt lat="42.2079783" lon="14.56689"><ele>41.0</ele><time>2026-04-29T12:10:11.894Z</time></trkpt><trkpt lat="42.2079617" lon="14.56698"><ele>40.666666666666664</ele><time>2026-04-29T12:10:12.894Z</time></trkpt><trkpt lat="42.207945" lon="14.567065"><ele>40.33333333333333</ele><time>2026-04-29T12:10:13.894Z</time></trkpt><trkpt lat="42.20793" lon="14.567155"><ele>40.0</ele><time>2026-04-29T12:10:14.893Z</time></trkpt><trkpt lat="42.207915" lon="14.5672467"><ele>39.666666666666664</ele><time>2026-04-29T12:10:15.894Z</time></trkpt><trkpt lat="42.2078983" lon="14.567335"><ele>39.333333333333336</ele><time>2026-04-29T12:10:16.893Z</time></trkpt><trkpt lat="42.2078667" lon="14.567495"><ele>39.0</ele><time>2026-04-29T12:10:18.893Z</time></trkpt><trkpt lat="42.2078383" lon="14.5676383"><ele>39.0</ele><time>2026-04-29T12:10:20.893Z</time></trkpt><trkpt lat="42.2077767" lon="14.5677217"><ele>39.0</ele><time>2026-04-29T12:10:22.894Z</time></trkpt><trkpt lat="42.207685" lon="14.5677133"><ele>39.0</ele><time>2026-04-29T12:10:24.894Z</time></trkpt><trkpt lat="42.2075567" lon="14.5676667"><ele>39.0</ele><time>2026-04-29T12:10:26.893Z</time></trkpt><trkpt lat="42.2074783" lon="14.567645"><ele>39.0</ele><time>2026-04-29T12:10:27.893Z</time></trkpt><trkpt lat="42.2073967" lon="14.5676133"><ele>37.2</ele><time>2026-04-29T12:10:28.894Z</time></trkpt><trkpt lat="42.20731" lon="14.5675767"><ele>35.4</ele><time>2026-04-29T12:10:29.894Z</time></trkpt><trkpt lat="42.20722" lon="14.5675283"><ele>33.6</ele><time>2026-04-29T12:10:30.894Z</time></trkpt><trkpt lat="42.2071333" lon="14.5674617"><ele>31.8</ele><time>2026-04-29T12:10:31.893Z</time></trkpt><trkpt lat="42.2070517" lon="14.5673783"><ele>30.0</ele><time>2026-04-29T12:10:32.894Z</time></trkpt><trkpt lat="42.2069833" lon="14.5672917"><ele>30.0</ele><time>2026-04-29T12:10:33.893Z</time></trkpt><trkpt lat="42.2069183" lon="14.5672"><ele>30.0</ele><time>2026-04-29T12:10:34.893Z</time></trkpt><trkpt lat="42.2068517" lon="14.5671167"><ele>30.0</ele><time>2026-04-29T12:10:35.894Z</time></trkpt><trkpt lat="42.206795" lon="14.56703"><ele>30.0</ele><time>2026-04-29T12:10:36.893Z</time></trkpt><trkpt lat="42.2067317" lon="14.566945"><ele>30.0</ele><time>2026-04-29T12:10:37.894Z</time></trkpt><trkpt lat="42.2066717" lon="14.5668567"><ele>30.0</ele><time>2026-04-29T12:10:38.893Z</time></trkpt><trkpt lat="42.2066067" lon="14.5667733"><ele>30.4</ele><time>2026-04-29T12:10:39.893Z</time></trkpt><trkpt lat="42.206535" lon="14.5666917"><ele>30.8</ele><time>2026-04-29T12:10:40.894Z</time></trkpt><trkpt lat="42.2064683" lon="14.5666167"><ele>31.200000000000003</ele><time>2026-04-29T12:10:41.893Z</time></trkpt><trkpt lat="42.2063983" lon="14.5665383"><ele>31.6</ele><time>2026-04-29T12:10:42.894Z</time></trkpt><trkpt lat="42.20633" lon="14.566455"><ele>32.0</ele><time>2026-04-29T12:10:43.893Z</time></trkpt><trkpt lat="42.2062617" lon="14.5663667"><ele>30.8</ele><time>2026-04-29T12:10:44.893Z</time></trkpt><trkpt lat="42.206195" lon="14.5662833"><ele>29.6</ele><time>2026-04-29T12:10:45.893Z</time></trkpt><trkpt lat="42.2061267" lon="14.5662017"><ele>28.400000000000002</ele><time>2026-04-29T12:10:46.894Z</time></trkpt><trkpt lat="42.2060633" lon="14.56612"><ele>27.200000000000003</ele><time>2026-04-29T12:10:47.893Z</time></trkpt><trkpt lat="42.2059933" lon="14.5660333"><ele>26.0</ele><time>2026-04-29T12:10:48.894Z</time></trkpt><trkpt lat="42.2059183" lon="14.565955"><ele>26.0</ele><time>2026-04-29T12:10:49.894Z</time></trkpt><trkpt lat="42.2058417" lon="14.5658767"><ele>26.0</ele><time>2026-04-29T12:10:50.893Z</time></trkpt><trkpt lat="42.205765" lon="14.5658017"><ele>26.0</ele><time>2026-04-29T12:10:51.894Z</time></trkpt><trkpt lat="42.205695" lon="14.5657183"><ele>26.0</ele><time>2026-04-29T12:10:52.893Z</time></trkpt><trkpt lat="42.2056233" lon="14.5656283"><ele>26.0</ele><time>2026-04-29T12:10:53.894Z</time></trkpt><trkpt lat="42.2055567" lon="14.5655283"><ele>25.6</ele><time>2026-04-29T12:10:54.894Z</time></trkpt><trkpt lat="42.2054917" lon="14.5654267"><ele>25.200000000000003</ele><time>2026-04-29T12:10:55.894Z</time></trkpt><trkpt lat="42.2054283" lon="14.5653233"><ele>24.799999999999997</ele><time>2026-04-29T12:10:56.893Z</time></trkpt><trkpt lat="42.205375" lon="14.565225"><ele>24.4</ele><time>2026-04-29T12:10:57.894Z</time></trkpt><trkpt lat="42.2053233" lon="14.5651267"><ele>24.0</ele><time>2026-04-29T12:10:58.893Z</time></trkpt><trkpt lat="42.2052767" lon="14.5650267"><ele>24.0</ele><time>2026-04-29T12:10:59.894Z</time></trkpt><trkpt lat="42.2052233" lon="14.5649367"><ele>24.0</ele><time>2026-04-29T12:11:00.894Z</time></trkpt><trkpt lat="42.2051767" lon="14.5648517"><ele>24.0</ele><time>2026-04-29T12:11:01.894Z</time></trkpt><trkpt lat="42.2051283" lon="14.5647617"><ele>24.0</ele><time>2026-04-29T12:11:02.893Z</time></trkpt><trkpt lat="42.2050767" lon="14.5646667"><ele>24.0</ele><time>2026-04-29T12:11:03.894Z</time></trkpt><trkpt lat="42.20503" lon="14.5645817"><ele>24.0</ele><time>2026-04-29T12:11:04.894Z</time></trkpt><trkpt lat="42.2049833" lon="14.5645017"><ele>23.799999999999997</ele><time>2026-04-29T12:11:05.894Z</time></trkpt><trkpt lat="42.2049367" lon="14.5644317"><ele>23.599999999999998</ele><time>2026-04-29T12:11:06.894Z</time></trkpt><trkpt lat="42.2048933" lon="14.564365"><ele>23.4</ele><time>2026-04-29T12:11:07.894Z</time></trkpt><trkpt lat="42.20481" lon="14.56426"><ele>23.2</ele><time>2026-04-29T12:11:09.894Z</time></trkpt><trkpt lat="42.2047233" lon="14.5641617"><ele>23.0</ele><time>2026-04-29T12:11:11.894Z</time></trkpt><trkpt lat="42.2046367" lon="14.5640617"><ele>23.0</ele><time>2026-04-29T12:11:13.894Z</time></trkpt><trkpt lat="42.204565" lon="14.563965"><ele>23.0</ele><time>2026-04-29T12:11:15.894Z</time></trkpt><trkpt lat="42.2045033" lon="14.56387"><ele>23.0</ele><time>2026-04-29T12:11:17.894Z</time></trkpt><trkpt lat="42.2044517" lon="14.5637733"><ele>23.0</ele><time>2026-04-29T12:11:19.894Z</time></trkpt><trkpt lat="42.2043967" lon="14.5636833"><ele>23.0</ele><time>2026-04-29T12:11:21.894Z</time></trkpt><trkpt lat="42.20434" lon="14.5636033"><ele>22.833333333333336</ele><time>2026-04-29T12:11:23.894Z</time></trkpt><trkpt lat="42.2042883" lon="14.56353"><ele>22.666666666666668</ele><time>2026-04-29T12:11:25.893Z</time></trkpt><trkpt lat="42.2042367" lon="14.56345"><ele>22.5</ele><time>2026-04-29T12:11:27.894Z</time></trkpt><trkpt lat="42.2041817" lon="14.56339"><ele>22.333333333333332</ele><time>2026-04-29T12:11:29.894Z</time></trkpt><trkpt lat="42.20412" lon="14.56334"><ele>22.166666666666664</ele><time>2026-04-29T12:11:31.893Z</time></trkpt><trkpt lat="42.2040567" lon="14.5632817"><ele>22.0</ele><time>2026-04-29T12:11:33.893Z</time></trkpt><trkpt lat="42.2039967" lon="14.563215"><ele>22.333333333333332</ele><time>2026-04-29T12:11:35.894Z</time></trkpt><trkpt lat="42.2039317" lon="14.5631433"><ele>22.666666666666664</ele><time>2026-04-29T12:11:37.893Z</time></trkpt><trkpt lat="42.203865" lon="14.56308"><ele>23.0</ele><time>2026-04-29T12:11:39.894Z</time></trkpt><trkpt lat="42.2037983" lon="14.5630183"><ele>23.333333333333332</ele><time>2026-04-29T12:11:41.893Z</time></trkpt><trkpt lat="42.20374" lon="14.562965"><ele>23.666666666666668</ele><time>2026-04-29T12:11:43.894Z</time></trkpt><trkpt lat="42.20368" lon="14.5629067"><ele>24.0</ele><time>2026-04-29T12:11:45.894Z</time></trkpt><trkpt lat="42.2036067" lon="14.562845"><ele>23.999999999999996</ele><time>2026-04-29T12:11:47.893Z</time></trkpt><trkpt lat="42.20354" lon="14.5627833"><ele>24.0</ele><time>2026-04-29T12:11:49.894Z</time></trkpt><trkpt lat="42.2034833" lon="14.56272"><ele>24.0</ele><time>2026-04-29T12:11:51.894Z</time></trkpt><trkpt lat="42.2034217" lon="14.5626633"><ele>24.0</ele><time>2026-04-29T12:11:53.893Z</time></trkpt><trkpt lat="42.2033767" lon="14.5625967"><ele>24.0</ele><time>2026-04-29T12:11:55.894Z</time></trkpt><trkpt lat="42.20334" lon="14.56252"><ele>23.999999999999996</ele><time>2026-04-29T12:11:57.894Z</time></trkpt><trkpt lat="42.2033017" lon="14.5624367"><ele>24.0</ele><time>2026-04-29T12:11:59.893Z</time></trkpt><trkpt lat="42.2032667" lon="14.5623383"><ele>24.0</ele><time>2026-04-29T12:12:01.894Z</time></trkpt><trkpt lat="42.2032183" lon="14.5622317"><ele>24.0</ele><time>2026-04-29T12:12:03.894Z</time></trkpt><trkpt lat="42.2031717" lon="14.562115"><ele>24.0</ele><time>2026-04-29T12:12:05.893Z</time></trkpt><trkpt lat="42.20312" lon="14.562"><ele>24.0</ele><time>2026-04-29T12:12:07.894Z</time></trkpt><trkpt lat="42.2030533" lon="14.5618883"><ele>24.0</ele><time>2026-04-29T12:12:09.894Z</time></trkpt><trkpt lat="42.203005" lon="14.5617733"><ele>24.166666666666668</ele><time>2026-04-29T12:12:11.894Z</time></trkpt><trkpt lat="42.2029517" lon="14.5616733"><ele>24.333333333333336</ele><time>2026-04-29T12:12:13.894Z</time></trkpt><trkpt lat="42.2029017" lon="14.5615767"><ele>24.5</ele><time>2026-04-29T12:12:15.894Z</time></trkpt><trkpt lat="42.2028533" lon="14.5614767"><ele>24.666666666666668</ele><time>2026-04-29T12:12:17.894Z</time></trkpt><trkpt lat="42.2028133" lon="14.561375"><ele>24.833333333333336</ele><time>2026-04-29T12:12:19.893Z</time></trkpt><trkpt lat="42.2027567" lon="14.56128"><ele>25.0</ele><time>2026-04-29T12:12:21.894Z</time></trkpt><trkpt lat="42.2026883" lon="14.561195"><ele>25.0</ele><time>2026-04-29T12:12:23.894Z</time></trkpt><trkpt lat="42.2026067" lon="14.5611283"><ele>25.0</ele><time>2026-04-29T12:12:25.893Z</time></trkpt><trkpt lat="42.2025217" lon="14.5610817"><ele>25.0</ele><time>2026-04-29T12:12:27.894Z</time></trkpt><trkpt lat="42.20243" lon="14.5610533"><ele>25.0</ele><time>2026-04-29T12:12:29.894Z</time></trkpt><trkpt lat="42.202345" lon="14.5610167"><ele>25.0</ele><time>2026-04-29T12:12:31.894Z</time></trkpt><trkpt lat="42.20226" lon="14.5609783"><ele>25.4</ele><time>2026-04-29T12:12:33.894Z</time></trkpt><trkpt lat="42.2021733" lon="14.5609417"><ele>25.8</ele><time>2026-04-29T12:12:35.893Z</time></trkpt><trkpt lat="42.20208" lon="14.5609083"><ele>26.200000000000003</ele><time>2026-04-29T12:12:37.894Z</time></trkpt><trkpt lat="42.2020033" lon="14.5608733"><ele>26.6</ele><time>2026-04-29T12:12:39.893Z</time></trkpt><trkpt lat="42.2019133" lon="14.5608283"><ele>27.0</ele><time>2026-04-29T12:12:41.894Z</time></trkpt><trkpt lat="42.20183" lon="14.5607933"><ele>27.0</ele><time>2026-04-29T12:12:43.894Z</time></trkpt><trkpt lat="42.20175" lon="14.560755"><ele>27.0</ele><time>2026-04-29T12:12:45.893Z</time></trkpt><trkpt lat="42.20166" lon="14.5607167"><ele>27.0</ele><time>2026-04-29T12:12:47.894Z</time></trkpt><trkpt lat="42.2015683" lon="14.5606867"><ele>27.0</ele><time>2026-04-29T12:12:49.894Z</time></trkpt><trkpt lat="42.2014833" lon="14.560665"><ele>27.0</ele><time>2026-04-29T12:12:51.893Z</time></trkpt><trkpt lat="42.2014" lon="14.56066"><ele>27.0</ele><time>2026-04-29T12:12:53.894Z</time></trkpt><trkpt lat="42.201325" lon="14.5606967"><ele>27.666666666666668</ele><time>2026-04-29T12:12:55.893Z</time></trkpt><trkpt lat="42.2012867" lon="14.5607733"><ele>28.333333333333336</ele><time>2026-04-29T12:12:57.894Z</time></trkpt><trkpt lat="42.2012617" lon="14.56087"><ele>29.0</ele><time>2026-04-29T12:12:59.894Z</time></trkpt><trkpt lat="42.201245" lon="14.5609767"><ele>29.666666666666668</ele><time>2026-04-29T12:13:01.894Z</time></trkpt><trkpt lat="42.2012217" lon="14.56109"><ele>30.333333333333336</ele><time>2026-04-29T12:13:03.894Z</time></trkpt><trkpt lat="42.20121" lon="14.5612033"><ele>31.0</ele><time>2026-04-29T12:13:05.893Z</time></trkpt><trkpt lat="42.201195" lon="14.5613183"><ele>31.000000000000004</ele><time>2026-04-29T12:13:07.894Z</time></trkpt><trkpt lat="42.201195" lon="14.5614383"><ele>31.0</ele><time>2026-04-29T12:13:09.893Z</time></trkpt><trkpt lat="42.201195" lon="14.56156"><ele>31.0</ele><time>2026-04-29T12:13:11.893Z</time></trkpt><trkpt lat="42.2012" lon="14.561685"><ele>31.0</ele><time>2026-04-29T12:13:13.894Z</time></trkpt><trkpt lat="42.2012083" lon="14.5618083"><ele>31.000000000000004</ele><time>2026-04-29T12:13:15.894Z</time></trkpt><trkpt lat="42.2012183" lon="14.5619233"><ele>31.0</ele><time>2026-04-29T12:13:17.894Z</time></trkpt><trkpt lat="42.2012383" lon="14.5620283"><ele>31.166666666666668</ele><time>2026-04-29T12:13:19.894Z</time></trkpt><trkpt lat="42.20125" lon="14.5621433"><ele>31.333333333333336</ele><time>2026-04-29T12:13:21.894Z</time></trkpt><trkpt lat="42.20126" lon="14.5622583"><ele>31.5</ele><time>2026-04-29T12:13:23.894Z</time></trkpt><trkpt lat="42.2012583" lon="14.5623767"><ele>31.666666666666664</ele><time>2026-04-29T12:13:25.894Z</time></trkpt><trkpt lat="42.20126" lon="14.5624917"><ele>31.833333333333332</ele><time>2026-04-29T12:13:27.893Z</time></trkpt><trkpt lat="42.2012617" lon="14.5626167"><ele>32.0</ele><time>2026-04-29T12:13:29.893Z</time></trkpt><trkpt lat="42.2012633" lon="14.5627417"><ele>32.0</ele><time>2026-04-29T12:13:31.894Z</time></trkpt><trkpt lat="42.2012467" lon="14.5628633"><ele>32.0</ele><time>2026-04-29T12:13:33.893Z</time></trkpt><trkpt lat="42.2012133" lon="14.56299"><ele>32.0</ele><time>2026-04-29T12:13:35.894Z</time></trkpt><trkpt lat="42.20118" lon="14.563115"><ele>32.0</ele><time>2026-04-29T12:13:37.894Z</time></trkpt><trkpt lat="42.2011433" lon="14.5632283"><ele>32.0</ele><time>2026-04-29T12:13:39.894Z</time></trkpt><trkpt lat="42.201105" lon="14.56333"><ele>31.833333333333332</ele><time>2026-04-29T12:13:41.894Z</time></trkpt><trkpt lat="42.2010583" lon="14.5634333"><ele>31.666666666666664</ele><time>2026-04-29T12:13:43.894Z</time></trkpt><trkpt lat="42.2010167" lon="14.5635433"><ele>31.5</ele><time>2026-04-29T12:13:45.893Z</time></trkpt><trkpt lat="42.2009717" lon="14.5636517"><ele>31.333333333333336</ele><time>2026-04-29T12:13:47.893Z</time></trkpt><trkpt lat="42.2009333" lon="14.5637483"><ele>31.166666666666668</ele><time>2026-04-29T12:13:49.894Z</time></trkpt><trkpt lat="42.2008733" lon="14.56383"><ele>31.0</ele><time>2026-04-29T12:13:51.894Z</time></trkpt><trkpt lat="42.2008017" lon="14.5638917"><ele>31.166666666666668</ele><time>2026-04-29T12:13:53.894Z</time></trkpt><trkpt lat="42.2007267" lon="14.563945"><ele>31.333333333333336</ele><time>2026-04-29T12:13:55.894Z</time></trkpt><trkpt lat="42.2006517" lon="14.5640067"><ele>31.5</ele><time>2026-04-29T12:13:57.893Z</time></trkpt><trkpt lat="42.2005817" lon="14.5640733"><ele>31.666666666666664</ele><time>2026-04-29T12:13:59.894Z</time></trkpt><trkpt lat="42.2005083" lon="14.56415"><ele>31.833333333333332</ele><time>2026-04-29T12:14:01.893Z</time></trkpt><trkpt lat="42.2004567" lon="14.5642367"><ele>32.0</ele><time>2026-04-29T12:14:03.893Z</time></trkpt><trkpt lat="42.200415" lon="14.5643217"><ele>31.999999999999996</ele><time>2026-04-29T12:14:05.894Z</time></trkpt><trkpt lat="42.2003917" lon="14.56441"><ele>32.0</ele><time>2026-04-29T12:14:07.894Z</time></trkpt><trkpt lat="42.2003517" lon="14.564505"><ele>32.0</ele><time>2026-04-29T12:14:09.893Z</time></trkpt><trkpt lat="42.200305" lon="14.5646017"><ele>32.0</ele><time>2026-04-29T12:14:11.894Z</time></trkpt><trkpt lat="42.2002433" lon="14.5646717"><ele>31.999999999999996</ele><time>2026-04-29T12:14:13.893Z</time></trkpt><trkpt lat="42.20017" lon="14.5646967"><ele>32.0</ele><time>2026-04-29T12:14:15.894Z</time></trkpt><trkpt lat="42.2001" lon="14.564695"><ele>32.14285714285714</ele><time>2026-04-29T12:14:17.894Z</time></trkpt><trkpt lat="42.2000367" lon="14.56468"><ele>32.285714285714285</ele><time>2026-04-29T12:14:19.893Z</time></trkpt><trkpt lat="42.1999717" lon="14.564655"><ele>32.42857142857143</ele><time>2026-04-29T12:14:21.894Z</time></trkpt><trkpt lat="42.1999067" lon="14.5646233"><ele>32.57142857142857</ele><time>2026-04-29T12:14:23.894Z</time></trkpt><trkpt lat="42.1998417" lon="14.56459"><ele>32.714285714285715</ele><time>2026-04-29T12:14:25.894Z</time></trkpt><trkpt lat="42.19975" lon="14.5645367"><ele>32.857142857142854</ele><time>2026-04-29T12:14:28.894Z</time></trkpt><trkpt lat="42.1996883" lon="14.5644867"><ele>33.0</ele><time>2026-04-29T12:14:30.894Z</time></trkpt><trkpt lat="42.1996267" lon="14.56446"><ele>33.0</ele><time>2026-04-29T12:14:33.894Z</time></trkpt><trkpt lat="42.19955" lon="14.5644317"><ele>33.0</ele><time>2026-04-29T12:14:37.893Z</time></trkpt><trkpt lat="42.1994533" lon="14.5643933"><ele>33.0</ele><time>2026-04-29T12:14:39.894Z</time></trkpt><trkpt lat="42.19938" lon="14.5643283"><ele>33.0</ele><time>2026-04-29T12:14:41.894Z</time></trkpt><trkpt lat="42.1993517" lon="14.5642367"><ele>33.0</ele><time>2026-04-29T12:14:43.893Z</time></trkpt><trkpt lat="42.1993533" lon="14.5641217"><ele>33.0</ele><time>2026-04-29T12:14:46.893Z</time></trkpt><trkpt lat="42.19935" lon="14.5640117"><ele>33.0</ele><time>2026-04-29T12:14:49.893Z</time></trkpt><trkpt lat="42.19935" lon="14.5639067"><ele>33.0</ele><time>2026-04-29T12:14:52.894Z</time></trkpt><trkpt lat="42.199365" lon="14.5637833"><ele>33.0</ele><time>2026-04-29T12:14:55.894Z</time></trkpt><trkpt lat="42.1993817" lon="14.5636983"><ele>33.0</ele><time>2026-04-29T12:14:57.893Z</time></trkpt><trkpt lat="42.1994" lon="14.5636017"><ele>33.0</ele><time>2026-04-29T12:14:59.894Z</time></trkpt><trkpt lat="42.1994133" lon="14.5635033"><ele>33.0</ele><time>2026-04-29T12:15:01.893Z</time></trkpt><trkpt lat="42.1994233" lon="14.5633933"><ele>33.333333333333336</ele><time>2026-04-29T12:15:03.893Z</time></trkpt><trkpt lat="42.1994133" lon="14.5632967"><ele>33.666666666666664</ele><time>2026-04-29T12:15:05.893Z</time></trkpt><trkpt lat="42.1993933" lon="14.5631983"><ele>34.0</ele><time>2026-04-29T12:15:07.894Z</time></trkpt><trkpt lat="42.19937" lon="14.5630867"><ele>34.33333333333333</ele><time>2026-04-29T12:15:09.893Z</time></trkpt><trkpt lat="42.1993567" lon="14.562965"><ele>34.666666666666664</ele><time>2026-04-29T12:15:11.893Z</time></trkpt><trkpt lat="42.1993417" lon="14.5628417"><ele>35.0</ele><time>2026-04-29T12:15:13.894Z</time></trkpt><trkpt lat="42.1993067" lon="14.5627417"><ele>35.166666666666664</ele><time>2026-04-29T12:15:15.894Z</time></trkpt><trkpt lat="42.1992917" lon="14.5626583"><ele>35.33333333333333</ele><time>2026-04-29T12:15:17.894Z</time></trkpt><trkpt lat="42.1993267" lon="14.5625633"><ele>35.5</ele><time>2026-04-29T12:15:20.893Z</time></trkpt><trkpt lat="42.1993583" lon="14.5624417"><ele>35.666666666666664</ele><time>2026-04-29T12:15:23.894Z</time></trkpt><trkpt lat="42.1993783" lon="14.5623567"><ele>35.833333333333336</ele><time>2026-04-29T12:15:25.894Z</time></trkpt><trkpt lat="42.1994017" lon="14.562275"><ele>36.0</ele><time>2026-04-29T12:15:27.893Z</time></trkpt><trkpt lat="42.1994433" lon="14.5621617"><ele>36.0</ele><time>2026-04-29T12:15:30.894Z</time></trkpt><trkpt lat="42.1994683" lon="14.5620683"><ele>36.0</ele><time>2026-04-29T12:15:32.894Z</time></trkpt><trkpt lat="42.1995" lon="14.5619617"><ele>36.0</ele><time>2026-04-29T12:15:34.894Z</time></trkpt><trkpt lat="42.1995367" lon="14.5618517"><ele>36.0</ele><time>2026-04-29T12:15:36.894Z</time></trkpt><trkpt lat="42.199565" lon="14.56174"><ele>36.0</ele><time>2026-04-29T12:15:38.894Z</time></trkpt><trkpt lat="42.1995833" lon="14.56164"><ele>36.0</ele><time>2026-04-29T12:15:39.893Z</time></trkpt><trkpt lat="42.1995867" lon="14.56148"><ele>35.666666666666664</ele><time>2026-04-29T12:15:41.893Z</time></trkpt><trkpt lat="42.19955" lon="14.561365"><ele>35.333333333333336</ele><time>2026-04-29T12:15:43.894Z</time></trkpt><trkpt lat="42.199485" lon="14.5612733"><ele>35.0</ele><time>2026-04-29T12:15:45.893Z</time></trkpt><trkpt lat="42.1994133" lon="14.56119"><ele>34.66666666666667</ele><time>2026-04-29T12:15:47.894Z</time></trkpt><trkpt lat="42.1993467" lon="14.5611167"><ele>34.333333333333336</ele><time>2026-04-29T12:15:49.894Z</time></trkpt><trkpt lat="42.1992783" lon="14.5610583"><ele>34.0</ele><time>2026-04-29T12:15:51.893Z</time></trkpt><trkpt lat="42.19921" lon="14.560995"><ele>34.0</ele><time>2026-04-29T12:15:53.894Z</time></trkpt><trkpt lat="42.1991517" lon="14.5609367"><ele>34.0</ele><time>2026-04-29T12:15:55.893Z</time></trkpt><trkpt lat="42.199085" lon="14.5608717"><ele>34.0</ele><time>2026-04-29T12:15:57.894Z</time></trkpt><trkpt lat="42.1990183" lon="14.560805"><ele>34.0</ele><time>2026-04-29T12:15:59.893Z</time></trkpt><trkpt lat="42.198955" lon="14.5607383"><ele>34.0</ele><time>2026-04-29T12:16:01.894Z</time></trkpt><trkpt lat="42.198895" lon="14.5606667"><ele>34.0</ele><time>2026-04-29T12:16:03.893Z</time></trkpt><trkpt lat="42.1988367" lon="14.560595"><ele>34.0</ele><time>2026-04-29T12:16:05.894Z</time></trkpt><trkpt lat="42.1987733" lon="14.560515"><ele>34.0</ele><time>2026-04-29T12:16:07.893Z</time></trkpt><trkpt lat="42.198705" lon="14.5604433"><ele>34.0</ele><time>2026-04-29T12:16:09.894Z</time></trkpt><trkpt lat="42.1986367" lon="14.5603833"><ele>34.0</ele><time>2026-04-29T12:16:11.894Z</time></trkpt><trkpt lat="42.198575" lon="14.5603217"><ele>34.0</ele><time>2026-04-29T12:16:13.894Z</time></trkpt><trkpt lat="42.198515" lon="14.5602717"><ele>34.0</ele><time>2026-04-29T12:16:15.894Z</time></trkpt><trkpt lat="42.19844" lon="14.5602333"><ele>34.0</ele><time>2026-04-29T12:16:18.894Z</time></trkpt><trkpt lat="42.1983733" lon="14.5602867"><ele>34.0</ele><time>2026-04-29T12:16:21.894Z</time></trkpt><trkpt lat="42.1983317" lon="14.56037"><ele>34.0</ele><time>2026-04-29T12:16:24.894Z</time></trkpt><trkpt lat="42.1982817" lon="14.560465"><ele>34.0</ele><time>2026-04-29T12:16:27.893Z</time></trkpt><trkpt lat="42.19823" lon="14.56053"><ele>34.0</ele><time>2026-04-29T12:16:29.893Z</time></trkpt><trkpt lat="42.1981683" lon="14.5606167"><ele>34.0</ele><time>2026-04-29T12:16:31.893Z</time></trkpt><trkpt lat="42.19812" lon="14.5606967"><ele>34.5</ele><time>2026-04-29T12:16:33.894Z</time></trkpt><trkpt lat="42.198065" lon="14.5607783"><ele>35.0</ele><time>2026-04-29T12:16:35.894Z</time></trkpt><trkpt lat="42.198015" lon="14.560855"><ele>35.5</ele><time>2026-04-29T12:16:37.894Z</time></trkpt><trkpt lat="42.1979633" lon="14.5609267"><ele>36.0</ele><time>2026-04-29T12:16:39.893Z</time></trkpt><trkpt lat="42.1979067" lon="14.5610217"><ele>36.5</ele><time>2026-04-29T12:16:42.893Z</time></trkpt><trkpt lat="42.1978517" lon="14.5611117"><ele>37.0</ele><time>2026-04-29T12:16:45.894Z</time></trkpt><trkpt lat="42.197795" lon="14.5612033"><ele>37.833333333333336</ele><time>2026-04-29T12:16:48.893Z</time></trkpt><trkpt lat="42.1977417" lon="14.5612967"><ele>38.66666666666667</ele><time>2026-04-29T12:16:51.894Z</time></trkpt><trkpt lat="42.1976833" lon="14.5613883"><ele>39.5</ele><time>2026-04-29T12:16:54.894Z</time></trkpt><trkpt lat="42.197615" lon="14.5614617"><ele>40.333333333333336</ele><time>2026-04-29T12:16:57.894Z</time></trkpt><trkpt lat="42.19756" lon="14.5615667"><ele>41.166666666666664</ele><time>2026-04-29T12:17:18.894Z</time></trkpt><trkpt lat="42.1975033" lon="14.5616317"><ele>42.0</ele><time>2026-04-29T12:17:21.894Z</time></trkpt><trkpt lat="42.1974533" lon="14.5616867"><ele>42.0</ele><time>2026-04-29T12:17:24.893Z</time></trkpt><trkpt lat="42.1973967" lon="14.5617683"><ele>42.0</ele><time>2026-04-29T12:17:28.894Z</time></trkpt><trkpt lat="42.1973417" lon="14.56184"><ele>42.0</ele><time>2026-04-29T12:17:31.894Z</time></trkpt><trkpt lat="42.1972867" lon="14.5619067"><ele>42.0</ele><time>2026-04-29T12:17:34.893Z</time></trkpt><trkpt lat="42.19723" lon="14.5619767"><ele>42.0</ele><time>2026-04-29T12:17:37.893Z</time></trkpt><trkpt lat="42.1971783" lon="14.5620467"><ele>42.0</ele><time>2026-04-29T12:17:40.893Z</time></trkpt><trkpt lat="42.1971117" lon="14.5621133"><ele>43.42857142857143</ele><time>2026-04-29T12:17:43.893Z</time></trkpt><trkpt lat="42.1970583" lon="14.5621833"><ele>44.85714285714286</ele><time>2026-04-29T12:17:46.894Z</time></trkpt><trkpt lat="42.1970017" lon="14.5622433"><ele>46.285714285714285</ele><time>2026-04-29T12:17:49.893Z</time></trkpt><trkpt lat="42.19694" lon="14.562295"><ele>47.714285714285715</ele><time>2026-04-29T12:17:52.893Z</time></trkpt><trkpt lat="42.1968817" lon="14.562335"><ele>49.142857142857146</ele><time>2026-04-29T12:17:55.894Z</time></trkpt><trkpt lat="42.1968117" lon="14.5623817"><ele>50.57142857142857</ele><time>2026-04-29T12:17:59.893Z</time></trkpt><trkpt lat="42.1967483" lon="14.5624317"><ele>52.0</ele><time>2026-04-29T12:18:02.893Z</time></trkpt><trkpt lat="42.196685" lon="14.5624683"><ele>52.0</ele><time>2026-04-29T12:18:05.894Z</time></trkpt><trkpt lat="42.19662" lon="14.5625317"><ele>52.0</ele><time>2026-04-29T12:18:08.893Z</time></trkpt><trkpt lat="42.196565" lon="14.5626"><ele>52.0</ele><time>2026-04-29T12:18:11.894Z</time></trkpt><trkpt lat="42.1965117" lon="14.5626633"><ele>52.0</ele><time>2026-04-29T12:18:14.894Z</time></trkpt><trkpt lat="42.1964567" lon="14.562725"><ele>52.0</ele><time>2026-04-29T12:18:17.894Z</time></trkpt><trkpt lat="42.1964083" lon="14.562795"><ele>52.0</ele><time>2026-04-29T12:18:20.894Z</time></trkpt><trkpt lat="42.1963683" lon="14.5628717"><ele>52.0</ele><time>2026-04-29T12:18:23.894Z</time></trkpt><trkpt lat="42.1963283" lon="14.5629517"><ele>52.71428571428571</ele><time>2026-04-29T12:18:26.894Z</time></trkpt><trkpt lat="42.19629" lon="14.563025"><ele>53.42857142857143</ele><time>2026-04-29T12:18:29.893Z</time></trkpt><trkpt lat="42.196255" lon="14.5631133"><ele>54.14285714285714</ele><time>2026-04-29T12:18:33.894Z</time></trkpt><trkpt lat="42.1962183" lon="14.5631917"><ele>54.857142857142854</ele><time>2026-04-29T12:18:37.894Z</time></trkpt><trkpt lat="42.1961733" lon="14.5632767"><ele>55.57142857142857</ele><time>2026-04-29T12:18:41.894Z</time></trkpt><trkpt lat="42.196135" lon="14.563365"><ele>56.285714285714285</ele><time>2026-04-29T12:18:45.894Z</time></trkpt><trkpt lat="42.1960983" lon="14.563445"><ele>57.0</ele><time>2026-04-29T12:18:49.893Z</time></trkpt><trkpt lat="42.19607" lon="14.5635233"><ele>57.0</ele><time>2026-04-29T12:18:53.893Z</time></trkpt><trkpt lat="42.1960433" lon="14.563615"><ele>56.99999999999999</ele><time>2026-04-29T12:18:57.894Z</time></trkpt><trkpt lat="42.196015" lon="14.5637183"><ele>57.0</ele><time>2026-04-29T12:19:01.894Z</time></trkpt><trkpt lat="42.1959883" lon="14.5638217"><ele>57.0</ele><time>2026-04-29T12:19:05.894Z</time></trkpt><trkpt lat="42.19596" lon="14.5639"><ele>56.99999999999999</ele><time>2026-04-29T12:19:08.893Z</time></trkpt><trkpt lat="42.1959267" lon="14.56398"><ele>57.0</ele><time>2026-04-29T12:19:11.894Z</time></trkpt><trkpt lat="42.195905" lon="14.5640683"><ele>57.0</ele><time>2026-04-29T12:19:14.893Z</time></trkpt><trkpt lat="42.1958767" lon="14.564145"><ele>59.0</ele><time>2026-04-29T12:19:17.893Z</time></trkpt><trkpt lat="42.19584" lon="14.56422"><ele>60.99999999999999</ele><time>2026-04-29T12:19:20.894Z</time></trkpt><trkpt lat="42.19581" lon="14.5643"><ele>63.0</ele><time>2026-04-29T12:19:23.894Z</time></trkpt><trkpt lat="42.1957533" lon="14.5643817"><ele>65.0</ele><time>2026-04-29T12:19:27.893Z</time></trkpt><trkpt lat="42.19571" lon="14.5644617"><ele>67.0</ele><time>2026-04-29T12:19:31.893Z</time></trkpt><trkpt lat="42.1956767" lon="14.5645467"><ele>69.0</ele><time>2026-04-29T12:19:35.894Z</time></trkpt><trkpt lat="42.1956117" lon="14.564615"><ele>71.0</ele><time>2026-04-29T12:19:39.894Z</time></trkpt><trkpt lat="42.195575" lon="14.564685"><ele>71.57142857142857</ele><time>2026-04-29T12:19:43.893Z</time></trkpt><trkpt lat="42.19555" lon="14.5647667"><ele>72.14285714285714</ele><time>2026-04-29T12:19:46.894Z</time></trkpt><trkpt lat="42.1955083" lon="14.5648517"><ele>72.71428571428571</ele><time>2026-04-29T12:19:49.894Z</time></trkpt><trkpt lat="42.1954617" lon="14.56493"><ele>73.28571428571428</ele><time>2026-04-29T12:19:52.893Z</time></trkpt><trkpt lat="42.19542" lon="14.5650267"><ele>73.85714285714286</ele><time>2026-04-29T12:19:55.894Z</time></trkpt><trkpt lat="42.1953833" lon="14.5650967"><ele>74.42857142857142</ele><time>2026-04-29T12:19:57.893Z</time></trkpt><trkpt lat="42.1953467" lon="14.56518"><ele>75.0</ele><time>2026-04-29T12:19:59.893Z</time></trkpt><trkpt lat="42.1952917" lon="14.5652917"><ele>76.6</ele><time>2026-04-29T12:20:01.894Z</time></trkpt><trkpt lat="42.1952383" lon="14.5653983"><ele>78.2</ele><time>2026-04-29T12:20:03.894Z</time></trkpt><trkpt lat="42.1951783" lon="14.5654967"><ele>79.80000000000001</ele><time>2026-04-29T12:20:05.894Z</time></trkpt><trkpt lat="42.1951317" lon="14.5656117"><ele>81.4</ele><time>2026-04-29T12:20:07.894Z</time></trkpt><trkpt lat="42.1950883" lon="14.5657"><ele>83.0</ele><time>2026-04-29T12:20:09.894Z</time></trkpt><trkpt lat="42.19505" lon="14.5658067"><ele>83.0</ele><time>2026-04-29T12:20:12.894Z</time></trkpt><trkpt lat="42.19501" lon="14.565895"><ele>83.0</ele><time>2026-04-29T12:20:15.894Z</time></trkpt><trkpt lat="42.1949767" lon="14.5659733"><ele>83.0</ele><time>2026-04-29T12:20:17.893Z</time></trkpt><trkpt lat="42.1949433" lon="14.5660567"><ele>83.0</ele><time>2026-04-29T12:20:19.893Z</time></trkpt><trkpt lat="42.1949083" lon="14.566135"><ele>83.0</ele><time>2026-04-29T12:20:21.893Z</time></trkpt><trkpt lat="42.19486" lon="14.5662417"><ele>83.0</ele><time>2026-04-29T12:20:24.894Z</time></trkpt><trkpt lat="42.194825" lon="14.5663317"><ele>83.0</ele><time>2026-04-29T12:20:26.894Z</time></trkpt><trkpt lat="42.1947933" lon="14.566445"><ele>87.2</ele><time>2026-04-29T12:20:28.894Z</time></trkpt><trkpt lat="42.194745" lon="14.5665967"><ele>91.4</ele><time>2026-04-29T12:20:30.894Z</time></trkpt><trkpt lat="42.1947083" lon="14.56674"><ele>95.60000000000001</ele><time>2026-04-29T12:20:32.894Z</time></trkpt><trkpt lat="42.1946783" lon="14.56682"><ele>99.80000000000001</ele><time>2026-04-29T12:20:34.894Z</time></trkpt><trkpt lat="42.1946333" lon="14.56688"><ele>104.0</ele><time>2026-04-29T12:20:37.894Z</time></trkpt><trkpt lat="42.1946133" lon="14.5670067"><ele>103.83333333333333</ele><time>2026-04-29T12:20:41.893Z</time></trkpt><trkpt lat="42.1946" lon="14.5671217"><ele>103.66666666666666</ele><time>2026-04-29T12:20:44.893Z</time></trkpt><trkpt lat="42.1945767" lon="14.5672367"><ele>103.5</ele><time>2026-04-29T12:20:46.894Z</time></trkpt><trkpt lat="42.1945183" lon="14.5673133"><ele>103.33333333333334</ele><time>2026-04-29T12:20:48.893Z</time></trkpt><trkpt lat="42.194485" lon="14.5674067"><ele>103.16666666666667</ele><time>2026-04-29T12:20:50.893Z</time></trkpt><trkpt lat="42.1944467" lon="14.5675267"><ele>103.0</ele><time>2026-04-29T12:20:53.894Z</time></trkpt><trkpt lat="42.1944033" lon="14.5675917"><ele>103.00000000000001</ele><time>2026-04-29T12:20:55.894Z</time></trkpt><trkpt lat="42.1943417" lon="14.5676617"><ele>103.0</ele><time>2026-04-29T12:20:58.894Z</time></trkpt><trkpt lat="42.19429" lon="14.5677233"><ele>103.0</ele><time>2026-04-29T12:21:00.894Z</time></trkpt><trkpt lat="42.1942183" lon="14.5678067"><ele>103.0</ele><time>2026-04-29T12:21:02.894Z</time></trkpt><trkpt lat="42.19415" lon="14.567875"><ele>103.00000000000001</ele><time>2026-04-29T12:21:05.894Z</time></trkpt><trkpt lat="42.1940967" lon="14.5679483"><ele>103.0</ele><time>2026-04-29T12:21:07.894Z</time></trkpt><trkpt lat="42.194055" lon="14.5680417"><ele>103.14285714285714</ele><time>2026-04-29T12:21:09.894Z</time></trkpt><trkpt lat="42.19403" lon="14.56812"><ele>103.28571428571428</ele><time>2026-04-29T12:21:11.894Z</time></trkpt><trkpt lat="42.19399" lon="14.5682183"><ele>103.42857142857142</ele><time>2026-04-29T12:21:14.893Z</time></trkpt><trkpt lat="42.1939633" lon="14.5683183"><ele>103.57142857142857</ele><time>2026-04-29T12:21:17.894Z</time></trkpt><trkpt lat="42.1939367" lon="14.5684067"><ele>103.71428571428572</ele><time>2026-04-29T12:21:20.893Z</time></trkpt><trkpt lat="42.1938717" lon="14.5684483"><ele>103.85714285714285</ele><time>2026-04-29T12:21:23.894Z</time></trkpt><trkpt lat="42.19381" lon="14.5685133"><ele>104.0</ele><time>2026-04-29T12:21:26.893Z</time></trkpt><trkpt lat="42.1937567" lon="14.5685633"><ele>105.33333333333333</ele><time>2026-04-29T12:21:29.894Z</time></trkpt><trkpt lat="42.1936917" lon="14.56861"><ele>106.66666666666666</ele><time>2026-04-29T12:21:32.894Z</time></trkpt><trkpt lat="42.1936367" lon="14.5686633"><ele>108.0</ele><time>2026-04-29T12:21:34.894Z</time></trkpt><trkpt lat="42.1935667" lon="14.5687117"><ele>109.33333333333334</ele><time>2026-04-29T12:21:37.893Z</time></trkpt><trkpt lat="42.1935183" lon="14.5687933"><ele>110.66666666666667</ele><time>2026-04-29T12:21:39.893Z</time></trkpt><trkpt lat="42.1934683" lon="14.56887"><ele>112.0</ele><time>2026-04-29T12:21:41.893Z</time></trkpt><trkpt lat="42.1933983" lon="14.5689317"><ele>112.0</ele><time>2026-04-29T12:21:43.892Z</time></trkpt><trkpt lat="42.1933133" lon="14.569"><ele>111.99999999999999</ele><time>2026-04-29T12:21:45.892Z</time></trkpt><trkpt lat="42.1932267" lon="14.56905"><ele>111.99999999999999</ele><time>2026-04-29T12:21:47.893Z</time></trkpt><trkpt lat="42.1931267" lon="14.5690733"><ele>112.0</ele><time>2026-04-29T12:21:49.892Z</time></trkpt><trkpt lat="42.1930283" lon="14.5690917"><ele>112.0</ele><time>2026-04-29T12:21:52.893Z</time></trkpt><trkpt lat="42.192955" lon="14.5690983"><ele>112.50000000000001</ele><time>2026-04-29T12:21:54.893Z</time></trkpt><trkpt lat="42.1928733" lon="14.5690967"><ele>113.0</ele><time>2026-04-29T12:21:56.892Z</time></trkpt><trkpt lat="42.192795" lon="14.5691117"><ele>113.5</ele><time>2026-04-29T12:21:59.893Z</time></trkpt><trkpt lat="42.1927383" lon="14.5691583"><ele>114.0</ele><time>2026-04-29T12:22:03.892Z</time></trkpt><trkpt lat="42.1926667" lon="14.56922"><ele>114.50000000000001</ele><time>2026-04-29T12:22:06.893Z</time></trkpt><trkpt lat="42.19259" lon="14.5692617"><ele>115.0</ele><time>2026-04-29T12:22:08.893Z</time></trkpt><trkpt lat="42.19251" lon="14.5692917"><ele>115.00000000000001</ele><time>2026-04-29T12:22:10.892Z</time></trkpt><trkpt lat="42.19241" lon="14.56932"><ele>115.0</ele><time>2026-04-29T12:22:12.893Z</time></trkpt><trkpt lat="42.1923183" lon="14.5693417"><ele>115.0</ele><time>2026-04-29T12:22:14.893Z</time></trkpt><trkpt lat="42.19224" lon="14.5693683"><ele>115.0</ele><time>2026-04-29T12:22:16.893Z</time></trkpt><trkpt lat="42.1921617" lon="14.5693983"><ele>115.00000000000001</ele><time>2026-04-29T12:22:18.892Z</time></trkpt><trkpt lat="42.19208" lon="14.5694033"><ele>115.0</ele><time>2026-04-29T12:22:20.893Z</time></trkpt><trkpt lat="42.1920117" lon="14.5694133"><ele>116.00000000000001</ele><time>2026-04-29T12:22:22.892Z</time></trkpt><trkpt lat="42.19192" lon="14.569425"><ele>117.0</ele><time>2026-04-29T12:22:25.892Z</time></trkpt><trkpt lat="42.19183" lon="14.5694217"><ele>118.0</ele><time>2026-04-29T12:22:28.893Z</time></trkpt><trkpt lat="42.1917417" lon="14.569405"><ele>119.0</ele><time>2026-04-29T12:22:31.893Z</time></trkpt><trkpt lat="42.1916783" lon="14.5693883"><ele>120.00000000000001</ele><time>2026-04-29T12:22:33.893Z</time></trkpt><trkpt lat="42.19159" lon="14.56935"><ele>121.0</ele><time>2026-04-29T12:22:36.893Z</time></trkpt><trkpt lat="42.1915283" lon="14.56933"><ele>121.50000000000001</ele><time>2026-04-29T12:22:38.892Z</time></trkpt><trkpt lat="42.191465" lon="14.5693117"><ele>122.0</ele><time>2026-04-29T12:22:40.893Z</time></trkpt><trkpt lat="42.1913967" lon="14.569305"><ele>122.5</ele><time>2026-04-29T12:22:42.892Z</time></trkpt><trkpt lat="42.1913317" lon="14.5692983"><ele>123.0</ele><time>2026-04-29T12:22:44.893Z</time></trkpt><trkpt lat="42.1912383" lon="14.569305"><ele>123.50000000000001</ele><time>2026-04-29T12:22:47.893Z</time></trkpt><trkpt lat="42.19115" lon="14.5693183"><ele>124.0</ele><time>2026-04-29T12:22:50.893Z</time></trkpt><trkpt lat="42.1910767" lon="14.5693133"><ele>124.00000000000001</ele><time>2026-04-29T12:22:52.893Z</time></trkpt><trkpt lat="42.1910067" lon="14.569305"><ele>124.0</ele><time>2026-04-29T12:22:54.893Z</time></trkpt><trkpt lat="42.1909367" lon="14.5692967"><ele>124.0</ele><time>2026-04-29T12:22:56.892Z</time></trkpt><trkpt lat="42.1908517" lon="14.569265"><ele>124.0</ele><time>2026-04-29T12:22:59.893Z</time></trkpt><trkpt lat="42.190775" lon="14.5692417"><ele>124.00000000000001</ele><time>2026-04-29T12:23:02.893Z</time></trkpt><trkpt lat="42.1906933" lon="14.5692317"><ele>124.0</ele><time>2026-04-29T12:23:05.892Z</time></trkpt><trkpt lat="42.1906083" lon="14.5692383"><ele>124.83333333333334</ele><time>2026-04-29T12:23:08.892Z</time></trkpt><trkpt lat="42.1905333" lon="14.56927"><ele>125.66666666666667</ele><time>2026-04-29T12:23:11.892Z</time></trkpt><trkpt lat="42.1904617" lon="14.5692933"><ele>126.5</ele><time>2026-04-29T12:23:14.893Z</time></trkpt><trkpt lat="42.190375" lon="14.5693333"><ele>127.33333333333334</ele><time>2026-04-29T12:23:17.893Z</time></trkpt><trkpt lat="42.190315" lon="14.56938"><ele>128.16666666666666</ele><time>2026-04-29T12:23:20.893Z</time></trkpt><trkpt lat="42.1902483" lon="14.5694283"><ele>129.0</ele><time>2026-04-29T12:23:23.893Z</time></trkpt><trkpt lat="42.19017" lon="14.5694767"><ele>129.0</ele><time>2026-04-29T12:23:26.892Z</time></trkpt><trkpt lat="42.1900867" lon="14.5695317"><ele>129.0</ele><time>2026-04-29T12:23:29.892Z</time></trkpt><trkpt lat="42.1900183" lon="14.5695967"><ele>129.0</ele><time>2026-04-29T12:23:32.893Z</time></trkpt><trkpt lat="42.1899567" lon="14.5696367"><ele>129.0</ele><time>2026-04-29T12:23:35.893Z</time></trkpt><trkpt lat="42.18989" lon="14.56969"><ele>129.0</ele><time>2026-04-29T12:23:38.892Z</time></trkpt><trkpt lat="42.18981" lon="14.5697633"><ele>129.0</ele><time>2026-04-29T12:23:41.893Z</time></trkpt><trkpt lat="42.18975" lon="14.5698167"><ele>129.28571428571428</ele><time>2026-04-29T12:23:43.893Z</time></trkpt><trkpt lat="42.1896917" lon="14.569885"><ele>129.57142857142856</ele><time>2026-04-29T12:23:45.893Z</time></trkpt><trkpt lat="42.189635" lon="14.5699317"><ele>129.85714285714286</ele><time>2026-04-29T12:23:47.892Z</time></trkpt><trkpt lat="42.1895767" lon="14.5699933"><ele>130.14285714285714</ele><time>2026-04-29T12:23:50.892Z</time></trkpt><trkpt lat="42.1895383" lon="14.5700667"><ele>130.42857142857144</ele><time>2026-04-29T12:23:52.893Z</time></trkpt><trkpt lat="42.1894817" lon="14.5701283"><ele>130.71428571428572</ele><time>2026-04-29T12:23:54.892Z</time></trkpt><trkpt lat="42.189425" lon="14.5701683"><ele>131.0</ele><time>2026-04-29T12:23:56.893Z</time></trkpt><trkpt lat="42.1893517" lon="14.5701567"><ele>131.0</ele><time>2026-04-29T12:23:59.893Z</time></trkpt><trkpt lat="42.1892817" lon="14.57008"><ele>131.0</ele><time>2026-04-29T12:24:02.893Z</time></trkpt><trkpt lat="42.1892267" lon="14.5700267"><ele>131.0</ele><time>2026-04-29T12:24:04.893Z</time></trkpt><trkpt lat="42.1891783" lon="14.5699683"><ele>131.0</ele><time>2026-04-29T12:24:06.892Z</time></trkpt><trkpt lat="42.1891067" lon="14.5698933"><ele>131.0</ele><time>2026-04-29T12:24:09.893Z</time></trkpt><trkpt lat="42.1890533" lon="14.5698367"><ele>131.0</ele><time>2026-04-29T12:24:11.893Z</time></trkpt><trkpt lat="42.189" lon="14.5697783"><ele>131.14285714285714</ele><time>2026-04-29T12:24:13.892Z</time></trkpt><trkpt lat="42.1889483" lon="14.5697233"><ele>131.2857142857143</ele><time>2026-04-29T12:24:15.893Z</time></trkpt><trkpt lat="42.1888867" lon="14.56968"><ele>131.42857142857144</ele><time>2026-04-29T12:24:17.892Z</time></trkpt><trkpt lat="42.188825" lon="14.5696383"><ele>131.57142857142858</ele><time>2026-04-29T12:24:19.892Z</time></trkpt><trkpt lat="42.188745" lon="14.56959"><ele>131.71428571428572</ele><time>2026-04-29T12:24:22.893Z</time></trkpt><trkpt lat="42.18869" lon="14.5695433"><ele>131.85714285714286</ele><time>2026-04-29T12:24:24.893Z</time></trkpt><trkpt lat="42.18863" lon="14.5695033"><ele>132.0</ele><time>2026-04-29T12:24:26.892Z</time></trkpt><trkpt lat="42.188565" lon="14.5694617"><ele>132.28571428571428</ele><time>2026-04-29T12:24:28.893Z</time></trkpt><trkpt lat="42.1885" lon="14.5694233"><ele>132.57142857142858</ele><time>2026-04-29T12:24:30.893Z</time></trkpt><trkpt lat="42.18843" lon="14.5693917"><ele>132.85714285714286</ele><time>2026-04-29T12:24:32.892Z</time></trkpt><trkpt lat="42.1883717" lon="14.5693517"><ele>133.14285714285714</ele><time>2026-04-29T12:24:34.892Z</time></trkpt><trkpt lat="42.18829" lon="14.5692967"><ele>133.42857142857142</ele><time>2026-04-29T12:24:37.893Z</time></trkpt><trkpt lat="42.1882317" lon="14.5692517"><ele>133.71428571428572</ele><time>2026-04-29T12:24:39.893Z</time></trkpt><trkpt lat="42.1881683" lon="14.5692233"><ele>134.0</ele><time>2026-04-29T12:24:41.893Z</time></trkpt><trkpt lat="42.1880917" lon="14.5691683"><ele>134.42857142857144</ele><time>2026-04-29T12:24:44.892Z</time></trkpt><trkpt lat="42.18801" lon="14.5691267"><ele>134.85714285714286</ele><time>2026-04-29T12:24:47.893Z</time></trkpt><trkpt lat="42.187945" lon="14.5690917"><ele>135.28571428571428</ele><time>2026-04-29T12:24:49.892Z</time></trkpt><trkpt lat="42.187885" lon="14.5690567"><ele>135.71428571428572</ele><time>2026-04-29T12:24:51.892Z</time></trkpt><trkpt lat="42.1878267" lon="14.5690233"><ele>136.14285714285714</ele><time>2026-04-29T12:24:53.893Z</time></trkpt><trkpt lat="42.1877617" lon="14.5689867"><ele>136.57142857142858</ele><time>2026-04-29T12:24:55.893Z</time></trkpt><trkpt lat="42.1877" lon="14.5689567"><ele>137.0</ele><time>2026-04-29T12:24:57.893Z</time></trkpt><trkpt lat="42.1876067" lon="14.5689217"><ele>137.0</ele><time>2026-04-29T12:25:00.893Z</time></trkpt><trkpt lat="42.1875383" lon="14.5688983"><ele>137.0</ele><time>2026-04-29T12:25:02.893Z</time></trkpt><trkpt lat="42.1874783" lon="14.5688717"><ele>137.0</ele><time>2026-04-29T12:25:04.893Z</time></trkpt><trkpt lat="42.1873933" lon="14.568835"><ele>137.0</ele><time>2026-04-29T12:25:07.892Z</time></trkpt><trkpt lat="42.1873067" lon="14.5688017"><ele>137.0</ele><time>2026-04-29T12:25:10.893Z</time></trkpt><trkpt lat="42.1872217" lon="14.56877"><ele>137.0</ele><time>2026-04-29T12:25:13.893Z</time></trkpt><trkpt lat="42.187135" lon="14.5687317"><ele>137.5</ele><time>2026-04-29T12:25:16.893Z</time></trkpt><trkpt lat="42.1870533" lon="14.5686967"><ele>138.0</ele><time>2026-04-29T12:25:19.893Z</time></trkpt><trkpt lat="42.1869683" lon="14.56867"><ele>138.5</ele><time>2026-04-29T12:25:22.892Z</time></trkpt><trkpt lat="42.1868867" lon="14.56864"><ele>139.0</ele><time>2026-04-29T12:25:25.893Z</time></trkpt><trkpt lat="42.1868117" lon="14.5686167"><ele>139.5</ele><time>2026-04-29T12:25:28.893Z</time></trkpt><trkpt lat="42.1867283" lon="14.5685933"><ele>140.0</ele><time>2026-04-29T12:25:31.892Z</time></trkpt><trkpt lat="42.1866467" lon="14.568565"><ele>140.33333333333331</ele><time>2026-04-29T12:25:34.893Z</time></trkpt><trkpt lat="42.1865667" lon="14.5685317"><ele>140.66666666666666</ele><time>2026-04-29T12:25:37.892Z</time></trkpt><trkpt lat="42.186505" lon="14.56851"><ele>141.0</ele><time>2026-04-29T12:25:39.892Z</time></trkpt><trkpt lat="42.1864217" lon="14.5684883"><ele>141.33333333333334</ele><time>2026-04-29T12:25:42.893Z</time></trkpt><trkpt lat="42.1863333" lon="14.5684733"><ele>141.66666666666669</ele><time>2026-04-29T12:25:45.893Z</time></trkpt><trkpt lat="42.186255" lon="14.56845"><ele>142.0</ele><time>2026-04-29T12:25:48.893Z</time></trkpt><trkpt lat="42.1861883" lon="14.56843"><ele>142.66666666666669</ele><time>2026-04-29T12:25:51.893Z</time></trkpt><trkpt lat="42.186105" lon="14.5684083"><ele>143.33333333333334</ele><time>2026-04-29T12:25:54.892Z</time></trkpt><trkpt lat="42.18603" lon="14.56839"><ele>144.0</ele><time>2026-04-29T12:25:57.893Z</time></trkpt><trkpt lat="42.1859567" lon="14.5683733"><ele>144.66666666666666</ele><time>2026-04-29T12:26:00.893Z</time></trkpt><trkpt lat="42.1858733" lon="14.56835"><ele>145.33333333333331</ele><time>2026-04-29T12:26:03.892Z</time></trkpt><trkpt lat="42.1857883" lon="14.5683167"><ele>146.0</ele><time>2026-04-29T12:26:06.893Z</time></trkpt><trkpt lat="42.1857033" lon="14.5682883"><ele>146.5</ele><time>2026-04-29T12:26:09.893Z</time></trkpt><trkpt lat="42.1856183" lon="14.5682667"><ele>147.0</ele><time>2026-04-29T12:26:12.892Z</time></trkpt><trkpt lat="42.18554" lon="14.56824"><ele>147.5</ele><time>2026-04-29T12:26:15.893Z</time></trkpt><trkpt lat="42.1854567" lon="14.5682117"><ele>148.0</ele><time>2026-04-29T12:26:18.893Z</time></trkpt><trkpt lat="42.18537" lon="14.56817"><ele>148.5</ele><time>2026-04-29T12:26:21.893Z</time></trkpt><trkpt lat="42.1852833" lon="14.5681383"><ele>149.0</ele><time>2026-04-29T12:26:24.893Z</time></trkpt><trkpt lat="42.18521" lon="14.5681367"><ele>149.0</ele><time>2026-04-29T12:26:26.892Z</time></trkpt><trkpt lat="42.18515" lon="14.5681733"><ele>149.0</ele><time>2026-04-29T12:26:28.893Z</time></trkpt><trkpt lat="42.185085" lon="14.5682317"><ele>149.0</ele><time>2026-04-29T12:26:31.893Z</time></trkpt><trkpt lat="42.1850133" lon="14.5683017"><ele>149.0</ele><time>2026-04-29T12:26:34.893Z</time></trkpt><trkpt lat="42.1849417" lon="14.5683583"><ele>149.0</ele><time>2026-04-29T12:26:37.892Z</time></trkpt><trkpt lat="42.1848717" lon="14.5684017"><ele>149.0</ele><time>2026-04-29T12:26:40.893Z</time></trkpt><trkpt lat="42.1847933" lon="14.5684383"><ele>148.83333333333331</ele><time>2026-04-29T12:26:43.892Z</time></trkpt><trkpt lat="42.184725" lon="14.5685017"><ele>148.66666666666666</ele><time>2026-04-29T12:26:46.893Z</time></trkpt><trkpt lat="42.184665" lon="14.56856"><ele>148.5</ele><time>2026-04-29T12:26:48.892Z</time></trkpt><trkpt lat="42.1846117" lon="14.5686217"><ele>148.33333333333334</ele><time>2026-04-29T12:26:50.893Z</time></trkpt><trkpt lat="42.1845467" lon="14.568675"><ele>148.16666666666669</ele><time>2026-04-29T12:26:52.893Z</time></trkpt><trkpt lat="42.18448" lon="14.568735"><ele>148.0</ele><time>2026-04-29T12:26:54.893Z</time></trkpt><trkpt lat="42.18442" lon="14.56879"><ele>148.0</ele><time>2026-04-29T12:26:56.893Z</time></trkpt><trkpt lat="42.1843583" lon="14.5688433"><ele>148.0</ele><time>2026-04-29T12:26:58.893Z</time></trkpt><trkpt lat="42.1842933" lon="14.5688917"><ele>148.0</ele><time>2026-04-29T12:27:00.893Z</time></trkpt><trkpt lat="42.1842283" lon="14.5689583"><ele>148.0</ele><time>2026-04-29T12:27:02.892Z</time></trkpt><trkpt lat="42.18416" lon="14.5690417"><ele>148.0</ele><time>2026-04-29T12:27:04.892Z</time></trkpt><trkpt lat="42.1840933" lon="14.5691317"><ele>148.0</ele><time>2026-04-29T12:27:06.892Z</time></trkpt><trkpt lat="42.184015" lon="14.5692283"><ele>147.75</ele><time>2026-04-29T12:27:08.892Z</time></trkpt><trkpt lat="42.183935" lon="14.56933"><ele>147.5</ele><time>2026-04-29T12:27:10.893Z</time></trkpt><trkpt lat="42.1838483" lon="14.5694333"><ele>147.25</ele><time>2026-04-29T12:27:12.893Z</time></trkpt><trkpt lat="42.1837583" lon="14.569545"><ele>147.0</ele><time>2026-04-29T12:27:14.893Z</time></trkpt><trkpt lat="42.183675" lon="14.5696617"><ele>146.5</ele><time>2026-04-29T12:27:16.893Z</time></trkpt><trkpt lat="42.1836283" lon="14.5697217"><ele>146.0</ele><time>2026-04-29T12:27:17.893Z</time></trkpt><trkpt lat="42.1835383" lon="14.56984"><ele>145.5</ele><time>2026-04-29T12:27:19.892Z</time></trkpt><trkpt lat="42.1834883" lon="14.5699"><ele>145.0</ele><time>2026-04-29T12:27:20.893Z</time></trkpt><trkpt lat="42.1834333" lon="14.5699667"><ele>144.5</ele><time>2026-04-29T12:27:21.893Z</time></trkpt><trkpt lat="42.1833783" lon="14.5700267"><ele>144.0</ele><time>2026-04-29T12:27:22.892Z</time></trkpt><trkpt lat="42.1833183" lon="14.5700867"><ele>144.0</ele><time>2026-04-29T12:27:23.893Z</time></trkpt><trkpt lat="42.183255" lon="14.5701433"><ele>144.0</ele><time>2026-04-29T12:27:24.892Z</time></trkpt><trkpt lat="42.1831867" lon="14.570195"><ele>144.0</ele><time>2026-04-29T12:27:25.892Z</time></trkpt><trkpt lat="42.1831183" lon="14.570255"><ele>144.0</ele><time>2026-04-29T12:27:26.893Z</time></trkpt><trkpt lat="42.1830467" lon="14.57032"><ele>144.0</ele><time>2026-04-29T12:27:27.893Z</time></trkpt><trkpt lat="42.1829717" lon="14.5703767"><ele>144.0</ele><time>2026-04-29T12:27:28.893Z</time></trkpt><trkpt lat="42.1828983" lon="14.5704467"><ele>142.6</ele><time>2026-04-29T12:27:29.892Z</time></trkpt><trkpt lat="42.18282" lon="14.5705183"><ele>141.2</ele><time>2026-04-29T12:27:30.893Z</time></trkpt><trkpt lat="42.1827433" lon="14.5705933"><ele>139.79999999999998</ele><time>2026-04-29T12:27:31.893Z</time></trkpt><trkpt lat="42.1826667" lon="14.570665"><ele>138.4</ele><time>2026-04-29T12:27:32.892Z</time></trkpt><trkpt lat="42.182595" lon="14.5707417"><ele>137.0</ele><time>2026-04-29T12:27:33.893Z</time></trkpt><trkpt lat="42.1825267" lon="14.5708033"><ele>137.00000000000003</ele><time>2026-04-29T12:27:34.892Z</time></trkpt><trkpt lat="42.18246" lon="14.5708483"><ele>137.0</ele><time>2026-04-29T12:27:35.893Z</time></trkpt><trkpt lat="42.1823967" lon="14.57087"><ele>137.0</ele><time>2026-04-29T12:27:36.893Z</time></trkpt><trkpt lat="42.182325" lon="14.5708583"><ele>137.0</ele><time>2026-04-29T12:27:37.893Z</time></trkpt><trkpt lat="42.182255" lon="14.5708167"><ele>137.0</ele><time>2026-04-29T12:27:38.892Z</time></trkpt><trkpt lat="42.182185" lon="14.5707567"><ele>137.00000000000003</ele><time>2026-04-29T12:27:39.893Z</time></trkpt><trkpt lat="42.1821183" lon="14.5707083"><ele>137.0</ele><time>2026-04-29T12:27:40.893Z</time></trkpt><trkpt lat="42.1820533" lon="14.5706583"><ele>135.5</ele><time>2026-04-29T12:27:41.893Z</time></trkpt><trkpt lat="42.1819867" lon="14.5706133"><ele>134.0</ele><time>2026-04-29T12:27:42.892Z</time></trkpt><trkpt lat="42.1819183" lon="14.5705733"><ele>132.5</ele><time>2026-04-29T12:27:43.893Z</time></trkpt><trkpt lat="42.1818417" lon="14.57054"><ele>131.0</ele><time>2026-04-29T12:27:44.892Z</time></trkpt><trkpt lat="42.18176" lon="14.570515"><ele>129.5</ele><time>2026-04-29T12:27:45.892Z</time></trkpt><trkpt lat="42.1816783" lon="14.5705017"><ele>128.0</ele><time>2026-04-29T12:27:46.893Z</time></trkpt><trkpt lat="42.1816033" lon="14.5705017"><ele>127.99999999999999</ele><time>2026-04-29T12:27:47.893Z</time></trkpt><trkpt lat="42.18153" lon="14.5705267"><ele>128.0</ele><time>2026-04-29T12:27:48.893Z</time></trkpt><trkpt lat="42.1814633" lon="14.57058"><ele>128.0</ele><time>2026-04-29T12:27:49.893Z</time></trkpt><trkpt lat="42.1813967" lon="14.5706467"><ele>128.0</ele><time>2026-04-29T12:27:50.893Z</time></trkpt><trkpt lat="42.1813367" lon="14.5707267"><ele>127.99999999999999</ele><time>2026-04-29T12:27:51.893Z</time></trkpt><trkpt lat="42.1812733" lon="14.5708083"><ele>128.0</ele><time>2026-04-29T12:27:52.893Z</time></trkpt><trkpt lat="42.18121" lon="14.5708917"><ele>127.33333333333333</ele><time>2026-04-29T12:27:53.893Z</time></trkpt><trkpt lat="42.1811517" lon="14.570985"><ele>126.66666666666666</ele><time>2026-04-29T12:27:54.893Z</time></trkpt><trkpt lat="42.18109" lon="14.5710667"><ele>126.0</ele><time>2026-04-29T12:27:55.893Z</time></trkpt><trkpt lat="42.18103" lon="14.5711433"><ele>125.33333333333334</ele><time>2026-04-29T12:27:56.893Z</time></trkpt><trkpt lat="42.1809767" lon="14.5712217"><ele>124.66666666666667</ele><time>2026-04-29T12:27:57.893Z</time></trkpt><trkpt lat="42.1809183" lon="14.5713017"><ele>124.0</ele><time>2026-04-29T12:27:58.893Z</time></trkpt><trkpt lat="42.18086" lon="14.571385"><ele>123.6</ele><time>2026-04-29T12:27:59.893Z</time></trkpt><trkpt lat="42.1808217" lon="14.571495"><ele>123.2</ele><time>2026-04-29T12:28:00.892Z</time></trkpt><trkpt lat="42.1807783" lon="14.5715933"><ele>122.79999999999998</ele><time>2026-04-29T12:28:01.892Z</time></trkpt><trkpt lat="42.180745" lon="14.5717067"><ele>122.39999999999999</ele><time>2026-04-29T12:28:02.893Z</time></trkpt><trkpt lat="42.1807" lon="14.5718233"><ele>122.0</ele><time>2026-04-29T12:28:03.893Z</time></trkpt><trkpt lat="42.1806517" lon="14.5719433"><ele>120.6</ele><time>2026-04-29T12:28:04.892Z</time></trkpt><trkpt lat="42.1806083" lon="14.5720767"><ele>119.19999999999999</ele><time>2026-04-29T12:28:05.893Z</time></trkpt><trkpt lat="42.1805667" lon="14.5722117"><ele>117.8</ele><time>2026-04-29T12:28:06.893Z</time></trkpt><trkpt lat="42.1805467" lon="14.57235"><ele>116.4</ele><time>2026-04-29T12:28:07.893Z</time></trkpt><trkpt lat="42.1805267" lon="14.5725017"><ele>115.0</ele><time>2026-04-29T12:28:08.893Z</time></trkpt><trkpt lat="42.1805067" lon="14.5726417"><ele>115.0</ele><time>2026-04-29T12:28:09.893Z</time></trkpt><trkpt lat="42.1804867" lon="14.5727867"><ele>115.0</ele><time>2026-04-29T12:28:10.893Z</time></trkpt><trkpt lat="42.1804617" lon="14.57293"><ele>115.0</ele><time>2026-04-29T12:28:11.893Z</time></trkpt><trkpt lat="42.180445" lon="14.5730817"><ele>115.0</ele><time>2026-04-29T12:28:12.892Z</time></trkpt><trkpt lat="42.1804233" lon="14.5732067"><ele>115.0</ele><time>2026-04-29T12:28:13.893Z</time></trkpt><trkpt lat="42.1804017" lon="14.5733033"><ele>114.50000000000001</ele><time>2026-04-29T12:28:14.892Z</time></trkpt><trkpt lat="42.18034" lon="14.573425"><ele>114.0</ele><time>2026-04-29T12:28:16.893Z</time></trkpt><trkpt lat="42.18028" lon="14.5735017"><ele>113.5</ele><time>2026-04-29T12:28:18.892Z</time></trkpt><trkpt lat="42.180215" lon="14.5735717"><ele>113.0</ele><time>2026-04-29T12:28:20.893Z</time></trkpt><trkpt lat="42.1801567" lon="14.57364"><ele>112.50000000000001</ele><time>2026-04-29T12:28:22.892Z</time></trkpt><trkpt lat="42.180095" lon="14.5737133"><ele>112.0</ele><time>2026-04-29T12:28:24.892Z</time></trkpt><trkpt lat="42.1800383" lon="14.5737817"><ele>112.00000000000001</ele><time>2026-04-29T12:28:26.893Z</time></trkpt><trkpt lat="42.1799717" lon="14.573845"><ele>112.0</ele><time>2026-04-29T12:28:28.893Z</time></trkpt><trkpt lat="42.1799283" lon="14.57391"><ele>112.0</ele><time>2026-04-29T12:28:30.892Z</time></trkpt><trkpt lat="42.1798633" lon="14.5739783"><ele>112.0</ele><time>2026-04-29T12:28:32.893Z</time></trkpt><trkpt lat="42.1797967" lon="14.5740583"><ele>112.00000000000001</ele><time>2026-04-29T12:28:34.893Z</time></trkpt><trkpt lat="42.1797367" lon="14.5741533"><ele>112.0</ele><time>2026-04-29T12:28:36.892Z</time></trkpt><trkpt lat="42.17968" lon="14.5742417"><ele>112.00000000000001</ele><time>2026-04-29T12:28:38.893Z</time></trkpt><trkpt lat="42.1796183" lon="14.574335"><ele>112.0</ele><time>2026-04-29T12:28:40.893Z</time></trkpt><trkpt lat="42.1795633" lon="14.5744317"><ele>112.0</ele><time>2026-04-29T12:28:42.892Z</time></trkpt><trkpt lat="42.179505" lon="14.5745167"><ele>112.0</ele><time>2026-04-29T12:28:44.893Z</time></trkpt><trkpt lat="42.1794517" lon="14.5745933"><ele>112.00000000000001</ele><time>2026-04-29T12:28:46.892Z</time></trkpt><trkpt lat="42.1793967" lon="14.574675"><ele>112.0</ele><time>2026-04-29T12:28:48.892Z</time></trkpt><trkpt lat="42.1793483" lon="14.5747417"><ele>112.28571428571428</ele><time>2026-04-29T12:28:50.892Z</time></trkpt><trkpt lat="42.1792883" lon="14.5747917"><ele>112.57142857142857</ele><time>2026-04-29T12:28:52.892Z</time></trkpt><trkpt lat="42.1792383" lon="14.5748567"><ele>112.85714285714286</ele><time>2026-04-29T12:28:54.893Z</time></trkpt><trkpt lat="42.1791833" lon="14.5749017"><ele>113.14285714285714</ele><time>2026-04-29T12:28:56.893Z</time></trkpt><trkpt lat="42.1791217" lon="14.5749783"><ele>113.42857142857142</ele><time>2026-04-29T12:28:59.893Z</time></trkpt><trkpt lat="42.1790667" lon="14.5750533"><ele>113.71428571428571</ele><time>2026-04-29T12:29:02.893Z</time></trkpt><trkpt lat="42.1790033" lon="14.5751133"><ele>114.0</ele><time>2026-04-29T12:29:05.893Z</time></trkpt><trkpt lat="42.1789483" lon="14.5751967"><ele>114.14285714285714</ele><time>2026-04-29T12:29:09.893Z</time></trkpt><trkpt lat="42.1788883" lon="14.575275"><ele>114.28571428571428</ele><time>2026-04-29T12:29:13.893Z</time></trkpt><trkpt lat="42.1788383" lon="14.57534"><ele>114.42857142857142</ele><time>2026-04-29T12:29:16.893Z</time></trkpt><trkpt lat="42.1787717" lon="14.575395"><ele>114.57142857142856</ele><time>2026-04-29T12:29:19.893Z</time></trkpt><trkpt lat="42.1787133" lon="14.5754333"><ele>114.71428571428571</ele><time>2026-04-29T12:29:22.893Z</time></trkpt><trkpt lat="42.178655" lon="14.575485"><ele>114.85714285714283</ele><time>2026-04-29T12:29:26.893Z</time></trkpt><trkpt lat="42.1786" lon="14.575565"><ele>114.99999999999999</ele><time>2026-04-29T12:29:30.893Z</time></trkpt><trkpt lat="42.1785633" lon="14.57565"><ele>115.7142857142857</ele><time>2026-04-29T12:29:33.893Z</time></trkpt><trkpt lat="42.1785083" lon="14.5757117"><ele>116.42857142857142</ele><time>2026-04-29T12:29:36.892Z</time></trkpt><trkpt lat="42.17846" lon="14.5757917"><ele>117.14285714285714</ele><time>2026-04-29T12:29:39.892Z</time></trkpt><trkpt lat="42.178415" lon="14.57586"><ele>117.85714285714285</ele><time>2026-04-29T12:29:42.893Z</time></trkpt><trkpt lat="42.1783633" lon="14.5759267"><ele>118.57142857142856</ele><time>2026-04-29T12:29:45.892Z</time></trkpt><trkpt lat="42.17831" lon="14.5759817"><ele>119.28571428571429</ele><time>2026-04-29T12:29:48.893Z</time></trkpt><trkpt lat="42.1782583" lon="14.5760433"><ele>120.0</ele><time>2026-04-29T12:29:54.893Z</time></trkpt><trkpt lat="42.1781917" lon="14.5760983"><ele>120.83333333333333</ele><time>2026-04-29T12:29:58.893Z</time></trkpt><trkpt lat="42.178135" lon="14.5761417"><ele>121.66666666666666</ele><time>2026-04-29T12:30:02.892Z</time></trkpt><trkpt lat="42.1780633" lon="14.57617"><ele>122.5</ele><time>2026-04-29T12:30:06.892Z</time></trkpt><trkpt lat="42.1779917" lon="14.5762033"><ele>123.33333333333333</ele><time>2026-04-29T12:30:10.892Z</time></trkpt><trkpt lat="42.1779133" lon="14.57625"><ele>124.16666666666666</ele><time>2026-04-29T12:30:14.893Z</time></trkpt><trkpt lat="42.1778317" lon="14.576275"><ele>125.0</ele><time>2026-04-29T12:30:17.893Z</time></trkpt><trkpt lat="42.1777617" lon="14.5762867"><ele>126.16666666666666</ele><time>2026-04-29T12:30:19.892Z</time></trkpt><trkpt lat="42.1776767" lon="14.576295"><ele>127.33333333333333</ele><time>2026-04-29T12:30:22.893Z</time></trkpt><trkpt lat="42.1775883" lon="14.5763167"><ele>128.5</ele><time>2026-04-29T12:30:25.893Z</time></trkpt><trkpt lat="42.1775217" lon="14.5763283"><ele>129.66666666666666</ele><time>2026-04-29T12:30:27.892Z</time></trkpt><trkpt lat="42.1774467" lon="14.5763383"><ele>130.83333333333334</ele><time>2026-04-29T12:30:29.892Z</time></trkpt><trkpt lat="42.17737" lon="14.5763433"><ele>132.0</ele><time>2026-04-29T12:30:31.893Z</time></trkpt><trkpt lat="42.1772933" lon="14.576345"><ele>132.33333333333334</ele><time>2026-04-29T12:30:33.893Z</time></trkpt><trkpt lat="42.1772067" lon="14.57635"><ele>132.66666666666666</ele><time>2026-04-29T12:30:35.893Z</time></trkpt><trkpt lat="42.1771333" lon="14.5763583"><ele>133.0</ele><time>2026-04-29T12:30:37.893Z</time></trkpt><trkpt lat="42.1770567" lon="14.5763583"><ele>133.33333333333331</ele><time>2026-04-29T12:30:39.892Z</time></trkpt><trkpt lat="42.17698" lon="14.576365"><ele>133.66666666666666</ele><time>2026-04-29T12:30:41.892Z</time></trkpt><trkpt lat="42.1769033" lon="14.5763667"><ele>134.0</ele><time>2026-04-29T12:30:43.892Z</time></trkpt><trkpt lat="42.1768383" lon="14.57636"><ele>134.0</ele><time>2026-04-29T12:30:45.892Z</time></trkpt><trkpt lat="42.1767517" lon="14.5763617"><ele>134.0</ele><time>2026-04-29T12:30:49.892Z</time></trkpt><trkpt lat="42.1766633" lon="14.576365"><ele>134.0</ele><time>2026-04-29T12:30:52.893Z</time></trkpt><trkpt lat="42.176575" lon="14.5763633"><ele>134.0</ele><time>2026-04-29T12:30:55.893Z</time></trkpt><trkpt lat="42.1764867" lon="14.5763683"><ele>134.0</ele><time>2026-04-29T12:30:58.893Z</time></trkpt><trkpt lat="42.1764167" lon="14.5763767"><ele>134.0</ele><time>2026-04-29T12:31:01.893Z</time></trkpt><trkpt lat="42.1763483" lon="14.57639"><ele>134.28571428571428</ele><time>2026-04-29T12:31:05.893Z</time></trkpt><trkpt lat="42.17627" lon="14.576405"><ele>134.57142857142856</ele><time>2026-04-29T12:31:10.892Z</time></trkpt><trkpt lat="42.1762033" lon="14.5764083"><ele>134.85714285714283</ele><time>2026-04-29T12:31:14.893Z</time></trkpt><trkpt lat="42.17614" lon="14.5764083"><ele>135.14285714285714</ele><time>2026-04-29T12:31:17.892Z</time></trkpt><trkpt lat="42.1760667" lon="14.5764117"><ele>135.42857142857142</ele><time>2026-04-29T12:31:20.893Z</time></trkpt><trkpt lat="42.1760017" lon="14.5764067"><ele>135.7142857142857</ele><time>2026-04-29T12:31:23.892Z</time></trkpt><trkpt lat="42.1759333" lon="14.5763883"><ele>136.0</ele><time>2026-04-29T12:31:27.893Z</time></trkpt><trkpt lat="42.1758583" lon="14.5763567"><ele>136.0</ele><time>2026-04-29T12:31:33.892Z</time></trkpt><trkpt lat="42.175785" lon="14.5763317"><ele>136.0</ele><time>2026-04-29T12:31:37.893Z</time></trkpt><trkpt lat="42.175725" lon="14.5762933"><ele>136.0</ele><time>2026-04-29T12:31:40.893Z</time></trkpt><trkpt lat="42.17565" lon="14.5762617"><ele>136.0</ele><time>2026-04-29T12:31:43.893Z</time></trkpt><trkpt lat="42.17558" lon="14.576245"><ele>136.0</ele><time>2026-04-29T12:31:46.892Z</time></trkpt><trkpt lat="42.175505" lon="14.5762433"><ele>136.0</ele><time>2026-04-29T12:31:49.893Z</time></trkpt><trkpt lat="42.1754217" lon="14.5762683"><ele>136.25</ele><time>2026-04-29T12:31:52.893Z</time></trkpt><trkpt lat="42.1753483" lon="14.5763117"><ele>136.5</ele><time>2026-04-29T12:31:55.893Z</time></trkpt><trkpt lat="42.175275" lon="14.576365"><ele>136.75</ele><time>2026-04-29T12:31:58.893Z</time></trkpt><trkpt lat="42.1752183" lon="14.5764117"><ele>137.0</ele><time>2026-04-29T12:32:01.893Z</time></trkpt><trkpt lat="42.1749783" lon="14.5765733"><ele>137.00000000000003</ele><time>2026-04-29T12:33:06.091Z</time></trkpt><trkpt lat="42.1750333" lon="14.5765167"><ele>137.0</ele><time>2026-04-29T12:33:07.396Z</time></trkpt><trkpt lat="42.1750933" lon="14.5764633"><ele>137.0</ele><time>2026-04-29T12:33:12.896Z</time></trkpt><trkpt lat="42.1750417" lon="14.576515"><ele>137.0</ele><time>2026-04-29T12:37:20.897Z</time></trkpt><trkpt lat="42.1749617" lon="14.576545"><ele>137.0</ele><time>2026-04-29T12:37:23.896Z</time></trkpt><trkpt lat="42.17487" lon="14.57656"><ele>137.00000000000003</ele><time>2026-04-29T12:37:26.897Z</time></trkpt><trkpt lat="42.1748067" lon="14.5765567"><ele>137.0</ele><time>2026-04-29T12:37:28.897Z</time></trkpt><trkpt lat="42.1747183" lon="14.5765467"><ele>137.5</ele><time>2026-04-29T12:37:31.897Z</time></trkpt><trkpt lat="42.17463" lon="14.5765367"><ele>138.0</ele><time>2026-04-29T12:37:34.896Z</time></trkpt><trkpt lat="42.1745417" lon="14.5765217"><ele>138.5</ele><time>2026-04-29T12:37:37.896Z</time></trkpt><trkpt lat="42.1744583" lon="14.576515"><ele>139.0</ele><time>2026-04-29T12:37:40.897Z</time></trkpt><trkpt lat="42.174375" lon="14.57652"><ele>139.5</ele><time>2026-04-29T12:37:43.897Z</time></trkpt><trkpt lat="42.1742867" lon="14.5765233"><ele>140.0</ele><time>2026-04-29T12:37:46.896Z</time></trkpt><trkpt lat="42.1742083" lon="14.576505"><ele>140.0</ele><time>2026-04-29T12:37:49.897Z</time></trkpt><trkpt lat="42.1741283" lon="14.5764767"><ele>140.0</ele><time>2026-04-29T12:37:52.897Z</time></trkpt><trkpt lat="42.17405" lon="14.5764267"><ele>140.0</ele><time>2026-04-29T12:37:55.896Z</time></trkpt><trkpt lat="42.1739733" lon="14.5763883"><ele>140.0</ele><time>2026-04-29T12:37:58.897Z</time></trkpt><trkpt lat="42.1738983" lon="14.57637"><ele>140.0</ele><time>2026-04-29T12:38:01.896Z</time></trkpt><trkpt lat="42.173835" lon="14.5763583"><ele>140.0</ele><time>2026-04-29T12:38:10.897Z</time></trkpt><trkpt lat="42.1737633" lon="14.5763533"><ele>140.42857142857142</ele><time>2026-04-29T12:42:16.895Z</time></trkpt><trkpt lat="42.1736883" lon="14.5763267"><ele>140.85714285714286</ele><time>2026-04-29T12:42:20.895Z</time></trkpt><trkpt lat="42.1736167" lon="14.5763133"><ele>141.28571428571428</ele><time>2026-04-29T12:42:23.895Z</time></trkpt><trkpt lat="42.1735517" lon="14.5762967"><ele>141.71428571428572</ele><time>2026-04-29T12:42:26.895Z</time></trkpt><trkpt lat="42.1734717" lon="14.5762783"><ele>142.14285714285714</ele><time>2026-04-29T12:42:29.894Z</time></trkpt><trkpt lat="42.17339" lon="14.5762483"><ele>142.57142857142856</ele><time>2026-04-29T12:42:32.894Z</time></trkpt><trkpt lat="42.1733283" lon="14.5762183"><ele>143.0</ele><time>2026-04-29T12:42:34.894Z</time></trkpt><trkpt lat="42.17326" lon="14.5761967"><ele>143.14285714285714</ele><time>2026-04-29T12:42:36.895Z</time></trkpt><trkpt lat="42.1731933" lon="14.5761817"><ele>143.28571428571428</ele><time>2026-04-29T12:42:38.895Z</time></trkpt><trkpt lat="42.17313" lon="14.5761633"><ele>143.42857142857144</ele><time>2026-04-29T12:42:40.895Z</time></trkpt><trkpt lat="42.17307" lon="14.5761367"><ele>143.57142857142856</ele><time>2026-04-29T12:42:42.894Z</time></trkpt><trkpt lat="42.1730033" lon="14.5761217"><ele>143.71428571428572</ele><time>2026-04-29T12:42:44.894Z</time></trkpt><trkpt lat="42.1729367" lon="14.576105"><ele>143.85714285714286</ele><time>2026-04-29T12:42:46.895Z</time></trkpt><trkpt lat="42.1728733" lon="14.5760767"><ele>144.0</ele><time>2026-04-29T12:42:48.895Z</time></trkpt><trkpt lat="42.172785" lon="14.5760417"><ele>144.0</ele><time>2026-04-29T12:42:51.894Z</time></trkpt><trkpt lat="42.1727217" lon="14.5760233"><ele>144.0</ele><time>2026-04-29T12:42:53.894Z</time></trkpt><trkpt lat="42.172635" lon="14.576"><ele>144.0</ele><time>2026-04-29T12:42:56.894Z</time></trkpt><trkpt lat="42.172545" lon="14.5759783"><ele>144.0</ele><time>2026-04-29T12:42:59.895Z</time></trkpt><trkpt lat="42.1724817" lon="14.575965"><ele>144.0</ele><time>2026-04-29T12:43:01.895Z</time></trkpt><trkpt lat="42.1723933" lon="14.5759417"><ele>144.0</ele><time>2026-04-29T12:43:04.894Z</time></trkpt><trkpt lat="42.1723083" lon="14.575915"><ele>145.0</ele><time>2026-04-29T12:43:07.895Z</time></trkpt><trkpt lat="42.17222" lon="14.5758833"><ele>146.0</ele><time>2026-04-29T12:43:10.894Z</time></trkpt><trkpt lat="42.1721267" lon="14.5758567"><ele>147.0</ele><time>2026-04-29T12:43:13.895Z</time></trkpt><trkpt lat="42.1720383" lon="14.5758233"><ele>148.0</ele><time>2026-04-29T12:43:16.894Z</time></trkpt><trkpt lat="42.1719567" lon="14.5757967"><ele>149.0</ele><time>2026-04-29T12:43:19.895Z</time></trkpt><trkpt lat="42.1718767" lon="14.5757733"><ele>150.0</ele><time>2026-04-29T12:43:22.894Z</time></trkpt><trkpt lat="42.1717967" lon="14.5757583"><ele>150.0</ele><time>2026-04-29T12:43:25.895Z</time></trkpt><trkpt lat="42.171705" lon="14.57574"><ele>150.0</ele><time>2026-04-29T12:43:28.895Z</time></trkpt><trkpt lat="42.171615" lon="14.5757217"><ele>150.0</ele><time>2026-04-29T12:43:31.895Z</time></trkpt><trkpt lat="42.1715317" lon="14.575695"><ele>150.0</ele><time>2026-04-29T12:43:34.894Z</time></trkpt><trkpt lat="42.17145" lon="14.5756683"><ele>150.0</ele><time>2026-04-29T12:43:37.895Z</time></trkpt><trkpt lat="42.1713667" lon="14.57565"><ele>150.0</ele><time>2026-04-29T12:43:40.894Z</time></trkpt><trkpt lat="42.1712783" lon="14.5756233"><ele>150.33333333333334</ele><time>2026-04-29T12:43:43.894Z</time></trkpt><trkpt lat="42.1712" lon="14.5755933"><ele>150.66666666666666</ele><time>2026-04-29T12:43:46.894Z</time></trkpt><trkpt lat="42.1711283" lon="14.5755383"><ele>151.0</ele><time>2026-04-29T12:43:49.895Z</time></trkpt><trkpt lat="42.171095" lon="14.5754533"><ele>151.33333333333331</ele><time>2026-04-29T12:43:52.894Z</time></trkpt><trkpt lat="42.1711367" lon="14.57536"><ele>151.66666666666666</ele><time>2026-04-29T12:43:55.894Z</time></trkpt><trkpt lat="42.171165" lon="14.57525"><ele>152.0</ele><time>2026-04-29T12:43:58.894Z</time></trkpt><trkpt lat="42.1711867" lon="14.5751467"><ele>152.5</ele><time>2026-04-29T12:44:01.895Z</time></trkpt><trkpt lat="42.1711983" lon="14.5750317"><ele>153.0</ele><time>2026-04-29T12:44:04.894Z</time></trkpt><trkpt lat="42.17121" lon="14.5749167"><ele>153.5</ele><time>2026-04-29T12:44:07.895Z</time></trkpt><trkpt lat="42.1712217" lon="14.5747967"><ele>154.0</ele><time>2026-04-29T12:44:10.894Z</time></trkpt><trkpt lat="42.1712317" lon="14.5746733"><ele>154.5</ele><time>2026-04-29T12:44:13.894Z</time></trkpt><trkpt lat="42.1712383" lon="14.5745867"><ele>155.0</ele><time>2026-04-29T12:44:15.894Z</time></trkpt><trkpt lat="42.171235" lon="14.57449"><ele>155.16666666666666</ele><time>2026-04-29T12:44:17.895Z</time></trkpt><trkpt lat="42.17121" lon="14.5743767"><ele>155.33333333333331</ele><time>2026-04-29T12:44:20.895Z</time></trkpt><trkpt lat="42.1711717" lon="14.574305"><ele>155.5</ele><time>2026-04-29T12:44:22.895Z</time></trkpt><trkpt lat="42.1710967" lon="14.5742933"><ele>155.66666666666666</ele><time>2026-04-29T12:44:25.894Z</time></trkpt><trkpt lat="42.1710167" lon="14.5743233"><ele>155.83333333333334</ele><time>2026-04-29T12:44:28.895Z</time></trkpt><trkpt lat="42.1709333" lon="14.5743567"><ele>156.0</ele><time>2026-04-29T12:44:31.894Z</time></trkpt><trkpt lat="42.1708683" lon="14.5743733"><ele>156.0</ele><time>2026-04-29T12:44:33.895Z</time></trkpt><trkpt lat="42.1708017" lon="14.5743783"><ele>156.0</ele><time>2026-04-29T12:44:35.895Z</time></trkpt><trkpt lat="42.17071" lon="14.5743817"><ele>156.0</ele><time>2026-04-29T12:44:38.895Z</time></trkpt><trkpt lat="42.17062" lon="14.5743717"><ele>156.0</ele><time>2026-04-29T12:44:41.894Z</time></trkpt><trkpt lat="42.17053" lon="14.5743733"><ele>156.0</ele><time>2026-04-29T12:44:44.895Z</time></trkpt><trkpt lat="42.17045" lon="14.57436"><ele>156.0</ele><time>2026-04-29T12:44:47.895Z</time></trkpt><trkpt lat="42.170355" lon="14.5743383"><ele>157.5</ele><time>2026-04-29T12:44:50.895Z</time></trkpt><trkpt lat="42.1702667" lon="14.5743167"><ele>159.0</ele><time>2026-04-29T12:44:53.895Z</time></trkpt><trkpt lat="42.1701867" lon="14.57429"><ele>160.5</ele><time>2026-04-29T12:44:56.895Z</time></trkpt><trkpt lat="42.1701033" lon="14.5742633"><ele>162.0</ele><time>2026-04-29T12:44:59.894Z</time></trkpt><trkpt lat="42.170025" lon="14.5742267"><ele>163.5</ele><time>2026-04-29T12:45:02.894Z</time></trkpt><trkpt lat="42.1699433" lon="14.57419"><ele>165.0</ele><time>2026-04-29T12:45:05.894Z</time></trkpt><trkpt lat="42.1698633" lon="14.574145"><ele>166.5</ele><time>2026-04-29T12:45:08.895Z</time></trkpt><trkpt lat="42.1697767" lon="14.5740983"><ele>168.0</ele><time>2026-04-29T12:45:11.895Z</time></trkpt><trkpt lat="42.1697" lon="14.57405"><ele>169.5</ele><time>2026-04-29T12:45:14.894Z</time></trkpt><trkpt lat="42.169625" lon="14.573995"><ele>171.0</ele><time>2026-04-29T12:45:17.895Z</time></trkpt><trkpt lat="42.16957" lon="14.5739417"><ele>172.5</ele><time>2026-04-29T12:45:19.895Z</time></trkpt><trkpt lat="42.16949" lon="14.5738833"><ele>174.0</ele><time>2026-04-29T12:45:22.895Z</time></trkpt><trkpt lat="42.1694367" lon="14.5738317"><ele>174.0</ele><time>2026-04-29T12:45:24.894Z</time></trkpt><trkpt lat="42.1693867" lon="14.5737717"><ele>174.0</ele><time>2026-04-29T12:45:26.895Z</time></trkpt><trkpt lat="42.16934" lon="14.573705"><ele>174.0</ele><time>2026-04-29T12:45:28.895Z</time></trkpt><trkpt lat="42.1692917" lon="14.573635"><ele>174.0</ele><time>2026-04-29T12:45:30.895Z</time></trkpt><trkpt lat="42.169235" lon="14.573565"><ele>174.0</ele><time>2026-04-29T12:45:32.894Z</time></trkpt><trkpt lat="42.1691917" lon="14.573485"><ele>174.0</ele><time>2026-04-29T12:45:34.895Z</time></trkpt><trkpt lat="42.16915" lon="14.5734117"><ele>174.0</ele><time>2026-04-29T12:45:36.894Z</time></trkpt><trkpt lat="42.1691133" lon="14.5733417"><ele>174.33333333333334</ele><time>2026-04-29T12:45:38.895Z</time></trkpt><trkpt lat="42.1690583" lon="14.5732483"><ele>174.66666666666666</ele><time>2026-04-29T12:45:41.894Z</time></trkpt><trkpt lat="42.1690083" lon="14.5731617"><ele>175.0</ele><time>2026-04-29T12:45:44.894Z</time></trkpt><trkpt lat="42.1689717" lon="14.5730917"><ele>175.33333333333331</ele><time>2026-04-29T12:45:46.895Z</time></trkpt><trkpt lat="42.1689283" lon="14.5730067"><ele>175.66666666666666</ele><time>2026-04-29T12:45:48.894Z</time></trkpt><trkpt lat="42.16888" lon="14.57292"><ele>176.0</ele><time>2026-04-29T12:45:50.894Z</time></trkpt><trkpt lat="42.16883" lon="14.57284"><ele>174.33333333333331</ele><time>2026-04-29T12:45:52.895Z</time></trkpt><trkpt lat="42.1687717" lon="14.572775"><ele>172.66666666666666</ele><time>2026-04-29T12:45:54.895Z</time></trkpt><trkpt lat="42.16871" lon="14.572725"><ele>171.0</ele><time>2026-04-29T12:45:56.895Z</time></trkpt><trkpt lat="42.16863" lon="14.572665"><ele>169.33333333333334</ele><time>2026-04-29T12:45:59.893Z</time></trkpt><trkpt lat="42.168545" lon="14.5726233"><ele>167.66666666666669</ele><time>2026-04-29T12:46:02.894Z</time></trkpt><trkpt lat="42.168465" lon="14.5725967"><ele>166.0</ele><time>2026-04-29T12:46:04.894Z</time></trkpt><trkpt lat="42.1683733" lon="14.5725733"><ele>166.0</ele><time>2026-04-29T12:46:07.894Z</time></trkpt><trkpt lat="42.1683083" lon="14.5725483"><ele>166.0</ele><time>2026-04-29T12:46:09.893Z</time></trkpt><trkpt lat="42.1682333" lon="14.57254"><ele>166.0</ele><time>2026-04-29T12:46:11.894Z</time></trkpt><trkpt lat="42.1681433" lon="14.5725167"><ele>166.0</ele><time>2026-04-29T12:46:14.894Z</time></trkpt><trkpt lat="42.1680683" lon="14.5725067"><ele>166.0</ele><time>2026-04-29T12:46:16.894Z</time></trkpt><trkpt lat="42.1679833" lon="14.5724933"><ele>166.0</ele><time>2026-04-29T12:46:18.894Z</time></trkpt><trkpt lat="42.1678967" lon="14.5724883"><ele>167.0</ele><time>2026-04-29T12:46:20.894Z</time></trkpt><trkpt lat="42.1678233" lon="14.5724833"><ele>168.0</ele><time>2026-04-29T12:46:22.894Z</time></trkpt><trkpt lat="42.1677533" lon="14.5724767"><ele>169.0</ele><time>2026-04-29T12:46:24.894Z</time></trkpt><trkpt lat="42.1676867" lon="14.5724517"><ele>170.0</ele><time>2026-04-29T12:46:26.894Z</time></trkpt><trkpt lat="42.1676233" lon="14.572425"><ele>171.0</ele><time>2026-04-29T12:46:28.894Z</time></trkpt><trkpt lat="42.16756" lon="14.572405"><ele>172.0</ele><time>2026-04-29T12:46:30.893Z</time></trkpt><trkpt lat="42.1674967" lon="14.5723767"><ele>173.0</ele><time>2026-04-29T12:46:32.893Z</time></trkpt><trkpt lat="42.167435" lon="14.5723467"><ele>173.0</ele><time>2026-04-29T12:46:34.894Z</time></trkpt><trkpt lat="42.167375" lon="14.5723133"><ele>173.0</ele><time>2026-04-29T12:46:36.894Z</time></trkpt><trkpt lat="42.16731" lon="14.5722883"><ele>173.0</ele><time>2026-04-29T12:46:38.893Z</time></trkpt><trkpt lat="42.16724" lon="14.5722717"><ele>173.0</ele><time>2026-04-29T12:46:40.893Z</time></trkpt><trkpt lat="42.1671767" lon="14.57226"><ele>173.0</ele><time>2026-04-29T12:46:42.894Z</time></trkpt><trkpt lat="42.1671117" lon="14.5722567"><ele>173.0</ele><time>2026-04-29T12:46:44.893Z</time></trkpt><trkpt lat="42.1670267" lon="14.5722467"><ele>173.0</ele><time>2026-04-29T12:46:47.894Z</time></trkpt><trkpt lat="42.166945" lon="14.5722467"><ele>174.16666666666666</ele><time>2026-04-29T12:46:50.894Z</time></trkpt><trkpt lat="42.166865" lon="14.57224"><ele>175.33333333333331</ele><time>2026-04-29T12:46:53.893Z</time></trkpt><trkpt lat="42.1667967" lon="14.5722267"><ele>176.5</ele><time>2026-04-29T12:46:56.894Z</time></trkpt><trkpt lat="42.1667217" lon="14.572225"><ele>177.66666666666666</ele><time>2026-04-29T12:46:59.893Z</time></trkpt><trkpt lat="42.166645" lon="14.57222"><ele>178.83333333333334</ele><time>2026-04-29T12:47:02.894Z</time></trkpt><trkpt lat="42.1665783" lon="14.5722067"><ele>180.0</ele><time>2026-04-29T12:47:04.894Z</time></trkpt><trkpt lat="42.16649" lon="14.5721933"><ele>180.33333333333334</ele><time>2026-04-29T12:47:07.893Z</time></trkpt><trkpt lat="42.1664133" lon="14.5721917"><ele>180.66666666666666</ele><time>2026-04-29T12:47:10.893Z</time></trkpt><trkpt lat="42.1663367" lon="14.5721783"><ele>181.0</ele><time>2026-04-29T12:47:13.894Z</time></trkpt><trkpt lat="42.166265" lon="14.572165"><ele>181.33333333333331</ele><time>2026-04-29T12:47:16.894Z</time></trkpt><trkpt lat="42.1661817" lon="14.5721683"><ele>181.66666666666666</ele><time>2026-04-29T12:47:19.894Z</time></trkpt><trkpt lat="42.1660967" lon="14.57216"><ele>182.0</ele><time>2026-04-29T12:47:22.894Z</time></trkpt><trkpt lat="42.166015" lon="14.572155"><ele>182.0</ele><time>2026-04-29T12:47:25.894Z</time></trkpt><trkpt lat="42.1659167" lon="14.5721633"><ele>182.0</ele><time>2026-04-29T12:47:28.893Z</time></trkpt><trkpt lat="42.1658533" lon="14.5721933"><ele>182.0</ele><time>2026-04-29T12:47:30.893Z</time></trkpt><trkpt lat="42.165795" lon="14.5722683"><ele>182.0</ele><time>2026-04-29T12:47:33.894Z</time></trkpt><trkpt lat="42.1657483" lon="14.572355"><ele>182.0</ele><time>2026-04-29T12:47:36.894Z</time></trkpt><trkpt lat="42.1657033" lon="14.5724467"><ele>182.0</ele><time>2026-04-29T12:47:39.893Z</time></trkpt><trkpt lat="42.16566" lon="14.5725183"><ele>182.5</ele><time>2026-04-29T12:47:41.894Z</time></trkpt><trkpt lat="42.16561" lon="14.5726217"><ele>183.0</ele><time>2026-04-29T12:47:44.893Z</time></trkpt><trkpt lat="42.1655633" lon="14.5727267"><ele>183.5</ele><time>2026-04-29T12:47:47.893Z</time></trkpt><trkpt lat="42.165515" lon="14.5728283"><ele>184.0</ele><time>2026-04-29T12:47:50.894Z</time></trkpt><trkpt lat="42.16547" lon="14.5729217"><ele>184.5</ele><time>2026-04-29T12:47:53.893Z</time></trkpt><trkpt lat="42.1654417" lon="14.5730033"><ele>185.0</ele><time>2026-04-29T12:48:03.894Z</time></trkpt><trkpt lat="42.1654217" lon="14.5730883"><ele>185.57142857142856</ele><time>2026-04-29T12:48:54.893Z</time></trkpt><trkpt lat="42.1653817" lon="14.5731617"><ele>186.14285714285714</ele><time>2026-04-29T12:48:56.894Z</time></trkpt><trkpt lat="42.1653467" lon="14.5732333"><ele>186.71428571428572</ele><time>2026-04-29T12:48:58.893Z</time></trkpt><trkpt lat="42.1653083" lon="14.5733067"><ele>187.28571428571428</ele><time>2026-04-29T12:49:00.894Z</time></trkpt><trkpt lat="42.16527" lon="14.5733883"><ele>187.85714285714286</ele><time>2026-04-29T12:49:02.894Z</time></trkpt><trkpt lat="42.1652267" lon="14.5734733"><ele>188.42857142857142</ele><time>2026-04-29T12:49:04.894Z</time></trkpt><trkpt lat="42.1651833" lon="14.57356"><ele>189.0</ele><time>2026-04-29T12:49:06.893Z</time></trkpt><trkpt lat="42.1651433" lon="14.5736467"><ele>189.0</ele><time>2026-04-29T12:49:08.893Z</time></trkpt><trkpt lat="42.1650983" lon="14.5737283"><ele>189.0</ele><time>2026-04-29T12:49:10.894Z</time></trkpt><trkpt lat="42.1650517" lon="14.57383"><ele>189.0</ele><time>2026-04-29T12:49:12.893Z</time></trkpt><trkpt lat="42.1650017" lon="14.57392"><ele>189.0</ele><time>2026-04-29T12:49:14.893Z</time></trkpt><trkpt lat="42.1649567" lon="14.5739983"><ele>189.0</ele><time>2026-04-29T12:49:16.894Z</time></trkpt><trkpt lat="42.164895" lon="14.5740483"><ele>189.0</ele><time>2026-04-29T12:49:18.894Z</time></trkpt><trkpt lat="42.1648167" lon="14.57412"><ele>188.79999999999998</ele><time>2026-04-29T12:49:20.894Z</time></trkpt><trkpt lat="42.1647433" lon="14.5742017"><ele>188.6</ele><time>2026-04-29T12:49:22.894Z</time></trkpt><trkpt lat="42.1646717" lon="14.57428"><ele>188.4</ele><time>2026-04-29T12:49:24.894Z</time></trkpt><trkpt lat="42.164585" lon="14.5743567"><ele>188.2</ele><time>2026-04-29T12:49:26.893Z</time></trkpt><trkpt lat="42.1644683" lon="14.5744167"><ele>188.0</ele><time>2026-04-29T12:49:28.893Z</time></trkpt><trkpt lat="42.1643967" lon="14.5744383"><ele>188.0</ele><time>2026-04-29T12:49:29.894Z</time></trkpt><trkpt lat="42.1643233" lon="14.5744617"><ele>188.0</ele><time>2026-04-29T12:49:30.894Z</time></trkpt><trkpt lat="42.1642483" lon="14.5744767"><ele>188.0</ele><time>2026-04-29T12:49:31.893Z</time></trkpt><trkpt lat="42.1641667" lon="14.5744733"><ele>188.0</ele><time>2026-04-29T12:49:32.894Z</time></trkpt><trkpt lat="42.16409" lon="14.5744433"><ele>188.0</ele><time>2026-04-29T12:49:33.894Z</time></trkpt><trkpt lat="42.1640133" lon="14.5744"><ele>188.0</ele><time>2026-04-29T12:49:34.894Z</time></trkpt><trkpt lat="42.1639333" lon="14.57435"><ele>186.4</ele><time>2026-04-29T12:49:35.894Z</time></trkpt><trkpt lat="42.1638533" lon="14.5742817"><ele>184.8</ele><time>2026-04-29T12:49:36.893Z</time></trkpt><trkpt lat="42.16377" lon="14.5742283"><ele>183.2</ele><time>2026-04-29T12:49:37.894Z</time></trkpt><trkpt lat="42.16369" lon="14.5741817"><ele>181.6</ele><time>2026-04-29T12:49:38.894Z</time></trkpt><trkpt lat="42.1636083" lon="14.57413"><ele>180.0</ele><time>2026-04-29T12:49:39.894Z</time></trkpt><trkpt lat="42.1635317" lon="14.574075"><ele>180.0</ele><time>2026-04-29T12:49:40.894Z</time></trkpt><trkpt lat="42.1634667" lon="14.5740233"><ele>180.0</ele><time>2026-04-29T12:49:41.893Z</time></trkpt><trkpt lat="42.163405" lon="14.57398"><ele>180.0</ele><time>2026-04-29T12:49:42.894Z</time></trkpt><trkpt lat="42.1633417" lon="14.5739283"><ele>180.0</ele><time>2026-04-29T12:49:43.894Z</time></trkpt><trkpt lat="42.1632833" lon="14.5738817"><ele>180.0</ele><time>2026-04-29T12:49:44.894Z</time></trkpt><trkpt lat="42.1631883" lon="14.5737883"><ele>180.0</ele><time>2026-04-29T12:49:46.894Z</time></trkpt><trkpt lat="42.16312" lon="14.5737033"><ele>180.33333333333334</ele><time>2026-04-29T12:49:48.894Z</time></trkpt><trkpt lat="42.1630517" lon="14.5736317"><ele>180.66666666666666</ele><time>2026-04-29T12:49:50.894Z</time></trkpt><trkpt lat="42.1629983" lon="14.5735667"><ele>181.0</ele><time>2026-04-29T12:49:52.893Z</time></trkpt><trkpt lat="42.1629417" lon="14.57349"><ele>181.33333333333331</ele><time>2026-04-29T12:49:54.894Z</time></trkpt><trkpt lat="42.162885" lon="14.5734167"><ele>181.66666666666666</ele><time>2026-04-29T12:49:56.894Z</time></trkpt><trkpt lat="42.1628267" lon="14.57334"><ele>182.0</ele><time>2026-04-29T12:49:58.893Z</time></trkpt><trkpt lat="42.16277" lon="14.5732567"><ele>182.0</ele><time>2026-04-29T12:50:00.893Z</time></trkpt><trkpt lat="42.1627267" lon="14.5731733"><ele>182.0</ele><time>2026-04-29T12:50:02.893Z</time></trkpt><trkpt lat="42.1626783" lon="14.5730983"><ele>182.0</ele><time>2026-04-29T12:50:04.894Z</time></trkpt><trkpt lat="42.162615" lon="14.5730217"><ele>182.0</ele><time>2026-04-29T12:50:06.894Z</time></trkpt><trkpt lat="42.1625483" lon="14.5729583"><ele>182.0</ele><time>2026-04-29T12:50:08.894Z</time></trkpt><trkpt lat="42.1624667" lon="14.5728933"><ele>182.0</ele><time>2026-04-29T12:50:10.893Z</time></trkpt><trkpt lat="42.1623883" lon="14.5728483"><ele>184.0</ele><time>2026-04-29T12:50:12.894Z</time></trkpt><trkpt lat="42.162315" lon="14.572805"><ele>186.0</ele><time>2026-04-29T12:50:14.893Z</time></trkpt><trkpt lat="42.16224" lon="14.572755"><ele>188.0</ele><time>2026-04-29T12:50:16.894Z</time></trkpt><trkpt lat="42.1621617" lon="14.572695"><ele>190.0</ele><time>2026-04-29T12:50:18.893Z</time></trkpt><trkpt lat="42.1620867" lon="14.5726333"><ele>192.00000000000003</ele><time>2026-04-29T12:50:20.894Z</time></trkpt><trkpt lat="42.1620083" lon="14.5725883"><ele>194.0</ele><time>2026-04-29T12:50:22.894Z</time></trkpt><trkpt lat="42.1619317" lon="14.5725283"><ele>194.0</ele><time>2026-04-29T12:50:24.894Z</time></trkpt><trkpt lat="42.1618533" lon="14.5724733"><ele>194.0</ele><time>2026-04-29T12:50:26.894Z</time></trkpt><trkpt lat="42.1617783" lon="14.5724117"><ele>194.0</ele><time>2026-04-29T12:50:28.894Z</time></trkpt><trkpt lat="42.1617017" lon="14.5723267"><ele>194.0</ele><time>2026-04-29T12:50:30.894Z</time></trkpt><trkpt lat="42.1616117" lon="14.5722533"><ele>194.0</ele><time>2026-04-29T12:50:32.893Z</time></trkpt><trkpt lat="42.16152" lon="14.5722133"><ele>192.0</ele><time>2026-04-29T12:50:34.894Z</time></trkpt><trkpt lat="42.1614133" lon="14.5721717"><ele>190.0</ele><time>2026-04-29T12:50:36.894Z</time></trkpt><trkpt lat="42.1613067" lon="14.5721383"><ele>188.0</ele><time>2026-04-29T12:50:38.894Z</time></trkpt><trkpt lat="42.1612133" lon="14.57211"><ele>186.0</ele><time>2026-04-29T12:50:40.893Z</time></trkpt><trkpt lat="42.1611183" lon="14.5720817"><ele>184.0</ele><time>2026-04-29T12:50:42.894Z</time></trkpt><trkpt lat="42.1610117" lon="14.5720617"><ele>184.0</ele><time>2026-04-29T12:50:44.894Z</time></trkpt><trkpt lat="42.1609067" lon="14.572055"><ele>184.0</ele><time>2026-04-29T12:50:46.893Z</time></trkpt><trkpt lat="42.1608067" lon="14.5720333"><ele>184.0</ele><time>2026-04-29T12:50:48.893Z</time></trkpt><trkpt lat="42.160715" lon="14.57197"><ele>184.0</ele><time>2026-04-29T12:50:50.894Z</time></trkpt><trkpt lat="42.16064" lon="14.5718767"><ele>184.0</ele><time>2026-04-29T12:50:52.894Z</time></trkpt><trkpt lat="42.16057" lon="14.571755"><ele>184.33333333333334</ele><time>2026-04-29T12:50:54.894Z</time></trkpt><trkpt lat="42.1604967" lon="14.5716333"><ele>184.66666666666669</ele><time>2026-04-29T12:50:56.893Z</time></trkpt><trkpt lat="42.1604083" lon="14.5715333"><ele>185.0</ele><time>2026-04-29T12:50:58.894Z</time></trkpt><trkpt lat="42.160355" lon="14.5714767"><ele>185.33333333333334</ele><time>2026-04-29T12:50:59.894Z</time></trkpt><trkpt lat="42.1603" lon="14.5714183"><ele>185.66666666666666</ele><time>2026-04-29T12:51:00.893Z</time></trkpt><trkpt lat="42.1602433" lon="14.5713617"><ele>186.0</ele><time>2026-04-29T12:51:01.893Z</time></trkpt><trkpt lat="42.1601817" lon="14.5713067"><ele>186.0</ele><time>2026-04-29T12:51:02.894Z</time></trkpt><trkpt lat="42.1601133" lon="14.5712467"><ele>186.0</ele><time>2026-04-29T12:51:03.894Z</time></trkpt><trkpt lat="42.16005" lon="14.5711767"><ele>186.0</ele><time>2026-04-29T12:51:04.894Z</time></trkpt><trkpt lat="42.1599917" lon="14.571105"><ele>186.0</ele><time>2026-04-29T12:51:05.894Z</time></trkpt><trkpt lat="42.1599317" lon="14.5710217"><ele>186.0</ele><time>2026-04-29T12:51:06.894Z</time></trkpt><trkpt lat="42.1598717" lon="14.5709467"><ele>186.0</ele><time>2026-04-29T12:51:07.893Z</time></trkpt><trkpt lat="42.159815" lon="14.57087"><ele>186.71428571428572</ele><time>2026-04-29T12:51:08.894Z</time></trkpt><trkpt lat="42.1597583" lon="14.5707983"><ele>187.42857142857144</ele><time>2026-04-29T12:51:09.893Z</time></trkpt><trkpt lat="42.1597033" lon="14.570725"><ele>188.14285714285717</ele><time>2026-04-29T12:51:10.893Z</time></trkpt><trkpt lat="42.159655" lon="14.5706583"><ele>188.85714285714286</ele><time>2026-04-29T12:51:11.894Z</time></trkpt><trkpt lat="42.1596033" lon="14.570595"><ele>189.57142857142856</ele><time>2026-04-29T12:51:12.894Z</time></trkpt><trkpt lat="42.159555" lon="14.5705317"><ele>190.2857142857143</ele><time>2026-04-29T12:51:13.894Z</time></trkpt><trkpt lat="42.1595067" lon="14.5704717"><ele>191.0</ele><time>2026-04-29T12:51:14.894Z</time></trkpt><trkpt lat="42.1594617" lon="14.57041"><ele>191.4</ele><time>2026-04-29T12:51:15.894Z</time></trkpt><trkpt lat="42.1593767" lon="14.5703117"><ele>191.8</ele><time>2026-04-29T12:51:17.894Z</time></trkpt><trkpt lat="42.1593" lon="14.57022"><ele>192.20000000000002</ele><time>2026-04-29T12:51:19.893Z</time></trkpt><trkpt lat="42.1592367" lon="14.57015"><ele>192.60000000000002</ele><time>2026-04-29T12:51:21.893Z</time></trkpt><trkpt lat="42.1591583" lon="14.57012"><ele>193.0</ele><time>2026-04-29T12:51:24.893Z</time></trkpt><trkpt lat="42.15909" lon="14.5701583"><ele>192.99999999999997</ele><time>2026-04-29T12:51:26.894Z</time></trkpt><trkpt lat="42.1590417" lon="14.5702467"><ele>193.0</ele><time>2026-04-29T12:51:28.893Z</time></trkpt><trkpt lat="42.159005" lon="14.5703467"><ele>193.0</ele><time>2026-04-29T12:51:30.893Z</time></trkpt><trkpt lat="42.158995" lon="14.5704667"><ele>193.0</ele><time>2026-04-29T12:51:32.894Z</time></trkpt><trkpt lat="42.1589933" lon="14.570585"><ele>192.99999999999997</ele><time>2026-04-29T12:51:34.893Z</time></trkpt><trkpt lat="42.158995" lon="14.57071"><ele>193.0</ele><time>2026-04-29T12:51:36.894Z</time></trkpt><trkpt lat="42.1589983" lon="14.5708383"><ele>191.8</ele><time>2026-04-29T12:51:38.894Z</time></trkpt><trkpt lat="42.1590067" lon="14.57097"><ele>190.60000000000002</ele><time>2026-04-29T12:51:40.893Z</time></trkpt><trkpt lat="42.159015" lon="14.5711017"><ele>189.39999999999998</ele><time>2026-04-29T12:51:42.893Z</time></trkpt><trkpt lat="42.15903" lon="14.57124"><ele>188.2</ele><time>2026-04-29T12:51:44.894Z</time></trkpt><trkpt lat="42.1590467" lon="14.5713833"><ele>187.0</ele><time>2026-04-29T12:51:46.894Z</time></trkpt><trkpt lat="42.159065" lon="14.57153"><ele>187.0</ele><time>2026-04-29T12:51:48.894Z</time></trkpt><trkpt lat="42.1590767" lon="14.571675"><ele>187.0</ele><time>2026-04-29T12:51:50.893Z</time></trkpt><trkpt lat="42.1590883" lon="14.57183"><ele>187.0</ele><time>2026-04-29T12:51:52.893Z</time></trkpt><trkpt lat="42.1590867" lon="14.5719883"><ele>187.0</ele><time>2026-04-29T12:51:54.894Z</time></trkpt><trkpt lat="42.15908" lon="14.5721483"><ele>187.8</ele><time>2026-04-29T12:51:56.894Z</time></trkpt><trkpt lat="42.1590617" lon="14.57232"><ele>188.6</ele><time>2026-04-29T12:51:58.893Z</time></trkpt><trkpt lat="42.1590417" lon="14.5724117"><ele>189.4</ele><time>2026-04-29T12:51:59.894Z</time></trkpt><trkpt lat="42.1590217" lon="14.5725133"><ele>190.20000000000002</ele><time>2026-04-29T12:52:00.893Z</time></trkpt><trkpt lat="42.1589867" lon="14.5726167"><ele>191.0</ele><time>2026-04-29T12:52:01.893Z</time></trkpt><trkpt lat="42.1589433" lon="14.5727233"><ele>191.0</ele><time>2026-04-29T12:52:02.894Z</time></trkpt><trkpt lat="42.158895" lon="14.5728333"><ele>191.0</ele><time>2026-04-29T12:52:03.893Z</time></trkpt><trkpt lat="42.1588467" lon="14.5729517"><ele>191.0</ele><time>2026-04-29T12:52:04.894Z</time></trkpt><trkpt lat="42.158795" lon="14.5730683"><ele>191.0</ele><time>2026-04-29T12:52:05.894Z</time></trkpt><trkpt lat="42.158745" lon="14.573195"><ele>191.0</ele><time>2026-04-29T12:52:06.894Z</time></trkpt><trkpt lat="42.1586917" lon="14.573315"><ele>189.20000000000002</ele><time>2026-04-29T12:52:07.894Z</time></trkpt><trkpt lat="42.1586383" lon="14.5734317"><ele>187.4</ele><time>2026-04-29T12:52:08.894Z</time></trkpt><trkpt lat="42.158585" lon="14.5735483"><ele>185.6</ele><time>2026-04-29T12:52:09.893Z</time></trkpt><trkpt lat="42.1585317" lon="14.5736633"><ele>183.8</ele><time>2026-04-29T12:52:10.894Z</time></trkpt><trkpt lat="42.1584833" lon="14.5737733"><ele>182.0</ele><time>2026-04-29T12:52:11.894Z</time></trkpt><trkpt lat="42.15844" lon="14.57388"><ele>181.33333333333331</ele><time>2026-04-29T12:52:12.894Z</time></trkpt><trkpt lat="42.1584033" lon="14.57399"><ele>180.66666666666666</ele><time>2026-04-29T12:52:13.894Z</time></trkpt><trkpt lat="42.15837" lon="14.5741017"><ele>180.0</ele><time>2026-04-29T12:52:14.894Z</time></trkpt><trkpt lat="42.1583417" lon="14.5742133"><ele>179.33333333333334</ele><time>2026-04-29T12:52:15.894Z</time></trkpt><trkpt lat="42.1583117" lon="14.5743217"><ele>178.66666666666669</ele><time>2026-04-29T12:52:16.893Z</time></trkpt><trkpt lat="42.1582717" lon="14.5744217"><ele>178.0</ele><time>2026-04-29T12:52:17.894Z</time></trkpt><trkpt lat="42.158245" lon="14.5745117"><ele>179.0</ele><time>2026-04-29T12:52:18.894Z</time></trkpt><trkpt lat="42.1582183" lon="14.57459"><ele>180.0</ele><time>2026-04-29T12:52:19.893Z</time></trkpt><trkpt lat="42.1581767" lon="14.5747033"><ele>181.0</ele><time>2026-04-29T12:52:21.894Z</time></trkpt><trkpt lat="42.1581533" lon="14.574795"><ele>182.0</ele><time>2026-04-29T12:52:23.893Z</time></trkpt><trkpt lat="42.1581233" lon="14.574875"><ele>183.0</ele><time>2026-04-29T12:52:25.893Z</time></trkpt><trkpt lat="42.1581" lon="14.5749733"><ele>184.0</ele><time>2026-04-29T12:52:28.893Z</time></trkpt><trkpt lat="42.1580567" lon="14.5750633"><ele>184.0</ele><time>2026-04-29T12:52:31.894Z</time></trkpt><trkpt lat="42.1580217" lon="14.57515"><ele>184.0</ele><time>2026-04-29T12:52:34.894Z</time></trkpt><trkpt lat="42.1579917" lon="14.57524"><ele>184.0</ele><time>2026-04-29T12:52:37.894Z</time></trkpt><trkpt lat="42.15797" lon="14.57535"><ele>184.0</ele><time>2026-04-29T12:52:40.894Z</time></trkpt><trkpt lat="42.15794" lon="14.5754433"><ele>184.0</ele><time>2026-04-29T12:52:43.894Z</time></trkpt><trkpt lat="42.15791" lon="14.5755317"><ele>184.0</ele><time>2026-04-29T12:52:46.893Z</time></trkpt><trkpt lat="42.15788" lon="14.5756267"><ele>186.16666666666669</ele><time>2026-04-29T12:52:49.894Z</time></trkpt><trkpt lat="42.1578433" lon="14.5757133"><ele>188.33333333333334</ele><time>2026-04-29T12:52:52.893Z</time></trkpt><trkpt lat="42.1578133" lon="14.5757967"><ele>190.5</ele><time>2026-04-29T12:52:55.894Z</time></trkpt><trkpt lat="42.1577817" lon="14.575875"><ele>192.66666666666669</ele><time>2026-04-29T12:52:58.893Z</time></trkpt><trkpt lat="42.15775" lon="14.575975"><ele>194.83333333333334</ele><time>2026-04-29T12:53:01.894Z</time></trkpt><trkpt lat="42.157715" lon="14.5760883"><ele>197.0</ele><time>2026-04-29T12:53:04.893Z</time></trkpt><trkpt lat="42.1576633" lon="14.5761783"><ele>198.00000000000003</ele><time>2026-04-29T12:53:07.893Z</time></trkpt><trkpt lat="42.1576167" lon="14.57626"><ele>199.0</ele><time>2026-04-29T12:53:10.894Z</time></trkpt><trkpt lat="42.1575633" lon="14.5763317"><ele>200.0</ele><time>2026-04-29T12:53:13.894Z</time></trkpt><trkpt lat="42.1575117" lon="14.5764033"><ele>201.0</ele><time>2026-04-29T12:53:16.893Z</time></trkpt><trkpt lat="42.1574617" lon="14.5764833"><ele>202.00000000000003</ele><time>2026-04-29T12:53:19.894Z</time></trkpt><trkpt lat="42.1574083" lon="14.5765733"><ele>203.0</ele><time>2026-04-29T12:53:22.893Z</time></trkpt><trkpt lat="42.1573583" lon="14.5766433"><ele>203.60000000000002</ele><time>2026-04-29T12:53:25.894Z</time></trkpt><trkpt lat="42.1573033" lon="14.5767317"><ele>204.20000000000002</ele><time>2026-04-29T12:53:28.894Z</time></trkpt><trkpt lat="42.1572483" lon="14.57683"><ele>204.8</ele><time>2026-04-29T12:53:31.894Z</time></trkpt><trkpt lat="42.1571833" lon="14.5769133"><ele>205.4</ele><time>2026-04-29T12:53:34.894Z</time></trkpt><trkpt lat="42.1571267" lon="14.5770133"><ele>206.0</ele><time>2026-04-29T12:53:37.894Z</time></trkpt><trkpt lat="42.1570633" lon="14.577115"><ele>206.4</ele><time>2026-04-29T12:53:40.894Z</time></trkpt><trkpt lat="42.1570067" lon="14.5772133"><ele>206.8</ele><time>2026-04-29T12:53:43.893Z</time></trkpt><trkpt lat="42.156955" lon="14.5773217"><ele>207.20000000000002</ele><time>2026-04-29T12:53:46.894Z</time></trkpt><trkpt lat="42.156895" lon="14.5774267"><ele>207.60000000000002</ele><time>2026-04-29T12:53:49.894Z</time></trkpt><trkpt lat="42.156845" lon="14.5775367"><ele>208.0</ele><time>2026-04-29T12:53:52.894Z</time></trkpt><trkpt lat="42.1568033" lon="14.577615"><ele>207.99999999999997</ele><time>2026-04-29T12:53:54.894Z</time></trkpt><trkpt lat="42.1567567" lon="14.5776983"><ele>208.0</ele><time>2026-04-29T12:53:56.894Z</time></trkpt><trkpt lat="42.1567017" lon="14.5777817"><ele>208.0</ele><time>2026-04-29T12:53:58.894Z</time></trkpt><trkpt lat="42.1566533" lon="14.5778667"><ele>208.0</ele><time>2026-04-29T12:54:00.894Z</time></trkpt><trkpt lat="42.1566083" lon="14.5779617"><ele>207.99999999999997</ele><time>2026-04-29T12:54:02.894Z</time></trkpt><trkpt lat="42.1565417" lon="14.57804"><ele>208.0</ele><time>2026-04-29T12:54:04.893Z</time></trkpt><trkpt lat="42.1564717" lon="14.5781133"><ele>208.66666666666666</ele><time>2026-04-29T12:54:06.894Z</time></trkpt><trkpt lat="42.1563917" lon="14.5781883"><ele>209.33333333333331</ele><time>2026-04-29T12:54:08.893Z</time></trkpt><trkpt lat="42.1563183" lon="14.57826"><ele>210.0</ele><time>2026-04-29T12:54:10.894Z</time></trkpt><trkpt lat="42.1562617" lon="14.578335"><ele>210.66666666666669</ele><time>2026-04-29T12:54:12.893Z</time></trkpt><trkpt lat="42.1562133" lon="14.5784083"><ele>211.33333333333334</ele><time>2026-04-29T12:54:14.894Z</time></trkpt><trkpt lat="42.156155" lon="14.5784883"><ele>212.0</ele><time>2026-04-29T12:54:16.894Z</time></trkpt><trkpt lat="42.1560967" lon="14.5785883"><ele>211.2</ele><time>2026-04-29T12:54:18.894Z</time></trkpt><trkpt lat="42.1560367" lon="14.5786867"><ele>210.39999999999998</ele><time>2026-04-29T12:54:20.894Z</time></trkpt><trkpt lat="42.1559817" lon="14.5787967"><ele>209.60000000000002</ele><time>2026-04-29T12:54:22.893Z</time></trkpt><trkpt lat="42.1559183" lon="14.578905"><ele>208.8</ele><time>2026-04-29T12:54:24.894Z</time></trkpt><trkpt lat="42.1558567" lon="14.5790233"><ele>208.0</ele><time>2026-04-29T12:54:26.894Z</time></trkpt><trkpt lat="42.15579" lon="14.5791583"><ele>208.0</ele><time>2026-04-29T12:54:28.893Z</time></trkpt><trkpt lat="42.1557283" lon="14.5792933"><ele>208.0</ele><time>2026-04-29T12:54:30.893Z</time></trkpt><trkpt lat="42.155655" lon="14.57943"><ele>208.0</ele><time>2026-04-29T12:54:32.893Z</time></trkpt><trkpt lat="42.1555867" lon="14.5795633"><ele>208.0</ele><time>2026-04-29T12:54:34.894Z</time></trkpt><trkpt lat="42.1555117" lon="14.579695"><ele>207.57142857142856</ele><time>2026-04-29T12:54:36.893Z</time></trkpt><trkpt lat="42.1554667" lon="14.5797583"><ele>207.14285714285717</ele><time>2026-04-29T12:54:37.893Z</time></trkpt><trkpt lat="42.1554217" lon="14.5798217"><ele>206.71428571428572</ele><time>2026-04-29T12:54:38.894Z</time></trkpt><trkpt lat="42.1553733" lon="14.57988"><ele>206.28571428571428</ele><time>2026-04-29T12:54:39.893Z</time></trkpt><trkpt lat="42.1553183" lon="14.5799317"><ele>205.85714285714283</ele><time>2026-04-29T12:54:40.893Z</time></trkpt><trkpt lat="42.15526" lon="14.5799867"><ele>205.42857142857144</ele><time>2026-04-29T12:54:41.893Z</time></trkpt><trkpt lat="42.15521" lon="14.58004"><ele>205.0</ele><time>2026-04-29T12:54:42.894Z</time></trkpt><trkpt lat="42.1551017" lon="14.58013"><ele>205.0</ele><time>2026-04-29T12:54:44.894Z</time></trkpt><trkpt lat="42.15504" lon="14.5801667"><ele>205.0</ele><time>2026-04-29T12:54:45.893Z</time></trkpt><trkpt lat="42.1549783" lon="14.5802067"><ele>205.0</ele><time>2026-04-29T12:54:46.893Z</time></trkpt><trkpt lat="42.154915" lon="14.5802433"><ele>205.0</ele><time>2026-04-29T12:54:47.893Z</time></trkpt><trkpt lat="42.1548567" lon="14.5802767"><ele>205.0</ele><time>2026-04-29T12:54:48.894Z</time></trkpt><trkpt lat="42.1548017" lon="14.580325"><ele>205.0</ele><time>2026-04-29T12:54:49.893Z</time></trkpt><trkpt lat="42.15474" lon="14.5803717"><ele>205.0</ele><time>2026-04-29T12:54:50.893Z</time></trkpt><trkpt lat="42.1546833" lon="14.5804133"><ele>204.83333333333331</ele><time>2026-04-29T12:54:51.893Z</time></trkpt><trkpt lat="42.1545833" lon="14.5804833"><ele>204.66666666666666</ele><time>2026-04-29T12:54:53.894Z</time></trkpt><trkpt lat="42.1544983" lon="14.5805233"><ele>204.5</ele><time>2026-04-29T12:54:55.894Z</time></trkpt><trkpt lat="42.15442" lon="14.5805167"><ele>204.33333333333331</ele><time>2026-04-29T12:54:57.894Z</time></trkpt><trkpt lat="42.15437" lon="14.5804467"><ele>204.16666666666666</ele><time>2026-04-29T12:54:59.893Z</time></trkpt><trkpt lat="42.1543367" lon="14.5803633"><ele>204.0</ele><time>2026-04-29T12:55:01.894Z</time></trkpt><trkpt lat="42.154295" lon="14.5802783"><ele>204.83333333333334</ele><time>2026-04-29T12:55:03.894Z</time></trkpt><trkpt lat="42.154245" lon="14.5801817"><ele>205.66666666666669</ele><time>2026-04-29T12:55:05.893Z</time></trkpt><trkpt lat="42.154195" lon="14.5800933"><ele>206.5</ele><time>2026-04-29T12:55:07.894Z</time></trkpt><trkpt lat="42.154145" lon="14.58"><ele>207.33333333333334</ele><time>2026-04-29T12:55:09.894Z</time></trkpt><trkpt lat="42.154095" lon="14.5799033"><ele>208.16666666666669</ele><time>2026-04-29T12:55:11.894Z</time></trkpt><trkpt lat="42.1540417" lon="14.57981"><ele>209.0</ele><time>2026-04-29T12:55:13.894Z</time></trkpt><trkpt lat="42.1539917" lon="14.5797233"><ele>209.50000000000003</ele><time>2026-04-29T12:55:15.894Z</time></trkpt><trkpt lat="42.15395" lon="14.5796417"><ele>210.0</ele><time>2026-04-29T12:55:17.894Z</time></trkpt><trkpt lat="42.153905" lon="14.57955"><ele>210.5</ele><time>2026-04-29T12:55:19.893Z</time></trkpt><trkpt lat="42.1538617" lon="14.5794583"><ele>211.0</ele><time>2026-04-29T12:55:21.894Z</time></trkpt><trkpt lat="42.1538133" lon="14.57937"><ele>211.50000000000003</ele><time>2026-04-29T12:55:23.893Z</time></trkpt><trkpt lat="42.153765" lon="14.57928"><ele>212.0</ele><time>2026-04-29T12:55:25.894Z</time></trkpt><trkpt lat="42.1537217" lon="14.5791933"><ele>212.66666666666669</ele><time>2026-04-29T12:55:27.894Z</time></trkpt><trkpt lat="42.1536733" lon="14.5791"><ele>213.33333333333334</ele><time>2026-04-29T12:55:29.894Z</time></trkpt><trkpt lat="42.1536283" lon="14.57901"><ele>214.0</ele><time>2026-04-29T12:55:31.894Z</time></trkpt><trkpt lat="42.1535783" lon="14.5789233"><ele>214.66666666666669</ele><time>2026-04-29T12:55:33.894Z</time></trkpt><trkpt lat="42.1535233" lon="14.5788367"><ele>215.33333333333334</ele><time>2026-04-29T12:55:35.894Z</time></trkpt><trkpt lat="42.1534783" lon="14.5787467"><ele>216.0</ele><time>2026-04-29T12:55:37.893Z</time></trkpt><trkpt lat="42.1534283" lon="14.578665"><ele>216.16666666666666</ele><time>2026-04-29T12:55:39.894Z</time></trkpt><trkpt lat="42.1533767" lon="14.57859"><ele>216.33333333333331</ele><time>2026-04-29T12:55:41.894Z</time></trkpt><trkpt lat="42.1533017" lon="14.5785617"><ele>216.5</ele><time>2026-04-29T12:55:43.894Z</time></trkpt><trkpt lat="42.1532317" lon="14.578605"><ele>216.66666666666666</ele><time>2026-04-29T12:55:45.893Z</time></trkpt><trkpt lat="42.1531633" lon="14.5786633"><ele>216.83333333333331</ele><time>2026-04-29T12:55:47.894Z</time></trkpt><trkpt lat="42.1530833" lon="14.5787133"><ele>217.0</ele><time>2026-04-29T12:55:49.894Z</time></trkpt><trkpt lat="42.1530083" lon="14.5787683"><ele>216.49999999999997</ele><time>2026-04-29T12:55:51.894Z</time></trkpt><trkpt lat="42.152935" lon="14.5788167"><ele>216.0</ele><time>2026-04-29T12:55:53.893Z</time></trkpt><trkpt lat="42.15286" lon="14.5788717"><ele>215.5</ele><time>2026-04-29T12:55:55.894Z</time></trkpt><trkpt lat="42.1528033" lon="14.5789217"><ele>215.0</ele><time>2026-04-29T12:55:57.893Z</time></trkpt><trkpt lat="42.1527267" lon="14.578975"><ele>214.49999999999997</ele><time>2026-04-29T12:55:59.893Z</time></trkpt><trkpt lat="42.1526483" lon="14.5790317"><ele>214.0</ele><time>2026-04-29T12:56:01.894Z</time></trkpt><trkpt lat="42.1525517" lon="14.5791"><ele>214.0</ele><time>2026-04-29T12:56:03.894Z</time></trkpt><trkpt lat="42.1524583" lon="14.5791733"><ele>214.0</ele><time>2026-04-29T12:56:05.894Z</time></trkpt><trkpt lat="42.152365" lon="14.5792483"><ele>214.0</ele><time>2026-04-29T12:56:07.894Z</time></trkpt><trkpt lat="42.15226" lon="14.5793183"><ele>214.0</ele><time>2026-04-29T12:56:09.894Z</time></trkpt><trkpt lat="42.1521517" lon="14.5793917"><ele>212.25</ele><time>2026-04-29T12:56:11.894Z</time></trkpt><trkpt lat="42.1520533" lon="14.5794583"><ele>210.5</ele><time>2026-04-29T12:56:13.894Z</time></trkpt><trkpt lat="42.1519483" lon="14.5795417"><ele>208.75</ele><time>2026-04-29T12:56:15.894Z</time></trkpt><trkpt lat="42.15185" lon="14.5796267"><ele>207.0</ele><time>2026-04-29T12:56:17.893Z</time></trkpt><trkpt lat="42.1517583" lon="14.5796983"><ele>206.66666666666666</ele><time>2026-04-29T12:56:19.894Z</time></trkpt><trkpt lat="42.1516967" lon="14.5797617"><ele>206.33333333333331</ele><time>2026-04-29T12:56:21.893Z</time></trkpt><trkpt lat="42.1516233" lon="14.5798067"><ele>206.0</ele><time>2026-04-29T12:56:25.894Z</time></trkpt><trkpt lat="42.1515717" lon="14.5798667"><ele>205.66666666666666</ele><time>2026-04-29T12:56:28.894Z</time></trkpt><trkpt lat="42.1515333" lon="14.57998"><ele>205.33333333333331</ele><time>2026-04-29T12:56:30.893Z</time></trkpt><trkpt lat="42.1514883" lon="14.58011"><ele>205.0</ele><time>2026-04-29T12:56:32.894Z</time></trkpt><trkpt lat="42.1514317" lon="14.5801683"><ele>205.57142857142858</ele><time>2026-04-29T12:56:34.894Z</time></trkpt><trkpt lat="42.1513617" lon="14.5801567"><ele>206.14285714285714</ele><time>2026-04-29T12:56:36.893Z</time></trkpt><trkpt lat="42.1512883" lon="14.5801633"><ele>206.71428571428572</ele><time>2026-04-29T12:56:38.894Z</time></trkpt><trkpt lat="42.1512167" lon="14.58017"><ele>207.28571428571428</ele><time>2026-04-29T12:56:40.894Z</time></trkpt><trkpt lat="42.1511383" lon="14.5801717"><ele>207.85714285714283</ele><time>2026-04-29T12:56:42.893Z</time></trkpt><trkpt lat="42.15107" lon="14.58016"><ele>208.42857142857142</ele><time>2026-04-29T12:56:44.894Z</time></trkpt><trkpt lat="42.1509917" lon="14.5801567"><ele>209.0</ele><time>2026-04-29T12:56:46.893Z</time></trkpt><trkpt lat="42.1509033" lon="14.5801533"><ele>209.00000000000003</ele><time>2026-04-29T12:56:48.893Z</time></trkpt><trkpt lat="42.1508067" lon="14.580165"><ele>209.0</ele><time>2026-04-29T12:56:50.894Z</time></trkpt><trkpt lat="42.1507217" lon="14.58017"><ele>209.0</ele><time>2026-04-29T12:56:52.893Z</time></trkpt><trkpt lat="42.15064" lon="14.58017"><ele>209.0</ele><time>2026-04-29T12:56:54.894Z</time></trkpt><trkpt lat="42.1505533" lon="14.58017"><ele>209.00000000000003</ele><time>2026-04-29T12:56:56.893Z</time></trkpt><trkpt lat="42.1504817" lon="14.580165"><ele>209.0</ele><time>2026-04-29T12:56:58.894Z</time></trkpt><trkpt lat="42.1503817" lon="14.580165"><ele>209.66666666666669</ele><time>2026-04-29T12:57:01.893Z</time></trkpt><trkpt lat="42.1503167" lon="14.5801817"><ele>210.33333333333334</ele><time>2026-04-29T12:57:03.893Z</time></trkpt><trkpt lat="42.1502467" lon="14.5802017"><ele>211.0</ele><time>2026-04-29T12:57:06.894Z</time></trkpt><trkpt lat="42.150175" lon="14.5802667"><ele>211.66666666666669</ele><time>2026-04-29T12:57:11.893Z</time></trkpt><trkpt lat="42.1501217" lon="14.5803317"><ele>212.33333333333334</ele><time>2026-04-29T12:57:13.893Z</time></trkpt><trkpt lat="42.1500983" lon="14.5804383"><ele>213.0</ele><time>2026-04-29T12:57:15.893Z</time></trkpt><trkpt lat="42.1500733" lon="14.5805667"><ele>213.0</ele><time>2026-04-29T12:57:17.893Z</time></trkpt><trkpt lat="42.1500583" lon="14.58069"><ele>213.0</ele><time>2026-04-29T12:57:19.894Z</time></trkpt><trkpt lat="42.150055" lon="14.58081"><ele>213.0</ele><time>2026-04-29T12:57:21.894Z</time></trkpt><trkpt lat="42.15003" lon="14.5809317"><ele>213.0</ele><time>2026-04-29T12:57:23.894Z</time></trkpt><trkpt lat="42.1500217" lon="14.58103"><ele>213.0</ele><time>2026-04-29T12:57:26.893Z</time></trkpt><trkpt lat="42.1499967" lon="14.5811167"><ele>213.0</ele><time>2026-04-29T12:57:29.894Z</time></trkpt><trkpt lat="42.1499267" lon="14.5811683"><ele>212.5</ele><time>2026-04-29T12:57:31.894Z</time></trkpt><trkpt lat="42.1498433" lon="14.5812117"><ele>212.0</ele><time>2026-04-29T12:57:33.894Z</time></trkpt><trkpt lat="42.1497683" lon="14.5812467"><ele>211.5</ele><time>2026-04-29T12:57:35.894Z</time></trkpt><trkpt lat="42.1497017" lon="14.58132"><ele>211.0</ele><time>2026-04-29T12:57:37.893Z</time></trkpt><trkpt lat="42.1496567" lon="14.581395"><ele>210.5</ele><time>2026-04-29T12:57:39.894Z</time></trkpt><trkpt lat="42.1496583" lon="14.581525"><ele>210.0</ele><time>2026-04-29T12:57:41.892Z</time></trkpt><trkpt lat="42.1496417" lon="14.5816383"><ele>210.0</ele><time>2026-04-29T12:57:43.893Z</time></trkpt><trkpt lat="42.149625" lon="14.581765"><ele>210.0</ele><time>2026-04-29T12:57:45.893Z</time></trkpt><trkpt lat="42.1496117" lon="14.5819167"><ele>210.0</ele><time>2026-04-29T12:57:47.893Z</time></trkpt><trkpt lat="42.1496033" lon="14.5820683"><ele>210.0</ele><time>2026-04-29T12:57:49.893Z</time></trkpt><trkpt lat="42.149605" lon="14.5822117"><ele>210.0</ele><time>2026-04-29T12:57:51.892Z</time></trkpt><trkpt lat="42.14959" lon="14.5823383"><ele>208.71428571428572</ele><time>2026-04-29T12:57:53.893Z</time></trkpt><trkpt lat="42.1495667" lon="14.5824233"><ele>207.42857142857144</ele><time>2026-04-29T12:57:55.892Z</time></trkpt><trkpt lat="42.14963" lon="14.5824717"><ele>206.14285714285714</ele><time>2026-04-29T12:57:58.893Z</time></trkpt><trkpt lat="42.149685" lon="14.5825133"><ele>204.85714285714286</ele><time>2026-04-29T12:58:02.893Z</time></trkpt><trkpt lat="42.14968" lon="14.582625"><ele>203.57142857142858</ele><time>2026-04-29T12:58:05.893Z</time></trkpt><trkpt lat="42.1496783" lon="14.58271"><ele>202.28571428571428</ele><time>2026-04-29T12:58:07.892Z</time></trkpt><trkpt lat="42.1496683" lon="14.58281"><ele>201.0</ele><time>2026-04-29T12:58:11.893Z</time></trkpt><trkpt lat="42.1496783" lon="14.5829"><ele>199.83333333333334</ele><time>2026-04-29T12:58:13.892Z</time></trkpt><trkpt lat="42.1496933" lon="14.5830233"><ele>198.66666666666669</ele><time>2026-04-29T12:58:16.893Z</time></trkpt><trkpt lat="42.1497383" lon="14.5831"><ele>197.5</ele><time>2026-04-29T12:58:18.893Z</time></trkpt><trkpt lat="42.1497833" lon="14.583165"><ele>196.33333333333334</ele><time>2026-04-29T12:58:20.893Z</time></trkpt><trkpt lat="42.1498233" lon="14.5833367"><ele>195.16666666666669</ele><time>2026-04-29T12:58:23.893Z</time></trkpt><trkpt lat="42.149855" lon="14.58342"><ele>194.0</ele><time>2026-04-29T12:58:25.893Z</time></trkpt><trkpt lat="42.14994" lon="14.5834967"><ele>196.50000000000003</ele><time>2026-04-29T12:58:28.892Z</time></trkpt><trkpt lat="42.1500183" lon="14.583565"><ele>199.0</ele><time>2026-04-29T12:58:30.892Z</time></trkpt><trkpt lat="42.1501017" lon="14.58365"><ele>201.5</ele><time>2026-04-29T12:58:32.892Z</time></trkpt><trkpt lat="42.1501617" lon="14.5837333"><ele>204.0</ele><time>2026-04-29T12:58:34.892Z</time></trkpt><trkpt lat="42.1502133" lon="14.5838117"><ele>206.50000000000003</ele><time>2026-04-29T12:58:36.893Z</time></trkpt><trkpt lat="42.1502833" lon="14.5838683"><ele>209.0</ele><time>2026-04-29T12:58:38.893Z</time></trkpt><trkpt lat="42.15035" lon="14.583935"><ele>209.16666666666669</ele><time>2026-04-29T12:58:40.892Z</time></trkpt><trkpt lat="42.1504017" lon="14.5840117"><ele>209.33333333333334</ele><time>2026-04-29T12:58:42.892Z</time></trkpt><trkpt lat="42.1504317" lon="14.5840983"><ele>209.5</ele><time>2026-04-29T12:58:44.892Z</time></trkpt><trkpt lat="42.1503483" lon="14.5841833"><ele>209.66666666666669</ele><time>2026-04-29T12:59:32.892Z</time></trkpt><trkpt lat="42.1503417" lon="14.584285"><ele>209.83333333333334</ele><time>2026-04-29T12:59:37.893Z</time></trkpt><trkpt lat="42.150365" lon="14.58439"><ele>210.0</ele><time>2026-04-29T12:59:40.892Z</time></trkpt><trkpt lat="42.15041" lon="14.584455"><ele>209.16666666666666</ele><time>2026-04-29T12:59:42.892Z</time></trkpt><trkpt lat="42.150465" lon="14.5845233"><ele>208.33333333333331</ele><time>2026-04-29T12:59:43.893Z</time></trkpt><trkpt lat="42.150505" lon="14.584605"><ele>207.5</ele><time>2026-04-29T12:59:45.892Z</time></trkpt><trkpt lat="42.1505" lon="14.5847083"><ele>206.66666666666666</ele><time>2026-04-29T12:59:47.893Z</time></trkpt><trkpt lat="42.1504533" lon="14.5848233"><ele>205.83333333333331</ele><time>2026-04-29T12:59:50.892Z</time></trkpt><trkpt lat="42.1504333" lon="14.5849333"><ele>205.0</ele><time>2026-04-29T12:59:52.893Z</time></trkpt><trkpt lat="42.1503817" lon="14.5850267"><ele>204.99999999999997</ele><time>2026-04-29T12:59:55.892Z</time></trkpt><trkpt lat="42.150315" lon="14.5850833"><ele>205.0</ele><time>2026-04-29T12:59:57.893Z</time></trkpt><trkpt lat="42.1502433" lon="14.5851233"><ele>205.0</ele><time>2026-04-29T12:59:59.893Z</time></trkpt><trkpt lat="42.150165" lon="14.585155"><ele>205.0</ele><time>2026-04-29T13:00:01.893Z</time></trkpt><trkpt lat="42.150085" lon="14.58518"><ele>204.99999999999997</ele><time>2026-04-29T13:00:03.893Z</time></trkpt><trkpt lat="42.1500133" lon="14.5853033"><ele>205.0</ele><time>2026-04-29T13:00:25.893Z</time></trkpt><trkpt lat="42.1499617" lon="14.5853733"><ele>195.0</ele><time>2026-04-29T13:01:40.892Z</time></trkpt><trkpt lat="42.14999" lon="14.5852783"><ele>205.0</ele><time>2026-04-29T13:02:33.393Z</time></trkpt></trkseg></trk></gpx>